<?xml version="1.0" encoding="UTF-8" standalone="no" ?>
<gpx xmlns="http://www.topografix.com/GPX/1/1" xmlns:xsi="http://www.w3.org/2001/XMLSchema-instance" xsi:schemaLocation="http://www.topografix.com/GPX/1/1 http://www.topografix.com/GPX/1/1/gpx.xsd" version="1.1" creator="VisuGPX - https://www.visugpx.com">
  <metadata>
    <name>Rando Pique-nique matin</name>
    <desc><![CDATA[Randonnée du matin
US-CERGY-CYCLO]]></desc>
  </metadata>
  <trk>
    <name><![CDATA[20130526_Saint_Clair_47]]></name>
    <trkseg>
      <trkpt lat="49.2141" lon="1.6988">
        <ele>60.7</ele>
        <time>2013-05-26T06:22:34Z</time>
      </trkpt>
      <trkpt lat="49.2141" lon="1.6988">
        <ele>60.7</ele>
        <time>2013-05-26T06:22:35Z</time>
      </trkpt>
      <trkpt lat="49.21414" lon="1.69888">
        <ele>63.58</ele>
        <time>2013-05-26T06:22:40Z</time>
      </trkpt>
      <trkpt lat="49.21415" lon="1.69889">
        <ele>63.58</ele>
        <time>2013-05-26T06:22:41Z</time>
      </trkpt>
      <trkpt lat="49.21416" lon="1.69889">
        <ele>67.91</ele>
        <time>2013-05-26T06:22:44Z</time>
      </trkpt>
      <trkpt lat="49.21417" lon="1.69889">
        <ele>68.39</ele>
        <time>2013-05-26T06:22:46Z</time>
      </trkpt>
      <trkpt lat="49.21418" lon="1.69889">
        <ele>72.24</ele>
        <time>2013-05-26T06:22:49Z</time>
      </trkpt>
      <trkpt lat="49.21418" lon="1.69889">
        <ele>74.16</ele>
        <time>2013-05-26T06:22:51Z</time>
      </trkpt>
      <trkpt lat="49.21417" lon="1.69891">
        <ele>77.04</ele>
        <time>2013-05-26T06:22:55Z</time>
      </trkpt>
      <trkpt lat="49.21418" lon="1.6989">
        <ele>78</ele>
        <time>2013-05-26T06:22:57Z</time>
      </trkpt>
      <trkpt lat="49.21418" lon="1.6989">
        <ele>80.89</ele>
        <time>2013-05-26T06:23:00Z</time>
      </trkpt>
      <trkpt lat="49.21417" lon="1.69889">
        <ele>84.25</ele>
        <time>2013-05-26T06:23:04Z</time>
      </trkpt>
      <trkpt lat="49.21417" lon="1.69889">
        <ele>84.25</ele>
        <time>2013-05-26T06:23:05Z</time>
      </trkpt>
      <trkpt lat="49.21416" lon="1.69889">
        <ele>88.58</ele>
        <time>2013-05-26T06:23:10Z</time>
      </trkpt>
      <trkpt lat="49.21416" lon="1.69891">
        <ele>93.39</ele>
        <time>2013-05-26T06:23:18Z</time>
      </trkpt>
      <trkpt lat="49.21417" lon="1.69891">
        <ele>92.9</ele>
        <time>2013-05-26T06:23:19Z</time>
      </trkpt>
      <trkpt lat="49.21418" lon="1.69889">
        <ele>94.83</ele>
        <time>2013-05-26T06:23:24Z</time>
      </trkpt>
      <trkpt lat="49.21419" lon="1.6989">
        <ele>98.19</ele>
        <time>2013-05-26T06:23:33Z</time>
      </trkpt>
      <trkpt lat="49.21419" lon="1.6989">
        <ele>98.19</ele>
        <time>2013-05-26T06:23:34Z</time>
      </trkpt>
      <trkpt lat="49.21417" lon="1.69887">
        <ele>101.08</ele>
        <time>2013-05-26T06:23:46Z</time>
      </trkpt>
      <trkpt lat="49.21417" lon="1.69889">
        <ele>103.96</ele>
        <time>2013-05-26T06:24:05Z</time>
      </trkpt>
      <trkpt lat="49.21417" lon="1.69889">
        <ele>107.32</ele>
        <time>2013-05-26T06:24:33Z</time>
      </trkpt>
      <trkpt lat="49.2142" lon="1.69891">
        <ele>108.29</ele>
        <time>2013-05-26T06:24:47Z</time>
      </trkpt>
      <trkpt lat="49.2142" lon="1.69891">
        <ele>107.32</ele>
        <time>2013-05-26T06:24:59Z</time>
      </trkpt>
      <trkpt lat="49.2142" lon="1.69891">
        <ele>108.29</ele>
        <time>2013-05-26T06:25:25Z</time>
      </trkpt>
      <trkpt lat="49.21421" lon="1.69892">
        <ele>108.29</ele>
        <time>2013-05-26T06:25:40Z</time>
      </trkpt>
      <trkpt lat="49.21421" lon="1.69893">
        <ele>107.81</ele>
        <time>2013-05-26T06:26:11Z</time>
      </trkpt>
      <trkpt lat="49.2142" lon="1.69894">
        <ele>108.29</ele>
        <time>2013-05-26T06:26:41Z</time>
      </trkpt>
      <trkpt lat="49.2142" lon="1.69893">
        <ele>108.29</ele>
        <time>2013-05-26T06:27:13Z</time>
      </trkpt>
      <trkpt lat="49.2142" lon="1.69893">
        <ele>107.81</ele>
        <time>2013-05-26T06:27:19Z</time>
      </trkpt>
      <trkpt lat="49.21419" lon="1.69898">
        <ele>108.77</ele>
        <time>2013-05-26T06:27:26Z</time>
      </trkpt>
      <trkpt lat="49.21413" lon="1.69911">
        <ele>107.81</ele>
        <time>2013-05-26T06:27:34Z</time>
      </trkpt>
      <trkpt lat="49.2141" lon="1.69912">
        <ele>108.29</ele>
        <time>2013-05-26T06:27:44Z</time>
      </trkpt>
      <trkpt lat="49.21419" lon="1.69898">
        <ele>107.81</ele>
        <time>2013-05-26T06:27:52Z</time>
      </trkpt>
      <trkpt lat="49.21419" lon="1.69896">
        <ele>108.29</ele>
        <time>2013-05-26T06:28:03Z</time>
      </trkpt>
      <trkpt lat="49.21419" lon="1.69896">
        <ele>108.29</ele>
        <time>2013-05-26T06:28:21Z</time>
      </trkpt>
      <trkpt lat="49.21419" lon="1.69896">
        <ele>107.81</ele>
        <time>2013-05-26T06:28:47Z</time>
      </trkpt>
      <trkpt lat="49.21419" lon="1.69896">
        <ele>108.77</ele>
        <time>2013-05-26T06:28:51Z</time>
      </trkpt>
      <trkpt lat="49.21408" lon="1.69917">
        <ele>107.81</ele>
        <time>2013-05-26T06:28:59Z</time>
      </trkpt>
      <trkpt lat="49.21393" lon="1.69936">
        <ele>107.81</ele>
        <time>2013-05-26T06:29:04Z</time>
      </trkpt>
      <trkpt lat="49.2139" lon="1.69941">
        <ele>107.81</ele>
        <time>2013-05-26T06:29:05Z</time>
      </trkpt>
      <trkpt lat="49.2133" lon="1.70023">
        <ele>107.81</ele>
        <time>2013-05-26T06:29:23Z</time>
      </trkpt>
      <trkpt lat="49.21271" lon="1.70105">
        <ele>106.84</ele>
        <time>2013-05-26T06:29:41Z</time>
      </trkpt>
      <trkpt lat="49.21252" lon="1.70131">
        <ele>106.84</ele>
        <time>2013-05-26T06:29:47Z</time>
      </trkpt>
      <trkpt lat="49.21209" lon="1.70189">
        <ele>105.88</ele>
        <time>2013-05-26T06:29:59Z</time>
      </trkpt>
      <trkpt lat="49.212" lon="1.70196">
        <ele>105.88</ele>
        <time>2013-05-26T06:30:01Z</time>
      </trkpt>
      <trkpt lat="49.21121" lon="1.70231">
        <ele>105.4</ele>
        <time>2013-05-26T06:30:19Z</time>
      </trkpt>
      <trkpt lat="49.21079" lon="1.70257">
        <ele>105.4</ele>
        <time>2013-05-26T06:30:31Z</time>
      </trkpt>
      <trkpt lat="49.21078" lon="1.70263">
        <ele>105.4</ele>
        <time>2013-05-26T06:30:32Z</time>
      </trkpt>
      <trkpt lat="49.21078" lon="1.7027">
        <ele>105.4</ele>
        <time>2013-05-26T06:30:33Z</time>
      </trkpt>
      <trkpt lat="49.21079" lon="1.70276">
        <ele>105.4</ele>
        <time>2013-05-26T06:30:34Z</time>
      </trkpt>
      <trkpt lat="49.2108" lon="1.70282">
        <ele>105.4</ele>
        <time>2013-05-26T06:30:35Z</time>
      </trkpt>
      <trkpt lat="49.21104" lon="1.70408">
        <ele>106.36</ele>
        <time>2013-05-26T06:30:53Z</time>
      </trkpt>
      <trkpt lat="49.21123" lon="1.70546">
        <ele>105.88</ele>
        <time>2013-05-26T06:31:11Z</time>
      </trkpt>
      <trkpt lat="49.21158" lon="1.70676">
        <ele>106.84</ele>
        <time>2013-05-26T06:31:28Z</time>
      </trkpt>
      <trkpt lat="49.212" lon="1.7078">
        <ele>107.32</ele>
        <time>2013-05-26T06:31:43Z</time>
      </trkpt>
      <trkpt lat="49.21244" lon="1.70879">
        <ele>109.25</ele>
        <time>2013-05-26T06:31:58Z</time>
      </trkpt>
      <trkpt lat="49.21321" lon="1.70963">
        <ele>108.77</ele>
        <time>2013-05-26T06:32:15Z</time>
      </trkpt>
      <trkpt lat="49.21368" lon="1.71011">
        <ele>108.77</ele>
        <time>2013-05-26T06:32:27Z</time>
      </trkpt>
      <trkpt lat="49.21369" lon="1.71015">
        <ele>108.77</ele>
        <time>2013-05-26T06:32:33Z</time>
      </trkpt>
      <trkpt lat="49.2137" lon="1.71017">
        <ele>108.77</ele>
        <time>2013-05-26T06:32:34Z</time>
      </trkpt>
      <trkpt lat="49.21374" lon="1.71026">
        <ele>109.25</ele>
        <time>2013-05-26T06:32:39Z</time>
      </trkpt>
      <trkpt lat="49.21373" lon="1.71027">
        <ele>109.25</ele>
        <time>2013-05-26T06:32:40Z</time>
      </trkpt>
      <trkpt lat="49.21372" lon="1.71026">
        <ele>109.25</ele>
        <time>2013-05-26T06:32:41Z</time>
      </trkpt>
      <trkpt lat="49.21371" lon="1.71023">
        <ele>109.25</ele>
        <time>2013-05-26T06:32:42Z</time>
      </trkpt>
      <trkpt lat="49.2137" lon="1.71021">
        <ele>109.25</ele>
        <time>2013-05-26T06:32:43Z</time>
      </trkpt>
      <trkpt lat="49.2137" lon="1.71018">
        <ele>108.77</ele>
        <time>2013-05-26T06:32:44Z</time>
      </trkpt>
      <trkpt lat="49.21368" lon="1.71015">
        <ele>108.77</ele>
        <time>2013-05-26T06:32:45Z</time>
      </trkpt>
      <trkpt lat="49.21369" lon="1.71012">
        <ele>108.77</ele>
        <time>2013-05-26T06:32:46Z</time>
      </trkpt>
      <trkpt lat="49.2137" lon="1.7101">
        <ele>109.25</ele>
        <time>2013-05-26T06:32:47Z</time>
      </trkpt>
      <trkpt lat="49.21373" lon="1.71011">
        <ele>108.29</ele>
        <time>2013-05-26T06:32:48Z</time>
      </trkpt>
      <trkpt lat="49.21376" lon="1.71013">
        <ele>107.32</ele>
        <time>2013-05-26T06:32:49Z</time>
      </trkpt>
      <trkpt lat="49.21391" lon="1.71027">
        <ele>106.36</ele>
        <time>2013-05-26T06:32:53Z</time>
      </trkpt>
      <trkpt lat="49.21412" lon="1.71039">
        <ele>104.92</ele>
        <time>2013-05-26T06:32:57Z</time>
      </trkpt>
      <trkpt lat="49.21417" lon="1.71037">
        <ele>104.44</ele>
        <time>2013-05-26T06:32:58Z</time>
      </trkpt>
      <trkpt lat="49.21423" lon="1.71034">
        <ele>103.48</ele>
        <time>2013-05-26T06:32:59Z</time>
      </trkpt>
      <trkpt lat="49.21428" lon="1.71028">
        <ele>103</ele>
        <time>2013-05-26T06:33:00Z</time>
      </trkpt>
      <trkpt lat="49.21433" lon="1.7102">
        <ele>102.04</ele>
        <time>2013-05-26T06:33:01Z</time>
      </trkpt>
      <trkpt lat="49.21438" lon="1.71012">
        <ele>101.56</ele>
        <time>2013-05-26T06:33:02Z</time>
      </trkpt>
      <trkpt lat="49.2146" lon="1.70975">
        <ele>99.63</ele>
        <time>2013-05-26T06:33:07Z</time>
      </trkpt>
      <trkpt lat="49.21464" lon="1.70971">
        <ele>100.11</ele>
        <time>2013-05-26T06:33:08Z</time>
      </trkpt>
      <trkpt lat="49.21469" lon="1.70969">
        <ele>99.63</ele>
        <time>2013-05-26T06:33:09Z</time>
      </trkpt>
      <trkpt lat="49.21473" lon="1.70969">
        <ele>98.67</ele>
        <time>2013-05-26T06:33:10Z</time>
      </trkpt>
      <trkpt lat="49.21478" lon="1.7097">
        <ele>99.15</ele>
        <time>2013-05-26T06:33:11Z</time>
      </trkpt>
      <trkpt lat="49.21483" lon="1.70974">
        <ele>98.19</ele>
        <time>2013-05-26T06:33:12Z</time>
      </trkpt>
      <trkpt lat="49.21487" lon="1.70979">
        <ele>98.67</ele>
        <time>2013-05-26T06:33:13Z</time>
      </trkpt>
      <trkpt lat="49.21491" lon="1.70985">
        <ele>98.67</ele>
        <time>2013-05-26T06:33:14Z</time>
      </trkpt>
      <trkpt lat="49.21495" lon="1.70992">
        <ele>97.71</ele>
        <time>2013-05-26T06:33:15Z</time>
      </trkpt>
      <trkpt lat="49.21498" lon="1.70999">
        <ele>98.19</ele>
        <time>2013-05-26T06:33:16Z</time>
      </trkpt>
      <trkpt lat="49.21554" lon="1.71109">
        <ele>95.79</ele>
        <time>2013-05-26T06:33:32Z</time>
      </trkpt>
      <trkpt lat="49.21606" lon="1.71208">
        <ele>92.9</ele>
        <time>2013-05-26T06:33:47Z</time>
      </trkpt>
      <trkpt lat="49.21662" lon="1.7129">
        <ele>89.06</ele>
        <time>2013-05-26T06:34:00Z</time>
      </trkpt>
      <trkpt lat="49.21714" lon="1.71359">
        <ele>88.58</ele>
        <time>2013-05-26T06:34:13Z</time>
      </trkpt>
      <trkpt lat="49.21782" lon="1.7141">
        <ele>86.66</ele>
        <time>2013-05-26T06:34:28Z</time>
      </trkpt>
      <trkpt lat="49.21854" lon="1.71449">
        <ele>83.77</ele>
        <time>2013-05-26T06:34:43Z</time>
      </trkpt>
      <trkpt lat="49.21926" lon="1.71489">
        <ele>80.89</ele>
        <time>2013-05-26T06:34:57Z</time>
      </trkpt>
      <trkpt lat="49.22008" lon="1.71537">
        <ele>79.45</ele>
        <time>2013-05-26T06:35:14Z</time>
      </trkpt>
      <trkpt lat="49.22082" lon="1.71592">
        <ele>75.6</ele>
        <time>2013-05-26T06:35:29Z</time>
      </trkpt>
      <trkpt lat="49.2215" lon="1.71642">
        <ele>73.68</ele>
        <time>2013-05-26T06:35:45Z</time>
      </trkpt>
      <trkpt lat="49.22164" lon="1.71654">
        <ele>73.2</ele>
        <time>2013-05-26T06:35:55Z</time>
      </trkpt>
      <trkpt lat="49.22165" lon="1.71655">
        <ele>72.72</ele>
        <time>2013-05-26T06:36:17Z</time>
      </trkpt>
      <trkpt lat="49.22169" lon="1.71659">
        <ele>72.24</ele>
        <time>2013-05-26T06:36:42Z</time>
      </trkpt>
      <trkpt lat="49.22171" lon="1.71659">
        <ele>72.24</ele>
        <time>2013-05-26T06:37:08Z</time>
      </trkpt>
      <trkpt lat="49.22172" lon="1.71658">
        <ele>71.76</ele>
        <time>2013-05-26T06:37:09Z</time>
      </trkpt>
      <trkpt lat="49.22174" lon="1.71656">
        <ele>71.76</ele>
        <time>2013-05-26T06:37:10Z</time>
      </trkpt>
      <trkpt lat="49.22177" lon="1.71655">
        <ele>71.76</ele>
        <time>2013-05-26T06:37:11Z</time>
      </trkpt>
      <trkpt lat="49.22179" lon="1.71654">
        <ele>71.76</ele>
        <time>2013-05-26T06:37:12Z</time>
      </trkpt>
      <trkpt lat="49.22205" lon="1.71649">
        <ele>70.31</ele>
        <time>2013-05-26T06:37:19Z</time>
      </trkpt>
      <trkpt lat="49.2221" lon="1.7165">
        <ele>70.31</ele>
        <time>2013-05-26T06:37:20Z</time>
      </trkpt>
      <trkpt lat="49.22256" lon="1.71669">
        <ele>67.43</ele>
        <time>2013-05-26T06:37:29Z</time>
      </trkpt>
      <trkpt lat="49.22296" lon="1.71687">
        <ele>66.95</ele>
        <time>2013-05-26T06:37:39Z</time>
      </trkpt>
      <trkpt lat="49.22298" lon="1.71691">
        <ele>65.99</ele>
        <time>2013-05-26T06:37:40Z</time>
      </trkpt>
      <trkpt lat="49.22299" lon="1.71695">
        <ele>66.47</ele>
        <time>2013-05-26T06:37:41Z</time>
      </trkpt>
      <trkpt lat="49.22299" lon="1.71699">
        <ele>65.99</ele>
        <time>2013-05-26T06:37:42Z</time>
      </trkpt>
      <trkpt lat="49.22299" lon="1.71704">
        <ele>66.47</ele>
        <time>2013-05-26T06:37:43Z</time>
      </trkpt>
      <trkpt lat="49.22307" lon="1.71732">
        <ele>65.99</ele>
        <time>2013-05-26T06:37:48Z</time>
      </trkpt>
      <trkpt lat="49.2231" lon="1.71736">
        <ele>65.99</ele>
        <time>2013-05-26T06:37:49Z</time>
      </trkpt>
      <trkpt lat="49.22313" lon="1.7174">
        <ele>65.99</ele>
        <time>2013-05-26T06:37:50Z</time>
      </trkpt>
      <trkpt lat="49.22352" lon="1.71763">
        <ele>66.95</ele>
        <time>2013-05-26T06:38:03Z</time>
      </trkpt>
      <trkpt lat="49.22378" lon="1.71777">
        <ele>68.39</ele>
        <time>2013-05-26T06:38:12Z</time>
      </trkpt>
      <trkpt lat="49.224" lon="1.71791">
        <ele>69.83</ele>
        <time>2013-05-26T06:38:20Z</time>
      </trkpt>
      <trkpt lat="49.22403" lon="1.71792">
        <ele>70.31</ele>
        <time>2013-05-26T06:38:21Z</time>
      </trkpt>
      <trkpt lat="49.22405" lon="1.71793">
        <ele>70.31</ele>
        <time>2013-05-26T06:38:22Z</time>
      </trkpt>
      <trkpt lat="49.22408" lon="1.71794">
        <ele>70.31</ele>
        <time>2013-05-26T06:38:23Z</time>
      </trkpt>
      <trkpt lat="49.2241" lon="1.71795">
        <ele>70.79</ele>
        <time>2013-05-26T06:38:24Z</time>
      </trkpt>
      <trkpt lat="49.22413" lon="1.71796">
        <ele>70.31</ele>
        <time>2013-05-26T06:38:25Z</time>
      </trkpt>
      <trkpt lat="49.22436" lon="1.71806">
        <ele>73.68</ele>
        <time>2013-05-26T06:38:35Z</time>
      </trkpt>
      <trkpt lat="49.22439" lon="1.71807">
        <ele>73.68</ele>
        <time>2013-05-26T06:38:36Z</time>
      </trkpt>
      <trkpt lat="49.22458" lon="1.7182">
        <ele>77.04</ele>
        <time>2013-05-26T06:38:47Z</time>
      </trkpt>
      <trkpt lat="49.22472" lon="1.7183">
        <ele>78.48</ele>
        <time>2013-05-26T06:38:55Z</time>
      </trkpt>
      <trkpt lat="49.22505" lon="1.71841">
        <ele>81.37</ele>
        <time>2013-05-26T06:39:07Z</time>
      </trkpt>
      <trkpt lat="49.22546" lon="1.71848">
        <ele>81.37</ele>
        <time>2013-05-26T06:39:20Z</time>
      </trkpt>
      <trkpt lat="49.22587" lon="1.7186">
        <ele>80.89</ele>
        <time>2013-05-26T06:39:32Z</time>
      </trkpt>
      <trkpt lat="49.22645" lon="1.719">
        <ele>81.37</ele>
        <time>2013-05-26T06:39:47Z</time>
      </trkpt>
      <trkpt lat="49.22683" lon="1.7193">
        <ele>81.37</ele>
        <time>2013-05-26T06:40:00Z</time>
      </trkpt>
      <trkpt lat="49.22722" lon="1.71964">
        <ele>82.33</ele>
        <time>2013-05-26T06:40:13Z</time>
      </trkpt>
      <trkpt lat="49.2276" lon="1.72023">
        <ele>82.81</ele>
        <time>2013-05-26T06:40:30Z</time>
      </trkpt>
      <trkpt lat="49.22795" lon="1.72092">
        <ele>83.29</ele>
        <time>2013-05-26T06:40:47Z</time>
      </trkpt>
      <trkpt lat="49.22839" lon="1.72182">
        <ele>79.93</ele>
        <time>2013-05-26T06:41:06Z</time>
      </trkpt>
      <trkpt lat="49.22876" lon="1.72262">
        <ele>78.48</ele>
        <time>2013-05-26T06:41:20Z</time>
      </trkpt>
      <trkpt lat="49.22909" lon="1.72333">
        <ele>78</ele>
        <time>2013-05-26T06:41:33Z</time>
      </trkpt>
      <trkpt lat="49.22929" lon="1.72374">
        <ele>81.37</ele>
        <time>2013-05-26T06:41:44Z</time>
      </trkpt>
      <trkpt lat="49.22949" lon="1.72407">
        <ele>84.25</ele>
        <time>2013-05-26T06:41:55Z</time>
      </trkpt>
      <trkpt lat="49.22964" lon="1.72431">
        <ele>87.62</ele>
        <time>2013-05-26T06:42:06Z</time>
      </trkpt>
      <trkpt lat="49.22969" lon="1.7244">
        <ele>89.06</ele>
        <time>2013-05-26T06:42:10Z</time>
      </trkpt>
      <trkpt lat="49.22985" lon="1.72466">
        <ele>92.42</ele>
        <time>2013-05-26T06:42:22Z</time>
      </trkpt>
      <trkpt lat="49.22988" lon="1.72473">
        <ele>93.39</ele>
        <time>2013-05-26T06:42:25Z</time>
      </trkpt>
      <trkpt lat="49.22989" lon="1.72475">
        <ele>92.42</ele>
        <time>2013-05-26T06:42:26Z</time>
      </trkpt>
      <trkpt lat="49.2299" lon="1.72477">
        <ele>93.39</ele>
        <time>2013-05-26T06:42:27Z</time>
      </trkpt>
      <trkpt lat="49.22992" lon="1.72479">
        <ele>93.39</ele>
        <time>2013-05-26T06:42:28Z</time>
      </trkpt>
      <trkpt lat="49.22993" lon="1.72481">
        <ele>93.39</ele>
        <time>2013-05-26T06:42:29Z</time>
      </trkpt>
      <trkpt lat="49.22994" lon="1.72482">
        <ele>93.87</ele>
        <time>2013-05-26T06:42:30Z</time>
      </trkpt>
      <trkpt lat="49.22995" lon="1.72484">
        <ele>93.39</ele>
        <time>2013-05-26T06:42:31Z</time>
      </trkpt>
      <trkpt lat="49.23009" lon="1.72506">
        <ele>96.75</ele>
        <time>2013-05-26T06:42:43Z</time>
      </trkpt>
      <trkpt lat="49.23034" lon="1.72542">
        <ele>98.67</ele>
        <time>2013-05-26T06:43:00Z</time>
      </trkpt>
      <trkpt lat="49.23052" lon="1.72566">
        <ele>101.56</ele>
        <time>2013-05-26T06:43:13Z</time>
      </trkpt>
      <trkpt lat="49.23072" lon="1.72583">
        <ele>102.52</ele>
        <time>2013-05-26T06:43:24Z</time>
      </trkpt>
      <trkpt lat="49.23073" lon="1.72585">
        <ele>103.48</ele>
        <time>2013-05-26T06:43:25Z</time>
      </trkpt>
      <trkpt lat="49.23075" lon="1.72586">
        <ele>104.44</ele>
        <time>2013-05-26T06:43:26Z</time>
      </trkpt>
      <trkpt lat="49.23077" lon="1.72588">
        <ele>105.4</ele>
        <time>2013-05-26T06:43:27Z</time>
      </trkpt>
      <trkpt lat="49.23079" lon="1.72589">
        <ele>103.48</ele>
        <time>2013-05-26T06:43:28Z</time>
      </trkpt>
      <trkpt lat="49.2308" lon="1.7259">
        <ele>105.4</ele>
        <time>2013-05-26T06:43:29Z</time>
      </trkpt>
      <trkpt lat="49.23114" lon="1.72619">
        <ele>106.36</ele>
        <time>2013-05-26T06:43:48Z</time>
      </trkpt>
      <trkpt lat="49.23145" lon="1.72643">
        <ele>105.88</ele>
        <time>2013-05-26T06:44:02Z</time>
      </trkpt>
      <trkpt lat="49.23162" lon="1.72657">
        <ele>107.81</ele>
        <time>2013-05-26T06:44:09Z</time>
      </trkpt>
      <trkpt lat="49.23164" lon="1.72659">
        <ele>106.36</ele>
        <time>2013-05-26T06:44:10Z</time>
      </trkpt>
      <trkpt lat="49.23166" lon="1.72661">
        <ele>107.32</ele>
        <time>2013-05-26T06:44:11Z</time>
      </trkpt>
      <trkpt lat="49.23168" lon="1.72663">
        <ele>107.32</ele>
        <time>2013-05-26T06:44:12Z</time>
      </trkpt>
      <trkpt lat="49.2317" lon="1.72665">
        <ele>106.84</ele>
        <time>2013-05-26T06:44:13Z</time>
      </trkpt>
      <trkpt lat="49.23175" lon="1.7267">
        <ele>107.32</ele>
        <time>2013-05-26T06:44:24Z</time>
      </trkpt>
      <trkpt lat="49.23176" lon="1.7267">
        <ele>105.4</ele>
        <time>2013-05-26T06:44:58Z</time>
      </trkpt>
      <trkpt lat="49.23176" lon="1.7267">
        <ele>106.84</ele>
        <time>2013-05-26T06:45:33Z</time>
      </trkpt>
      <trkpt lat="49.23177" lon="1.7267">
        <ele>107.32</ele>
        <time>2013-05-26T06:45:52Z</time>
      </trkpt>
      <trkpt lat="49.23176" lon="1.7267">
        <ele>105.88</ele>
        <time>2013-05-26T06:46:30Z</time>
      </trkpt>
      <trkpt lat="49.23176" lon="1.7267">
        <ele>106.84</ele>
        <time>2013-05-26T06:47:02Z</time>
      </trkpt>
      <trkpt lat="49.23176" lon="1.7267">
        <ele>106.84</ele>
        <time>2013-05-26T06:47:41Z</time>
      </trkpt>
      <trkpt lat="49.23176" lon="1.7267">
        <ele>105.88</ele>
        <time>2013-05-26T06:47:47Z</time>
      </trkpt>
      <trkpt lat="49.23177" lon="1.7267">
        <ele>106.84</ele>
        <time>2013-05-26T06:48:07Z</time>
      </trkpt>
      <trkpt lat="49.23176" lon="1.7267">
        <ele>106.84</ele>
        <time>2013-05-26T06:48:32Z</time>
      </trkpt>
      <trkpt lat="49.2318" lon="1.72675">
        <ele>107.32</ele>
        <time>2013-05-26T06:48:40Z</time>
      </trkpt>
      <trkpt lat="49.23182" lon="1.72678">
        <ele>105.4</ele>
        <time>2013-05-26T06:48:41Z</time>
      </trkpt>
      <trkpt lat="49.23184" lon="1.7268">
        <ele>106.36</ele>
        <time>2013-05-26T06:48:42Z</time>
      </trkpt>
      <trkpt lat="49.23186" lon="1.72682">
        <ele>104.92</ele>
        <time>2013-05-26T06:48:43Z</time>
      </trkpt>
      <trkpt lat="49.23189" lon="1.72686">
        <ele>105.4</ele>
        <time>2013-05-26T06:48:44Z</time>
      </trkpt>
      <trkpt lat="49.23193" lon="1.72691">
        <ele>103.96</ele>
        <time>2013-05-26T06:48:45Z</time>
      </trkpt>
      <trkpt lat="49.23224" lon="1.72741">
        <ele>100.11</ele>
        <time>2013-05-26T06:48:52Z</time>
      </trkpt>
      <trkpt lat="49.23235" lon="1.7276">
        <ele>99.15</ele>
        <time>2013-05-26T06:48:54Z</time>
      </trkpt>
      <trkpt lat="49.23252" lon="1.72787">
        <ele>97.23</ele>
        <time>2013-05-26T06:48:57Z</time>
      </trkpt>
      <trkpt lat="49.2327" lon="1.72812">
        <ele>93.39</ele>
        <time>2013-05-26T06:49:00Z</time>
      </trkpt>
      <trkpt lat="49.23276" lon="1.72819">
        <ele>93.87</ele>
        <time>2013-05-26T06:49:01Z</time>
      </trkpt>
      <trkpt lat="49.23287" lon="1.72831">
        <ele>91.94</ele>
        <time>2013-05-26T06:49:03Z</time>
      </trkpt>
      <trkpt lat="49.2331" lon="1.72858">
        <ele>88.58</ele>
        <time>2013-05-26T06:49:07Z</time>
      </trkpt>
      <trkpt lat="49.23339" lon="1.7289">
        <ele>85.69</ele>
        <time>2013-05-26T06:49:11Z</time>
      </trkpt>
      <trkpt lat="49.23361" lon="1.72915">
        <ele>82.33</ele>
        <time>2013-05-26T06:49:14Z</time>
      </trkpt>
      <trkpt lat="49.23385" lon="1.7294">
        <ele>78.97</ele>
        <time>2013-05-26T06:49:17Z</time>
      </trkpt>
      <trkpt lat="49.23411" lon="1.72965">
        <ele>76.08</ele>
        <time>2013-05-26T06:49:20Z</time>
      </trkpt>
      <trkpt lat="49.23437" lon="1.72989">
        <ele>74.64</ele>
        <time>2013-05-26T06:49:23Z</time>
      </trkpt>
      <trkpt lat="49.23464" lon="1.73016">
        <ele>71.27</ele>
        <time>2013-05-26T06:49:26Z</time>
      </trkpt>
      <trkpt lat="49.235" lon="1.73055">
        <ele>67.91</ele>
        <time>2013-05-26T06:49:30Z</time>
      </trkpt>
      <trkpt lat="49.23543" lon="1.73103">
        <ele>64.55</ele>
        <time>2013-05-26T06:49:35Z</time>
      </trkpt>
      <trkpt lat="49.23592" lon="1.7316">
        <ele>61.18</ele>
        <time>2013-05-26T06:49:41Z</time>
      </trkpt>
      <trkpt lat="49.23683" lon="1.7326">
        <ele>60.22</ele>
        <time>2013-05-26T06:49:55Z</time>
      </trkpt>
      <trkpt lat="49.2369" lon="1.73268">
        <ele>59.74</ele>
        <time>2013-05-26T06:49:57Z</time>
      </trkpt>
      <trkpt lat="49.23713" lon="1.73289">
        <ele>60.22</ele>
        <time>2013-05-26T06:50:03Z</time>
      </trkpt>
      <trkpt lat="49.23739" lon="1.73305">
        <ele>64.55</ele>
        <time>2013-05-26T06:50:09Z</time>
      </trkpt>
      <trkpt lat="49.23743" lon="1.73308">
        <ele>60.22</ele>
        <time>2013-05-26T06:50:10Z</time>
      </trkpt>
      <trkpt lat="49.23754" lon="1.73317">
        <ele>61.18</ele>
        <time>2013-05-26T06:50:13Z</time>
      </trkpt>
      <trkpt lat="49.23758" lon="1.73321">
        <ele>62.14</ele>
        <time>2013-05-26T06:50:14Z</time>
      </trkpt>
      <trkpt lat="49.2376" lon="1.73325">
        <ele>61.66</ele>
        <time>2013-05-26T06:50:15Z</time>
      </trkpt>
      <trkpt lat="49.23762" lon="1.73331">
        <ele>62.14</ele>
        <time>2013-05-26T06:50:16Z</time>
      </trkpt>
      <trkpt lat="49.23763" lon="1.73336">
        <ele>61.66</ele>
        <time>2013-05-26T06:50:17Z</time>
      </trkpt>
      <trkpt lat="49.23764" lon="1.73342">
        <ele>62.62</ele>
        <time>2013-05-26T06:50:18Z</time>
      </trkpt>
      <trkpt lat="49.23764" lon="1.73348">
        <ele>62.62</ele>
        <time>2013-05-26T06:50:19Z</time>
      </trkpt>
      <trkpt lat="49.23763" lon="1.73353">
        <ele>63.58</ele>
        <time>2013-05-26T06:50:20Z</time>
      </trkpt>
      <trkpt lat="49.23763" lon="1.73359">
        <ele>63.58</ele>
        <time>2013-05-26T06:50:21Z</time>
      </trkpt>
      <trkpt lat="49.23756" lon="1.73438">
        <ele>66.95</ele>
        <time>2013-05-26T06:50:36Z</time>
      </trkpt>
      <trkpt lat="49.23767" lon="1.73494">
        <ele>68.39</ele>
        <time>2013-05-26T06:50:48Z</time>
      </trkpt>
      <trkpt lat="49.23796" lon="1.73569">
        <ele>67.43</ele>
        <time>2013-05-26T06:51:04Z</time>
      </trkpt>
      <trkpt lat="49.23799" lon="1.73576">
        <ele>67.43</ele>
        <time>2013-05-26T06:51:05Z</time>
      </trkpt>
      <trkpt lat="49.23803" lon="1.73583">
        <ele>67.43</ele>
        <time>2013-05-26T06:51:06Z</time>
      </trkpt>
      <trkpt lat="49.23807" lon="1.73588">
        <ele>66.95</ele>
        <time>2013-05-26T06:51:07Z</time>
      </trkpt>
      <trkpt lat="49.23812" lon="1.73592">
        <ele>66.95</ele>
        <time>2013-05-26T06:51:08Z</time>
      </trkpt>
      <trkpt lat="49.23818" lon="1.73594">
        <ele>66.95</ele>
        <time>2013-05-26T06:51:09Z</time>
      </trkpt>
      <trkpt lat="49.23824" lon="1.73595">
        <ele>66.47</ele>
        <time>2013-05-26T06:51:10Z</time>
      </trkpt>
      <trkpt lat="49.2383" lon="1.73595">
        <ele>65.51</ele>
        <time>2013-05-26T06:51:11Z</time>
      </trkpt>
      <trkpt lat="49.23837" lon="1.73594">
        <ele>66.47</ele>
        <time>2013-05-26T06:51:12Z</time>
      </trkpt>
      <trkpt lat="49.23843" lon="1.73594">
        <ele>65.03</ele>
        <time>2013-05-26T06:51:13Z</time>
      </trkpt>
      <trkpt lat="49.23862" lon="1.73594">
        <ele>64.55</ele>
        <time>2013-05-26T06:51:20Z</time>
      </trkpt>
      <trkpt lat="49.23886" lon="1.73599">
        <ele>65.03</ele>
        <time>2013-05-26T06:51:32Z</time>
      </trkpt>
      <trkpt lat="49.23889" lon="1.73597">
        <ele>64.07</ele>
        <time>2013-05-26T06:51:47Z</time>
      </trkpt>
      <trkpt lat="49.23889" lon="1.73598">
        <ele>63.58</ele>
        <time>2013-05-26T06:52:16Z</time>
      </trkpt>
      <trkpt lat="49.23892" lon="1.73601">
        <ele>64.07</ele>
        <time>2013-05-26T06:52:36Z</time>
      </trkpt>
      <trkpt lat="49.23894" lon="1.73602">
        <ele>64.07</ele>
        <time>2013-05-26T06:52:37Z</time>
      </trkpt>
      <trkpt lat="49.23918" lon="1.7365">
        <ele>62.62</ele>
        <time>2013-05-26T06:52:50Z</time>
      </trkpt>
      <trkpt lat="49.2392" lon="1.73656">
        <ele>62.14</ele>
        <time>2013-05-26T06:52:51Z</time>
      </trkpt>
      <trkpt lat="49.23924" lon="1.73677">
        <ele>62.14</ele>
        <time>2013-05-26T06:52:54Z</time>
      </trkpt>
      <trkpt lat="49.23927" lon="1.73694">
        <ele>60.7</ele>
        <time>2013-05-26T06:52:56Z</time>
      </trkpt>
      <trkpt lat="49.23943" lon="1.73757">
        <ele>59.26</ele>
        <time>2013-05-26T06:53:03Z</time>
      </trkpt>
      <trkpt lat="49.23945" lon="1.73762">
        <ele>59.26</ele>
        <time>2013-05-26T06:53:04Z</time>
      </trkpt>
      <trkpt lat="49.23959" lon="1.73781">
        <ele>58.78</ele>
        <time>2013-05-26T06:53:09Z</time>
      </trkpt>
      <trkpt lat="49.23968" lon="1.73784">
        <ele>59.26</ele>
        <time>2013-05-26T06:53:11Z</time>
      </trkpt>
      <trkpt lat="49.23972" lon="1.73785">
        <ele>57.82</ele>
        <time>2013-05-26T06:53:12Z</time>
      </trkpt>
      <trkpt lat="49.23977" lon="1.73787">
        <ele>58.78</ele>
        <time>2013-05-26T06:53:13Z</time>
      </trkpt>
      <trkpt lat="49.23982" lon="1.73787">
        <ele>57.82</ele>
        <time>2013-05-26T06:53:14Z</time>
      </trkpt>
      <trkpt lat="49.23987" lon="1.73787">
        <ele>57.82</ele>
        <time>2013-05-26T06:53:15Z</time>
      </trkpt>
      <trkpt lat="49.24036" lon="1.73773">
        <ele>56.86</ele>
        <time>2013-05-26T06:53:27Z</time>
      </trkpt>
      <trkpt lat="49.2405" lon="1.73767">
        <ele>57.34</ele>
        <time>2013-05-26T06:53:31Z</time>
      </trkpt>
      <trkpt lat="49.24053" lon="1.73765">
        <ele>56.37</ele>
        <time>2013-05-26T06:53:32Z</time>
      </trkpt>
      <trkpt lat="49.24056" lon="1.73761">
        <ele>56.37</ele>
        <time>2013-05-26T06:53:33Z</time>
      </trkpt>
      <trkpt lat="49.24059" lon="1.73757">
        <ele>56.86</ele>
        <time>2013-05-26T06:53:34Z</time>
      </trkpt>
      <trkpt lat="49.24061" lon="1.73752">
        <ele>56.37</ele>
        <time>2013-05-26T06:53:35Z</time>
      </trkpt>
      <trkpt lat="49.24064" lon="1.73746">
        <ele>56.37</ele>
        <time>2013-05-26T06:53:36Z</time>
      </trkpt>
      <trkpt lat="49.24065" lon="1.7374">
        <ele>55.41</ele>
        <time>2013-05-26T06:53:37Z</time>
      </trkpt>
      <trkpt lat="49.24078" lon="1.73695">
        <ele>54.93</ele>
        <time>2013-05-26T06:53:44Z</time>
      </trkpt>
      <trkpt lat="49.24081" lon="1.7369">
        <ele>54.45</ele>
        <time>2013-05-26T06:53:45Z</time>
      </trkpt>
      <trkpt lat="49.24085" lon="1.73686">
        <ele>54.45</ele>
        <time>2013-05-26T06:53:46Z</time>
      </trkpt>
      <trkpt lat="49.24089" lon="1.73684">
        <ele>54.93</ele>
        <time>2013-05-26T06:53:47Z</time>
      </trkpt>
      <trkpt lat="49.24094" lon="1.73683">
        <ele>54.45</ele>
        <time>2013-05-26T06:53:48Z</time>
      </trkpt>
      <trkpt lat="49.24099" lon="1.73683">
        <ele>53.97</ele>
        <time>2013-05-26T06:53:49Z</time>
      </trkpt>
      <trkpt lat="49.24104" lon="1.73684">
        <ele>54.45</ele>
        <time>2013-05-26T06:53:50Z</time>
      </trkpt>
      <trkpt lat="49.24108" lon="1.73685">
        <ele>54.45</ele>
        <time>2013-05-26T06:53:51Z</time>
      </trkpt>
      <trkpt lat="49.24121" lon="1.7369">
        <ele>53.97</ele>
        <time>2013-05-26T06:53:54Z</time>
      </trkpt>
      <trkpt lat="49.24124" lon="1.73695">
        <ele>53.49</ele>
        <time>2013-05-26T06:53:55Z</time>
      </trkpt>
      <trkpt lat="49.24127" lon="1.737">
        <ele>52.53</ele>
        <time>2013-05-26T06:53:56Z</time>
      </trkpt>
      <trkpt lat="49.2413" lon="1.73705">
        <ele>52.53</ele>
        <time>2013-05-26T06:53:57Z</time>
      </trkpt>
      <trkpt lat="49.24134" lon="1.7371">
        <ele>53.01</ele>
        <time>2013-05-26T06:53:58Z</time>
      </trkpt>
      <trkpt lat="49.24138" lon="1.73715">
        <ele>52.53</ele>
        <time>2013-05-26T06:53:59Z</time>
      </trkpt>
      <trkpt lat="49.24142" lon="1.73719">
        <ele>52.53</ele>
        <time>2013-05-26T06:54:00Z</time>
      </trkpt>
      <trkpt lat="49.24147" lon="1.73723">
        <ele>52.05</ele>
        <time>2013-05-26T06:54:01Z</time>
      </trkpt>
      <trkpt lat="49.24152" lon="1.73727">
        <ele>52.53</ele>
        <time>2013-05-26T06:54:02Z</time>
      </trkpt>
      <trkpt lat="49.24158" lon="1.73731">
        <ele>51.57</ele>
        <time>2013-05-26T06:54:03Z</time>
      </trkpt>
      <trkpt lat="49.24179" lon="1.73745">
        <ele>50.61</ele>
        <time>2013-05-26T06:54:07Z</time>
      </trkpt>
      <trkpt lat="49.24184" lon="1.7375">
        <ele>51.09</ele>
        <time>2013-05-26T06:54:08Z</time>
      </trkpt>
      <trkpt lat="49.24189" lon="1.73755">
        <ele>50.61</ele>
        <time>2013-05-26T06:54:09Z</time>
      </trkpt>
      <trkpt lat="49.24193" lon="1.7376">
        <ele>52.05</ele>
        <time>2013-05-26T06:54:10Z</time>
      </trkpt>
      <trkpt lat="49.24198" lon="1.73764">
        <ele>50.61</ele>
        <time>2013-05-26T06:54:11Z</time>
      </trkpt>
      <trkpt lat="49.24204" lon="1.73767">
        <ele>51.57</ele>
        <time>2013-05-26T06:54:12Z</time>
      </trkpt>
      <trkpt lat="49.24258" lon="1.73802">
        <ele>52.53</ele>
        <time>2013-05-26T06:54:25Z</time>
      </trkpt>
      <trkpt lat="49.24305" lon="1.73824">
        <ele>54.93</ele>
        <time>2013-05-26T06:54:37Z</time>
      </trkpt>
      <trkpt lat="49.24341" lon="1.73838">
        <ele>58.3</ele>
        <time>2013-05-26T06:54:48Z</time>
      </trkpt>
      <trkpt lat="49.24352" lon="1.73844">
        <ele>59.26</ele>
        <time>2013-05-26T06:54:52Z</time>
      </trkpt>
      <trkpt lat="49.24354" lon="1.73843">
        <ele>59.74</ele>
        <time>2013-05-26T06:54:53Z</time>
      </trkpt>
      <trkpt lat="49.24358" lon="1.73841">
        <ele>58.78</ele>
        <time>2013-05-26T06:54:54Z</time>
      </trkpt>
      <trkpt lat="49.2436" lon="1.7384">
        <ele>59.26</ele>
        <time>2013-05-26T06:54:55Z</time>
      </trkpt>
      <trkpt lat="49.24363" lon="1.73838">
        <ele>59.26</ele>
        <time>2013-05-26T06:54:56Z</time>
      </trkpt>
      <trkpt lat="49.24371" lon="1.73832">
        <ele>60.7</ele>
        <time>2013-05-26T06:54:59Z</time>
      </trkpt>
      <trkpt lat="49.24395" lon="1.73827">
        <ele>64.07</ele>
        <time>2013-05-26T06:55:10Z</time>
      </trkpt>
      <trkpt lat="49.24408" lon="1.73839">
        <ele>67.43</ele>
        <time>2013-05-26T06:55:19Z</time>
      </trkpt>
      <trkpt lat="49.24411" lon="1.73844">
        <ele>67.91</ele>
        <time>2013-05-26T06:55:22Z</time>
      </trkpt>
      <trkpt lat="49.24431" lon="1.73861">
        <ele>70.79</ele>
        <time>2013-05-26T06:55:33Z</time>
      </trkpt>
      <trkpt lat="49.24447" lon="1.73881">
        <ele>72.72</ele>
        <time>2013-05-26T06:55:46Z</time>
      </trkpt>
      <trkpt lat="49.24452" lon="1.73881">
        <ele>72.72</ele>
        <time>2013-05-26T06:55:50Z</time>
      </trkpt>
      <trkpt lat="49.24453" lon="1.73879">
        <ele>72.72</ele>
        <time>2013-05-26T06:55:51Z</time>
      </trkpt>
      <trkpt lat="49.24453" lon="1.73877">
        <ele>73.2</ele>
        <time>2013-05-26T06:55:52Z</time>
      </trkpt>
      <trkpt lat="49.24454" lon="1.7387">
        <ele>75.12</ele>
        <time>2013-05-26T06:55:55Z</time>
      </trkpt>
      <trkpt lat="49.24456" lon="1.73861">
        <ele>76.08</ele>
        <time>2013-05-26T06:56:00Z</time>
      </trkpt>
      <trkpt lat="49.24456" lon="1.73858">
        <ele>76.56</ele>
        <time>2013-05-26T06:56:01Z</time>
      </trkpt>
      <trkpt lat="49.24457" lon="1.73856">
        <ele>76.56</ele>
        <time>2013-05-26T06:56:02Z</time>
      </trkpt>
      <trkpt lat="49.24457" lon="1.73853">
        <ele>76.56</ele>
        <time>2013-05-26T06:56:03Z</time>
      </trkpt>
      <trkpt lat="49.24457" lon="1.7385">
        <ele>75.12</ele>
        <time>2013-05-26T06:56:04Z</time>
      </trkpt>
      <trkpt lat="49.24457" lon="1.73847">
        <ele>76.08</ele>
        <time>2013-05-26T06:56:05Z</time>
      </trkpt>
      <trkpt lat="49.24464" lon="1.73814">
        <ele>77.04</ele>
        <time>2013-05-26T06:56:17Z</time>
      </trkpt>
      <trkpt lat="49.24465" lon="1.73767">
        <ele>76.56</ele>
        <time>2013-05-26T06:56:28Z</time>
      </trkpt>
      <trkpt lat="49.24466" lon="1.73701">
        <ele>76.56</ele>
        <time>2013-05-26T06:56:42Z</time>
      </trkpt>
      <trkpt lat="49.24465" lon="1.73655">
        <ele>75.6</ele>
        <time>2013-05-26T06:56:53Z</time>
      </trkpt>
      <trkpt lat="49.24468" lon="1.73643">
        <ele>77.04</ele>
        <time>2013-05-26T06:56:58Z</time>
      </trkpt>
      <trkpt lat="49.24468" lon="1.73641">
        <ele>75.6</ele>
        <time>2013-05-26T06:56:59Z</time>
      </trkpt>
      <trkpt lat="49.24466" lon="1.73633">
        <ele>75.6</ele>
        <time>2013-05-26T06:57:02Z</time>
      </trkpt>
      <trkpt lat="49.24465" lon="1.73631">
        <ele>74.16</ele>
        <time>2013-05-26T06:57:03Z</time>
      </trkpt>
      <trkpt lat="49.24461" lon="1.73628">
        <ele>73.2</ele>
        <time>2013-05-26T06:57:05Z</time>
      </trkpt>
      <trkpt lat="49.24452" lon="1.73619">
        <ele>70.79</ele>
        <time>2013-05-26T06:57:09Z</time>
      </trkpt>
      <trkpt lat="49.24451" lon="1.73601">
        <ele>71.27</ele>
        <time>2013-05-26T06:57:13Z</time>
      </trkpt>
      <trkpt lat="49.24453" lon="1.73579">
        <ele>71.27</ele>
        <time>2013-05-26T06:57:18Z</time>
      </trkpt>
      <trkpt lat="49.24457" lon="1.73564">
        <ele>72.24</ele>
        <time>2013-05-26T06:57:23Z</time>
      </trkpt>
      <trkpt lat="49.24461" lon="1.73549">
        <ele>73.68</ele>
        <time>2013-05-26T06:57:27Z</time>
      </trkpt>
      <trkpt lat="49.24468" lon="1.73523">
        <ele>73.68</ele>
        <time>2013-05-26T06:57:33Z</time>
      </trkpt>
      <trkpt lat="49.24476" lon="1.73499">
        <ele>74.16</ele>
        <time>2013-05-26T06:57:39Z</time>
      </trkpt>
      <trkpt lat="49.24479" lon="1.73495">
        <ele>75.6</ele>
        <time>2013-05-26T06:57:41Z</time>
      </trkpt>
      <trkpt lat="49.24501" lon="1.73458">
        <ele>76.56</ele>
        <time>2013-05-26T06:57:54Z</time>
      </trkpt>
      <trkpt lat="49.24503" lon="1.73454">
        <ele>77.04</ele>
        <time>2013-05-26T06:57:56Z</time>
      </trkpt>
      <trkpt lat="49.24504" lon="1.73441">
        <ele>76.56</ele>
        <time>2013-05-26T06:58:00Z</time>
      </trkpt>
      <trkpt lat="49.24502" lon="1.73425">
        <ele>77.04</ele>
        <time>2013-05-26T06:58:05Z</time>
      </trkpt>
      <trkpt lat="49.24502" lon="1.73404">
        <ele>76.08</ele>
        <time>2013-05-26T06:58:11Z</time>
      </trkpt>
      <trkpt lat="49.24502" lon="1.73394">
        <ele>77.04</ele>
        <time>2013-05-26T06:58:13Z</time>
      </trkpt>
      <trkpt lat="49.24502" lon="1.73376">
        <ele>77.04</ele>
        <time>2013-05-26T06:58:17Z</time>
      </trkpt>
      <trkpt lat="49.24498" lon="1.73316">
        <ele>76.56</ele>
        <time>2013-05-26T06:58:29Z</time>
      </trkpt>
      <trkpt lat="49.24489" lon="1.73277">
        <ele>74.64</ele>
        <time>2013-05-26T06:58:36Z</time>
      </trkpt>
      <trkpt lat="49.24492" lon="1.73247">
        <ele>75.6</ele>
        <time>2013-05-26T06:58:42Z</time>
      </trkpt>
      <trkpt lat="49.24512" lon="1.73198">
        <ele>75.12</ele>
        <time>2013-05-26T06:58:53Z</time>
      </trkpt>
      <trkpt lat="49.24528" lon="1.73182">
        <ele>74.64</ele>
        <time>2013-05-26T06:58:59Z</time>
      </trkpt>
      <trkpt lat="49.24557" lon="1.73159">
        <ele>75.6</ele>
        <time>2013-05-26T06:59:10Z</time>
      </trkpt>
      <trkpt lat="49.2459" lon="1.73139">
        <ele>75.12</ele>
        <time>2013-05-26T06:59:21Z</time>
      </trkpt>
      <trkpt lat="49.24608" lon="1.73131">
        <ele>75.12</ele>
        <time>2013-05-26T06:59:26Z</time>
      </trkpt>
      <trkpt lat="49.24616" lon="1.73127">
        <ele>74.64</ele>
        <time>2013-05-26T06:59:29Z</time>
      </trkpt>
      <trkpt lat="49.24654" lon="1.73113">
        <ele>76.56</ele>
        <time>2013-05-26T06:59:41Z</time>
      </trkpt>
      <trkpt lat="49.24683" lon="1.73092">
        <ele>75.6</ele>
        <time>2013-05-26T06:59:51Z</time>
      </trkpt>
      <trkpt lat="49.24709" lon="1.73067">
        <ele>76.56</ele>
        <time>2013-05-26T07:00:02Z</time>
      </trkpt>
      <trkpt lat="49.24712" lon="1.73067">
        <ele>76.08</ele>
        <time>2013-05-26T07:00:03Z</time>
      </trkpt>
      <trkpt lat="49.24725" lon="1.73052">
        <ele>74.64</ele>
        <time>2013-05-26T07:00:07Z</time>
      </trkpt>
      <trkpt lat="49.24729" lon="1.73047">
        <ele>75.12</ele>
        <time>2013-05-26T07:00:08Z</time>
      </trkpt>
      <trkpt lat="49.24738" lon="1.73032">
        <ele>73.68</ele>
        <time>2013-05-26T07:00:11Z</time>
      </trkpt>
      <trkpt lat="49.24753" lon="1.73009">
        <ele>71.27</ele>
        <time>2013-05-26T07:00:21Z</time>
      </trkpt>
      <trkpt lat="49.24763" lon="1.73001">
        <ele>73.2</ele>
        <time>2013-05-26T07:00:31Z</time>
      </trkpt>
      <trkpt lat="49.24764" lon="1.73">
        <ele>69.35</ele>
        <time>2013-05-26T07:00:32Z</time>
      </trkpt>
      <trkpt lat="49.24772" lon="1.72985">
        <ele>67.91</ele>
        <time>2013-05-26T07:00:50Z</time>
      </trkpt>
      <trkpt lat="49.24775" lon="1.72971">
        <ele>68.39</ele>
        <time>2013-05-26T07:01:03Z</time>
      </trkpt>
      <trkpt lat="49.2478" lon="1.72953">
        <ele>66.47</ele>
        <time>2013-05-26T07:01:12Z</time>
      </trkpt>
      <trkpt lat="49.24791" lon="1.72914">
        <ele>64.07</ele>
        <time>2013-05-26T07:01:21Z</time>
      </trkpt>
      <trkpt lat="49.24806" lon="1.72867">
        <ele>63.1</ele>
        <time>2013-05-26T07:01:32Z</time>
      </trkpt>
      <trkpt lat="49.24808" lon="1.72851">
        <ele>62.14</ele>
        <time>2013-05-26T07:01:35Z</time>
      </trkpt>
      <trkpt lat="49.24807" lon="1.72837">
        <ele>61.66</ele>
        <time>2013-05-26T07:01:47Z</time>
      </trkpt>
      <trkpt lat="49.24807" lon="1.72834">
        <ele>62.14</ele>
        <time>2013-05-26T07:02:15Z</time>
      </trkpt>
      <trkpt lat="49.24808" lon="1.72834">
        <ele>61.66</ele>
        <time>2013-05-26T07:02:38Z</time>
      </trkpt>
      <trkpt lat="49.24809" lon="1.72833">
        <ele>61.18</ele>
        <time>2013-05-26T07:02:59Z</time>
      </trkpt>
      <trkpt lat="49.24808" lon="1.72833">
        <ele>61.66</ele>
        <time>2013-05-26T07:03:20Z</time>
      </trkpt>
      <trkpt lat="49.24807" lon="1.72832">
        <ele>62.14</ele>
        <time>2013-05-26T07:03:41Z</time>
      </trkpt>
      <trkpt lat="49.24808" lon="1.72831">
        <ele>62.14</ele>
        <time>2013-05-26T07:04:09Z</time>
      </trkpt>
      <trkpt lat="49.24807" lon="1.72831">
        <ele>63.1</ele>
        <time>2013-05-26T07:04:32Z</time>
      </trkpt>
      <trkpt lat="49.24806" lon="1.72827">
        <ele>62.14</ele>
        <time>2013-05-26T07:04:36Z</time>
      </trkpt>
      <trkpt lat="49.2479" lon="1.72819">
        <ele>62.14</ele>
        <time>2013-05-26T07:04:41Z</time>
      </trkpt>
      <trkpt lat="49.24731" lon="1.72791">
        <ele>60.22</ele>
        <time>2013-05-26T07:04:56Z</time>
      </trkpt>
      <trkpt lat="49.24723" lon="1.72787">
        <ele>59.26</ele>
        <time>2013-05-26T07:04:58Z</time>
      </trkpt>
      <trkpt lat="49.24682" lon="1.72767">
        <ele>58.3</ele>
        <time>2013-05-26T07:05:09Z</time>
      </trkpt>
      <trkpt lat="49.24639" lon="1.72746">
        <ele>56.86</ele>
        <time>2013-05-26T07:05:19Z</time>
      </trkpt>
      <trkpt lat="49.24592" lon="1.72714">
        <ele>56.37</ele>
        <time>2013-05-26T07:05:32Z</time>
      </trkpt>
      <trkpt lat="49.24593" lon="1.72708">
        <ele>57.34</ele>
        <time>2013-05-26T07:05:33Z</time>
      </trkpt>
      <trkpt lat="49.24594" lon="1.72703">
        <ele>57.34</ele>
        <time>2013-05-26T07:05:34Z</time>
      </trkpt>
      <trkpt lat="49.24595" lon="1.72698">
        <ele>56.37</ele>
        <time>2013-05-26T07:05:35Z</time>
      </trkpt>
      <trkpt lat="49.24596" lon="1.72692">
        <ele>56.37</ele>
        <time>2013-05-26T07:05:36Z</time>
      </trkpt>
      <trkpt lat="49.24623" lon="1.72606">
        <ele>58.3</ele>
        <time>2013-05-26T07:05:52Z</time>
      </trkpt>
      <trkpt lat="49.24656" lon="1.72542">
        <ele>59.74</ele>
        <time>2013-05-26T07:06:07Z</time>
      </trkpt>
      <trkpt lat="49.24689" lon="1.72483">
        <ele>59.74</ele>
        <time>2013-05-26T07:06:21Z</time>
      </trkpt>
      <trkpt lat="49.24724" lon="1.72413">
        <ele>59.74</ele>
        <time>2013-05-26T07:06:36Z</time>
      </trkpt>
      <trkpt lat="49.24759" lon="1.72343">
        <ele>59.26</ele>
        <time>2013-05-26T07:06:51Z</time>
      </trkpt>
      <trkpt lat="49.24794" lon="1.72274">
        <ele>58.78</ele>
        <time>2013-05-26T07:07:07Z</time>
      </trkpt>
      <trkpt lat="49.24841" lon="1.72178">
        <ele>59.26</ele>
        <time>2013-05-26T07:07:26Z</time>
      </trkpt>
      <trkpt lat="49.24883" lon="1.7208">
        <ele>59.26</ele>
        <time>2013-05-26T07:07:44Z</time>
      </trkpt>
      <trkpt lat="49.2491" lon="1.71982">
        <ele>58.78</ele>
        <time>2013-05-26T07:08:02Z</time>
      </trkpt>
      <trkpt lat="49.24928" lon="1.7191">
        <ele>57.82</ele>
        <time>2013-05-26T07:08:15Z</time>
      </trkpt>
      <trkpt lat="49.24938" lon="1.71875">
        <ele>57.82</ele>
        <time>2013-05-26T07:08:21Z</time>
      </trkpt>
      <trkpt lat="49.24983" lon="1.71767">
        <ele>55.89</ele>
        <time>2013-05-26T07:08:38Z</time>
      </trkpt>
      <trkpt lat="49.25048" lon="1.71635">
        <ele>52.53</ele>
        <time>2013-05-26T07:08:57Z</time>
      </trkpt>
      <trkpt lat="49.25118" lon="1.71518">
        <ele>50.13</ele>
        <time>2013-05-26T07:09:15Z</time>
      </trkpt>
      <trkpt lat="49.25139" lon="1.71488">
        <ele>50.13</ele>
        <time>2013-05-26T07:09:20Z</time>
      </trkpt>
      <trkpt lat="49.25154" lon="1.71473">
        <ele>49.65</ele>
        <time>2013-05-26T07:09:23Z</time>
      </trkpt>
      <trkpt lat="49.25199" lon="1.71445">
        <ele>48.2</ele>
        <time>2013-05-26T07:09:31Z</time>
      </trkpt>
      <trkpt lat="49.25275" lon="1.71431">
        <ele>47.24</ele>
        <time>2013-05-26T07:09:46Z</time>
      </trkpt>
      <trkpt lat="49.25347" lon="1.71419">
        <ele>43.88</ele>
        <time>2013-05-26T07:09:59Z</time>
      </trkpt>
      <trkpt lat="49.25385" lon="1.71403">
        <ele>40.51</ele>
        <time>2013-05-26T07:10:04Z</time>
      </trkpt>
      <trkpt lat="49.25409" lon="1.71389">
        <ele>39.07</ele>
        <time>2013-05-26T07:10:07Z</time>
      </trkpt>
      <trkpt lat="49.25416" lon="1.71383">
        <ele>37.63</ele>
        <time>2013-05-26T07:10:08Z</time>
      </trkpt>
      <trkpt lat="49.25422" lon="1.71375">
        <ele>39.07</ele>
        <time>2013-05-26T07:10:09Z</time>
      </trkpt>
      <trkpt lat="49.25427" lon="1.71367">
        <ele>38.11</ele>
        <time>2013-05-26T07:10:10Z</time>
      </trkpt>
      <trkpt lat="49.25431" lon="1.7136">
        <ele>38.59</ele>
        <time>2013-05-26T07:10:11Z</time>
      </trkpt>
      <trkpt lat="49.25437" lon="1.71355">
        <ele>38.59</ele>
        <time>2013-05-26T07:10:12Z</time>
      </trkpt>
      <trkpt lat="49.25443" lon="1.71353">
        <ele>38.11</ele>
        <time>2013-05-26T07:10:13Z</time>
      </trkpt>
      <trkpt lat="49.25449" lon="1.71354">
        <ele>38.59</ele>
        <time>2013-05-26T07:10:14Z</time>
      </trkpt>
      <trkpt lat="49.25452" lon="1.71358">
        <ele>39.55</ele>
        <time>2013-05-26T07:10:15Z</time>
      </trkpt>
      <trkpt lat="49.25455" lon="1.71363">
        <ele>40.03</ele>
        <time>2013-05-26T07:10:16Z</time>
      </trkpt>
      <trkpt lat="49.25457" lon="1.71368">
        <ele>39.55</ele>
        <time>2013-05-26T07:10:17Z</time>
      </trkpt>
      <trkpt lat="49.25459" lon="1.71373">
        <ele>40.51</ele>
        <time>2013-05-26T07:10:18Z</time>
      </trkpt>
      <trkpt lat="49.25476" lon="1.71413">
        <ele>43.4</ele>
        <time>2013-05-26T07:10:27Z</time>
      </trkpt>
      <trkpt lat="49.25516" lon="1.71465">
        <ele>46.28</ele>
        <time>2013-05-26T07:10:42Z</time>
      </trkpt>
      <trkpt lat="49.25562" lon="1.71512">
        <ele>49.65</ele>
        <time>2013-05-26T07:10:57Z</time>
      </trkpt>
      <trkpt lat="49.25596" lon="1.71556">
        <ele>53.01</ele>
        <time>2013-05-26T07:11:12Z</time>
      </trkpt>
      <trkpt lat="49.25611" lon="1.71608">
        <ele>56.37</ele>
        <time>2013-05-26T07:11:25Z</time>
      </trkpt>
      <trkpt lat="49.25618" lon="1.7163">
        <ele>57.34</ele>
        <time>2013-05-26T07:11:31Z</time>
      </trkpt>
      <trkpt lat="49.25619" lon="1.71634">
        <ele>57.34</ele>
        <time>2013-05-26T07:11:32Z</time>
      </trkpt>
      <trkpt lat="49.2562" lon="1.71638">
        <ele>56.86</ele>
        <time>2013-05-26T07:11:33Z</time>
      </trkpt>
      <trkpt lat="49.25622" lon="1.71641">
        <ele>57.82</ele>
        <time>2013-05-26T07:11:34Z</time>
      </trkpt>
      <trkpt lat="49.25623" lon="1.71645">
        <ele>57.82</ele>
        <time>2013-05-26T07:11:35Z</time>
      </trkpt>
      <trkpt lat="49.25624" lon="1.71649">
        <ele>58.3</ele>
        <time>2013-05-26T07:11:36Z</time>
      </trkpt>
      <trkpt lat="49.25635" lon="1.71687">
        <ele>59.74</ele>
        <time>2013-05-26T07:11:46Z</time>
      </trkpt>
      <trkpt lat="49.25654" lon="1.71745">
        <ele>62.62</ele>
        <time>2013-05-26T07:12:01Z</time>
      </trkpt>
      <trkpt lat="49.25669" lon="1.71787">
        <ele>65.03</ele>
        <time>2013-05-26T07:12:13Z</time>
      </trkpt>
      <trkpt lat="49.25684" lon="1.71836">
        <ele>67.91</ele>
        <time>2013-05-26T07:12:25Z</time>
      </trkpt>
      <trkpt lat="49.2569" lon="1.71854">
        <ele>68.87</ele>
        <time>2013-05-26T07:12:30Z</time>
      </trkpt>
      <trkpt lat="49.25697" lon="1.71884">
        <ele>70.79</ele>
        <time>2013-05-26T07:12:37Z</time>
      </trkpt>
      <trkpt lat="49.25703" lon="1.71903">
        <ele>72.24</ele>
        <time>2013-05-26T07:12:42Z</time>
      </trkpt>
      <trkpt lat="49.25704" lon="1.71907">
        <ele>71.76</ele>
        <time>2013-05-26T07:12:43Z</time>
      </trkpt>
      <trkpt lat="49.25706" lon="1.71911">
        <ele>72.24</ele>
        <time>2013-05-26T07:12:44Z</time>
      </trkpt>
      <trkpt lat="49.25706" lon="1.71915">
        <ele>71.27</ele>
        <time>2013-05-26T07:12:45Z</time>
      </trkpt>
      <trkpt lat="49.25707" lon="1.71919">
        <ele>72.72</ele>
        <time>2013-05-26T07:12:46Z</time>
      </trkpt>
      <trkpt lat="49.25708" lon="1.71923">
        <ele>71.76</ele>
        <time>2013-05-26T07:12:47Z</time>
      </trkpt>
      <trkpt lat="49.25709" lon="1.71927">
        <ele>72.24</ele>
        <time>2013-05-26T07:12:48Z</time>
      </trkpt>
      <trkpt lat="49.2571" lon="1.7193">
        <ele>72.72</ele>
        <time>2013-05-26T07:12:49Z</time>
      </trkpt>
      <trkpt lat="49.25725" lon="1.71978">
        <ele>75.12</ele>
        <time>2013-05-26T07:13:02Z</time>
      </trkpt>
      <trkpt lat="49.25738" lon="1.72025">
        <ele>78.48</ele>
        <time>2013-05-26T07:13:16Z</time>
      </trkpt>
      <trkpt lat="49.25751" lon="1.72071">
        <ele>80.89</ele>
        <time>2013-05-26T07:13:30Z</time>
      </trkpt>
      <trkpt lat="49.25757" lon="1.72094">
        <ele>82.33</ele>
        <time>2013-05-26T07:13:38Z</time>
      </trkpt>
      <trkpt lat="49.2577" lon="1.72129">
        <ele>86.18</ele>
        <time>2013-05-26T07:13:51Z</time>
      </trkpt>
      <trkpt lat="49.2579" lon="1.72168">
        <ele>86.18</ele>
        <time>2013-05-26T07:14:04Z</time>
      </trkpt>
      <trkpt lat="49.2582" lon="1.72223">
        <ele>87.14</ele>
        <time>2013-05-26T07:14:20Z</time>
      </trkpt>
      <trkpt lat="49.25838" lon="1.72251">
        <ele>87.62</ele>
        <time>2013-05-26T07:14:36Z</time>
      </trkpt>
      <trkpt lat="49.25837" lon="1.72252">
        <ele>87.14</ele>
        <time>2013-05-26T07:15:11Z</time>
      </trkpt>
      <trkpt lat="49.25838" lon="1.72252">
        <ele>87.14</ele>
        <time>2013-05-26T07:15:56Z</time>
      </trkpt>
      <trkpt lat="49.25838" lon="1.72253">
        <ele>87.14</ele>
        <time>2013-05-26T07:16:31Z</time>
      </trkpt>
      <trkpt lat="49.25838" lon="1.72252">
        <ele>86.66</ele>
        <time>2013-05-26T07:16:53Z</time>
      </trkpt>
      <trkpt lat="49.2584" lon="1.72257">
        <ele>88.1</ele>
        <time>2013-05-26T07:17:25Z</time>
      </trkpt>
      <trkpt lat="49.25862" lon="1.72308">
        <ele>87.14</ele>
        <time>2013-05-26T07:17:36Z</time>
      </trkpt>
      <trkpt lat="49.25896" lon="1.72377">
        <ele>87.62</ele>
        <time>2013-05-26T07:17:54Z</time>
      </trkpt>
      <trkpt lat="49.25901" lon="1.72386">
        <ele>87.62</ele>
        <time>2013-05-26T07:17:56Z</time>
      </trkpt>
      <trkpt lat="49.25927" lon="1.72438">
        <ele>87.62</ele>
        <time>2013-05-26T07:18:06Z</time>
      </trkpt>
      <trkpt lat="49.25947" lon="1.72506">
        <ele>89.06</ele>
        <time>2013-05-26T07:18:20Z</time>
      </trkpt>
      <trkpt lat="49.25962" lon="1.72575">
        <ele>87.62</ele>
        <time>2013-05-26T07:18:33Z</time>
      </trkpt>
      <trkpt lat="49.25982" lon="1.7266">
        <ele>86.66</ele>
        <time>2013-05-26T07:18:49Z</time>
      </trkpt>
      <trkpt lat="49.26005" lon="1.72736">
        <ele>87.14</ele>
        <time>2013-05-26T07:19:05Z</time>
      </trkpt>
      <trkpt lat="49.26014" lon="1.7282">
        <ele>87.14</ele>
        <time>2013-05-26T07:19:20Z</time>
      </trkpt>
      <trkpt lat="49.26007" lon="1.72909">
        <ele>87.14</ele>
        <time>2013-05-26T07:19:37Z</time>
      </trkpt>
      <trkpt lat="49.25995" lon="1.73001">
        <ele>85.69</ele>
        <time>2013-05-26T07:19:54Z</time>
      </trkpt>
      <trkpt lat="49.25987" lon="1.73048">
        <ele>85.21</ele>
        <time>2013-05-26T07:20:03Z</time>
      </trkpt>
      <trkpt lat="49.25986" lon="1.73079">
        <ele>85.69</ele>
        <time>2013-05-26T07:20:07Z</time>
      </trkpt>
      <trkpt lat="49.25985" lon="1.73099">
        <ele>86.66</ele>
        <time>2013-05-26T07:20:10Z</time>
      </trkpt>
      <trkpt lat="49.25977" lon="1.73176">
        <ele>87.62</ele>
        <time>2013-05-26T07:20:25Z</time>
      </trkpt>
      <trkpt lat="49.25965" lon="1.73238">
        <ele>86.66</ele>
        <time>2013-05-26T07:20:37Z</time>
      </trkpt>
      <trkpt lat="49.25948" lon="1.73333">
        <ele>84.25</ele>
        <time>2013-05-26T07:20:53Z</time>
      </trkpt>
      <trkpt lat="49.25937" lon="1.73425">
        <ele>86.18</ele>
        <time>2013-05-26T07:21:08Z</time>
      </trkpt>
      <trkpt lat="49.25931" lon="1.73499">
        <ele>86.18</ele>
        <time>2013-05-26T07:21:23Z</time>
      </trkpt>
      <trkpt lat="49.25925" lon="1.73541">
        <ele>85.21</ele>
        <time>2013-05-26T07:21:36Z</time>
      </trkpt>
      <trkpt lat="49.25917" lon="1.73583">
        <ele>83.77</ele>
        <time>2013-05-26T07:21:48Z</time>
      </trkpt>
      <trkpt lat="49.25914" lon="1.73596">
        <ele>83.77</ele>
        <time>2013-05-26T07:21:50Z</time>
      </trkpt>
      <trkpt lat="49.25901" lon="1.73688">
        <ele>85.69</ele>
        <time>2013-05-26T07:22:05Z</time>
      </trkpt>
      <trkpt lat="49.2589" lon="1.73765">
        <ele>87.14</ele>
        <time>2013-05-26T07:22:18Z</time>
      </trkpt>
      <trkpt lat="49.25884" lon="1.73847">
        <ele>87.14</ele>
        <time>2013-05-26T07:22:32Z</time>
      </trkpt>
      <trkpt lat="49.25877" lon="1.73896">
        <ele>88.1</ele>
        <time>2013-05-26T07:22:44Z</time>
      </trkpt>
      <trkpt lat="49.25866" lon="1.73946">
        <ele>86.66</ele>
        <time>2013-05-26T07:22:55Z</time>
      </trkpt>
      <trkpt lat="49.25864" lon="1.73948">
        <ele>88.1</ele>
        <time>2013-05-26T07:22:56Z</time>
      </trkpt>
      <trkpt lat="49.25861" lon="1.7395">
        <ele>88.1</ele>
        <time>2013-05-26T07:22:57Z</time>
      </trkpt>
      <trkpt lat="49.25857" lon="1.73951">
        <ele>88.1</ele>
        <time>2013-05-26T07:22:58Z</time>
      </trkpt>
      <trkpt lat="49.25854" lon="1.73951">
        <ele>87.62</ele>
        <time>2013-05-26T07:22:59Z</time>
      </trkpt>
      <trkpt lat="49.25851" lon="1.73951">
        <ele>88.58</ele>
        <time>2013-05-26T07:23:00Z</time>
      </trkpt>
      <trkpt lat="49.25815" lon="1.73956">
        <ele>89.54</ele>
        <time>2013-05-26T07:23:12Z</time>
      </trkpt>
      <trkpt lat="49.25807" lon="1.73965">
        <ele>90.5</ele>
        <time>2013-05-26T07:23:26Z</time>
      </trkpt>
      <trkpt lat="49.25807" lon="1.73964">
        <ele>90.02</ele>
        <time>2013-05-26T07:23:55Z</time>
      </trkpt>
      <trkpt lat="49.25807" lon="1.73965">
        <ele>90.98</ele>
        <time>2013-05-26T07:24:22Z</time>
      </trkpt>
      <trkpt lat="49.25807" lon="1.73964">
        <ele>89.54</ele>
        <time>2013-05-26T07:24:48Z</time>
      </trkpt>
      <trkpt lat="49.25808" lon="1.73964">
        <ele>90.02</ele>
        <time>2013-05-26T07:25:21Z</time>
      </trkpt>
      <trkpt lat="49.25808" lon="1.73964">
        <ele>90.5</ele>
        <time>2013-05-26T07:25:49Z</time>
      </trkpt>
      <trkpt lat="49.25807" lon="1.73969">
        <ele>90.02</ele>
        <time>2013-05-26T07:25:53Z</time>
      </trkpt>
      <trkpt lat="49.25808" lon="1.73972">
        <ele>90.5</ele>
        <time>2013-05-26T07:25:54Z</time>
      </trkpt>
      <trkpt lat="49.2581" lon="1.73975">
        <ele>90.02</ele>
        <time>2013-05-26T07:25:55Z</time>
      </trkpt>
      <trkpt lat="49.25812" lon="1.73978">
        <ele>89.06</ele>
        <time>2013-05-26T07:25:56Z</time>
      </trkpt>
      <trkpt lat="49.25815" lon="1.73982">
        <ele>89.06</ele>
        <time>2013-05-26T07:25:57Z</time>
      </trkpt>
      <trkpt lat="49.25828" lon="1.73995">
        <ele>86.66</ele>
        <time>2013-05-26T07:26:00Z</time>
      </trkpt>
      <trkpt lat="49.25832" lon="1.74001">
        <ele>86.66</ele>
        <time>2013-05-26T07:26:01Z</time>
      </trkpt>
      <trkpt lat="49.25845" lon="1.74018">
        <ele>85.21</ele>
        <time>2013-05-26T07:26:04Z</time>
      </trkpt>
      <trkpt lat="49.25855" lon="1.74031">
        <ele>82.81</ele>
        <time>2013-05-26T07:26:06Z</time>
      </trkpt>
      <trkpt lat="49.25858" lon="1.74039">
        <ele>82.33</ele>
        <time>2013-05-26T07:26:07Z</time>
      </trkpt>
      <trkpt lat="49.25865" lon="1.74069">
        <ele>80.41</ele>
        <time>2013-05-26T07:26:10Z</time>
      </trkpt>
      <trkpt lat="49.25866" lon="1.7408">
        <ele>80.41</ele>
        <time>2013-05-26T07:26:11Z</time>
      </trkpt>
      <trkpt lat="49.25864" lon="1.74091">
        <ele>80.89</ele>
        <time>2013-05-26T07:26:12Z</time>
      </trkpt>
      <trkpt lat="49.25845" lon="1.74177">
        <ele>80.89</ele>
        <time>2013-05-26T07:26:23Z</time>
      </trkpt>
      <trkpt lat="49.25818" lon="1.74235">
        <ele>79.93</ele>
        <time>2013-05-26T07:26:32Z</time>
      </trkpt>
      <trkpt lat="49.25814" lon="1.74241">
        <ele>80.41</ele>
        <time>2013-05-26T07:26:33Z</time>
      </trkpt>
      <trkpt lat="49.25801" lon="1.74256">
        <ele>79.45</ele>
        <time>2013-05-26T07:26:36Z</time>
      </trkpt>
      <trkpt lat="49.25795" lon="1.74261">
        <ele>79.45</ele>
        <time>2013-05-26T07:26:37Z</time>
      </trkpt>
      <trkpt lat="49.25783" lon="1.7427">
        <ele>80.41</ele>
        <time>2013-05-26T07:26:39Z</time>
      </trkpt>
      <trkpt lat="49.25761" lon="1.74284">
        <ele>79.93</ele>
        <time>2013-05-26T07:26:43Z</time>
      </trkpt>
      <trkpt lat="49.25701" lon="1.7429">
        <ele>82.81</ele>
        <time>2013-05-26T07:26:57Z</time>
      </trkpt>
      <trkpt lat="49.2567" lon="1.7431">
        <ele>83.29</ele>
        <time>2013-05-26T07:27:09Z</time>
      </trkpt>
      <trkpt lat="49.25649" lon="1.74361">
        <ele>83.29</ele>
        <time>2013-05-26T07:27:21Z</time>
      </trkpt>
      <trkpt lat="49.25647" lon="1.74423">
        <ele>86.18</ele>
        <time>2013-05-26T07:27:33Z</time>
      </trkpt>
      <trkpt lat="49.25646" lon="1.74456">
        <ele>85.69</ele>
        <time>2013-05-26T07:27:40Z</time>
      </trkpt>
      <trkpt lat="49.25644" lon="1.74459">
        <ele>87.14</ele>
        <time>2013-05-26T07:27:41Z</time>
      </trkpt>
      <trkpt lat="49.25642" lon="1.74461">
        <ele>86.18</ele>
        <time>2013-05-26T07:27:42Z</time>
      </trkpt>
      <trkpt lat="49.25639" lon="1.74462">
        <ele>87.62</ele>
        <time>2013-05-26T07:27:43Z</time>
      </trkpt>
      <trkpt lat="49.25636" lon="1.74462">
        <ele>86.66</ele>
        <time>2013-05-26T07:27:44Z</time>
      </trkpt>
      <trkpt lat="49.25633" lon="1.74461">
        <ele>87.62</ele>
        <time>2013-05-26T07:27:45Z</time>
      </trkpt>
      <trkpt lat="49.25631" lon="1.74461">
        <ele>86.66</ele>
        <time>2013-05-26T07:27:46Z</time>
      </trkpt>
      <trkpt lat="49.25628" lon="1.74459">
        <ele>87.14</ele>
        <time>2013-05-26T07:27:47Z</time>
      </trkpt>
      <trkpt lat="49.25605" lon="1.7445">
        <ele>90.5</ele>
        <time>2013-05-26T07:28:00Z</time>
      </trkpt>
      <trkpt lat="49.25582" lon="1.74443">
        <ele>92.9</ele>
        <time>2013-05-26T07:28:14Z</time>
      </trkpt>
      <trkpt lat="49.25561" lon="1.74439">
        <ele>94.83</ele>
        <time>2013-05-26T07:28:25Z</time>
      </trkpt>
      <trkpt lat="49.25539" lon="1.74436">
        <ele>97.71</ele>
        <time>2013-05-26T07:28:39Z</time>
      </trkpt>
      <trkpt lat="49.25521" lon="1.74453">
        <ele>100.11</ele>
        <time>2013-05-26T07:28:53Z</time>
      </trkpt>
      <trkpt lat="49.25519" lon="1.74453">
        <ele>102.04</ele>
        <time>2013-05-26T07:28:54Z</time>
      </trkpt>
      <trkpt lat="49.25516" lon="1.74458">
        <ele>100.6</ele>
        <time>2013-05-26T07:28:57Z</time>
      </trkpt>
      <trkpt lat="49.25515" lon="1.7446">
        <ele>103</ele>
        <time>2013-05-26T07:28:58Z</time>
      </trkpt>
      <trkpt lat="49.25514" lon="1.74462">
        <ele>102.04</ele>
        <time>2013-05-26T07:28:59Z</time>
      </trkpt>
      <trkpt lat="49.25514" lon="1.74463">
        <ele>102.04</ele>
        <time>2013-05-26T07:29:00Z</time>
      </trkpt>
      <trkpt lat="49.25512" lon="1.74465">
        <ele>102.52</ele>
        <time>2013-05-26T07:29:01Z</time>
      </trkpt>
      <trkpt lat="49.25511" lon="1.74467">
        <ele>101.56</ele>
        <time>2013-05-26T07:29:02Z</time>
      </trkpt>
      <trkpt lat="49.25501" lon="1.74481">
        <ele>104.44</ele>
        <time>2013-05-26T07:29:09Z</time>
      </trkpt>
      <trkpt lat="49.25499" lon="1.74482">
        <ele>103</ele>
        <time>2013-05-26T07:29:10Z</time>
      </trkpt>
      <trkpt lat="49.25497" lon="1.74483">
        <ele>103.48</ele>
        <time>2013-05-26T07:29:11Z</time>
      </trkpt>
      <trkpt lat="49.25481" lon="1.74503">
        <ele>104.92</ele>
        <time>2013-05-26T07:29:24Z</time>
      </trkpt>
      <trkpt lat="49.2548" lon="1.74506">
        <ele>106.84</ele>
        <time>2013-05-26T07:29:25Z</time>
      </trkpt>
      <trkpt lat="49.25479" lon="1.74508">
        <ele>106.36</ele>
        <time>2013-05-26T07:29:26Z</time>
      </trkpt>
      <trkpt lat="49.25458" lon="1.74555">
        <ele>106.36</ele>
        <time>2013-05-26T07:29:42Z</time>
      </trkpt>
      <trkpt lat="49.25437" lon="1.74601">
        <ele>107.81</ele>
        <time>2013-05-26T07:29:54Z</time>
      </trkpt>
      <trkpt lat="49.2542" lon="1.74641">
        <ele>109.73</ele>
        <time>2013-05-26T07:30:05Z</time>
      </trkpt>
      <trkpt lat="49.25417" lon="1.74644">
        <ele>108.29</ele>
        <time>2013-05-26T07:30:06Z</time>
      </trkpt>
      <trkpt lat="49.25395" lon="1.74652">
        <ele>111.65</ele>
        <time>2013-05-26T07:30:14Z</time>
      </trkpt>
      <trkpt lat="49.25376" lon="1.74662">
        <ele>114.05</ele>
        <time>2013-05-26T07:30:25Z</time>
      </trkpt>
      <trkpt lat="49.25375" lon="1.74665">
        <ele>114.05</ele>
        <time>2013-05-26T07:30:26Z</time>
      </trkpt>
      <trkpt lat="49.25374" lon="1.74668">
        <ele>114.05</ele>
        <time>2013-05-26T07:30:27Z</time>
      </trkpt>
      <trkpt lat="49.25373" lon="1.7467">
        <ele>114.05</ele>
        <time>2013-05-26T07:30:28Z</time>
      </trkpt>
      <trkpt lat="49.25372" lon="1.74672">
        <ele>114.05</ele>
        <time>2013-05-26T07:30:29Z</time>
      </trkpt>
      <trkpt lat="49.25371" lon="1.74674">
        <ele>115.5</ele>
        <time>2013-05-26T07:30:30Z</time>
      </trkpt>
      <trkpt lat="49.2537" lon="1.74676">
        <ele>114.05</ele>
        <time>2013-05-26T07:30:31Z</time>
      </trkpt>
      <trkpt lat="49.25361" lon="1.74701">
        <ele>117.42</ele>
        <time>2013-05-26T07:30:43Z</time>
      </trkpt>
      <trkpt lat="49.25347" lon="1.74727">
        <ele>117.9</ele>
        <time>2013-05-26T07:30:55Z</time>
      </trkpt>
      <trkpt lat="49.25327" lon="1.74749">
        <ele>118.86</ele>
        <time>2013-05-26T07:31:07Z</time>
      </trkpt>
      <trkpt lat="49.25303" lon="1.7478">
        <ele>120.78</ele>
        <time>2013-05-26T07:31:19Z</time>
      </trkpt>
      <trkpt lat="49.25273" lon="1.74827">
        <ele>122.71</ele>
        <time>2013-05-26T07:31:33Z</time>
      </trkpt>
      <trkpt lat="49.25256" lon="1.74852">
        <ele>123.67</ele>
        <time>2013-05-26T07:31:42Z</time>
      </trkpt>
      <trkpt lat="49.25245" lon="1.74871">
        <ele>126.55</ele>
        <time>2013-05-26T07:31:53Z</time>
      </trkpt>
      <trkpt lat="49.25229" lon="1.74891">
        <ele>125.11</ele>
        <time>2013-05-26T07:32:05Z</time>
      </trkpt>
      <trkpt lat="49.25229" lon="1.74892">
        <ele>125.59</ele>
        <time>2013-05-26T07:32:29Z</time>
      </trkpt>
      <trkpt lat="49.2523" lon="1.74892">
        <ele>126.55</ele>
        <time>2013-05-26T07:32:58Z</time>
      </trkpt>
      <trkpt lat="49.25229" lon="1.74894">
        <ele>126.55</ele>
        <time>2013-05-26T07:33:34Z</time>
      </trkpt>
      <trkpt lat="49.25229" lon="1.74901">
        <ele>126.55</ele>
        <time>2013-05-26T07:34:00Z</time>
      </trkpt>
      <trkpt lat="49.25229" lon="1.74903">
        <ele>125.59</ele>
        <time>2013-05-26T07:34:01Z</time>
      </trkpt>
      <trkpt lat="49.2523" lon="1.74906">
        <ele>126.55</ele>
        <time>2013-05-26T07:34:02Z</time>
      </trkpt>
      <trkpt lat="49.2523" lon="1.74909">
        <ele>126.55</ele>
        <time>2013-05-26T07:34:03Z</time>
      </trkpt>
      <trkpt lat="49.2523" lon="1.74914">
        <ele>125.59</ele>
        <time>2013-05-26T07:34:05Z</time>
      </trkpt>
      <trkpt lat="49.25232" lon="1.74921">
        <ele>126.07</ele>
        <time>2013-05-26T07:34:08Z</time>
      </trkpt>
      <trkpt lat="49.25233" lon="1.74924">
        <ele>126.55</ele>
        <time>2013-05-26T07:34:09Z</time>
      </trkpt>
      <trkpt lat="49.25236" lon="1.74945">
        <ele>126.55</ele>
        <time>2013-05-26T07:34:14Z</time>
      </trkpt>
      <trkpt lat="49.25235" lon="1.74952">
        <ele>127.03</ele>
        <time>2013-05-26T07:34:15Z</time>
      </trkpt>
      <trkpt lat="49.25234" lon="1.7496">
        <ele>127.03</ele>
        <time>2013-05-26T07:34:16Z</time>
      </trkpt>
      <trkpt lat="49.25235" lon="1.75021">
        <ele>126.55</ele>
        <time>2013-05-26T07:34:26Z</time>
      </trkpt>
      <trkpt lat="49.25237" lon="1.75036">
        <ele>127.03</ele>
        <time>2013-05-26T07:34:29Z</time>
      </trkpt>
      <trkpt lat="49.25237" lon="1.75047">
        <ele>127.51</ele>
        <time>2013-05-26T07:34:31Z</time>
      </trkpt>
      <trkpt lat="49.25235" lon="1.75109">
        <ele>127.51</ele>
        <time>2013-05-26T07:34:41Z</time>
      </trkpt>
      <trkpt lat="49.25222" lon="1.75192">
        <ele>127.99</ele>
        <time>2013-05-26T07:34:55Z</time>
      </trkpt>
      <trkpt lat="49.25222" lon="1.75272">
        <ele>128.95</ele>
        <time>2013-05-26T07:35:11Z</time>
      </trkpt>
      <trkpt lat="49.2522" lon="1.75348">
        <ele>129.43</ele>
        <time>2013-05-26T07:35:26Z</time>
      </trkpt>
      <trkpt lat="49.25218" lon="1.75429">
        <ele>131.36</ele>
        <time>2013-05-26T07:35:41Z</time>
      </trkpt>
      <trkpt lat="49.25222" lon="1.75501">
        <ele>131.36</ele>
        <time>2013-05-26T07:35:54Z</time>
      </trkpt>
      <trkpt lat="49.25222" lon="1.75536">
        <ele>131.36</ele>
        <time>2013-05-26T07:36:00Z</time>
      </trkpt>
      <trkpt lat="49.25223" lon="1.75542">
        <ele>130.88</ele>
        <time>2013-05-26T07:36:01Z</time>
      </trkpt>
      <trkpt lat="49.25229" lon="1.75628">
        <ele>131.84</ele>
        <time>2013-05-26T07:36:17Z</time>
      </trkpt>
      <trkpt lat="49.25233" lon="1.75688">
        <ele>131.84</ele>
        <time>2013-05-26T07:36:29Z</time>
      </trkpt>
      <trkpt lat="49.25236" lon="1.7575">
        <ele>132.32</ele>
        <time>2013-05-26T07:36:42Z</time>
      </trkpt>
      <trkpt lat="49.25239" lon="1.75815">
        <ele>133.76</ele>
        <time>2013-05-26T07:36:54Z</time>
      </trkpt>
      <trkpt lat="49.2525" lon="1.75868">
        <ele>134.24</ele>
        <time>2013-05-26T07:37:05Z</time>
      </trkpt>
      <trkpt lat="49.2525" lon="1.75873">
        <ele>135.2</ele>
        <time>2013-05-26T07:37:06Z</time>
      </trkpt>
      <trkpt lat="49.25251" lon="1.75878">
        <ele>134.24</ele>
        <time>2013-05-26T07:37:07Z</time>
      </trkpt>
      <trkpt lat="49.25252" lon="1.75884">
        <ele>134.72</ele>
        <time>2013-05-26T07:37:08Z</time>
      </trkpt>
      <trkpt lat="49.25255" lon="1.759">
        <ele>134.24</ele>
        <time>2013-05-26T07:37:11Z</time>
      </trkpt>
      <trkpt lat="49.25255" lon="1.75905">
        <ele>135.2</ele>
        <time>2013-05-26T07:37:12Z</time>
      </trkpt>
      <trkpt lat="49.25256" lon="1.7591">
        <ele>135.68</ele>
        <time>2013-05-26T07:37:13Z</time>
      </trkpt>
      <trkpt lat="49.25257" lon="1.75914">
        <ele>134.72</ele>
        <time>2013-05-26T07:37:14Z</time>
      </trkpt>
      <trkpt lat="49.25257" lon="1.75919">
        <ele>134.72</ele>
        <time>2013-05-26T07:37:15Z</time>
      </trkpt>
      <trkpt lat="49.25257" lon="1.75924">
        <ele>136.16</ele>
        <time>2013-05-26T07:37:16Z</time>
      </trkpt>
      <trkpt lat="49.25259" lon="1.75927">
        <ele>135.2</ele>
        <time>2013-05-26T07:37:17Z</time>
      </trkpt>
      <trkpt lat="49.2527" lon="1.75931">
        <ele>135.2</ele>
        <time>2013-05-26T07:37:21Z</time>
      </trkpt>
      <trkpt lat="49.25288" lon="1.75937">
        <ele>136.16</ele>
        <time>2013-05-26T07:37:28Z</time>
      </trkpt>
      <trkpt lat="49.25294" lon="1.75942">
        <ele>136.64</ele>
        <time>2013-05-26T07:37:31Z</time>
      </trkpt>
      <trkpt lat="49.25299" lon="1.7595">
        <ele>136.16</ele>
        <time>2013-05-26T07:37:34Z</time>
      </trkpt>
      <trkpt lat="49.25307" lon="1.75971">
        <ele>137.61</ele>
        <time>2013-05-26T07:37:39Z</time>
      </trkpt>
      <trkpt lat="49.25314" lon="1.7601">
        <ele>138.09</ele>
        <time>2013-05-26T07:37:46Z</time>
      </trkpt>
      <trkpt lat="49.25314" lon="1.76027">
        <ele>138.09</ele>
        <time>2013-05-26T07:37:49Z</time>
      </trkpt>
      <trkpt lat="49.25317" lon="1.76063">
        <ele>139.53</ele>
        <time>2013-05-26T07:37:54Z</time>
      </trkpt>
      <trkpt lat="49.25317" lon="1.76073">
        <ele>138.09</ele>
        <time>2013-05-26T07:37:55Z</time>
      </trkpt>
      <trkpt lat="49.25324" lon="1.76093">
        <ele>139.05</ele>
        <time>2013-05-26T07:38:00Z</time>
      </trkpt>
      <trkpt lat="49.25324" lon="1.76105">
        <ele>138.57</ele>
        <time>2013-05-26T07:38:01Z</time>
      </trkpt>
      <trkpt lat="49.25329" lon="1.76139">
        <ele>138.09</ele>
        <time>2013-05-26T07:38:07Z</time>
      </trkpt>
      <trkpt lat="49.25328" lon="1.76162">
        <ele>139.53</ele>
        <time>2013-05-26T07:38:09Z</time>
      </trkpt>
      <trkpt lat="49.25329" lon="1.76166">
        <ele>138.09</ele>
        <time>2013-05-26T07:38:10Z</time>
      </trkpt>
      <trkpt lat="49.25328" lon="1.76175">
        <ele>139.05</ele>
        <time>2013-05-26T07:38:11Z</time>
      </trkpt>
      <trkpt lat="49.25321" lon="1.76199">
        <ele>138.09</ele>
        <time>2013-05-26T07:38:12Z</time>
      </trkpt>
      <trkpt lat="49.25317" lon="1.76216">
        <ele>139.05</ele>
        <time>2013-05-26T07:38:13Z</time>
      </trkpt>
      <trkpt lat="49.25322" lon="1.76233">
        <ele>138.09</ele>
        <time>2013-05-26T07:38:16Z</time>
      </trkpt>
      <trkpt lat="49.253" lon="1.76327">
        <ele>137.13</ele>
        <time>2013-05-26T07:38:23Z</time>
      </trkpt>
      <trkpt lat="49.25298" lon="1.76335">
        <ele>139.05</ele>
        <time>2013-05-26T07:38:24Z</time>
      </trkpt>
      <trkpt lat="49.253" lon="1.76338">
        <ele>137.61</ele>
        <time>2013-05-26T07:38:25Z</time>
      </trkpt>
      <trkpt lat="49.25302" lon="1.76343">
        <ele>138.09</ele>
        <time>2013-05-26T07:38:27Z</time>
      </trkpt>
      <trkpt lat="49.25301" lon="1.76348">
        <ele>138.57</ele>
        <time>2013-05-26T07:38:28Z</time>
      </trkpt>
      <trkpt lat="49.25301" lon="1.76352">
        <ele>138.09</ele>
        <time>2013-05-26T07:38:29Z</time>
      </trkpt>
      <trkpt lat="49.25301" lon="1.76356">
        <ele>138.57</ele>
        <time>2013-05-26T07:38:30Z</time>
      </trkpt>
      <trkpt lat="49.25302" lon="1.76358">
        <ele>138.09</ele>
        <time>2013-05-26T07:38:31Z</time>
      </trkpt>
      <trkpt lat="49.25302" lon="1.7636">
        <ele>138.09</ele>
        <time>2013-05-26T07:38:32Z</time>
      </trkpt>
      <trkpt lat="49.25302" lon="1.76362">
        <ele>138.57</ele>
        <time>2013-05-26T07:38:33Z</time>
      </trkpt>
      <trkpt lat="49.25303" lon="1.76365">
        <ele>138.09</ele>
        <time>2013-05-26T07:38:34Z</time>
      </trkpt>
      <trkpt lat="49.25305" lon="1.76368">
        <ele>138.09</ele>
        <time>2013-05-26T07:38:35Z</time>
      </trkpt>
      <trkpt lat="49.25307" lon="1.76372">
        <ele>138.09</ele>
        <time>2013-05-26T07:38:37Z</time>
      </trkpt>
      <trkpt lat="49.25308" lon="1.76375">
        <ele>137.61</ele>
        <time>2013-05-26T07:38:38Z</time>
      </trkpt>
      <trkpt lat="49.25309" lon="1.76378">
        <ele>137.61</ele>
        <time>2013-05-26T07:38:39Z</time>
      </trkpt>
      <trkpt lat="49.25299" lon="1.7643">
        <ele>137.61</ele>
        <time>2013-05-26T07:38:46Z</time>
      </trkpt>
      <trkpt lat="49.25293" lon="1.76444">
        <ele>136.64</ele>
        <time>2013-05-26T07:38:47Z</time>
      </trkpt>
      <trkpt lat="49.25288" lon="1.76455">
        <ele>137.61</ele>
        <time>2013-05-26T07:38:48Z</time>
      </trkpt>
      <trkpt lat="49.25282" lon="1.76469">
        <ele>136.64</ele>
        <time>2013-05-26T07:38:49Z</time>
      </trkpt>
      <trkpt lat="49.2528" lon="1.76474">
        <ele>137.61</ele>
        <time>2013-05-26T07:38:50Z</time>
      </trkpt>
      <trkpt lat="49.25274" lon="1.76487">
        <ele>136.16</ele>
        <time>2013-05-26T07:38:51Z</time>
      </trkpt>
      <trkpt lat="49.25272" lon="1.76494">
        <ele>137.13</ele>
        <time>2013-05-26T07:38:52Z</time>
      </trkpt>
      <trkpt lat="49.2525" lon="1.76573">
        <ele>135.68</ele>
        <time>2013-05-26T07:39:03Z</time>
      </trkpt>
      <trkpt lat="49.25233" lon="1.76614">
        <ele>136.64</ele>
        <time>2013-05-26T07:39:06Z</time>
      </trkpt>
      <trkpt lat="49.25221" lon="1.76651">
        <ele>135.68</ele>
        <time>2013-05-26T07:39:10Z</time>
      </trkpt>
      <trkpt lat="49.25201" lon="1.76732">
        <ele>136.16</ele>
        <time>2013-05-26T07:39:20Z</time>
      </trkpt>
      <trkpt lat="49.25199" lon="1.76739">
        <ele>136.16</ele>
        <time>2013-05-26T07:39:21Z</time>
      </trkpt>
      <trkpt lat="49.25197" lon="1.76744">
        <ele>136.16</ele>
        <time>2013-05-26T07:39:22Z</time>
      </trkpt>
      <trkpt lat="49.25195" lon="1.7675">
        <ele>136.16</ele>
        <time>2013-05-26T07:39:23Z</time>
      </trkpt>
      <trkpt lat="49.25194" lon="1.76755">
        <ele>135.2</ele>
        <time>2013-05-26T07:39:24Z</time>
      </trkpt>
      <trkpt lat="49.25192" lon="1.7676">
        <ele>136.64</ele>
        <time>2013-05-26T07:39:25Z</time>
      </trkpt>
      <trkpt lat="49.2517" lon="1.76817">
        <ele>133.76</ele>
        <time>2013-05-26T07:39:35Z</time>
      </trkpt>
      <trkpt lat="49.25146" lon="1.76886">
        <ele>133.28</ele>
        <time>2013-05-26T07:39:46Z</time>
      </trkpt>
      <trkpt lat="49.25138" lon="1.76905">
        <ele>132.8</ele>
        <time>2013-05-26T07:39:57Z</time>
      </trkpt>
      <trkpt lat="49.25137" lon="1.76906">
        <ele>132.8</ele>
        <time>2013-05-26T07:40:10Z</time>
      </trkpt>
      <trkpt lat="49.25133" lon="1.7691">
        <ele>132.8</ele>
        <time>2013-05-26T07:40:38Z</time>
      </trkpt>
      <trkpt lat="49.25132" lon="1.76911">
        <ele>132.8</ele>
        <time>2013-05-26T07:40:40Z</time>
      </trkpt>
      <trkpt lat="49.2513" lon="1.76914">
        <ele>132.32</ele>
        <time>2013-05-26T07:40:50Z</time>
      </trkpt>
      <trkpt lat="49.2513" lon="1.76916">
        <ele>132.32</ele>
        <time>2013-05-26T07:41:15Z</time>
      </trkpt>
      <trkpt lat="49.2513" lon="1.76917">
        <ele>133.28</ele>
        <time>2013-05-26T07:41:33Z</time>
      </trkpt>
      <trkpt lat="49.2513" lon="1.76916">
        <ele>134.24</ele>
        <time>2013-05-26T07:41:56Z</time>
      </trkpt>
      <trkpt lat="49.25129" lon="1.76916">
        <ele>134.72</ele>
        <time>2013-05-26T07:42:21Z</time>
      </trkpt>
      <trkpt lat="49.25128" lon="1.76916">
        <ele>134.72</ele>
        <time>2013-05-26T07:42:52Z</time>
      </trkpt>
      <trkpt lat="49.25129" lon="1.76916">
        <ele>134.72</ele>
        <time>2013-05-26T07:43:20Z</time>
      </trkpt>
      <trkpt lat="49.2513" lon="1.76917">
        <ele>133.28</ele>
        <time>2013-05-26T07:43:47Z</time>
      </trkpt>
      <trkpt lat="49.25129" lon="1.76916">
        <ele>133.76</ele>
        <time>2013-05-26T07:44:12Z</time>
      </trkpt>
      <trkpt lat="49.25129" lon="1.76916">
        <ele>133.76</ele>
        <time>2013-05-26T07:44:45Z</time>
      </trkpt>
      <trkpt lat="49.2513" lon="1.76916">
        <ele>133.28</ele>
        <time>2013-05-26T07:45:14Z</time>
      </trkpt>
      <trkpt lat="49.2513" lon="1.76917">
        <ele>133.76</ele>
        <time>2013-05-26T07:45:45Z</time>
      </trkpt>
      <trkpt lat="49.25129" lon="1.76918">
        <ele>134.24</ele>
        <time>2013-05-26T07:46:11Z</time>
      </trkpt>
      <trkpt lat="49.25129" lon="1.76917">
        <ele>134.24</ele>
        <time>2013-05-26T07:46:33Z</time>
      </trkpt>
      <trkpt lat="49.25128" lon="1.76917">
        <ele>134.72</ele>
        <time>2013-05-26T07:46:55Z</time>
      </trkpt>
      <trkpt lat="49.25127" lon="1.76915">
        <ele>134.72</ele>
        <time>2013-05-26T07:47:21Z</time>
      </trkpt>
      <trkpt lat="49.25128" lon="1.76915">
        <ele>134.72</ele>
        <time>2013-05-26T07:47:49Z</time>
      </trkpt>
      <trkpt lat="49.25129" lon="1.76914">
        <ele>134.72</ele>
        <time>2013-05-26T07:48:15Z</time>
      </trkpt>
      <trkpt lat="49.25129" lon="1.76914">
        <ele>134.72</ele>
        <time>2013-05-26T07:48:38Z</time>
      </trkpt>
      <trkpt lat="49.25129" lon="1.76915">
        <ele>134.24</ele>
        <time>2013-05-26T07:48:46Z</time>
      </trkpt>
      <trkpt lat="49.25129" lon="1.76917">
        <ele>134.72</ele>
        <time>2013-05-26T07:48:47Z</time>
      </trkpt>
      <trkpt lat="49.25129" lon="1.76919">
        <ele>134.24</ele>
        <time>2013-05-26T07:48:48Z</time>
      </trkpt>
      <trkpt lat="49.2513" lon="1.76923">
        <ele>134.72</ele>
        <time>2013-05-26T07:48:49Z</time>
      </trkpt>
      <trkpt lat="49.2513" lon="1.76926">
        <ele>135.2</ele>
        <time>2013-05-26T07:48:50Z</time>
      </trkpt>
      <trkpt lat="49.25129" lon="1.76929">
        <ele>134.24</ele>
        <time>2013-05-26T07:48:51Z</time>
      </trkpt>
      <trkpt lat="49.25115" lon="1.76989">
        <ele>133.76</ele>
        <time>2013-05-26T07:49:03Z</time>
      </trkpt>
      <trkpt lat="49.25111" lon="1.77006">
        <ele>133.76</ele>
        <time>2013-05-26T07:49:06Z</time>
      </trkpt>
      <trkpt lat="49.25092" lon="1.77085">
        <ele>132.8</ele>
        <time>2013-05-26T07:49:20Z</time>
      </trkpt>
      <trkpt lat="49.25091" lon="1.77091">
        <ele>133.76</ele>
        <time>2013-05-26T07:49:21Z</time>
      </trkpt>
      <trkpt lat="49.25089" lon="1.77097">
        <ele>132.8</ele>
        <time>2013-05-26T07:49:22Z</time>
      </trkpt>
      <trkpt lat="49.25082" lon="1.77128">
        <ele>132.8</ele>
        <time>2013-05-26T07:49:27Z</time>
      </trkpt>
      <trkpt lat="49.2508" lon="1.77134">
        <ele>131.36</ele>
        <time>2013-05-26T07:49:28Z</time>
      </trkpt>
      <trkpt lat="49.25079" lon="1.7714">
        <ele>132.32</ele>
        <time>2013-05-26T07:49:29Z</time>
      </trkpt>
      <trkpt lat="49.25078" lon="1.77146">
        <ele>132.8</ele>
        <time>2013-05-26T07:49:30Z</time>
      </trkpt>
      <trkpt lat="49.25076" lon="1.77152">
        <ele>132.8</ele>
        <time>2013-05-26T07:49:31Z</time>
      </trkpt>
      <trkpt lat="49.25046" lon="1.77266">
        <ele>132.8</ele>
        <time>2013-05-26T07:49:50Z</time>
      </trkpt>
      <trkpt lat="49.25041" lon="1.77283">
        <ele>131.84</ele>
        <time>2013-05-26T07:49:53Z</time>
      </trkpt>
      <trkpt lat="49.25039" lon="1.77289">
        <ele>132.32</ele>
        <time>2013-05-26T07:49:54Z</time>
      </trkpt>
      <trkpt lat="49.25016" lon="1.77366">
        <ele>131.84</ele>
        <time>2013-05-26T07:50:09Z</time>
      </trkpt>
      <trkpt lat="49.24996" lon="1.77441">
        <ele>133.76</ele>
        <time>2013-05-26T07:50:23Z</time>
      </trkpt>
      <trkpt lat="49.24974" lon="1.77516">
        <ele>132.8</ele>
        <time>2013-05-26T07:50:38Z</time>
      </trkpt>
      <trkpt lat="49.24952" lon="1.77596">
        <ele>131.84</ele>
        <time>2013-05-26T07:50:53Z</time>
      </trkpt>
      <trkpt lat="49.24945" lon="1.77623">
        <ele>131.84</ele>
        <time>2013-05-26T07:50:58Z</time>
      </trkpt>
      <trkpt lat="49.24932" lon="1.77665">
        <ele>130.88</ele>
        <time>2013-05-26T07:51:08Z</time>
      </trkpt>
      <trkpt lat="49.24932" lon="1.77669">
        <ele>130.88</ele>
        <time>2013-05-26T07:51:09Z</time>
      </trkpt>
      <trkpt lat="49.24929" lon="1.77686">
        <ele>130.4</ele>
        <time>2013-05-26T07:51:12Z</time>
      </trkpt>
      <trkpt lat="49.24929" lon="1.7769">
        <ele>130.88</ele>
        <time>2013-05-26T07:51:13Z</time>
      </trkpt>
      <trkpt lat="49.24929" lon="1.77693">
        <ele>130.4</ele>
        <time>2013-05-26T07:51:14Z</time>
      </trkpt>
      <trkpt lat="49.24928" lon="1.77697">
        <ele>129.92</ele>
        <time>2013-05-26T07:51:15Z</time>
      </trkpt>
      <trkpt lat="49.24928" lon="1.777">
        <ele>129.43</ele>
        <time>2013-05-26T07:51:16Z</time>
      </trkpt>
      <trkpt lat="49.24919" lon="1.77743">
        <ele>129.43</ele>
        <time>2013-05-26T07:51:24Z</time>
      </trkpt>
      <trkpt lat="49.24907" lon="1.7779">
        <ele>128.47</ele>
        <time>2013-05-26T07:51:33Z</time>
      </trkpt>
      <trkpt lat="49.24896" lon="1.77831">
        <ele>127.51</ele>
        <time>2013-05-26T07:51:41Z</time>
      </trkpt>
      <trkpt lat="49.24881" lon="1.77879">
        <ele>127.03</ele>
        <time>2013-05-26T07:51:51Z</time>
      </trkpt>
      <trkpt lat="49.24878" lon="1.7789">
        <ele>127.99</ele>
        <time>2013-05-26T07:51:54Z</time>
      </trkpt>
      <trkpt lat="49.24877" lon="1.77896">
        <ele>128.47</ele>
        <time>2013-05-26T07:51:55Z</time>
      </trkpt>
      <trkpt lat="49.24878" lon="1.77901">
        <ele>127.99</ele>
        <time>2013-05-26T07:51:56Z</time>
      </trkpt>
      <trkpt lat="49.24879" lon="1.77906">
        <ele>128.47</ele>
        <time>2013-05-26T07:51:57Z</time>
      </trkpt>
      <trkpt lat="49.24878" lon="1.77915">
        <ele>128.95</ele>
        <time>2013-05-26T07:52:00Z</time>
      </trkpt>
      <trkpt lat="49.24879" lon="1.77921">
        <ele>129.92</ele>
        <time>2013-05-26T07:52:02Z</time>
      </trkpt>
      <trkpt lat="49.24878" lon="1.7794">
        <ele>129.92</ele>
        <time>2013-05-26T07:52:07Z</time>
      </trkpt>
      <trkpt lat="49.24879" lon="1.77943">
        <ele>130.4</ele>
        <time>2013-05-26T07:52:08Z</time>
      </trkpt>
      <trkpt lat="49.24878" lon="1.77949">
        <ele>131.36</ele>
        <time>2013-05-26T07:52:09Z</time>
      </trkpt>
      <trkpt lat="49.24878" lon="1.77955">
        <ele>130.4</ele>
        <time>2013-05-26T07:52:10Z</time>
      </trkpt>
      <trkpt lat="49.24878" lon="1.7796">
        <ele>131.36</ele>
        <time>2013-05-26T07:52:11Z</time>
      </trkpt>
      <trkpt lat="49.24878" lon="1.77965">
        <ele>130.4</ele>
        <time>2013-05-26T07:52:12Z</time>
      </trkpt>
      <trkpt lat="49.24877" lon="1.7797">
        <ele>130.88</ele>
        <time>2013-05-26T07:52:13Z</time>
      </trkpt>
      <trkpt lat="49.24876" lon="1.77977">
        <ele>131.36</ele>
        <time>2013-05-26T07:52:14Z</time>
      </trkpt>
      <trkpt lat="49.24875" lon="1.77984">
        <ele>131.84</ele>
        <time>2013-05-26T07:52:15Z</time>
      </trkpt>
      <trkpt lat="49.24875" lon="1.77989">
        <ele>131.84</ele>
        <time>2013-05-26T07:52:16Z</time>
      </trkpt>
      <trkpt lat="49.24874" lon="1.77997">
        <ele>131.84</ele>
        <time>2013-05-26T07:52:17Z</time>
      </trkpt>
      <trkpt lat="49.24872" lon="1.78004">
        <ele>131.84</ele>
        <time>2013-05-26T07:52:18Z</time>
      </trkpt>
      <trkpt lat="49.24872" lon="1.78009">
        <ele>131.84</ele>
        <time>2013-05-26T07:52:19Z</time>
      </trkpt>
      <trkpt lat="49.24868" lon="1.78079">
        <ele>133.28</ele>
        <time>2013-05-26T07:52:32Z</time>
      </trkpt>
      <trkpt lat="49.24863" lon="1.78152">
        <ele>134.24</ele>
        <time>2013-05-26T07:52:44Z</time>
      </trkpt>
      <trkpt lat="49.2486" lon="1.78213">
        <ele>135.2</ele>
        <time>2013-05-26T07:52:55Z</time>
      </trkpt>
      <trkpt lat="49.24858" lon="1.78269">
        <ele>135.68</ele>
        <time>2013-05-26T07:53:05Z</time>
      </trkpt>
      <trkpt lat="49.24857" lon="1.7834">
        <ele>136.16</ele>
        <time>2013-05-26T07:53:17Z</time>
      </trkpt>
      <trkpt lat="49.24854" lon="1.7841">
        <ele>136.16</ele>
        <time>2013-05-26T07:53:26Z</time>
      </trkpt>
      <trkpt lat="49.24859" lon="1.7849">
        <ele>135.68</ele>
        <time>2013-05-26T07:53:40Z</time>
      </trkpt>
      <trkpt lat="49.24867" lon="1.78563">
        <ele>136.16</ele>
        <time>2013-05-26T07:53:53Z</time>
      </trkpt>
      <trkpt lat="49.24877" lon="1.7863">
        <ele>136.16</ele>
        <time>2013-05-26T07:54:05Z</time>
      </trkpt>
      <trkpt lat="49.24883" lon="1.78701">
        <ele>135.2</ele>
        <time>2013-05-26T07:54:18Z</time>
      </trkpt>
      <trkpt lat="49.2489" lon="1.78776">
        <ele>135.68</ele>
        <time>2013-05-26T07:54:31Z</time>
      </trkpt>
      <trkpt lat="49.24897" lon="1.78835">
        <ele>135.2</ele>
        <time>2013-05-26T07:54:42Z</time>
      </trkpt>
      <trkpt lat="49.249" lon="1.78875">
        <ele>135.68</ele>
        <time>2013-05-26T07:54:51Z</time>
      </trkpt>
      <trkpt lat="49.24871" lon="1.78894">
        <ele>135.2</ele>
        <time>2013-05-26T07:55:04Z</time>
      </trkpt>
      <trkpt lat="49.24853" lon="1.78887">
        <ele>134.24</ele>
        <time>2013-05-26T07:55:11Z</time>
      </trkpt>
      <trkpt lat="49.24839" lon="1.78896">
        <ele>134.72</ele>
        <time>2013-05-26T07:55:15Z</time>
      </trkpt>
      <trkpt lat="49.24834" lon="1.78905">
        <ele>134.24</ele>
        <time>2013-05-26T07:55:17Z</time>
      </trkpt>
      <trkpt lat="49.2483" lon="1.78909">
        <ele>134.24</ele>
        <time>2013-05-26T07:55:18Z</time>
      </trkpt>
      <trkpt lat="49.24827" lon="1.78912">
        <ele>134.24</ele>
        <time>2013-05-26T07:55:19Z</time>
      </trkpt>
      <trkpt lat="49.24824" lon="1.78916">
        <ele>134.24</ele>
        <time>2013-05-26T07:55:20Z</time>
      </trkpt>
      <trkpt lat="49.24821" lon="1.78919">
        <ele>133.76</ele>
        <time>2013-05-26T07:55:21Z</time>
      </trkpt>
      <trkpt lat="49.24786" lon="1.78942">
        <ele>132.8</ele>
        <time>2013-05-26T07:55:30Z</time>
      </trkpt>
      <trkpt lat="49.24782" lon="1.78945">
        <ele>132.8</ele>
        <time>2013-05-26T07:55:31Z</time>
      </trkpt>
      <trkpt lat="49.24762" lon="1.78958">
        <ele>132.8</ele>
        <time>2013-05-26T07:55:36Z</time>
      </trkpt>
      <trkpt lat="49.24757" lon="1.78961">
        <ele>132.8</ele>
        <time>2013-05-26T07:55:37Z</time>
      </trkpt>
      <trkpt lat="49.24753" lon="1.78964">
        <ele>132.8</ele>
        <time>2013-05-26T07:55:38Z</time>
      </trkpt>
      <trkpt lat="49.24749" lon="1.78966">
        <ele>132.8</ele>
        <time>2013-05-26T07:55:39Z</time>
      </trkpt>
      <trkpt lat="49.24746" lon="1.78968">
        <ele>132.8</ele>
        <time>2013-05-26T07:55:40Z</time>
      </trkpt>
      <trkpt lat="49.24742" lon="1.7897">
        <ele>132.32</ele>
        <time>2013-05-26T07:55:41Z</time>
      </trkpt>
      <trkpt lat="49.247" lon="1.79003">
        <ele>132.8</ele>
        <time>2013-05-26T07:55:54Z</time>
      </trkpt>
      <trkpt lat="49.24671" lon="1.79018">
        <ele>131.84</ele>
        <time>2013-05-26T07:56:02Z</time>
      </trkpt>
      <trkpt lat="49.24661" lon="1.7902">
        <ele>132.8</ele>
        <time>2013-05-26T07:56:04Z</time>
      </trkpt>
      <trkpt lat="49.24652" lon="1.79023">
        <ele>132.32</ele>
        <time>2013-05-26T07:56:06Z</time>
      </trkpt>
      <trkpt lat="49.24648" lon="1.79024">
        <ele>130.88</ele>
        <time>2013-05-26T07:56:07Z</time>
      </trkpt>
      <trkpt lat="49.24644" lon="1.79025">
        <ele>131.84</ele>
        <time>2013-05-26T07:56:08Z</time>
      </trkpt>
      <trkpt lat="49.2464" lon="1.79027">
        <ele>130.88</ele>
        <time>2013-05-26T07:56:09Z</time>
      </trkpt>
      <trkpt lat="49.24635" lon="1.79028">
        <ele>131.84</ele>
        <time>2013-05-26T07:56:10Z</time>
      </trkpt>
      <trkpt lat="49.24631" lon="1.79029">
        <ele>130.88</ele>
        <time>2013-05-26T07:56:11Z</time>
      </trkpt>
      <trkpt lat="49.24555" lon="1.79051">
        <ele>131.36</ele>
        <time>2013-05-26T07:56:28Z</time>
      </trkpt>
      <trkpt lat="49.24493" lon="1.79067">
        <ele>130.4</ele>
        <time>2013-05-26T07:56:42Z</time>
      </trkpt>
      <trkpt lat="49.24416" lon="1.79085">
        <ele>130.4</ele>
        <time>2013-05-26T07:56:59Z</time>
      </trkpt>
      <trkpt lat="49.24391" lon="1.79092">
        <ele>129.43</ele>
        <time>2013-05-26T07:57:05Z</time>
      </trkpt>
      <trkpt lat="49.24388" lon="1.79096">
        <ele>130.4</ele>
        <time>2013-05-26T07:57:06Z</time>
      </trkpt>
      <trkpt lat="49.24386" lon="1.79101">
        <ele>128.95</ele>
        <time>2013-05-26T07:57:07Z</time>
      </trkpt>
      <trkpt lat="49.24385" lon="1.79107">
        <ele>130.4</ele>
        <time>2013-05-26T07:57:08Z</time>
      </trkpt>
      <trkpt lat="49.24384" lon="1.79112">
        <ele>130.88</ele>
        <time>2013-05-26T07:57:09Z</time>
      </trkpt>
      <trkpt lat="49.24372" lon="1.79186">
        <ele>129.92</ele>
        <time>2013-05-26T07:57:23Z</time>
      </trkpt>
      <trkpt lat="49.24355" lon="1.79296">
        <ele>129.43</ele>
        <time>2013-05-26T07:57:42Z</time>
      </trkpt>
      <trkpt lat="49.24341" lon="1.79387">
        <ele>129.92</ele>
        <time>2013-05-26T07:57:57Z</time>
      </trkpt>
      <trkpt lat="49.24324" lon="1.79501">
        <ele>129.92</ele>
        <time>2013-05-26T07:58:15Z</time>
      </trkpt>
      <trkpt lat="49.24316" lon="1.79562">
        <ele>129.92</ele>
        <time>2013-05-26T07:58:25Z</time>
      </trkpt>
      <trkpt lat="49.24314" lon="1.79603">
        <ele>129.92</ele>
        <time>2013-05-26T07:58:36Z</time>
      </trkpt>
      <trkpt lat="49.24314" lon="1.79603">
        <ele>130.4</ele>
        <time>2013-05-26T07:58:53Z</time>
      </trkpt>
      <trkpt lat="49.24314" lon="1.79604">
        <ele>130.4</ele>
        <time>2013-05-26T07:59:00Z</time>
      </trkpt>
      <trkpt lat="49.24314" lon="1.79606">
        <ele>130.88</ele>
        <time>2013-05-26T07:59:01Z</time>
      </trkpt>
      <trkpt lat="49.24313" lon="1.79608">
        <ele>130.4</ele>
        <time>2013-05-26T07:59:02Z</time>
      </trkpt>
      <trkpt lat="49.24313" lon="1.7961">
        <ele>129.43</ele>
        <time>2013-05-26T07:59:03Z</time>
      </trkpt>
      <trkpt lat="49.24312" lon="1.79614">
        <ele>130.88</ele>
        <time>2013-05-26T07:59:04Z</time>
      </trkpt>
      <trkpt lat="49.2431" lon="1.79618">
        <ele>130.88</ele>
        <time>2013-05-26T07:59:05Z</time>
      </trkpt>
      <trkpt lat="49.24308" lon="1.79623">
        <ele>130.4</ele>
        <time>2013-05-26T07:59:06Z</time>
      </trkpt>
      <trkpt lat="49.24283" lon="1.79676">
        <ele>130.4</ele>
        <time>2013-05-26T07:59:16Z</time>
      </trkpt>
      <trkpt lat="49.24234" lon="1.79775">
        <ele>130.88</ele>
        <time>2013-05-26T07:59:33Z</time>
      </trkpt>
      <trkpt lat="49.24187" lon="1.7987">
        <ele>131.36</ele>
        <time>2013-05-26T07:59:49Z</time>
      </trkpt>
      <trkpt lat="49.24178" lon="1.7989">
        <ele>131.36</ele>
        <time>2013-05-26T08:00:03Z</time>
      </trkpt>
      <trkpt lat="49.24177" lon="1.79892">
        <ele>130.88</ele>
        <time>2013-05-26T08:00:04Z</time>
      </trkpt>
      <trkpt lat="49.24177" lon="1.79894">
        <ele>130.88</ele>
        <time>2013-05-26T08:00:05Z</time>
      </trkpt>
      <trkpt lat="49.24177" lon="1.79898">
        <ele>130.88</ele>
        <time>2013-05-26T08:00:06Z</time>
      </trkpt>
      <trkpt lat="49.24177" lon="1.79901">
        <ele>131.84</ele>
        <time>2013-05-26T08:00:07Z</time>
      </trkpt>
      <trkpt lat="49.24178" lon="1.79904">
        <ele>131.84</ele>
        <time>2013-05-26T08:00:08Z</time>
      </trkpt>
      <trkpt lat="49.24179" lon="1.79907">
        <ele>130.88</ele>
        <time>2013-05-26T08:00:09Z</time>
      </trkpt>
      <trkpt lat="49.2418" lon="1.79909">
        <ele>130.4</ele>
        <time>2013-05-26T08:00:10Z</time>
      </trkpt>
      <trkpt lat="49.24181" lon="1.79911">
        <ele>130.88</ele>
        <time>2013-05-26T08:00:11Z</time>
      </trkpt>
      <trkpt lat="49.24182" lon="1.79912">
        <ele>129.92</ele>
        <time>2013-05-26T08:00:12Z</time>
      </trkpt>
      <trkpt lat="49.24182" lon="1.79914">
        <ele>129.92</ele>
        <time>2013-05-26T08:00:13Z</time>
      </trkpt>
      <trkpt lat="49.24183" lon="1.79915">
        <ele>129.92</ele>
        <time>2013-05-26T08:00:14Z</time>
      </trkpt>
      <trkpt lat="49.24192" lon="1.79924">
        <ele>128.95</ele>
        <time>2013-05-26T08:00:21Z</time>
      </trkpt>
      <trkpt lat="49.24194" lon="1.79925">
        <ele>128.47</ele>
        <time>2013-05-26T08:00:22Z</time>
      </trkpt>
      <trkpt lat="49.24195" lon="1.79927">
        <ele>128.47</ele>
        <time>2013-05-26T08:00:23Z</time>
      </trkpt>
      <trkpt lat="49.24196" lon="1.79929">
        <ele>127.99</ele>
        <time>2013-05-26T08:00:24Z</time>
      </trkpt>
      <trkpt lat="49.24198" lon="1.79932">
        <ele>128.95</ele>
        <time>2013-05-26T08:00:25Z</time>
      </trkpt>
      <trkpt lat="49.24214" lon="1.79951">
        <ele>127.51</ele>
        <time>2013-05-26T08:00:32Z</time>
      </trkpt>
      <trkpt lat="49.24217" lon="1.79955">
        <ele>126.07</ele>
        <time>2013-05-26T08:00:33Z</time>
      </trkpt>
      <trkpt lat="49.24221" lon="1.7996">
        <ele>125.59</ele>
        <time>2013-05-26T08:00:34Z</time>
      </trkpt>
      <trkpt lat="49.2423" lon="1.79971">
        <ele>125.59</ele>
        <time>2013-05-26T08:00:36Z</time>
      </trkpt>
      <trkpt lat="49.24235" lon="1.79977">
        <ele>124.63</ele>
        <time>2013-05-26T08:00:37Z</time>
      </trkpt>
      <trkpt lat="49.24244" lon="1.7999">
        <ele>124.15</ele>
        <time>2013-05-26T08:00:39Z</time>
      </trkpt>
      <trkpt lat="49.24249" lon="1.79997">
        <ele>124.15</ele>
        <time>2013-05-26T08:00:40Z</time>
      </trkpt>
      <trkpt lat="49.24252" lon="1.80005">
        <ele>123.19</ele>
        <time>2013-05-26T08:00:41Z</time>
      </trkpt>
      <trkpt lat="49.24254" lon="1.80013">
        <ele>122.71</ele>
        <time>2013-05-26T08:00:42Z</time>
      </trkpt>
      <trkpt lat="49.24255" lon="1.80018">
        <ele>122.22</ele>
        <time>2013-05-26T08:00:43Z</time>
      </trkpt>
      <trkpt lat="49.24263" lon="1.80042">
        <ele>120.78</ele>
        <time>2013-05-26T08:00:53Z</time>
      </trkpt>
      <trkpt lat="49.24266" lon="1.80042">
        <ele>119.82</ele>
        <time>2013-05-26T08:01:15Z</time>
      </trkpt>
      <trkpt lat="49.24265" lon="1.80048">
        <ele>118.86</ele>
        <time>2013-05-26T08:01:48Z</time>
      </trkpt>
      <trkpt lat="49.24266" lon="1.8005">
        <ele>120.78</ele>
        <time>2013-05-26T08:02:10Z</time>
      </trkpt>
      <trkpt lat="49.24266" lon="1.80053">
        <ele>119.34</ele>
        <time>2013-05-26T08:02:37Z</time>
      </trkpt>
      <trkpt lat="49.24262" lon="1.80106">
        <ele>116.94</ele>
        <time>2013-05-26T08:02:48Z</time>
      </trkpt>
      <trkpt lat="49.24264" lon="1.80133">
        <ele>115.98</ele>
        <time>2013-05-26T08:02:55Z</time>
      </trkpt>
      <trkpt lat="49.24265" lon="1.80134">
        <ele>115.01</ele>
        <time>2013-05-26T08:02:56Z</time>
      </trkpt>
      <trkpt lat="49.24266" lon="1.80136">
        <ele>115.5</ele>
        <time>2013-05-26T08:02:57Z</time>
      </trkpt>
      <trkpt lat="49.24268" lon="1.80141">
        <ele>115.01</ele>
        <time>2013-05-26T08:03:00Z</time>
      </trkpt>
      <trkpt lat="49.24269" lon="1.80143">
        <ele>114.05</ele>
        <time>2013-05-26T08:03:01Z</time>
      </trkpt>
      <trkpt lat="49.2427" lon="1.80144">
        <ele>114.05</ele>
        <time>2013-05-26T08:03:02Z</time>
      </trkpt>
      <trkpt lat="49.24271" lon="1.80147">
        <ele>114.05</ele>
        <time>2013-05-26T08:03:03Z</time>
      </trkpt>
      <trkpt lat="49.24271" lon="1.8015">
        <ele>114.05</ele>
        <time>2013-05-26T08:03:04Z</time>
      </trkpt>
      <trkpt lat="49.24271" lon="1.80154">
        <ele>114.05</ele>
        <time>2013-05-26T08:03:05Z</time>
      </trkpt>
      <trkpt lat="49.24271" lon="1.80159">
        <ele>113.09</ele>
        <time>2013-05-26T08:03:06Z</time>
      </trkpt>
      <trkpt lat="49.24271" lon="1.80164">
        <ele>113.09</ele>
        <time>2013-05-26T08:03:07Z</time>
      </trkpt>
      <trkpt lat="49.24263" lon="1.80216">
        <ele>111.17</ele>
        <time>2013-05-26T08:03:17Z</time>
      </trkpt>
      <trkpt lat="49.24256" lon="1.80277">
        <ele>110.21</ele>
        <time>2013-05-26T08:03:28Z</time>
      </trkpt>
      <trkpt lat="49.24257" lon="1.80291">
        <ele>109.73</ele>
        <time>2013-05-26T08:03:31Z</time>
      </trkpt>
      <trkpt lat="49.24258" lon="1.80297">
        <ele>110.21</ele>
        <time>2013-05-26T08:03:32Z</time>
      </trkpt>
      <trkpt lat="49.24262" lon="1.80312">
        <ele>110.21</ele>
        <time>2013-05-26T08:03:35Z</time>
      </trkpt>
      <trkpt lat="49.24264" lon="1.80319">
        <ele>109.73</ele>
        <time>2013-05-26T08:03:36Z</time>
      </trkpt>
      <trkpt lat="49.24261" lon="1.80359">
        <ele>111.17</ele>
        <time>2013-05-26T08:03:41Z</time>
      </trkpt>
      <trkpt lat="49.24262" lon="1.80367">
        <ele>111.17</ele>
        <time>2013-05-26T08:03:42Z</time>
      </trkpt>
      <trkpt lat="49.24272" lon="1.80409">
        <ele>113.09</ele>
        <time>2013-05-26T08:03:53Z</time>
      </trkpt>
      <trkpt lat="49.24274" lon="1.80412">
        <ele>112.13</ele>
        <time>2013-05-26T08:04:21Z</time>
      </trkpt>
      <trkpt lat="49.24282" lon="1.80437">
        <ele>112.61</ele>
        <time>2013-05-26T08:04:33Z</time>
      </trkpt>
      <trkpt lat="49.24287" lon="1.80491">
        <ele>113.09</ele>
        <time>2013-05-26T08:04:47Z</time>
      </trkpt>
      <trkpt lat="49.24283" lon="1.8055">
        <ele>115.5</ele>
        <time>2013-05-26T08:05:01Z</time>
      </trkpt>
      <trkpt lat="49.24276" lon="1.80599">
        <ele>115.5</ele>
        <time>2013-05-26T08:05:14Z</time>
      </trkpt>
      <trkpt lat="49.24271" lon="1.80642">
        <ele>115.01</ele>
        <time>2013-05-26T08:05:24Z</time>
      </trkpt>
      <trkpt lat="49.24261" lon="1.80703">
        <ele>114.05</ele>
        <time>2013-05-26T08:05:36Z</time>
      </trkpt>
      <trkpt lat="49.24257" lon="1.80757">
        <ele>114.05</ele>
        <time>2013-05-26T08:05:47Z</time>
      </trkpt>
      <trkpt lat="49.2425" lon="1.80812">
        <ele>113.57</ele>
        <time>2013-05-26T08:05:57Z</time>
      </trkpt>
      <trkpt lat="49.24248" lon="1.80853">
        <ele>114.53</ele>
        <time>2013-05-26T08:06:04Z</time>
      </trkpt>
      <trkpt lat="49.24251" lon="1.80867">
        <ele>114.53</ele>
        <time>2013-05-26T08:06:06Z</time>
      </trkpt>
      <trkpt lat="49.24253" lon="1.80875">
        <ele>114.53</ele>
        <time>2013-05-26T08:06:07Z</time>
      </trkpt>
      <trkpt lat="49.24273" lon="1.80951">
        <ele>116.46</ele>
        <time>2013-05-26T08:06:18Z</time>
      </trkpt>
      <trkpt lat="49.24272" lon="1.80955">
        <ele>117.42</ele>
        <time>2013-05-26T08:06:19Z</time>
      </trkpt>
      <trkpt lat="49.24272" lon="1.80958">
        <ele>117.42</ele>
        <time>2013-05-26T08:06:27Z</time>
      </trkpt>
      <trkpt lat="49.24271" lon="1.8096">
        <ele>118.38</ele>
        <time>2013-05-26T08:06:47Z</time>
      </trkpt>
      <trkpt lat="49.24271" lon="1.80961">
        <ele>117.9</ele>
        <time>2013-05-26T08:07:16Z</time>
      </trkpt>
      <trkpt lat="49.24271" lon="1.80961">
        <ele>117.9</ele>
        <time>2013-05-26T08:07:42Z</time>
      </trkpt>
      <trkpt lat="49.24271" lon="1.80961">
        <ele>117.42</ele>
        <time>2013-05-26T08:08:09Z</time>
      </trkpt>
      <trkpt lat="49.24271" lon="1.8096">
        <ele>118.86</ele>
        <time>2013-05-26T08:08:37Z</time>
      </trkpt>
      <trkpt lat="49.24271" lon="1.8096">
        <ele>117.42</ele>
        <time>2013-05-26T08:09:06Z</time>
      </trkpt>
      <trkpt lat="49.24271" lon="1.80961">
        <ele>118.38</ele>
        <time>2013-05-26T08:09:37Z</time>
      </trkpt>
      <trkpt lat="49.24272" lon="1.80963">
        <ele>118.38</ele>
        <time>2013-05-26T08:10:04Z</time>
      </trkpt>
      <trkpt lat="49.24273" lon="1.80965">
        <ele>117.9</ele>
        <time>2013-05-26T08:10:05Z</time>
      </trkpt>
      <trkpt lat="49.24273" lon="1.80968">
        <ele>117.9</ele>
        <time>2013-05-26T08:10:06Z</time>
      </trkpt>
      <trkpt lat="49.24273" lon="1.80971">
        <ele>118.38</ele>
        <time>2013-05-26T08:10:07Z</time>
      </trkpt>
      <trkpt lat="49.24274" lon="1.80974">
        <ele>117.42</ele>
        <time>2013-05-26T08:10:08Z</time>
      </trkpt>
      <trkpt lat="49.24282" lon="1.81038">
        <ele>116.94</ele>
        <time>2013-05-26T08:10:21Z</time>
      </trkpt>
      <trkpt lat="49.24283" lon="1.81057">
        <ele>116.94</ele>
        <time>2013-05-26T08:10:24Z</time>
      </trkpt>
      <trkpt lat="49.24283" lon="1.81063">
        <ele>116.46</ele>
        <time>2013-05-26T08:10:25Z</time>
      </trkpt>
      <trkpt lat="49.24283" lon="1.8107">
        <ele>116.46</ele>
        <time>2013-05-26T08:10:26Z</time>
      </trkpt>
      <trkpt lat="49.24284" lon="1.81077">
        <ele>115.5</ele>
        <time>2013-05-26T08:10:27Z</time>
      </trkpt>
      <trkpt lat="49.24284" lon="1.81084">
        <ele>115.98</ele>
        <time>2013-05-26T08:10:28Z</time>
      </trkpt>
      <trkpt lat="49.24283" lon="1.81111">
        <ele>115.01</ele>
        <time>2013-05-26T08:10:32Z</time>
      </trkpt>
      <trkpt lat="49.24284" lon="1.81119">
        <ele>115.01</ele>
        <time>2013-05-26T08:10:33Z</time>
      </trkpt>
      <trkpt lat="49.24283" lon="1.81127">
        <ele>115.01</ele>
        <time>2013-05-26T08:10:34Z</time>
      </trkpt>
      <trkpt lat="49.24279" lon="1.81211">
        <ele>111.65</ele>
        <time>2013-05-26T08:10:44Z</time>
      </trkpt>
      <trkpt lat="49.2428" lon="1.81233">
        <ele>111.17</ele>
        <time>2013-05-26T08:10:47Z</time>
      </trkpt>
      <trkpt lat="49.24283" lon="1.81247">
        <ele>109.25</ele>
        <time>2013-05-26T08:10:49Z</time>
      </trkpt>
      <trkpt lat="49.24287" lon="1.81271">
        <ele>106.36</ele>
        <time>2013-05-26T08:10:52Z</time>
      </trkpt>
      <trkpt lat="49.24289" lon="1.81279">
        <ele>106.84</ele>
        <time>2013-05-26T08:10:53Z</time>
      </trkpt>
      <trkpt lat="49.24296" lon="1.81305">
        <ele>103.96</ele>
        <time>2013-05-26T08:10:56Z</time>
      </trkpt>
      <trkpt lat="49.24299" lon="1.81313">
        <ele>103.48</ele>
        <time>2013-05-26T08:10:57Z</time>
      </trkpt>
      <trkpt lat="49.24303" lon="1.81319">
        <ele>103</ele>
        <time>2013-05-26T08:10:58Z</time>
      </trkpt>
      <trkpt lat="49.24308" lon="1.81324">
        <ele>102.52</ele>
        <time>2013-05-26T08:10:59Z</time>
      </trkpt>
      <trkpt lat="49.24314" lon="1.81327">
        <ele>100.6</ele>
        <time>2013-05-26T08:11:00Z</time>
      </trkpt>
      <trkpt lat="49.24334" lon="1.81337">
        <ele>98.67</ele>
        <time>2013-05-26T08:11:03Z</time>
      </trkpt>
      <trkpt lat="49.2434" lon="1.8134">
        <ele>98.67</ele>
        <time>2013-05-26T08:11:04Z</time>
      </trkpt>
      <trkpt lat="49.24345" lon="1.81345">
        <ele>97.23</ele>
        <time>2013-05-26T08:11:05Z</time>
      </trkpt>
      <trkpt lat="49.2435" lon="1.81351">
        <ele>96.27</ele>
        <time>2013-05-26T08:11:06Z</time>
      </trkpt>
      <trkpt lat="49.24352" lon="1.81356">
        <ele>95.31</ele>
        <time>2013-05-26T08:11:07Z</time>
      </trkpt>
      <trkpt lat="49.24354" lon="1.8136">
        <ele>95.79</ele>
        <time>2013-05-26T08:11:08Z</time>
      </trkpt>
      <trkpt lat="49.24368" lon="1.81372">
        <ele>94.35</ele>
        <time>2013-05-26T08:11:19Z</time>
      </trkpt>
      <trkpt lat="49.24395" lon="1.8138">
        <ele>91.46</ele>
        <time>2013-05-26T08:11:29Z</time>
      </trkpt>
      <trkpt lat="49.24411" lon="1.81381">
        <ele>90.02</ele>
        <time>2013-05-26T08:11:36Z</time>
      </trkpt>
      <trkpt lat="49.24411" lon="1.81383">
        <ele>90.02</ele>
        <time>2013-05-26T08:11:37Z</time>
      </trkpt>
      <trkpt lat="49.24411" lon="1.81386">
        <ele>89.06</ele>
        <time>2013-05-26T08:11:38Z</time>
      </trkpt>
      <trkpt lat="49.2441" lon="1.81387">
        <ele>90.02</ele>
        <time>2013-05-26T08:11:39Z</time>
      </trkpt>
      <trkpt lat="49.24407" lon="1.81387">
        <ele>89.54</ele>
        <time>2013-05-26T08:11:40Z</time>
      </trkpt>
      <trkpt lat="49.24378" lon="1.81389">
        <ele>90.5</ele>
        <time>2013-05-26T08:11:48Z</time>
      </trkpt>
      <trkpt lat="49.24311" lon="1.81389">
        <ele>91.94</ele>
        <time>2013-05-26T08:12:05Z</time>
      </trkpt>
      <trkpt lat="49.24274" lon="1.81392">
        <ele>91.94</ele>
        <time>2013-05-26T08:12:14Z</time>
      </trkpt>
      <trkpt lat="49.24202" lon="1.81396">
        <ele>91.46</ele>
        <time>2013-05-26T08:12:30Z</time>
      </trkpt>
      <trkpt lat="49.24198" lon="1.81398">
        <ele>90.02</ele>
        <time>2013-05-26T08:12:31Z</time>
      </trkpt>
      <trkpt lat="49.24138" lon="1.81451">
        <ele>92.9</ele>
        <time>2013-05-26T08:12:47Z</time>
      </trkpt>
      <trkpt lat="49.2414" lon="1.81483">
        <ele>92.42</ele>
        <time>2013-05-26T08:12:56Z</time>
      </trkpt>
      <trkpt lat="49.24171" lon="1.81513">
        <ele>90.98</ele>
        <time>2013-05-26T08:13:06Z</time>
      </trkpt>
      <trkpt lat="49.24183" lon="1.81522">
        <ele>90.5</ele>
        <time>2013-05-26T08:13:09Z</time>
      </trkpt>
      <trkpt lat="49.24217" lon="1.8154">
        <ele>89.54</ele>
        <time>2013-05-26T08:13:17Z</time>
      </trkpt>
      <trkpt lat="49.24221" lon="1.81541">
        <ele>90.02</ele>
        <time>2013-05-26T08:13:18Z</time>
      </trkpt>
      <trkpt lat="49.2429" lon="1.81588">
        <ele>89.06</ele>
        <time>2013-05-26T08:13:33Z</time>
      </trkpt>
      <trkpt lat="49.24307" lon="1.81605">
        <ele>89.54</ele>
        <time>2013-05-26T08:13:37Z</time>
      </trkpt>
      <trkpt lat="49.24317" lon="1.81621">
        <ele>90.02</ele>
        <time>2013-05-26T08:13:40Z</time>
      </trkpt>
      <trkpt lat="49.24323" lon="1.8164">
        <ele>90.5</ele>
        <time>2013-05-26T08:13:43Z</time>
      </trkpt>
      <trkpt lat="49.24325" lon="1.81646">
        <ele>89.06</ele>
        <time>2013-05-26T08:13:44Z</time>
      </trkpt>
      <trkpt lat="49.24332" lon="1.8169">
        <ele>91.46</ele>
        <time>2013-05-26T08:13:51Z</time>
      </trkpt>
      <trkpt lat="49.24333" lon="1.81696">
        <ele>90.5</ele>
        <time>2013-05-26T08:13:52Z</time>
      </trkpt>
      <trkpt lat="49.24335" lon="1.81701">
        <ele>91.94</ele>
        <time>2013-05-26T08:13:53Z</time>
      </trkpt>
      <trkpt lat="49.24338" lon="1.81706">
        <ele>91.94</ele>
        <time>2013-05-26T08:13:54Z</time>
      </trkpt>
      <trkpt lat="49.2434" lon="1.81711">
        <ele>90.5</ele>
        <time>2013-05-26T08:13:55Z</time>
      </trkpt>
      <trkpt lat="49.24388" lon="1.81769">
        <ele>89.06</ele>
        <time>2013-05-26T08:14:08Z</time>
      </trkpt>
      <trkpt lat="49.24428" lon="1.81813">
        <ele>86.66</ele>
        <time>2013-05-26T08:14:16Z</time>
      </trkpt>
      <trkpt lat="49.24481" lon="1.81873">
        <ele>86.18</ele>
        <time>2013-05-26T08:14:27Z</time>
      </trkpt>
      <trkpt lat="49.24523" lon="1.81931">
        <ele>85.69</ele>
        <time>2013-05-26T08:14:37Z</time>
      </trkpt>
      <trkpt lat="49.24526" lon="1.81937">
        <ele>87.14</ele>
        <time>2013-05-26T08:14:38Z</time>
      </trkpt>
      <trkpt lat="49.2456" lon="1.82063">
        <ele>87.14</ele>
        <time>2013-05-26T08:14:56Z</time>
      </trkpt>
      <trkpt lat="49.24568" lon="1.82091">
        <ele>88.58</ele>
        <time>2013-05-26T08:15:00Z</time>
      </trkpt>
      <trkpt lat="49.24607" lon="1.82234">
        <ele>87.62</ele>
        <time>2013-05-26T08:15:21Z</time>
      </trkpt>
      <trkpt lat="49.24625" lon="1.82308">
        <ele>84.73</ele>
        <time>2013-05-26T08:15:30Z</time>
      </trkpt>
      <trkpt lat="49.24647" lon="1.82383">
        <ele>80.89</ele>
        <time>2013-05-26T08:15:38Z</time>
      </trkpt>
      <trkpt lat="49.24668" lon="1.82504">
        <ele>77.52</ele>
        <time>2013-05-26T08:15:49Z</time>
      </trkpt>
      <trkpt lat="49.24667" lon="1.82515">
        <ele>78.97</ele>
        <time>2013-05-26T08:15:50Z</time>
      </trkpt>
      <trkpt lat="49.24666" lon="1.82526">
        <ele>78</ele>
        <time>2013-05-26T08:15:51Z</time>
      </trkpt>
      <trkpt lat="49.24664" lon="1.82536">
        <ele>78</ele>
        <time>2013-05-26T08:15:52Z</time>
      </trkpt>
      <trkpt lat="49.24661" lon="1.82546">
        <ele>78.48</ele>
        <time>2013-05-26T08:15:53Z</time>
      </trkpt>
      <trkpt lat="49.24658" lon="1.82555">
        <ele>77.04</ele>
        <time>2013-05-26T08:15:54Z</time>
      </trkpt>
      <trkpt lat="49.24654" lon="1.82564">
        <ele>78.97</ele>
        <time>2013-05-26T08:15:55Z</time>
      </trkpt>
      <trkpt lat="49.2465" lon="1.82572">
        <ele>78.48</ele>
        <time>2013-05-26T08:15:56Z</time>
      </trkpt>
      <trkpt lat="49.24645" lon="1.82579">
        <ele>78</ele>
        <time>2013-05-26T08:15:57Z</time>
      </trkpt>
      <trkpt lat="49.2464" lon="1.82585">
        <ele>78</ele>
        <time>2013-05-26T08:15:58Z</time>
      </trkpt>
      <trkpt lat="49.24635" lon="1.82591">
        <ele>78.48</ele>
        <time>2013-05-26T08:15:59Z</time>
      </trkpt>
      <trkpt lat="49.2463" lon="1.82595">
        <ele>77.52</ele>
        <time>2013-05-26T08:16:00Z</time>
      </trkpt>
      <trkpt lat="49.24624" lon="1.82599">
        <ele>77.52</ele>
        <time>2013-05-26T08:16:01Z</time>
      </trkpt>
      <trkpt lat="49.24579" lon="1.8262">
        <ele>76.08</ele>
        <time>2013-05-26T08:16:08Z</time>
      </trkpt>
      <trkpt lat="49.24573" lon="1.82623">
        <ele>75.6</ele>
        <time>2013-05-26T08:16:09Z</time>
      </trkpt>
      <trkpt lat="49.24569" lon="1.8263">
        <ele>75.6</ele>
        <time>2013-05-26T08:16:10Z</time>
      </trkpt>
      <trkpt lat="49.24568" lon="1.8264">
        <ele>75.12</ele>
        <time>2013-05-26T08:16:11Z</time>
      </trkpt>
      <trkpt lat="49.24567" lon="1.8265">
        <ele>75.12</ele>
        <time>2013-05-26T08:16:12Z</time>
      </trkpt>
      <trkpt lat="49.24567" lon="1.82662">
        <ele>73.68</ele>
        <time>2013-05-26T08:16:13Z</time>
      </trkpt>
      <trkpt lat="49.24566" lon="1.82674">
        <ele>73.68</ele>
        <time>2013-05-26T08:16:14Z</time>
      </trkpt>
      <trkpt lat="49.24555" lon="1.82831">
        <ele>74.64</ele>
        <time>2013-05-26T08:16:29Z</time>
      </trkpt>
      <trkpt lat="49.24553" lon="1.82887">
        <ele>78.48</ele>
        <time>2013-05-26T08:16:39Z</time>
      </trkpt>
      <trkpt lat="49.24546" lon="1.82909">
        <ele>78.48</ele>
        <time>2013-05-26T08:16:44Z</time>
      </trkpt>
      <trkpt lat="49.24543" lon="1.8291">
        <ele>78.97</ele>
        <time>2013-05-26T08:16:45Z</time>
      </trkpt>
      <trkpt lat="49.24539" lon="1.82911">
        <ele>79.93</ele>
        <time>2013-05-26T08:16:46Z</time>
      </trkpt>
      <trkpt lat="49.24536" lon="1.8291">
        <ele>78.97</ele>
        <time>2013-05-26T08:16:47Z</time>
      </trkpt>
      <trkpt lat="49.24532" lon="1.8291">
        <ele>80.89</ele>
        <time>2013-05-26T08:16:48Z</time>
      </trkpt>
      <trkpt lat="49.24507" lon="1.82926">
        <ele>82.33</ele>
        <time>2013-05-26T08:16:57Z</time>
      </trkpt>
      <trkpt lat="49.24507" lon="1.82948">
        <ele>84.25</ele>
        <time>2013-05-26T08:17:02Z</time>
      </trkpt>
      <trkpt lat="49.2452" lon="1.8299">
        <ele>86.18</ele>
        <time>2013-05-26T08:17:16Z</time>
      </trkpt>
      <trkpt lat="49.2452" lon="1.82994">
        <ele>85.21</ele>
        <time>2013-05-26T08:17:29Z</time>
      </trkpt>
      <trkpt lat="49.24519" lon="1.82995">
        <ele>85.21</ele>
        <time>2013-05-26T08:17:53Z</time>
      </trkpt>
      <trkpt lat="49.2452" lon="1.82996">
        <ele>86.18</ele>
        <time>2013-05-26T08:18:28Z</time>
      </trkpt>
      <trkpt lat="49.24522" lon="1.83">
        <ele>85.69</ele>
        <time>2013-05-26T08:18:44Z</time>
      </trkpt>
      <trkpt lat="49.24523" lon="1.83003">
        <ele>86.18</ele>
        <time>2013-05-26T08:18:45Z</time>
      </trkpt>
      <trkpt lat="49.24527" lon="1.83012">
        <ele>85.21</ele>
        <time>2013-05-26T08:18:47Z</time>
      </trkpt>
      <trkpt lat="49.24529" lon="1.83017">
        <ele>83.29</ele>
        <time>2013-05-26T08:18:48Z</time>
      </trkpt>
      <trkpt lat="49.24533" lon="1.8302">
        <ele>84.73</ele>
        <time>2013-05-26T08:18:49Z</time>
      </trkpt>
      <trkpt lat="49.24537" lon="1.83023">
        <ele>83.29</ele>
        <time>2013-05-26T08:18:50Z</time>
      </trkpt>
      <trkpt lat="49.24542" lon="1.83026">
        <ele>82.81</ele>
        <time>2013-05-26T08:18:51Z</time>
      </trkpt>
      <trkpt lat="49.24548" lon="1.83026">
        <ele>81.85</ele>
        <time>2013-05-26T08:18:52Z</time>
      </trkpt>
      <trkpt lat="49.24554" lon="1.83027">
        <ele>81.37</ele>
        <time>2013-05-26T08:18:53Z</time>
      </trkpt>
      <trkpt lat="49.2456" lon="1.83027">
        <ele>79.93</ele>
        <time>2013-05-26T08:18:54Z</time>
      </trkpt>
      <trkpt lat="49.24565" lon="1.83027">
        <ele>79.93</ele>
        <time>2013-05-26T08:18:55Z</time>
      </trkpt>
      <trkpt lat="49.24581" lon="1.83029">
        <ele>77.04</ele>
        <time>2013-05-26T08:18:58Z</time>
      </trkpt>
      <trkpt lat="49.24599" lon="1.83032">
        <ele>77.52</ele>
        <time>2013-05-26T08:19:06Z</time>
      </trkpt>
      <trkpt lat="49.24596" lon="1.83031">
        <ele>78</ele>
        <time>2013-05-26T08:19:11Z</time>
      </trkpt>
      <trkpt lat="49.24594" lon="1.83031">
        <ele>78.48</ele>
        <time>2013-05-26T08:19:12Z</time>
      </trkpt>
      <trkpt lat="49.24593" lon="1.83031">
        <ele>77.52</ele>
        <time>2013-05-26T08:19:13Z</time>
      </trkpt>
      <trkpt lat="49.24583" lon="1.83028">
        <ele>77.04</ele>
        <time>2013-05-26T08:19:20Z</time>
      </trkpt>
      <trkpt lat="49.24583" lon="1.83026">
        <ele>78</ele>
        <time>2013-05-26T08:19:21Z</time>
      </trkpt>
      <trkpt lat="49.24584" lon="1.83024">
        <ele>77.52</ele>
        <time>2013-05-26T08:19:22Z</time>
      </trkpt>
      <trkpt lat="49.24587" lon="1.83023">
        <ele>77.52</ele>
        <time>2013-05-26T08:19:23Z</time>
      </trkpt>
      <trkpt lat="49.2459" lon="1.83024">
        <ele>77.52</ele>
        <time>2013-05-26T08:19:24Z</time>
      </trkpt>
      <trkpt lat="49.24592" lon="1.83025">
        <ele>76.56</ele>
        <time>2013-05-26T08:19:25Z</time>
      </trkpt>
      <trkpt lat="49.24595" lon="1.83026">
        <ele>77.04</ele>
        <time>2013-05-26T08:19:26Z</time>
      </trkpt>
      <trkpt lat="49.24598" lon="1.83026">
        <ele>76.56</ele>
        <time>2013-05-26T08:19:27Z</time>
      </trkpt>
      <trkpt lat="49.246" lon="1.83026">
        <ele>74.64</ele>
        <time>2013-05-26T08:19:28Z</time>
      </trkpt>
      <trkpt lat="49.24603" lon="1.83026">
        <ele>75.6</ele>
        <time>2013-05-26T08:19:29Z</time>
      </trkpt>
      <trkpt lat="49.2462" lon="1.83031">
        <ele>72.72</ele>
        <time>2013-05-26T08:19:35Z</time>
      </trkpt>
      <trkpt lat="49.24623" lon="1.83033">
        <ele>74.16</ele>
        <time>2013-05-26T08:19:36Z</time>
      </trkpt>
      <trkpt lat="49.24627" lon="1.83038">
        <ele>72.24</ele>
        <time>2013-05-26T08:19:41Z</time>
      </trkpt>
      <trkpt lat="49.24626" lon="1.83041">
        <ele>73.2</ele>
        <time>2013-05-26T08:19:42Z</time>
      </trkpt>
      <trkpt lat="49.24626" lon="1.83044">
        <ele>73.2</ele>
        <time>2013-05-26T08:19:43Z</time>
      </trkpt>
      <trkpt lat="49.24626" lon="1.83047">
        <ele>74.64</ele>
        <time>2013-05-26T08:19:44Z</time>
      </trkpt>
      <trkpt lat="49.24625" lon="1.8305">
        <ele>74.64</ele>
        <time>2013-05-26T08:19:45Z</time>
      </trkpt>
      <trkpt lat="49.24625" lon="1.83053">
        <ele>73.68</ele>
        <time>2013-05-26T08:19:46Z</time>
      </trkpt>
      <trkpt lat="49.24624" lon="1.83064">
        <ele>77.04</ele>
        <time>2013-05-26T08:19:49Z</time>
      </trkpt>
      <trkpt lat="49.24621" lon="1.83095">
        <ele>80.41</ele>
        <time>2013-05-26T08:19:59Z</time>
      </trkpt>
      <trkpt lat="49.24617" lon="1.83101">
        <ele>79.45</ele>
        <time>2013-05-26T08:20:02Z</time>
      </trkpt>
      <trkpt lat="49.24615" lon="1.83106">
        <ele>80.41</ele>
        <time>2013-05-26T08:20:04Z</time>
      </trkpt>
      <trkpt lat="49.24614" lon="1.83109">
        <ele>81.85</ele>
        <time>2013-05-26T08:20:05Z</time>
      </trkpt>
      <trkpt lat="49.24614" lon="1.83112">
        <ele>80.89</ele>
        <time>2013-05-26T08:20:06Z</time>
      </trkpt>
      <trkpt lat="49.24615" lon="1.83115">
        <ele>81.85</ele>
        <time>2013-05-26T08:20:07Z</time>
      </trkpt>
      <trkpt lat="49.24615" lon="1.83118">
        <ele>80.41</ele>
        <time>2013-05-26T08:20:08Z</time>
      </trkpt>
      <trkpt lat="49.24622" lon="1.83161">
        <ele>82.33</ele>
        <time>2013-05-26T08:20:22Z</time>
      </trkpt>
      <trkpt lat="49.24629" lon="1.83227">
        <ele>79.45</ele>
        <time>2013-05-26T08:20:38Z</time>
      </trkpt>
      <trkpt lat="49.24624" lon="1.83293">
        <ele>78</ele>
        <time>2013-05-26T08:20:52Z</time>
      </trkpt>
      <trkpt lat="49.24624" lon="1.833">
        <ele>78</ele>
        <time>2013-05-26T08:20:53Z</time>
      </trkpt>
      <trkpt lat="49.24622" lon="1.83306">
        <ele>78.97</ele>
        <time>2013-05-26T08:20:54Z</time>
      </trkpt>
      <trkpt lat="49.24608" lon="1.83342">
        <ele>76.08</ele>
        <time>2013-05-26T08:20:59Z</time>
      </trkpt>
      <trkpt lat="49.24601" lon="1.83364">
        <ele>74.64</ele>
        <time>2013-05-26T08:21:02Z</time>
      </trkpt>
      <trkpt lat="49.24594" lon="1.83386">
        <ele>75.12</ele>
        <time>2013-05-26T08:21:05Z</time>
      </trkpt>
      <trkpt lat="49.24592" lon="1.83428">
        <ele>74.16</ele>
        <time>2013-05-26T08:21:13Z</time>
      </trkpt>
      <trkpt lat="49.24593" lon="1.83435">
        <ele>75.6</ele>
        <time>2013-05-26T08:21:14Z</time>
      </trkpt>
      <trkpt lat="49.24596" lon="1.83484">
        <ele>75.12</ele>
        <time>2013-05-26T08:21:24Z</time>
      </trkpt>
      <trkpt lat="49.24597" lon="1.83485">
        <ele>75.6</ele>
        <time>2013-05-26T08:21:35Z</time>
      </trkpt>
      <trkpt lat="49.24599" lon="1.83483">
        <ele>74.16</ele>
        <time>2013-05-26T08:21:57Z</time>
      </trkpt>
      <trkpt lat="49.24599" lon="1.83484">
        <ele>74.16</ele>
        <time>2013-05-26T08:22:26Z</time>
      </trkpt>
      <trkpt lat="49.24599" lon="1.83485">
        <ele>74.64</ele>
        <time>2013-05-26T08:22:45Z</time>
      </trkpt>
      <trkpt lat="49.24599" lon="1.83484">
        <ele>74.64</ele>
        <time>2013-05-26T08:23:17Z</time>
      </trkpt>
      <trkpt lat="49.246" lon="1.83484">
        <ele>75.6</ele>
        <time>2013-05-26T08:23:53Z</time>
      </trkpt>
      <trkpt lat="49.24601" lon="1.83485">
        <ele>74.16</ele>
        <time>2013-05-26T08:24:22Z</time>
      </trkpt>
      <trkpt lat="49.246" lon="1.83485">
        <ele>73.68</ele>
        <time>2013-05-26T08:24:26Z</time>
      </trkpt>
      <trkpt lat="49.24598" lon="1.83485">
        <ele>74.64</ele>
        <time>2013-05-26T08:24:58Z</time>
      </trkpt>
      <trkpt lat="49.24598" lon="1.83484">
        <ele>74.64</ele>
        <time>2013-05-26T08:25:25Z</time>
      </trkpt>
      <trkpt lat="49.24597" lon="1.83484">
        <ele>74.16</ele>
        <time>2013-05-26T08:25:50Z</time>
      </trkpt>
      <trkpt lat="49.24597" lon="1.83483">
        <ele>73.68</ele>
        <time>2013-05-26T08:26:14Z</time>
      </trkpt>
      <trkpt lat="49.24596" lon="1.83482">
        <ele>73.68</ele>
        <time>2013-05-26T08:26:37Z</time>
      </trkpt>
      <trkpt lat="49.24596" lon="1.83482">
        <ele>73.68</ele>
        <time>2013-05-26T08:27:06Z</time>
      </trkpt>
      <trkpt lat="49.24596" lon="1.83483">
        <ele>75.6</ele>
        <time>2013-05-26T08:27:42Z</time>
      </trkpt>
      <trkpt lat="49.24595" lon="1.83483">
        <ele>74.64</ele>
        <time>2013-05-26T08:28:14Z</time>
      </trkpt>
      <trkpt lat="49.24596" lon="1.83484">
        <ele>75.12</ele>
        <time>2013-05-26T08:28:50Z</time>
      </trkpt>
      <trkpt lat="49.24597" lon="1.83484">
        <ele>75.6</ele>
        <time>2013-05-26T08:29:25Z</time>
      </trkpt>
      <trkpt lat="49.24597" lon="1.83487">
        <ele>76.08</ele>
        <time>2013-05-26T08:30:00Z</time>
      </trkpt>
      <trkpt lat="49.24596" lon="1.83487">
        <ele>75.12</ele>
        <time>2013-05-26T08:30:34Z</time>
      </trkpt>
      <trkpt lat="49.24595" lon="1.83487">
        <ele>75.6</ele>
        <time>2013-05-26T08:31:05Z</time>
      </trkpt>
      <trkpt lat="49.24595" lon="1.83487">
        <ele>75.6</ele>
        <time>2013-05-26T08:31:34Z</time>
      </trkpt>
      <trkpt lat="49.24596" lon="1.83487">
        <ele>75.6</ele>
        <time>2013-05-26T08:32:05Z</time>
      </trkpt>
      <trkpt lat="49.24596" lon="1.83487">
        <ele>75.6</ele>
        <time>2013-05-26T08:32:26Z</time>
      </trkpt>
      <trkpt lat="49.24597" lon="1.83486">
        <ele>76.08</ele>
        <time>2013-05-26T08:32:57Z</time>
      </trkpt>
      <trkpt lat="49.24597" lon="1.83485">
        <ele>76.56</ele>
        <time>2013-05-26T08:33:16Z</time>
      </trkpt>
      <trkpt lat="49.24597" lon="1.83485">
        <ele>75.12</ele>
        <time>2013-05-26T08:33:25Z</time>
      </trkpt>
      <trkpt lat="49.24596" lon="1.83485">
        <ele>75.12</ele>
        <time>2013-05-26T08:33:46Z</time>
      </trkpt>
      <trkpt lat="49.24595" lon="1.83487">
        <ele>76.08</ele>
        <time>2013-05-26T08:33:49Z</time>
      </trkpt>
      <trkpt lat="49.24595" lon="1.83491">
        <ele>75.6</ele>
        <time>2013-05-26T08:33:51Z</time>
      </trkpt>
      <trkpt lat="49.24592" lon="1.83525">
        <ele>77.04</ele>
        <time>2013-05-26T08:34:02Z</time>
      </trkpt>
      <trkpt lat="49.24589" lon="1.83544">
        <ele>77.04</ele>
        <time>2013-05-26T08:34:09Z</time>
      </trkpt>
      <trkpt lat="49.24588" lon="1.83547">
        <ele>78.48</ele>
        <time>2013-05-26T08:34:10Z</time>
      </trkpt>
      <trkpt lat="49.24587" lon="1.8355">
        <ele>77.04</ele>
        <time>2013-05-26T08:34:11Z</time>
      </trkpt>
      <trkpt lat="49.24586" lon="1.83553">
        <ele>78.97</ele>
        <time>2013-05-26T08:34:12Z</time>
      </trkpt>
      <trkpt lat="49.24586" lon="1.83556">
        <ele>77.52</ele>
        <time>2013-05-26T08:34:13Z</time>
      </trkpt>
      <trkpt lat="49.24578" lon="1.83585">
        <ele>80.89</ele>
        <time>2013-05-26T08:34:23Z</time>
      </trkpt>
      <trkpt lat="49.24577" lon="1.83587">
        <ele>80.41</ele>
        <time>2013-05-26T08:34:24Z</time>
      </trkpt>
      <trkpt lat="49.24575" lon="1.83591">
        <ele>79.93</ele>
        <time>2013-05-26T08:34:25Z</time>
      </trkpt>
      <trkpt lat="49.24574" lon="1.83597">
        <ele>79.93</ele>
        <time>2013-05-26T08:34:27Z</time>
      </trkpt>
      <trkpt lat="49.24573" lon="1.836">
        <ele>80.89</ele>
        <time>2013-05-26T08:34:28Z</time>
      </trkpt>
      <trkpt lat="49.24572" lon="1.83603">
        <ele>80.41</ele>
        <time>2013-05-26T08:34:29Z</time>
      </trkpt>
      <trkpt lat="49.24571" lon="1.83606">
        <ele>80.89</ele>
        <time>2013-05-26T08:34:30Z</time>
      </trkpt>
      <trkpt lat="49.2457" lon="1.8361">
        <ele>81.37</ele>
        <time>2013-05-26T08:34:31Z</time>
      </trkpt>
      <trkpt lat="49.24567" lon="1.83614">
        <ele>79.93</ele>
        <time>2013-05-26T08:34:32Z</time>
      </trkpt>
      <trkpt lat="49.24566" lon="1.83618">
        <ele>80.89</ele>
        <time>2013-05-26T08:34:33Z</time>
      </trkpt>
      <trkpt lat="49.24564" lon="1.83624">
        <ele>80.41</ele>
        <time>2013-05-26T08:34:34Z</time>
      </trkpt>
      <trkpt lat="49.24551" lon="1.8367">
        <ele>79.45</ele>
        <time>2013-05-26T08:34:45Z</time>
      </trkpt>
      <trkpt lat="49.24552" lon="1.83673">
        <ele>77.52</ele>
        <time>2013-05-26T08:34:46Z</time>
      </trkpt>
      <trkpt lat="49.24546" lon="1.83706">
        <ele>77.52</ele>
        <time>2013-05-26T08:34:52Z</time>
      </trkpt>
      <trkpt lat="49.24545" lon="1.83712">
        <ele>77.52</ele>
        <time>2013-05-26T08:34:53Z</time>
      </trkpt>
      <trkpt lat="49.24544" lon="1.83717">
        <ele>76.08</ele>
        <time>2013-05-26T08:34:54Z</time>
      </trkpt>
      <trkpt lat="49.24542" lon="1.83722">
        <ele>77.04</ele>
        <time>2013-05-26T08:34:55Z</time>
      </trkpt>
      <trkpt lat="49.24541" lon="1.83726">
        <ele>76.56</ele>
        <time>2013-05-26T08:34:56Z</time>
      </trkpt>
      <trkpt lat="49.2454" lon="1.8373">
        <ele>78</ele>
        <time>2013-05-26T08:34:57Z</time>
      </trkpt>
      <trkpt lat="49.2454" lon="1.83734">
        <ele>77.04</ele>
        <time>2013-05-26T08:34:58Z</time>
      </trkpt>
      <trkpt lat="49.24543" lon="1.83777">
        <ele>78</ele>
        <time>2013-05-26T08:35:08Z</time>
      </trkpt>
      <trkpt lat="49.24564" lon="1.83829">
        <ele>78</ele>
        <time>2013-05-26T08:35:20Z</time>
      </trkpt>
      <trkpt lat="49.24579" lon="1.83863">
        <ele>80.89</ele>
        <time>2013-05-26T08:35:29Z</time>
      </trkpt>
      <trkpt lat="49.24592" lon="1.83902">
        <ele>84.25</ele>
        <time>2013-05-26T08:35:36Z</time>
      </trkpt>
      <trkpt lat="49.24605" lon="1.83961">
        <ele>86.66</ele>
        <time>2013-05-26T08:35:48Z</time>
      </trkpt>
      <trkpt lat="49.24602" lon="1.83971">
        <ele>88.58</ele>
        <time>2013-05-26T08:35:52Z</time>
      </trkpt>
      <trkpt lat="49.24596" lon="1.83979">
        <ele>89.06</ele>
        <time>2013-05-26T08:35:57Z</time>
      </trkpt>
      <trkpt lat="49.24578" lon="1.84004">
        <ele>92.9</ele>
        <time>2013-05-26T08:36:13Z</time>
      </trkpt>
      <trkpt lat="49.24564" lon="1.84027">
        <ele>94.83</ele>
        <time>2013-05-26T08:36:28Z</time>
      </trkpt>
      <trkpt lat="49.24559" lon="1.84037">
        <ele>94.83</ele>
        <time>2013-05-26T08:36:34Z</time>
      </trkpt>
      <trkpt lat="49.24566" lon="1.84056">
        <ele>95.79</ele>
        <time>2013-05-26T08:36:42Z</time>
      </trkpt>
      <trkpt lat="49.24595" lon="1.84091">
        <ele>93.87</ele>
        <time>2013-05-26T08:36:51Z</time>
      </trkpt>
      <trkpt lat="49.24598" lon="1.84097">
        <ele>92.9</ele>
        <time>2013-05-26T08:36:52Z</time>
      </trkpt>
      <trkpt lat="49.24601" lon="1.84104">
        <ele>93.39</ele>
        <time>2013-05-26T08:36:53Z</time>
      </trkpt>
      <trkpt lat="49.24604" lon="1.84111">
        <ele>92.9</ele>
        <time>2013-05-26T08:36:54Z</time>
      </trkpt>
      <trkpt lat="49.24606" lon="1.84119">
        <ele>92.9</ele>
        <time>2013-05-26T08:36:55Z</time>
      </trkpt>
      <trkpt lat="49.24608" lon="1.84127">
        <ele>92.9</ele>
        <time>2013-05-26T08:36:56Z</time>
      </trkpt>
      <trkpt lat="49.2461" lon="1.84136">
        <ele>92.9</ele>
        <time>2013-05-26T08:36:57Z</time>
      </trkpt>
      <trkpt lat="49.24611" lon="1.84143">
        <ele>92.9</ele>
        <time>2013-05-26T08:36:58Z</time>
      </trkpt>
      <trkpt lat="49.24611" lon="1.8415">
        <ele>92.42</ele>
        <time>2013-05-26T08:36:59Z</time>
      </trkpt>
      <trkpt lat="49.2461" lon="1.84243">
        <ele>90.5</ele>
        <time>2013-05-26T08:37:13Z</time>
      </trkpt>
      <trkpt lat="49.24605" lon="1.84352">
        <ele>87.62</ele>
        <time>2013-05-26T08:37:25Z</time>
      </trkpt>
      <trkpt lat="49.24571" lon="1.84478">
        <ele>86.18</ele>
        <time>2013-05-26T08:37:38Z</time>
      </trkpt>
      <trkpt lat="49.24529" lon="1.84539">
        <ele>83.29</ele>
        <time>2013-05-26T08:37:46Z</time>
      </trkpt>
      <trkpt lat="49.24523" lon="1.84544">
        <ele>83.29</ele>
        <time>2013-05-26T08:37:47Z</time>
      </trkpt>
      <trkpt lat="49.24489" lon="1.84567">
        <ele>81.85</ele>
        <time>2013-05-26T08:37:52Z</time>
      </trkpt>
      <trkpt lat="49.24414" lon="1.84618">
        <ele>78.97</ele>
        <time>2013-05-26T08:38:01Z</time>
      </trkpt>
      <trkpt lat="49.24406" lon="1.84625">
        <ele>79.45</ele>
        <time>2013-05-26T08:38:02Z</time>
      </trkpt>
      <trkpt lat="49.24372" lon="1.84653">
        <ele>80.41</ele>
        <time>2013-05-26T08:38:07Z</time>
      </trkpt>
      <trkpt lat="49.24367" lon="1.84656">
        <ele>80.89</ele>
        <time>2013-05-26T08:38:08Z</time>
      </trkpt>
      <trkpt lat="49.24355" lon="1.84668">
        <ele>81.85</ele>
        <time>2013-05-26T08:38:15Z</time>
      </trkpt>
      <trkpt lat="49.24354" lon="1.84669">
        <ele>81.85</ele>
        <time>2013-05-26T08:38:30Z</time>
      </trkpt>
      <trkpt lat="49.24353" lon="1.8467">
        <ele>81.85</ele>
        <time>2013-05-26T08:38:31Z</time>
      </trkpt>
      <trkpt lat="49.24352" lon="1.84672">
        <ele>81.37</ele>
        <time>2013-05-26T08:38:34Z</time>
      </trkpt>
      <trkpt lat="49.24352" lon="1.84674">
        <ele>81.85</ele>
        <time>2013-05-26T08:38:35Z</time>
      </trkpt>
      <trkpt lat="49.24352" lon="1.84678">
        <ele>82.33</ele>
        <time>2013-05-26T08:38:36Z</time>
      </trkpt>
      <trkpt lat="49.24352" lon="1.84681">
        <ele>82.33</ele>
        <time>2013-05-26T08:38:37Z</time>
      </trkpt>
      <trkpt lat="49.24351" lon="1.84686">
        <ele>81.37</ele>
        <time>2013-05-26T08:38:38Z</time>
      </trkpt>
      <trkpt lat="49.24349" lon="1.84732">
        <ele>79.45</ele>
        <time>2013-05-26T08:38:49Z</time>
      </trkpt>
      <trkpt lat="49.24349" lon="1.84734">
        <ele>80.89</ele>
        <time>2013-05-26T08:39:05Z</time>
      </trkpt>
      <trkpt lat="49.24349" lon="1.84734">
        <ele>80.89</ele>
        <time>2013-05-26T08:39:24Z</time>
      </trkpt>
      <trkpt lat="49.24348" lon="1.84734">
        <ele>79.93</ele>
        <time>2013-05-26T08:39:50Z</time>
      </trkpt>
      <trkpt lat="49.24348" lon="1.84733">
        <ele>79.93</ele>
        <time>2013-05-26T08:40:14Z</time>
      </trkpt>
      <trkpt lat="49.24348" lon="1.84733">
        <ele>80.89</ele>
        <time>2013-05-26T08:40:24Z</time>
      </trkpt>
      <trkpt lat="49.24347" lon="1.84733">
        <ele>79.93</ele>
        <time>2013-05-26T08:40:46Z</time>
      </trkpt>
      <trkpt lat="49.24347" lon="1.84733">
        <ele>79.93</ele>
        <time>2013-05-26T08:41:10Z</time>
      </trkpt>
      <trkpt lat="49.24347" lon="1.84733">
        <ele>80.41</ele>
        <time>2013-05-26T08:41:38Z</time>
      </trkpt>
      <trkpt lat="49.24346" lon="1.84735">
        <ele>80.41</ele>
        <time>2013-05-26T08:41:56Z</time>
      </trkpt>
      <trkpt lat="49.24345" lon="1.84736">
        <ele>79.45</ele>
        <time>2013-05-26T08:41:57Z</time>
      </trkpt>
      <trkpt lat="49.24344" lon="1.84737">
        <ele>79.93</ele>
        <time>2013-05-26T08:41:58Z</time>
      </trkpt>
      <trkpt lat="49.24342" lon="1.84738">
        <ele>80.41</ele>
        <time>2013-05-26T08:41:59Z</time>
      </trkpt>
      <trkpt lat="49.2434" lon="1.8474">
        <ele>79.93</ele>
        <time>2013-05-26T08:42:00Z</time>
      </trkpt>
      <trkpt lat="49.24338" lon="1.84742">
        <ele>80.41</ele>
        <time>2013-05-26T08:42:01Z</time>
      </trkpt>
      <trkpt lat="49.24318" lon="1.8475">
        <ele>82.81</ele>
        <time>2013-05-26T08:42:12Z</time>
      </trkpt>
      <trkpt lat="49.24277" lon="1.84753">
        <ele>84.25</ele>
        <time>2013-05-26T08:42:27Z</time>
      </trkpt>
      <trkpt lat="49.24238" lon="1.84765">
        <ele>87.62</ele>
        <time>2013-05-26T08:42:40Z</time>
      </trkpt>
      <trkpt lat="49.24193" lon="1.84781">
        <ele>84.73</ele>
        <time>2013-05-26T08:42:52Z</time>
      </trkpt>
      <trkpt lat="49.24128" lon="1.84821">
        <ele>81.37</ele>
        <time>2013-05-26T08:43:04Z</time>
      </trkpt>
      <trkpt lat="49.24056" lon="1.84887">
        <ele>83.29</ele>
        <time>2013-05-26T08:43:18Z</time>
      </trkpt>
      <trkpt lat="49.24031" lon="1.84911">
        <ele>86.66</ele>
        <time>2013-05-26T08:43:26Z</time>
      </trkpt>
      <trkpt lat="49.24021" lon="1.84932">
        <ele>83.77</ele>
        <time>2013-05-26T08:43:31Z</time>
      </trkpt>
      <trkpt lat="49.24005" lon="1.84967">
        <ele>82.33</ele>
        <time>2013-05-26T08:43:38Z</time>
      </trkpt>
      <trkpt lat="49.23993" lon="1.84981">
        <ele>81.85</ele>
        <time>2013-05-26T08:43:40Z</time>
      </trkpt>
      <trkpt lat="49.23987" lon="1.84985">
        <ele>81.37</ele>
        <time>2013-05-26T08:43:41Z</time>
      </trkpt>
      <trkpt lat="49.23981" lon="1.84988">
        <ele>82.33</ele>
        <time>2013-05-26T08:43:42Z</time>
      </trkpt>
      <trkpt lat="49.23967" lon="1.84996">
        <ele>82.33</ele>
        <time>2013-05-26T08:43:44Z</time>
      </trkpt>
      <trkpt lat="49.23959" lon="1.84997">
        <ele>83.29</ele>
        <time>2013-05-26T08:43:46Z</time>
      </trkpt>
      <trkpt lat="49.23951" lon="1.84997">
        <ele>83.29</ele>
        <time>2013-05-26T08:43:50Z</time>
      </trkpt>
      <trkpt lat="49.23949" lon="1.84997">
        <ele>83.29</ele>
        <time>2013-05-26T08:43:51Z</time>
      </trkpt>
      <trkpt lat="49.23946" lon="1.84996">
        <ele>82.81</ele>
        <time>2013-05-26T08:43:52Z</time>
      </trkpt>
      <trkpt lat="49.23944" lon="1.84994">
        <ele>83.77</ele>
        <time>2013-05-26T08:43:53Z</time>
      </trkpt>
      <trkpt lat="49.23941" lon="1.84993">
        <ele>82.81</ele>
        <time>2013-05-26T08:43:54Z</time>
      </trkpt>
      <trkpt lat="49.23899" lon="1.84975">
        <ele>84.25</ele>
        <time>2013-05-26T08:44:07Z</time>
      </trkpt>
      <trkpt lat="49.23894" lon="1.84978">
        <ele>85.21</ele>
        <time>2013-05-26T08:44:09Z</time>
      </trkpt>
      <trkpt lat="49.23888" lon="1.84989">
        <ele>85.21</ele>
        <time>2013-05-26T08:44:12Z</time>
      </trkpt>
      <trkpt lat="49.23882" lon="1.85022">
        <ele>83.77</ele>
        <time>2013-05-26T08:44:19Z</time>
      </trkpt>
      <trkpt lat="49.2388" lon="1.85028">
        <ele>85.21</ele>
        <time>2013-05-26T08:44:20Z</time>
      </trkpt>
      <trkpt lat="49.23878" lon="1.85033">
        <ele>84.73</ele>
        <time>2013-05-26T08:44:21Z</time>
      </trkpt>
      <trkpt lat="49.23876" lon="1.85037">
        <ele>84.73</ele>
        <time>2013-05-26T08:44:22Z</time>
      </trkpt>
      <trkpt lat="49.23875" lon="1.85041">
        <ele>85.21</ele>
        <time>2013-05-26T08:44:23Z</time>
      </trkpt>
      <trkpt lat="49.23874" lon="1.85045">
        <ele>84.73</ele>
        <time>2013-05-26T08:44:24Z</time>
      </trkpt>
      <trkpt lat="49.23873" lon="1.85049">
        <ele>85.21</ele>
        <time>2013-05-26T08:44:25Z</time>
      </trkpt>
      <trkpt lat="49.23862" lon="1.85096">
        <ele>88.1</ele>
        <time>2013-05-26T08:44:35Z</time>
      </trkpt>
      <trkpt lat="49.2384" lon="1.85125">
        <ele>89.06</ele>
        <time>2013-05-26T08:44:45Z</time>
      </trkpt>
      <trkpt lat="49.23812" lon="1.85139">
        <ele>89.54</ele>
        <time>2013-05-26T08:44:56Z</time>
      </trkpt>
      <trkpt lat="49.23784" lon="1.85178">
        <ele>88.1</ele>
        <time>2013-05-26T08:45:06Z</time>
      </trkpt>
      <trkpt lat="49.23752" lon="1.85232">
        <ele>88.1</ele>
        <time>2013-05-26T08:45:19Z</time>
      </trkpt>
      <trkpt lat="49.23721" lon="1.85281">
        <ele>89.06</ele>
        <time>2013-05-26T08:45:29Z</time>
      </trkpt>
      <trkpt lat="49.2369" lon="1.85333">
        <ele>88.58</ele>
        <time>2013-05-26T08:45:40Z</time>
      </trkpt>
      <trkpt lat="49.23665" lon="1.85405">
        <ele>87.14</ele>
        <time>2013-05-26T08:45:52Z</time>
      </trkpt>
      <trkpt lat="49.23663" lon="1.85413">
        <ele>87.14</ele>
        <time>2013-05-26T08:45:53Z</time>
      </trkpt>
      <trkpt lat="49.23662" lon="1.8542">
        <ele>86.18</ele>
        <time>2013-05-26T08:45:54Z</time>
      </trkpt>
      <trkpt lat="49.23661" lon="1.85427">
        <ele>86.66</ele>
        <time>2013-05-26T08:45:55Z</time>
      </trkpt>
      <trkpt lat="49.2366" lon="1.85435">
        <ele>85.69</ele>
        <time>2013-05-26T08:45:56Z</time>
      </trkpt>
      <trkpt lat="49.23659" lon="1.85442">
        <ele>85.69</ele>
        <time>2013-05-26T08:45:57Z</time>
      </trkpt>
      <trkpt lat="49.23659" lon="1.8545">
        <ele>86.18</ele>
        <time>2013-05-26T08:45:58Z</time>
      </trkpt>
      <trkpt lat="49.23658" lon="1.85457">
        <ele>85.21</ele>
        <time>2013-05-26T08:45:59Z</time>
      </trkpt>
      <trkpt lat="49.23657" lon="1.85465">
        <ele>85.69</ele>
        <time>2013-05-26T08:46:00Z</time>
      </trkpt>
      <trkpt lat="49.23653" lon="1.85487">
        <ele>84.73</ele>
        <time>2013-05-26T08:46:03Z</time>
      </trkpt>
      <trkpt lat="49.2365" lon="1.85501">
        <ele>83.77</ele>
        <time>2013-05-26T08:46:05Z</time>
      </trkpt>
      <trkpt lat="49.23649" lon="1.85507">
        <ele>84.25</ele>
        <time>2013-05-26T08:46:06Z</time>
      </trkpt>
      <trkpt lat="49.23629" lon="1.85597">
        <ele>82.81</ele>
        <time>2013-05-26T08:46:21Z</time>
      </trkpt>
      <trkpt lat="49.23607" lon="1.85663">
        <ele>81.85</ele>
        <time>2013-05-26T08:46:30Z</time>
      </trkpt>
      <trkpt lat="49.23603" lon="1.85715">
        <ele>81.85</ele>
        <time>2013-05-26T08:46:40Z</time>
      </trkpt>
      <trkpt lat="49.23603" lon="1.8572">
        <ele>81.85</ele>
        <time>2013-05-26T08:46:41Z</time>
      </trkpt>
      <trkpt lat="49.23602" lon="1.85725">
        <ele>82.33</ele>
        <time>2013-05-26T08:46:42Z</time>
      </trkpt>
      <trkpt lat="49.23601" lon="1.8573">
        <ele>81.85</ele>
        <time>2013-05-26T08:46:43Z</time>
      </trkpt>
      <trkpt lat="49.236" lon="1.85735">
        <ele>82.81</ele>
        <time>2013-05-26T08:46:44Z</time>
      </trkpt>
      <trkpt lat="49.23599" lon="1.8574">
        <ele>82.33</ele>
        <time>2013-05-26T08:46:45Z</time>
      </trkpt>
      <trkpt lat="49.23598" lon="1.85743">
        <ele>82.81</ele>
        <time>2013-05-26T08:46:46Z</time>
      </trkpt>
      <trkpt lat="49.23597" lon="1.85746">
        <ele>81.85</ele>
        <time>2013-05-26T08:46:47Z</time>
      </trkpt>
      <trkpt lat="49.23595" lon="1.8575">
        <ele>82.33</ele>
        <time>2013-05-26T08:46:48Z</time>
      </trkpt>
      <trkpt lat="49.23593" lon="1.85753">
        <ele>82.33</ele>
        <time>2013-05-26T08:46:49Z</time>
      </trkpt>
      <trkpt lat="49.23591" lon="1.85758">
        <ele>83.29</ele>
        <time>2013-05-26T08:46:50Z</time>
      </trkpt>
      <trkpt lat="49.23589" lon="1.85762">
        <ele>83.29</ele>
        <time>2013-05-26T08:46:51Z</time>
      </trkpt>
      <trkpt lat="49.23586" lon="1.85766">
        <ele>83.77</ele>
        <time>2013-05-26T08:46:52Z</time>
      </trkpt>
      <trkpt lat="49.23575" lon="1.85783">
        <ele>84.73</ele>
        <time>2013-05-26T08:46:57Z</time>
      </trkpt>
      <trkpt lat="49.23572" lon="1.85787">
        <ele>84.25</ele>
        <time>2013-05-26T08:46:58Z</time>
      </trkpt>
      <trkpt lat="49.2357" lon="1.85789">
        <ele>84.73</ele>
        <time>2013-05-26T08:46:59Z</time>
      </trkpt>
      <trkpt lat="49.23568" lon="1.85791">
        <ele>84.73</ele>
        <time>2013-05-26T08:47:00Z</time>
      </trkpt>
      <trkpt lat="49.23558" lon="1.85794">
        <ele>85.21</ele>
        <time>2013-05-26T08:47:03Z</time>
      </trkpt>
      <trkpt lat="49.23527" lon="1.85799">
        <ele>82.81</ele>
        <time>2013-05-26T08:47:11Z</time>
      </trkpt>
      <trkpt lat="49.23496" lon="1.85797">
        <ele>81.37</ele>
        <time>2013-05-26T08:47:17Z</time>
      </trkpt>
      <trkpt lat="49.23468" lon="1.85785">
        <ele>81.85</ele>
        <time>2013-05-26T08:47:23Z</time>
      </trkpt>
      <trkpt lat="49.2346" lon="1.85778">
        <ele>82.33</ele>
        <time>2013-05-26T08:47:25Z</time>
      </trkpt>
      <trkpt lat="49.23456" lon="1.85773">
        <ele>82.33</ele>
        <time>2013-05-26T08:47:26Z</time>
      </trkpt>
      <trkpt lat="49.23452" lon="1.85767">
        <ele>81.37</ele>
        <time>2013-05-26T08:47:27Z</time>
      </trkpt>
      <trkpt lat="49.23449" lon="1.85761">
        <ele>82.33</ele>
        <time>2013-05-26T08:47:28Z</time>
      </trkpt>
      <trkpt lat="49.23446" lon="1.85756">
        <ele>81.85</ele>
        <time>2013-05-26T08:47:29Z</time>
      </trkpt>
      <trkpt lat="49.23437" lon="1.85733">
        <ele>81.37</ele>
        <time>2013-05-26T08:47:33Z</time>
      </trkpt>
      <trkpt lat="49.23435" lon="1.85727">
        <ele>81.37</ele>
        <time>2013-05-26T08:47:34Z</time>
      </trkpt>
      <trkpt lat="49.23432" lon="1.85721">
        <ele>81.85</ele>
        <time>2013-05-26T08:47:35Z</time>
      </trkpt>
      <trkpt lat="49.2343" lon="1.85716">
        <ele>81.85</ele>
        <time>2013-05-26T08:47:36Z</time>
      </trkpt>
      <trkpt lat="49.23429" lon="1.85713">
        <ele>81.85</ele>
        <time>2013-05-26T08:47:37Z</time>
      </trkpt>
      <trkpt lat="49.23416" lon="1.85688">
        <ele>82.33</ele>
        <time>2013-05-26T08:47:42Z</time>
      </trkpt>
      <trkpt lat="49.23412" lon="1.85687">
        <ele>82.81</ele>
        <time>2013-05-26T08:47:43Z</time>
      </trkpt>
      <trkpt lat="49.23408" lon="1.85686">
        <ele>82.33</ele>
        <time>2013-05-26T08:47:44Z</time>
      </trkpt>
      <trkpt lat="49.23404" lon="1.85685">
        <ele>83.29</ele>
        <time>2013-05-26T08:47:45Z</time>
      </trkpt>
      <trkpt lat="49.23401" lon="1.85685">
        <ele>82.33</ele>
        <time>2013-05-26T08:47:46Z</time>
      </trkpt>
      <trkpt lat="49.23397" lon="1.85685">
        <ele>82.81</ele>
        <time>2013-05-26T08:47:47Z</time>
      </trkpt>
      <trkpt lat="49.23394" lon="1.85686">
        <ele>82.81</ele>
        <time>2013-05-26T08:47:48Z</time>
      </trkpt>
      <trkpt lat="49.23365" lon="1.85693">
        <ele>82.33</ele>
        <time>2013-05-26T08:47:57Z</time>
      </trkpt>
      <trkpt lat="49.23363" lon="1.85693">
        <ele>82.81</ele>
        <time>2013-05-26T08:47:58Z</time>
      </trkpt>
      <trkpt lat="49.23361" lon="1.85694">
        <ele>83.29</ele>
        <time>2013-05-26T08:47:59Z</time>
      </trkpt>
      <trkpt lat="49.23342" lon="1.85702">
        <ele>82.33</ele>
        <time>2013-05-26T08:48:06Z</time>
      </trkpt>
      <trkpt lat="49.2334" lon="1.85704">
        <ele>82.81</ele>
        <time>2013-05-26T08:48:07Z</time>
      </trkpt>
      <trkpt lat="49.23337" lon="1.85706">
        <ele>82.33</ele>
        <time>2013-05-26T08:48:08Z</time>
      </trkpt>
      <trkpt lat="49.23328" lon="1.85718">
        <ele>83.29</ele>
        <time>2013-05-26T08:48:12Z</time>
      </trkpt>
      <trkpt lat="49.23323" lon="1.85736">
        <ele>82.81</ele>
        <time>2013-05-26T08:48:17Z</time>
      </trkpt>
      <trkpt lat="49.23318" lon="1.8576">
        <ele>83.29</ele>
        <time>2013-05-26T08:48:23Z</time>
      </trkpt>
      <trkpt lat="49.23317" lon="1.85765">
        <ele>83.77</ele>
        <time>2013-05-26T08:48:24Z</time>
      </trkpt>
      <trkpt lat="49.23317" lon="1.8577">
        <ele>83.77</ele>
        <time>2013-05-26T08:48:25Z</time>
      </trkpt>
      <trkpt lat="49.23317" lon="1.85774">
        <ele>83.77</ele>
        <time>2013-05-26T08:48:26Z</time>
      </trkpt>
      <trkpt lat="49.23317" lon="1.85777">
        <ele>83.29</ele>
        <time>2013-05-26T08:48:27Z</time>
      </trkpt>
      <trkpt lat="49.23317" lon="1.85781">
        <ele>83.77</ele>
        <time>2013-05-26T08:48:28Z</time>
      </trkpt>
      <trkpt lat="49.23316" lon="1.85785">
        <ele>83.77</ele>
        <time>2013-05-26T08:48:29Z</time>
      </trkpt>
      <trkpt lat="49.23315" lon="1.85789">
        <ele>84.25</ele>
        <time>2013-05-26T08:48:30Z</time>
      </trkpt>
      <trkpt lat="49.23315" lon="1.85795">
        <ele>83.29</ele>
        <time>2013-05-26T08:48:31Z</time>
      </trkpt>
      <trkpt lat="49.23314" lon="1.85802">
        <ele>84.25</ele>
        <time>2013-05-26T08:48:32Z</time>
      </trkpt>
      <trkpt lat="49.23312" lon="1.85808">
        <ele>83.77</ele>
        <time>2013-05-26T08:48:33Z</time>
      </trkpt>
      <trkpt lat="49.23309" lon="1.85822">
        <ele>84.25</ele>
        <time>2013-05-26T08:48:36Z</time>
      </trkpt>
      <trkpt lat="49.23308" lon="1.85827">
        <ele>83.77</ele>
        <time>2013-05-26T08:48:37Z</time>
      </trkpt>
      <trkpt lat="49.23308" lon="1.85874">
        <ele>84.73</ele>
        <time>2013-05-26T08:48:46Z</time>
      </trkpt>
      <trkpt lat="49.23308" lon="1.85877">
        <ele>84.73</ele>
        <time>2013-05-26T08:48:47Z</time>
      </trkpt>
      <trkpt lat="49.23307" lon="1.85882">
        <ele>84.73</ele>
        <time>2013-05-26T08:48:48Z</time>
      </trkpt>
      <trkpt lat="49.23307" lon="1.85886">
        <ele>85.69</ele>
        <time>2013-05-26T08:48:49Z</time>
      </trkpt>
      <trkpt lat="49.23306" lon="1.85891">
        <ele>85.69</ele>
        <time>2013-05-26T08:48:50Z</time>
      </trkpt>
      <trkpt lat="49.23306" lon="1.85895">
        <ele>85.69</ele>
        <time>2013-05-26T08:48:51Z</time>
      </trkpt>
      <trkpt lat="49.23306" lon="1.85899">
        <ele>85.69</ele>
        <time>2013-05-26T08:48:52Z</time>
      </trkpt>
      <trkpt lat="49.23306" lon="1.85903">
        <ele>85.21</ele>
        <time>2013-05-26T08:48:53Z</time>
      </trkpt>
      <trkpt lat="49.23305" lon="1.85907">
        <ele>85.69</ele>
        <time>2013-05-26T08:48:54Z</time>
      </trkpt>
      <trkpt lat="49.23304" lon="1.85911">
        <ele>85.69</ele>
        <time>2013-05-26T08:48:55Z</time>
      </trkpt>
      <trkpt lat="49.23302" lon="1.85914">
        <ele>86.18</ele>
        <time>2013-05-26T08:48:56Z</time>
      </trkpt>
      <trkpt lat="49.23282" lon="1.85953">
        <ele>87.62</ele>
        <time>2013-05-26T08:49:08Z</time>
      </trkpt>
      <trkpt lat="49.23267" lon="1.85963">
        <ele>88.1</ele>
        <time>2013-05-26T08:49:14Z</time>
      </trkpt>
      <trkpt lat="49.23264" lon="1.85965">
        <ele>88.1</ele>
        <time>2013-05-26T08:49:15Z</time>
      </trkpt>
      <trkpt lat="49.23261" lon="1.85969">
        <ele>88.1</ele>
        <time>2013-05-26T08:49:16Z</time>
      </trkpt>
      <trkpt lat="49.23251" lon="1.8597">
        <ele>88.1</ele>
        <time>2013-05-26T08:49:19Z</time>
      </trkpt>
      <trkpt lat="49.23248" lon="1.85969">
        <ele>87.62</ele>
        <time>2013-05-26T08:49:20Z</time>
      </trkpt>
      <trkpt lat="49.23219" lon="1.85952">
        <ele>88.58</ele>
        <time>2013-05-26T08:49:30Z</time>
      </trkpt>
      <trkpt lat="49.2321" lon="1.85942">
        <ele>87.62</ele>
        <time>2013-05-26T08:49:33Z</time>
      </trkpt>
      <trkpt lat="49.23207" lon="1.85939">
        <ele>87.62</ele>
        <time>2013-05-26T08:49:34Z</time>
      </trkpt>
      <trkpt lat="49.2319" lon="1.85924">
        <ele>87.62</ele>
        <time>2013-05-26T08:49:40Z</time>
      </trkpt>
      <trkpt lat="49.23188" lon="1.85921">
        <ele>88.58</ele>
        <time>2013-05-26T08:49:41Z</time>
      </trkpt>
      <trkpt lat="49.23186" lon="1.85918">
        <ele>88.1</ele>
        <time>2013-05-26T08:49:42Z</time>
      </trkpt>
      <trkpt lat="49.23184" lon="1.85918">
        <ele>88.58</ele>
        <time>2013-05-26T08:49:43Z</time>
      </trkpt>
      <trkpt lat="49.23181" lon="1.85918">
        <ele>88.1</ele>
        <time>2013-05-26T08:49:44Z</time>
      </trkpt>
      <trkpt lat="49.23177" lon="1.85917">
        <ele>88.1</ele>
        <time>2013-05-26T08:49:45Z</time>
      </trkpt>
      <trkpt lat="49.23174" lon="1.85916">
        <ele>89.06</ele>
        <time>2013-05-26T08:49:46Z</time>
      </trkpt>
      <trkpt lat="49.23163" lon="1.85914">
        <ele>88.1</ele>
        <time>2013-05-26T08:49:51Z</time>
      </trkpt>
      <trkpt lat="49.2316" lon="1.85919">
        <ele>88.58</ele>
        <time>2013-05-26T08:49:53Z</time>
      </trkpt>
      <trkpt lat="49.23161" lon="1.85936">
        <ele>84.73</ele>
        <time>2013-05-26T08:49:58Z</time>
      </trkpt>
      <trkpt lat="49.23163" lon="1.85946">
        <ele>84.73</ele>
        <time>2013-05-26T08:49:59Z</time>
      </trkpt>
      <trkpt lat="49.23164" lon="1.85954">
        <ele>84.25</ele>
        <time>2013-05-26T08:50:00Z</time>
      </trkpt>
      <trkpt lat="49.23165" lon="1.85962">
        <ele>84.25</ele>
        <time>2013-05-26T08:50:01Z</time>
      </trkpt>
      <trkpt lat="49.23163" lon="1.86">
        <ele>83.29</ele>
        <time>2013-05-26T08:50:06Z</time>
      </trkpt>
      <trkpt lat="49.23161" lon="1.86008">
        <ele>82.33</ele>
        <time>2013-05-26T08:50:07Z</time>
      </trkpt>
      <trkpt lat="49.23153" lon="1.86043">
        <ele>82.81</ele>
        <time>2013-05-26T08:50:12Z</time>
      </trkpt>
      <trkpt lat="49.23152" lon="1.86051">
        <ele>81.37</ele>
        <time>2013-05-26T08:50:13Z</time>
      </trkpt>
      <trkpt lat="49.23151" lon="1.86118">
        <ele>80.89</ele>
        <time>2013-05-26T08:50:23Z</time>
      </trkpt>
      <trkpt lat="49.23157" lon="1.86194">
        <ele>83.77</ele>
        <time>2013-05-26T08:50:34Z</time>
      </trkpt>
      <trkpt lat="49.23156" lon="1.86231">
        <ele>84.25</ele>
        <time>2013-05-26T08:50:39Z</time>
      </trkpt>
      <trkpt lat="49.23155" lon="1.86235">
        <ele>84.25</ele>
        <time>2013-05-26T08:50:40Z</time>
      </trkpt>
      <trkpt lat="49.23155" lon="1.86239">
        <ele>84.73</ele>
        <time>2013-05-26T08:50:41Z</time>
      </trkpt>
      <trkpt lat="49.23155" lon="1.86243">
        <ele>85.21</ele>
        <time>2013-05-26T08:50:42Z</time>
      </trkpt>
      <trkpt lat="49.23155" lon="1.86249">
        <ele>83.77</ele>
        <time>2013-05-26T08:50:43Z</time>
      </trkpt>
      <trkpt lat="49.23155" lon="1.86255">
        <ele>85.21</ele>
        <time>2013-05-26T08:50:44Z</time>
      </trkpt>
      <trkpt lat="49.23156" lon="1.86262">
        <ele>84.73</ele>
        <time>2013-05-26T08:50:45Z</time>
      </trkpt>
      <trkpt lat="49.23148" lon="1.8632">
        <ele>83.77</ele>
        <time>2013-05-26T08:50:56Z</time>
      </trkpt>
      <trkpt lat="49.23143" lon="1.86352">
        <ele>84.25</ele>
        <time>2013-05-26T08:51:05Z</time>
      </trkpt>
      <trkpt lat="49.23137" lon="1.86368">
        <ele>84.73</ele>
        <time>2013-05-26T08:51:22Z</time>
      </trkpt>
      <trkpt lat="49.23133" lon="1.86401">
        <ele>83.29</ele>
        <time>2013-05-26T08:51:33Z</time>
      </trkpt>
      <trkpt lat="49.23133" lon="1.86404">
        <ele>85.21</ele>
        <time>2013-05-26T08:51:34Z</time>
      </trkpt>
      <trkpt lat="49.23132" lon="1.86407">
        <ele>83.77</ele>
        <time>2013-05-26T08:51:35Z</time>
      </trkpt>
      <trkpt lat="49.23125" lon="1.86453">
        <ele>84.25</ele>
        <time>2013-05-26T08:51:45Z</time>
      </trkpt>
      <trkpt lat="49.23125" lon="1.86471">
        <ele>82.81</ele>
        <time>2013-05-26T08:51:50Z</time>
      </trkpt>
      <trkpt lat="49.23125" lon="1.86532">
        <ele>85.21</ele>
        <time>2013-05-26T08:52:02Z</time>
      </trkpt>
      <trkpt lat="49.23123" lon="1.86567">
        <ele>84.73</ele>
        <time>2013-05-26T08:52:09Z</time>
      </trkpt>
      <trkpt lat="49.23123" lon="1.8657">
        <ele>83.77</ele>
        <time>2013-05-26T08:52:10Z</time>
      </trkpt>
      <trkpt lat="49.23116" lon="1.86659">
        <ele>83.77</ele>
        <time>2013-05-26T08:52:22Z</time>
      </trkpt>
      <trkpt lat="49.23117" lon="1.86695">
        <ele>85.21</ele>
        <time>2013-05-26T08:52:30Z</time>
      </trkpt>
      <trkpt lat="49.23117" lon="1.86698">
        <ele>84.73</ele>
        <time>2013-05-26T08:52:31Z</time>
      </trkpt>
      <trkpt lat="49.23117" lon="1.86703">
        <ele>84.73</ele>
        <time>2013-05-26T08:52:32Z</time>
      </trkpt>
      <trkpt lat="49.23117" lon="1.86707">
        <ele>84.73</ele>
        <time>2013-05-26T08:52:33Z</time>
      </trkpt>
      <trkpt lat="49.23117" lon="1.8672">
        <ele>83.77</ele>
        <time>2013-05-26T08:52:36Z</time>
      </trkpt>
      <trkpt lat="49.23105" lon="1.8677">
        <ele>85.21</ele>
        <time>2013-05-26T08:52:46Z</time>
      </trkpt>
      <trkpt lat="49.23103" lon="1.8682">
        <ele>85.69</ele>
        <time>2013-05-26T08:52:56Z</time>
      </trkpt>
      <trkpt lat="49.23102" lon="1.86829">
        <ele>85.21</ele>
        <time>2013-05-26T08:52:59Z</time>
      </trkpt>
      <trkpt lat="49.2309" lon="1.86875">
        <ele>85.69</ele>
        <time>2013-05-26T08:53:05Z</time>
      </trkpt>
      <trkpt lat="49.23086" lon="1.86878">
        <ele>84.25</ele>
        <time>2013-05-26T08:53:06Z</time>
      </trkpt>
      <trkpt lat="49.23083" lon="1.86882">
        <ele>85.69</ele>
        <time>2013-05-26T08:53:07Z</time>
      </trkpt>
      <trkpt lat="49.2308" lon="1.86891">
        <ele>84.73</ele>
        <time>2013-05-26T08:53:08Z</time>
      </trkpt>
      <trkpt lat="49.23078" lon="1.86904">
        <ele>84.73</ele>
        <time>2013-05-26T08:53:09Z</time>
      </trkpt>
      <trkpt lat="49.2305" lon="1.86991">
        <ele>84.73</ele>
        <time>2013-05-26T08:53:20Z</time>
      </trkpt>
      <trkpt lat="49.23031" lon="1.87048">
        <ele>84.73</ele>
        <time>2013-05-26T08:53:30Z</time>
      </trkpt>
      <trkpt lat="49.23016" lon="1.87072">
        <ele>85.21</ele>
        <time>2013-05-26T08:53:42Z</time>
      </trkpt>
      <trkpt lat="49.23014" lon="1.87078">
        <ele>84.73</ele>
        <time>2013-05-26T08:54:17Z</time>
      </trkpt>
      <trkpt lat="49.23014" lon="1.87079">
        <ele>85.21</ele>
        <time>2013-05-26T08:54:52Z</time>
      </trkpt>
      <trkpt lat="49.23013" lon="1.8708">
        <ele>84.25</ele>
        <time>2013-05-26T08:55:17Z</time>
      </trkpt>
      <trkpt lat="49.23013" lon="1.8708">
        <ele>85.21</ele>
        <time>2013-05-26T08:55:42Z</time>
      </trkpt>
      <trkpt lat="49.23012" lon="1.87081">
        <ele>85.69</ele>
        <time>2013-05-26T08:56:06Z</time>
      </trkpt>
      <trkpt lat="49.2301" lon="1.87082">
        <ele>85.21</ele>
        <time>2013-05-26T08:56:31Z</time>
      </trkpt>
      <trkpt lat="49.2301" lon="1.87083">
        <ele>86.18</ele>
        <time>2013-05-26T08:56:54Z</time>
      </trkpt>
      <trkpt lat="49.23009" lon="1.87084">
        <ele>86.66</ele>
        <time>2013-05-26T08:56:55Z</time>
      </trkpt>
      <trkpt lat="49.23008" lon="1.87085">
        <ele>85.69</ele>
        <time>2013-05-26T08:56:56Z</time>
      </trkpt>
      <trkpt lat="49.22985" lon="1.87102">
        <ele>87.14</ele>
        <time>2013-05-26T08:57:08Z</time>
      </trkpt>
      <trkpt lat="49.22946" lon="1.87125">
        <ele>87.14</ele>
        <time>2013-05-26T08:57:19Z</time>
      </trkpt>
      <trkpt lat="49.22914" lon="1.87149">
        <ele>86.66</ele>
        <time>2013-05-26T08:57:28Z</time>
      </trkpt>
      <trkpt lat="49.22902" lon="1.87157">
        <ele>85.69</ele>
        <time>2013-05-26T08:57:31Z</time>
      </trkpt>
      <trkpt lat="49.22898" lon="1.8716">
        <ele>86.18</ele>
        <time>2013-05-26T08:57:32Z</time>
      </trkpt>
      <trkpt lat="49.22895" lon="1.87163">
        <ele>85.69</ele>
        <time>2013-05-26T08:57:33Z</time>
      </trkpt>
      <trkpt lat="49.22892" lon="1.87164">
        <ele>86.66</ele>
        <time>2013-05-26T08:57:34Z</time>
      </trkpt>
      <trkpt lat="49.22889" lon="1.87167">
        <ele>86.66</ele>
        <time>2013-05-26T08:57:35Z</time>
      </trkpt>
      <trkpt lat="49.22886" lon="1.87169">
        <ele>86.18</ele>
        <time>2013-05-26T08:57:36Z</time>
      </trkpt>
      <trkpt lat="49.22853" lon="1.87194">
        <ele>87.14</ele>
        <time>2013-05-26T08:57:46Z</time>
      </trkpt>
      <trkpt lat="49.22808" lon="1.87208">
        <ele>89.06</ele>
        <time>2013-05-26T08:57:59Z</time>
      </trkpt>
      <trkpt lat="49.22775" lon="1.87192">
        <ele>86.66</ele>
        <time>2013-05-26T08:58:07Z</time>
      </trkpt>
      <trkpt lat="49.22751" lon="1.87178">
        <ele>86.18</ele>
        <time>2013-05-26T08:58:12Z</time>
      </trkpt>
      <trkpt lat="49.22738" lon="1.87179">
        <ele>86.18</ele>
        <time>2013-05-26T08:58:15Z</time>
      </trkpt>
      <trkpt lat="49.22727" lon="1.87179">
        <ele>86.66</ele>
        <time>2013-05-26T08:58:18Z</time>
      </trkpt>
      <trkpt lat="49.22715" lon="1.8718">
        <ele>87.14</ele>
        <time>2013-05-26T08:58:21Z</time>
      </trkpt>
      <trkpt lat="49.2271" lon="1.8718">
        <ele>87.14</ele>
        <time>2013-05-26T08:58:22Z</time>
      </trkpt>
      <trkpt lat="49.22706" lon="1.8718">
        <ele>87.14</ele>
        <time>2013-05-26T08:58:23Z</time>
      </trkpt>
      <trkpt lat="49.22702" lon="1.87179">
        <ele>87.62</ele>
        <time>2013-05-26T08:58:24Z</time>
      </trkpt>
      <trkpt lat="49.22698" lon="1.87178">
        <ele>87.14</ele>
        <time>2013-05-26T08:58:25Z</time>
      </trkpt>
      <trkpt lat="49.22693" lon="1.87176">
        <ele>88.1</ele>
        <time>2013-05-26T08:58:26Z</time>
      </trkpt>
      <trkpt lat="49.22656" lon="1.8715">
        <ele>90.5</ele>
        <time>2013-05-26T08:58:39Z</time>
      </trkpt>
      <trkpt lat="49.22651" lon="1.87142">
        <ele>91.46</ele>
        <time>2013-05-26T08:58:43Z</time>
      </trkpt>
      <trkpt lat="49.22644" lon="1.87123">
        <ele>94.35</ele>
        <time>2013-05-26T08:58:51Z</time>
      </trkpt>
      <trkpt lat="49.22643" lon="1.8712">
        <ele>93.39</ele>
        <time>2013-05-26T08:58:52Z</time>
      </trkpt>
      <trkpt lat="49.22642" lon="1.87117">
        <ele>94.35</ele>
        <time>2013-05-26T08:58:53Z</time>
      </trkpt>
      <trkpt lat="49.22641" lon="1.87115">
        <ele>93.87</ele>
        <time>2013-05-26T08:58:54Z</time>
      </trkpt>
      <trkpt lat="49.2264" lon="1.87112">
        <ele>94.35</ele>
        <time>2013-05-26T08:58:55Z</time>
      </trkpt>
      <trkpt lat="49.22639" lon="1.87109">
        <ele>93.87</ele>
        <time>2013-05-26T08:58:56Z</time>
      </trkpt>
      <trkpt lat="49.22638" lon="1.87106">
        <ele>94.83</ele>
        <time>2013-05-26T08:58:57Z</time>
      </trkpt>
      <trkpt lat="49.22628" lon="1.87078">
        <ele>97.71</ele>
        <time>2013-05-26T08:59:08Z</time>
      </trkpt>
      <trkpt lat="49.22627" lon="1.87075">
        <ele>98.19</ele>
        <time>2013-05-26T08:59:10Z</time>
      </trkpt>
      <trkpt lat="49.22612" lon="1.87029">
        <ele>99.15</ele>
        <time>2013-05-26T08:59:26Z</time>
      </trkpt>
      <trkpt lat="49.22609" lon="1.87019">
        <ele>100.6</ele>
        <time>2013-05-26T08:59:30Z</time>
      </trkpt>
      <trkpt lat="49.22596" lon="1.8699">
        <ele>103</ele>
        <time>2013-05-26T08:59:43Z</time>
      </trkpt>
      <trkpt lat="49.22588" lon="1.86964">
        <ele>105.4</ele>
        <time>2013-05-26T08:59:54Z</time>
      </trkpt>
      <trkpt lat="49.22578" lon="1.86925">
        <ele>106.84</ele>
        <time>2013-05-26T09:00:08Z</time>
      </trkpt>
      <trkpt lat="49.22555" lon="1.86903">
        <ele>110.21</ele>
        <time>2013-05-26T09:00:22Z</time>
      </trkpt>
      <trkpt lat="49.22526" lon="1.86898">
        <ele>111.17</ele>
        <time>2013-05-26T09:00:35Z</time>
      </trkpt>
      <trkpt lat="49.22488" lon="1.86896">
        <ele>112.61</ele>
        <time>2013-05-26T09:00:52Z</time>
      </trkpt>
      <trkpt lat="49.22453" lon="1.86892">
        <ele>115.5</ele>
        <time>2013-05-26T09:01:07Z</time>
      </trkpt>
      <trkpt lat="49.22417" lon="1.86888">
        <ele>117.42</ele>
        <time>2013-05-26T09:01:22Z</time>
      </trkpt>
      <trkpt lat="49.22373" lon="1.86876">
        <ele>119.34</ele>
        <time>2013-05-26T09:01:39Z</time>
      </trkpt>
      <trkpt lat="49.2234" lon="1.8686">
        <ele>122.22</ele>
        <time>2013-05-26T09:01:54Z</time>
      </trkpt>
      <trkpt lat="49.22338" lon="1.86819">
        <ele>122.71</ele>
        <time>2013-05-26T09:02:08Z</time>
      </trkpt>
      <trkpt lat="49.22338" lon="1.86817">
        <ele>122.71</ele>
        <time>2013-05-26T09:02:09Z</time>
      </trkpt>
      <trkpt lat="49.22345" lon="1.86758">
        <ele>124.15</ele>
        <time>2013-05-26T09:02:24Z</time>
      </trkpt>
      <trkpt lat="49.22345" lon="1.86705">
        <ele>124.15</ele>
        <time>2013-05-26T09:02:37Z</time>
      </trkpt>
      <trkpt lat="49.22342" lon="1.86696">
        <ele>124.15</ele>
        <time>2013-05-26T09:02:40Z</time>
      </trkpt>
      <trkpt lat="49.22338" lon="1.86692">
        <ele>124.15</ele>
        <time>2013-05-26T09:02:42Z</time>
      </trkpt>
      <trkpt lat="49.22309" lon="1.8667">
        <ele>126.07</ele>
        <time>2013-05-26T09:02:55Z</time>
      </trkpt>
      <trkpt lat="49.22287" lon="1.86668">
        <ele>126.55</ele>
        <time>2013-05-26T09:03:08Z</time>
      </trkpt>
      <trkpt lat="49.22281" lon="1.86667">
        <ele>126.07</ele>
        <time>2013-05-26T09:03:20Z</time>
      </trkpt>
      <trkpt lat="49.22281" lon="1.86667">
        <ele>126.55</ele>
        <time>2013-05-26T09:03:45Z</time>
      </trkpt>
      <trkpt lat="49.2228" lon="1.86668">
        <ele>127.03</ele>
        <time>2013-05-26T09:04:16Z</time>
      </trkpt>
      <trkpt lat="49.22279" lon="1.8667">
        <ele>126.07</ele>
        <time>2013-05-26T09:04:47Z</time>
      </trkpt>
      <trkpt lat="49.22278" lon="1.8667">
        <ele>127.51</ele>
        <time>2013-05-26T09:05:09Z</time>
      </trkpt>
      <trkpt lat="49.22279" lon="1.8667">
        <ele>126.55</ele>
        <time>2013-05-26T09:05:41Z</time>
      </trkpt>
      <trkpt lat="49.22279" lon="1.8667">
        <ele>127.03</ele>
        <time>2013-05-26T09:06:10Z</time>
      </trkpt>
      <trkpt lat="49.22279" lon="1.8667">
        <ele>127.51</ele>
        <time>2013-05-26T09:06:30Z</time>
      </trkpt>
      <trkpt lat="49.22254" lon="1.86684">
        <ele>127.99</ele>
        <time>2013-05-26T09:06:41Z</time>
      </trkpt>
      <trkpt lat="49.22231" lon="1.86707">
        <ele>127.03</ele>
        <time>2013-05-26T09:06:55Z</time>
      </trkpt>
      <trkpt lat="49.22229" lon="1.86753">
        <ele>127.03</ele>
        <time>2013-05-26T09:07:08Z</time>
      </trkpt>
      <trkpt lat="49.22215" lon="1.86788">
        <ele>126.55</ele>
        <time>2013-05-26T09:07:21Z</time>
      </trkpt>
      <trkpt lat="49.22214" lon="1.86788">
        <ele>127.03</ele>
        <time>2013-05-26T09:07:37Z</time>
      </trkpt>
      <trkpt lat="49.22213" lon="1.86788">
        <ele>127.03</ele>
        <time>2013-05-26T09:08:09Z</time>
      </trkpt>
      <trkpt lat="49.22213" lon="1.86788">
        <ele>127.51</ele>
        <time>2013-05-26T09:08:38Z</time>
      </trkpt>
      <trkpt lat="49.22213" lon="1.86789">
        <ele>127.03</ele>
        <time>2013-05-26T09:09:08Z</time>
      </trkpt>
      <trkpt lat="49.22213" lon="1.86789">
        <ele>127.03</ele>
        <time>2013-05-26T09:09:36Z</time>
      </trkpt>
      <trkpt lat="49.22213" lon="1.86789">
        <ele>127.51</ele>
        <time>2013-05-26T09:10:06Z</time>
      </trkpt>
      <trkpt lat="49.22213" lon="1.86789">
        <ele>127.03</ele>
        <time>2013-05-26T09:10:30Z</time>
      </trkpt>
      <trkpt lat="49.22214" lon="1.86789">
        <ele>127.51</ele>
        <time>2013-05-26T09:11:04Z</time>
      </trkpt>
      <trkpt lat="49.22216" lon="1.86789">
        <ele>127.51</ele>
        <time>2013-05-26T09:11:39Z</time>
      </trkpt>
      <trkpt lat="49.22217" lon="1.86789">
        <ele>127.99</ele>
        <time>2013-05-26T09:12:08Z</time>
      </trkpt>
      <trkpt lat="49.22218" lon="1.86789">
        <ele>127.51</ele>
        <time>2013-05-26T09:12:41Z</time>
      </trkpt>
      <trkpt lat="49.22217" lon="1.86789">
        <ele>127.99</ele>
        <time>2013-05-26T09:13:11Z</time>
      </trkpt>
      <trkpt lat="49.22217" lon="1.8679">
        <ele>128.95</ele>
        <time>2013-05-26T09:13:40Z</time>
      </trkpt>
      <trkpt lat="49.22217" lon="1.8679">
        <ele>127.51</ele>
        <time>2013-05-26T09:14:11Z</time>
      </trkpt>
      <trkpt lat="49.22217" lon="1.86791">
        <ele>127.51</ele>
        <time>2013-05-26T09:14:44Z</time>
      </trkpt>
      <trkpt lat="49.22216" lon="1.86791">
        <ele>127.51</ele>
        <time>2013-05-26T09:15:15Z</time>
      </trkpt>
      <trkpt lat="49.22216" lon="1.86791">
        <ele>127.51</ele>
        <time>2013-05-26T09:15:45Z</time>
      </trkpt>
      <trkpt lat="49.22216" lon="1.86789">
        <ele>126.55</ele>
        <time>2013-05-26T09:16:15Z</time>
      </trkpt>
      <trkpt lat="49.22216" lon="1.86789">
        <ele>127.99</ele>
        <time>2013-05-26T09:16:45Z</time>
      </trkpt>
      <trkpt lat="49.22216" lon="1.8679">
        <ele>127.03</ele>
        <time>2013-05-26T09:17:18Z</time>
      </trkpt>
      <trkpt lat="49.22216" lon="1.8679">
        <ele>127.99</ele>
        <time>2013-05-26T09:17:53Z</time>
      </trkpt>
      <trkpt lat="49.22216" lon="1.86788">
        <ele>127.03</ele>
        <time>2013-05-26T09:18:30Z</time>
      </trkpt>
      <trkpt lat="49.22215" lon="1.86788">
        <ele>127.51</ele>
        <time>2013-05-26T09:19:01Z</time>
      </trkpt>
      <trkpt lat="49.22215" lon="1.86789">
        <ele>127.99</ele>
        <time>2013-05-26T09:19:33Z</time>
      </trkpt>
      <trkpt lat="49.22215" lon="1.8679">
        <ele>127.99</ele>
        <time>2013-05-26T09:20:08Z</time>
      </trkpt>
      <trkpt lat="49.22215" lon="1.8679">
        <ele>127.51</ele>
        <time>2013-05-26T09:20:44Z</time>
      </trkpt>
      <trkpt lat="49.22215" lon="1.8679">
        <ele>127.51</ele>
        <time>2013-05-26T09:21:13Z</time>
      </trkpt>
      <trkpt lat="49.22214" lon="1.8679">
        <ele>127.03</ele>
        <time>2013-05-26T09:21:47Z</time>
      </trkpt>
      <trkpt lat="49.22214" lon="1.86789">
        <ele>127.51</ele>
        <time>2013-05-26T09:22:14Z</time>
      </trkpt>
      <trkpt lat="49.22214" lon="1.8679">
        <ele>127.51</ele>
        <time>2013-05-26T09:22:45Z</time>
      </trkpt>
      <trkpt lat="49.22214" lon="1.86791">
        <ele>127.99</ele>
        <time>2013-05-26T09:23:14Z</time>
      </trkpt>
      <trkpt lat="49.22214" lon="1.86791">
        <ele>127.03</ele>
        <time>2013-05-26T09:23:45Z</time>
      </trkpt>
      <trkpt lat="49.22213" lon="1.86791">
        <ele>127.51</ele>
        <time>2013-05-26T09:24:11Z</time>
      </trkpt>
      <trkpt lat="49.22212" lon="1.86792">
        <ele>126.55</ele>
        <time>2013-05-26T09:24:20Z</time>
      </trkpt>
      <trkpt lat="49.22211" lon="1.86793">
        <ele>127.03</ele>
        <time>2013-05-26T09:24:21Z</time>
      </trkpt>
      <trkpt lat="49.2221" lon="1.86795">
        <ele>127.03</ele>
        <time>2013-05-26T09:24:22Z</time>
      </trkpt>
      <trkpt lat="49.22208" lon="1.86796">
        <ele>127.51</ele>
        <time>2013-05-26T09:24:23Z</time>
      </trkpt>
      <trkpt lat="49.22206" lon="1.86799">
        <ele>126.55</ele>
        <time>2013-05-26T09:24:24Z</time>
      </trkpt>
      <trkpt lat="49.22189" lon="1.86821">
        <ele>127.51</ele>
        <time>2013-05-26T09:24:30Z</time>
      </trkpt>
      <trkpt lat="49.22187" lon="1.86826">
        <ele>127.51</ele>
        <time>2013-05-26T09:24:31Z</time>
      </trkpt>
      <trkpt lat="49.22185" lon="1.86832">
        <ele>127.03</ele>
        <time>2013-05-26T09:24:32Z</time>
      </trkpt>
      <trkpt lat="49.22184" lon="1.86837">
        <ele>127.51</ele>
        <time>2013-05-26T09:24:33Z</time>
      </trkpt>
      <trkpt lat="49.22183" lon="1.86843">
        <ele>127.03</ele>
        <time>2013-05-26T09:24:34Z</time>
      </trkpt>
      <trkpt lat="49.22174" lon="1.86873">
        <ele>127.03</ele>
        <time>2013-05-26T09:24:39Z</time>
      </trkpt>
      <trkpt lat="49.22171" lon="1.86878">
        <ele>127.51</ele>
        <time>2013-05-26T09:24:40Z</time>
      </trkpt>
      <trkpt lat="49.22168" lon="1.86882">
        <ele>127.51</ele>
        <time>2013-05-26T09:24:41Z</time>
      </trkpt>
      <trkpt lat="49.22164" lon="1.86886">
        <ele>127.51</ele>
        <time>2013-05-26T09:24:42Z</time>
      </trkpt>
      <trkpt lat="49.22161" lon="1.86891">
        <ele>127.51</ele>
        <time>2013-05-26T09:24:43Z</time>
      </trkpt>
      <trkpt lat="49.22145" lon="1.86907">
        <ele>127.99</ele>
        <time>2013-05-26T09:24:48Z</time>
      </trkpt>
      <trkpt lat="49.22095" lon="1.8693">
        <ele>127.99</ele>
        <time>2013-05-26T09:25:03Z</time>
      </trkpt>
      <trkpt lat="49.22058" lon="1.86921">
        <ele>127.51</ele>
        <time>2013-05-26T09:25:13Z</time>
      </trkpt>
      <trkpt lat="49.22055" lon="1.86917">
        <ele>127.99</ele>
        <time>2013-05-26T09:25:14Z</time>
      </trkpt>
      <trkpt lat="49.22052" lon="1.86912">
        <ele>127.99</ele>
        <time>2013-05-26T09:25:15Z</time>
      </trkpt>
      <trkpt lat="49.22049" lon="1.86906">
        <ele>127.51</ele>
        <time>2013-05-26T09:25:16Z</time>
      </trkpt>
      <trkpt lat="49.22046" lon="1.869">
        <ele>127.51</ele>
        <time>2013-05-26T09:25:17Z</time>
      </trkpt>
      <trkpt lat="49.22008" lon="1.8683">
        <ele>124.15</ele>
        <time>2013-05-26T09:25:28Z</time>
      </trkpt>
      <trkpt lat="49.21996" lon="1.86809">
        <ele>124.15</ele>
        <time>2013-05-26T09:25:31Z</time>
      </trkpt>
      <trkpt lat="49.21946" lon="1.86747">
        <ele>120.78</ele>
        <time>2013-05-26T09:25:41Z</time>
      </trkpt>
      <trkpt lat="49.21921" lon="1.86712">
        <ele>119.34</ele>
        <time>2013-05-26T09:25:46Z</time>
      </trkpt>
      <trkpt lat="49.21911" lon="1.86696">
        <ele>119.82</ele>
        <time>2013-05-26T09:25:48Z</time>
      </trkpt>
      <trkpt lat="49.21907" lon="1.86687">
        <ele>119.34</ele>
        <time>2013-05-26T09:25:49Z</time>
      </trkpt>
      <trkpt lat="49.21904" lon="1.86679">
        <ele>119.34</ele>
        <time>2013-05-26T09:25:50Z</time>
      </trkpt>
      <trkpt lat="49.21901" lon="1.8667">
        <ele>118.38</ele>
        <time>2013-05-26T09:25:51Z</time>
      </trkpt>
      <trkpt lat="49.21898" lon="1.86662">
        <ele>118.86</ele>
        <time>2013-05-26T09:25:52Z</time>
      </trkpt>
      <trkpt lat="49.21895" lon="1.86654">
        <ele>117.42</ele>
        <time>2013-05-26T09:25:53Z</time>
      </trkpt>
      <trkpt lat="49.21891" lon="1.86647">
        <ele>117.42</ele>
        <time>2013-05-26T09:25:54Z</time>
      </trkpt>
      <trkpt lat="49.21886" lon="1.86641">
        <ele>116.94</ele>
        <time>2013-05-26T09:25:55Z</time>
      </trkpt>
      <trkpt lat="49.2188" lon="1.86638">
        <ele>117.42</ele>
        <time>2013-05-26T09:25:56Z</time>
      </trkpt>
      <trkpt lat="49.21875" lon="1.86637">
        <ele>117.42</ele>
        <time>2013-05-26T09:25:57Z</time>
      </trkpt>
      <trkpt lat="49.21869" lon="1.86636">
        <ele>118.38</ele>
        <time>2013-05-26T09:25:58Z</time>
      </trkpt>
      <trkpt lat="49.21864" lon="1.86637">
        <ele>117.42</ele>
        <time>2013-05-26T09:25:59Z</time>
      </trkpt>
      <trkpt lat="49.21776" lon="1.86646">
        <ele>117.9</ele>
        <time>2013-05-26T09:26:14Z</time>
      </trkpt>
      <trkpt lat="49.21651" lon="1.86643">
        <ele>118.86</ele>
        <time>2013-05-26T09:26:35Z</time>
      </trkpt>
      <trkpt lat="49.21553" lon="1.86643">
        <ele>120.3</ele>
        <time>2013-05-26T09:26:53Z</time>
      </trkpt>
      <trkpt lat="49.2146" lon="1.86639">
        <ele>121.74</ele>
        <time>2013-05-26T09:27:10Z</time>
      </trkpt>
      <trkpt lat="49.21373" lon="1.86627">
        <ele>124.15</ele>
        <time>2013-05-26T09:27:27Z</time>
      </trkpt>
      <trkpt lat="49.21301" lon="1.86605">
        <ele>126.07</ele>
        <time>2013-05-26T09:27:42Z</time>
      </trkpt>
      <trkpt lat="49.21236" lon="1.86633">
        <ele>128.47</ele>
        <time>2013-05-26T09:27:56Z</time>
      </trkpt>
      <trkpt lat="49.21201" lon="1.86652">
        <ele>129.43</ele>
        <time>2013-05-26T09:28:07Z</time>
      </trkpt>
      <trkpt lat="49.21145" lon="1.86651">
        <ele>131.84</ele>
        <time>2013-05-26T09:28:23Z</time>
      </trkpt>
      <trkpt lat="49.2108" lon="1.86614">
        <ele>132.8</ele>
        <time>2013-05-26T09:28:40Z</time>
      </trkpt>
      <trkpt lat="49.21006" lon="1.86556">
        <ele>132.32</ele>
        <time>2013-05-26T09:28:57Z</time>
      </trkpt>
      <trkpt lat="49.20924" lon="1.86488">
        <ele>129.92</ele>
        <time>2013-05-26T09:29:14Z</time>
      </trkpt>
      <trkpt lat="49.20839" lon="1.86402">
        <ele>128.47</ele>
        <time>2013-05-26T09:29:31Z</time>
      </trkpt>
      <trkpt lat="49.20761" lon="1.86321">
        <ele>124.63</ele>
        <time>2013-05-26T09:29:46Z</time>
      </trkpt>
      <trkpt lat="49.20701" lon="1.86264">
        <ele>121.26</ele>
        <time>2013-05-26T09:29:56Z</time>
      </trkpt>
      <trkpt lat="49.20653" lon="1.86223">
        <ele>122.22</ele>
        <time>2013-05-26T09:30:04Z</time>
      </trkpt>
      <trkpt lat="49.20647" lon="1.86219">
        <ele>122.71</ele>
        <time>2013-05-26T09:30:13Z</time>
      </trkpt>
      <trkpt lat="49.20648" lon="1.8622">
        <ele>122.22</ele>
        <time>2013-05-26T09:30:46Z</time>
      </trkpt>
      <trkpt lat="49.20647" lon="1.8622">
        <ele>121.74</ele>
        <time>2013-05-26T09:31:16Z</time>
      </trkpt>
      <trkpt lat="49.20647" lon="1.8622">
        <ele>123.67</ele>
        <time>2013-05-26T09:31:31Z</time>
      </trkpt>
      <trkpt lat="49.20646" lon="1.8622">
        <ele>122.71</ele>
        <time>2013-05-26T09:31:32Z</time>
      </trkpt>
      <trkpt lat="49.20644" lon="1.8622">
        <ele>123.19</ele>
        <time>2013-05-26T09:31:33Z</time>
      </trkpt>
      <trkpt lat="49.20642" lon="1.86221">
        <ele>123.19</ele>
        <time>2013-05-26T09:31:34Z</time>
      </trkpt>
      <trkpt lat="49.20639" lon="1.86223">
        <ele>123.19</ele>
        <time>2013-05-26T09:31:35Z</time>
      </trkpt>
      <trkpt lat="49.20637" lon="1.86225">
        <ele>122.71</ele>
        <time>2013-05-26T09:31:36Z</time>
      </trkpt>
      <trkpt lat="49.20635" lon="1.86229">
        <ele>123.19</ele>
        <time>2013-05-26T09:31:37Z</time>
      </trkpt>
      <trkpt lat="49.20619" lon="1.8625">
        <ele>121.26</ele>
        <time>2013-05-26T09:31:42Z</time>
      </trkpt>
      <trkpt lat="49.20615" lon="1.86255">
        <ele>122.22</ele>
        <time>2013-05-26T09:31:43Z</time>
      </trkpt>
      <trkpt lat="49.20612" lon="1.86261">
        <ele>120.78</ele>
        <time>2013-05-26T09:31:44Z</time>
      </trkpt>
      <trkpt lat="49.20578" lon="1.86305">
        <ele>119.34</ele>
        <time>2013-05-26T09:31:55Z</time>
      </trkpt>
      <trkpt lat="49.20544" lon="1.86299">
        <ele>117.42</ele>
        <time>2013-05-26T09:32:04Z</time>
      </trkpt>
      <trkpt lat="49.2054" lon="1.86298">
        <ele>117.42</ele>
        <time>2013-05-26T09:32:05Z</time>
      </trkpt>
      <trkpt lat="49.20522" lon="1.86287">
        <ele>116.94</ele>
        <time>2013-05-26T09:32:10Z</time>
      </trkpt>
      <trkpt lat="49.20507" lon="1.86266">
        <ele>115.01</ele>
        <time>2013-05-26T09:32:15Z</time>
      </trkpt>
      <trkpt lat="49.20502" lon="1.86261">
        <ele>115.5</ele>
        <time>2013-05-26T09:32:16Z</time>
      </trkpt>
      <trkpt lat="49.20498" lon="1.86257">
        <ele>115.01</ele>
        <time>2013-05-26T09:32:17Z</time>
      </trkpt>
      <trkpt lat="49.20493" lon="1.86254">
        <ele>115.5</ele>
        <time>2013-05-26T09:32:18Z</time>
      </trkpt>
      <trkpt lat="49.20489" lon="1.8625">
        <ele>114.05</ele>
        <time>2013-05-26T09:32:19Z</time>
      </trkpt>
      <trkpt lat="49.20453" lon="1.86215">
        <ele>113.57</ele>
        <time>2013-05-26T09:32:27Z</time>
      </trkpt>
      <trkpt lat="49.2045" lon="1.8621">
        <ele>114.05</ele>
        <time>2013-05-26T09:32:28Z</time>
      </trkpt>
      <trkpt lat="49.20424" lon="1.86144">
        <ele>114.05</ele>
        <time>2013-05-26T09:32:39Z</time>
      </trkpt>
      <trkpt lat="49.20423" lon="1.86138">
        <ele>113.09</ele>
        <time>2013-05-26T09:32:40Z</time>
      </trkpt>
      <trkpt lat="49.20423" lon="1.8612">
        <ele>114.05</ele>
        <time>2013-05-26T09:32:43Z</time>
      </trkpt>
      <trkpt lat="49.20424" lon="1.86114">
        <ele>113.57</ele>
        <time>2013-05-26T09:32:44Z</time>
      </trkpt>
      <trkpt lat="49.2044" lon="1.86055">
        <ele>114.05</ele>
        <time>2013-05-26T09:32:55Z</time>
      </trkpt>
      <trkpt lat="49.20448" lon="1.86031">
        <ele>114.05</ele>
        <time>2013-05-26T09:33:01Z</time>
      </trkpt>
      <trkpt lat="49.20449" lon="1.86026">
        <ele>114.53</ele>
        <time>2013-05-26T09:33:02Z</time>
      </trkpt>
      <trkpt lat="49.2045" lon="1.86023">
        <ele>114.05</ele>
        <time>2013-05-26T09:33:03Z</time>
      </trkpt>
      <trkpt lat="49.2045" lon="1.86018">
        <ele>114.05</ele>
        <time>2013-05-26T09:33:04Z</time>
      </trkpt>
      <trkpt lat="49.20451" lon="1.86013">
        <ele>115.01</ele>
        <time>2013-05-26T09:33:05Z</time>
      </trkpt>
      <trkpt lat="49.2045" lon="1.86008">
        <ele>113.09</ele>
        <time>2013-05-26T09:33:06Z</time>
      </trkpt>
      <trkpt lat="49.2045" lon="1.86002">
        <ele>114.05</ele>
        <time>2013-05-26T09:33:07Z</time>
      </trkpt>
      <trkpt lat="49.20449" lon="1.85997">
        <ele>114.53</ele>
        <time>2013-05-26T09:33:08Z</time>
      </trkpt>
      <trkpt lat="49.2045" lon="1.85986">
        <ele>113.57</ele>
        <time>2013-05-26T09:33:10Z</time>
      </trkpt>
      <trkpt lat="49.20451" lon="1.85981">
        <ele>113.57</ele>
        <time>2013-05-26T09:33:11Z</time>
      </trkpt>
      <trkpt lat="49.20453" lon="1.85975">
        <ele>113.57</ele>
        <time>2013-05-26T09:33:12Z</time>
      </trkpt>
      <trkpt lat="49.20463" lon="1.8594">
        <ele>114.05</ele>
        <time>2013-05-26T09:33:18Z</time>
      </trkpt>
      <trkpt lat="49.20481" lon="1.85841">
        <ele>115.01</ele>
        <time>2013-05-26T09:33:33Z</time>
      </trkpt>
      <trkpt lat="49.20483" lon="1.85827">
        <ele>114.05</ele>
        <time>2013-05-26T09:33:35Z</time>
      </trkpt>
      <trkpt lat="49.20511" lon="1.85757">
        <ele>113.57</ele>
        <time>2013-05-26T09:33:46Z</time>
      </trkpt>
      <trkpt lat="49.20517" lon="1.85729">
        <ele>112.61</ele>
        <time>2013-05-26T09:33:50Z</time>
      </trkpt>
      <trkpt lat="49.20522" lon="1.85679">
        <ele>114.05</ele>
        <time>2013-05-26T09:33:57Z</time>
      </trkpt>
      <trkpt lat="49.2053" lon="1.85581">
        <ele>116.46</ele>
        <time>2013-05-26T09:34:13Z</time>
      </trkpt>
      <trkpt lat="49.20539" lon="1.85481">
        <ele>118.38</ele>
        <time>2013-05-26T09:34:33Z</time>
      </trkpt>
      <trkpt lat="49.20537" lon="1.85419">
        <ele>118.38</ele>
        <time>2013-05-26T09:34:47Z</time>
      </trkpt>
      <trkpt lat="49.2054" lon="1.85349">
        <ele>119.34</ele>
        <time>2013-05-26T09:35:01Z</time>
      </trkpt>
      <trkpt lat="49.20542" lon="1.85274">
        <ele>117.9</ele>
        <time>2013-05-26T09:35:14Z</time>
      </trkpt>
      <trkpt lat="49.20544" lon="1.85175">
        <ele>117.42</ele>
        <time>2013-05-26T09:35:32Z</time>
      </trkpt>
      <trkpt lat="49.20545" lon="1.85125">
        <ele>118.86</ele>
        <time>2013-05-26T09:35:45Z</time>
      </trkpt>
      <trkpt lat="49.20544" lon="1.85119">
        <ele>117.9</ele>
        <time>2013-05-26T09:35:59Z</time>
      </trkpt>
      <trkpt lat="49.20544" lon="1.85119">
        <ele>118.38</ele>
        <time>2013-05-26T09:36:30Z</time>
      </trkpt>
      <trkpt lat="49.20544" lon="1.85118">
        <ele>118.38</ele>
        <time>2013-05-26T09:36:52Z</time>
      </trkpt>
      <trkpt lat="49.20544" lon="1.85116">
        <ele>117.9</ele>
        <time>2013-05-26T09:36:53Z</time>
      </trkpt>
      <trkpt lat="49.20543" lon="1.85114">
        <ele>118.38</ele>
        <time>2013-05-26T09:36:54Z</time>
      </trkpt>
      <trkpt lat="49.20543" lon="1.85111">
        <ele>117.42</ele>
        <time>2013-05-26T09:36:55Z</time>
      </trkpt>
      <trkpt lat="49.20542" lon="1.85108">
        <ele>117.9</ele>
        <time>2013-05-26T09:36:56Z</time>
      </trkpt>
      <trkpt lat="49.2054" lon="1.85105">
        <ele>117.42</ele>
        <time>2013-05-26T09:36:57Z</time>
      </trkpt>
      <trkpt lat="49.20538" lon="1.85103">
        <ele>118.38</ele>
        <time>2013-05-26T09:36:58Z</time>
      </trkpt>
      <trkpt lat="49.20536" lon="1.851">
        <ele>117.42</ele>
        <time>2013-05-26T09:36:59Z</time>
      </trkpt>
      <trkpt lat="49.20534" lon="1.85097">
        <ele>117.9</ele>
        <time>2013-05-26T09:37:00Z</time>
      </trkpt>
      <trkpt lat="49.20507" lon="1.85069">
        <ele>116.46</ele>
        <time>2013-05-26T09:37:10Z</time>
      </trkpt>
      <trkpt lat="49.20476" lon="1.85036">
        <ele>116.46</ele>
        <time>2013-05-26T09:37:23Z</time>
      </trkpt>
      <trkpt lat="49.20475" lon="1.85032">
        <ele>116.94</ele>
        <time>2013-05-26T09:37:34Z</time>
      </trkpt>
      <trkpt lat="49.20474" lon="1.85031">
        <ele>116.46</ele>
        <time>2013-05-26T09:37:35Z</time>
      </trkpt>
      <trkpt lat="49.20442" lon="1.84999">
        <ele>115.98</ele>
        <time>2013-05-26T09:37:48Z</time>
      </trkpt>
      <trkpt lat="49.20403" lon="1.84957">
        <ele>115.5</ele>
        <time>2013-05-26T09:38:02Z</time>
      </trkpt>
      <trkpt lat="49.20377" lon="1.84928">
        <ele>116.94</ele>
        <time>2013-05-26T09:38:14Z</time>
      </trkpt>
      <trkpt lat="49.20356" lon="1.84907">
        <ele>117.42</ele>
        <time>2013-05-26T09:38:26Z</time>
      </trkpt>
      <trkpt lat="49.20336" lon="1.84884">
        <ele>117.9</ele>
        <time>2013-05-26T09:38:40Z</time>
      </trkpt>
      <trkpt lat="49.20311" lon="1.84859">
        <ele>118.86</ele>
        <time>2013-05-26T09:38:56Z</time>
      </trkpt>
      <trkpt lat="49.20295" lon="1.84841">
        <ele>118.38</ele>
        <time>2013-05-26T09:39:08Z</time>
      </trkpt>
      <trkpt lat="49.20278" lon="1.84822">
        <ele>118.86</ele>
        <time>2013-05-26T09:39:20Z</time>
      </trkpt>
      <trkpt lat="49.20252" lon="1.84794">
        <ele>118.86</ele>
        <time>2013-05-26T09:39:34Z</time>
      </trkpt>
      <trkpt lat="49.20224" lon="1.84767">
        <ele>120.78</ele>
        <time>2013-05-26T09:39:45Z</time>
      </trkpt>
      <trkpt lat="49.20186" lon="1.84747">
        <ele>120.78</ele>
        <time>2013-05-26T09:39:57Z</time>
      </trkpt>
      <trkpt lat="49.20171" lon="1.84743">
        <ele>120.78</ele>
        <time>2013-05-26T09:40:03Z</time>
      </trkpt>
      <trkpt lat="49.20168" lon="1.84743">
        <ele>121.74</ele>
        <time>2013-05-26T09:40:04Z</time>
      </trkpt>
      <trkpt lat="49.20166" lon="1.84742">
        <ele>121.74</ele>
        <time>2013-05-26T09:40:05Z</time>
      </trkpt>
      <trkpt lat="49.20138" lon="1.84725">
        <ele>121.26</ele>
        <time>2013-05-26T09:40:19Z</time>
      </trkpt>
      <trkpt lat="49.20102" lon="1.84703">
        <ele>122.71</ele>
        <time>2013-05-26T09:40:34Z</time>
      </trkpt>
      <trkpt lat="49.20065" lon="1.84678">
        <ele>123.19</ele>
        <time>2013-05-26T09:40:48Z</time>
      </trkpt>
      <trkpt lat="49.20026" lon="1.84641">
        <ele>124.15</ele>
        <time>2013-05-26T09:41:05Z</time>
      </trkpt>
      <trkpt lat="49.2" lon="1.84601">
        <ele>125.11</ele>
        <time>2013-05-26T09:41:19Z</time>
      </trkpt>
      <trkpt lat="49.19987" lon="1.84561">
        <ele>126.55</ele>
        <time>2013-05-26T09:41:34Z</time>
      </trkpt>
      <trkpt lat="49.19986" lon="1.84558">
        <ele>126.55</ele>
        <time>2013-05-26T09:41:36Z</time>
      </trkpt>
      <trkpt lat="49.19986" lon="1.84558">
        <ele>126.55</ele>
        <time>2013-05-26T09:41:49Z</time>
      </trkpt>
      <trkpt lat="49.19985" lon="1.84558">
        <ele>126.55</ele>
        <time>2013-05-26T09:42:16Z</time>
      </trkpt>
      <trkpt lat="49.19985" lon="1.84558">
        <ele>126.55</ele>
        <time>2013-05-26T09:42:45Z</time>
      </trkpt>
      <trkpt lat="49.19985" lon="1.84559">
        <ele>126.07</ele>
        <time>2013-05-26T09:43:25Z</time>
      </trkpt>
      <trkpt lat="49.19984" lon="1.84557">
        <ele>126.55</ele>
        <time>2013-05-26T09:43:30Z</time>
      </trkpt>
      <trkpt lat="49.19984" lon="1.84554">
        <ele>127.03</ele>
        <time>2013-05-26T09:43:31Z</time>
      </trkpt>
      <trkpt lat="49.19984" lon="1.84551">
        <ele>126.55</ele>
        <time>2013-05-26T09:43:32Z</time>
      </trkpt>
      <trkpt lat="49.2" lon="1.84496">
        <ele>126.55</ele>
        <time>2013-05-26T09:43:45Z</time>
      </trkpt>
      <trkpt lat="49.20019" lon="1.84412">
        <ele>127.99</ele>
        <time>2013-05-26T09:44:03Z</time>
      </trkpt>
      <trkpt lat="49.20034" lon="1.84342">
        <ele>129.92</ele>
        <time>2013-05-26T09:44:17Z</time>
      </trkpt>
      <trkpt lat="49.20053" lon="1.84286">
        <ele>131.36</ele>
        <time>2013-05-26T09:44:32Z</time>
      </trkpt>
      <trkpt lat="49.20053" lon="1.84279">
        <ele>131.84</ele>
        <time>2013-05-26T09:44:37Z</time>
      </trkpt>
      <trkpt lat="49.20048" lon="1.84278">
        <ele>132.32</ele>
        <time>2013-05-26T09:44:46Z</time>
      </trkpt>
      <trkpt lat="49.20042" lon="1.84277">
        <ele>132.8</ele>
        <time>2013-05-26T09:44:53Z</time>
      </trkpt>
      <trkpt lat="49.20022" lon="1.84273">
        <ele>130.4</ele>
        <time>2013-05-26T09:45:04Z</time>
      </trkpt>
      <trkpt lat="49.20013" lon="1.84268">
        <ele>129.92</ele>
        <time>2013-05-26T09:45:16Z</time>
      </trkpt>
      <trkpt lat="49.20005" lon="1.84266">
        <ele>129.92</ele>
        <time>2013-05-26T09:45:28Z</time>
      </trkpt>
      <trkpt lat="49.19999" lon="1.84271">
        <ele>129.92</ele>
        <time>2013-05-26T09:45:38Z</time>
      </trkpt>
      <trkpt lat="49.19995" lon="1.84275">
        <ele>128.95</ele>
        <time>2013-05-26T09:46:09Z</time>
      </trkpt>
      <trkpt lat="49.19993" lon="1.84275">
        <ele>130.4</ele>
        <time>2013-05-26T09:46:41Z</time>
      </trkpt>
      <trkpt lat="49.19993" lon="1.84275">
        <ele>128.95</ele>
        <time>2013-05-26T09:46:42Z</time>
      </trkpt>
      <trkpt lat="49.19986" lon="1.84269">
        <ele>129.92</ele>
        <time>2013-05-26T09:46:47Z</time>
      </trkpt>
      <trkpt lat="49.19972" lon="1.84259">
        <ele>129.92</ele>
        <time>2013-05-26T09:46:56Z</time>
      </trkpt>
      <trkpt lat="49.19968" lon="1.8424">
        <ele>130.88</ele>
        <time>2013-05-26T09:47:04Z</time>
      </trkpt>
      <trkpt lat="49.19964" lon="1.8422">
        <ele>132.32</ele>
        <time>2013-05-26T09:47:11Z</time>
      </trkpt>
      <trkpt lat="49.19965" lon="1.84205">
        <ele>133.28</ele>
        <time>2013-05-26T09:47:16Z</time>
      </trkpt>
      <trkpt lat="49.19958" lon="1.84168">
        <ele>135.2</ele>
        <time>2013-05-26T09:47:27Z</time>
      </trkpt>
      <trkpt lat="49.19943" lon="1.84151">
        <ele>136.16</ele>
        <time>2013-05-26T09:47:38Z</time>
      </trkpt>
      <trkpt lat="49.1993" lon="1.84137">
        <ele>137.61</ele>
        <time>2013-05-26T09:47:46Z</time>
      </trkpt>
      <trkpt lat="49.19925" lon="1.84133">
        <ele>138.09</ele>
        <time>2013-05-26T09:47:49Z</time>
      </trkpt>
      <trkpt lat="49.1992" lon="1.84131">
        <ele>138.09</ele>
        <time>2013-05-26T09:47:52Z</time>
      </trkpt>
      <trkpt lat="49.1991" lon="1.84128">
        <ele>138.57</ele>
        <time>2013-05-26T09:47:56Z</time>
      </trkpt>
      <trkpt lat="49.19902" lon="1.84107">
        <ele>140.01</ele>
        <time>2013-05-26T09:48:06Z</time>
      </trkpt>
      <trkpt lat="49.199" lon="1.84087">
        <ele>140.49</ele>
        <time>2013-05-26T09:48:15Z</time>
      </trkpt>
      <trkpt lat="49.19894" lon="1.84071">
        <ele>140.97</ele>
        <time>2013-05-26T09:48:20Z</time>
      </trkpt>
      <trkpt lat="49.19889" lon="1.84051">
        <ele>141.93</ele>
        <time>2013-05-26T09:48:29Z</time>
      </trkpt>
      <trkpt lat="49.19889" lon="1.84029">
        <ele>142.89</ele>
        <time>2013-05-26T09:48:36Z</time>
      </trkpt>
      <trkpt lat="49.19889" lon="1.8401">
        <ele>141.93</ele>
        <time>2013-05-26T09:48:42Z</time>
      </trkpt>
      <trkpt lat="49.1989" lon="1.83996">
        <ele>144.82</ele>
        <time>2013-05-26T09:48:46Z</time>
      </trkpt>
      <trkpt lat="49.1989" lon="1.83987">
        <ele>144.82</ele>
        <time>2013-05-26T09:48:50Z</time>
      </trkpt>
      <trkpt lat="49.19892" lon="1.83976">
        <ele>144.82</ele>
        <time>2013-05-26T09:48:54Z</time>
      </trkpt>
      <trkpt lat="49.19889" lon="1.83955">
        <ele>145.3</ele>
        <time>2013-05-26T09:49:01Z</time>
      </trkpt>
      <trkpt lat="49.19884" lon="1.83928">
        <ele>147.7</ele>
        <time>2013-05-26T09:49:12Z</time>
      </trkpt>
      <trkpt lat="49.19877" lon="1.83905">
        <ele>149.14</ele>
        <time>2013-05-26T09:49:19Z</time>
      </trkpt>
      <trkpt lat="49.19879" lon="1.83876">
        <ele>148.66</ele>
        <time>2013-05-26T09:49:28Z</time>
      </trkpt>
      <trkpt lat="49.19882" lon="1.83848">
        <ele>148.18</ele>
        <time>2013-05-26T09:49:37Z</time>
      </trkpt>
      <trkpt lat="49.19885" lon="1.83815">
        <ele>147.7</ele>
        <time>2013-05-26T09:49:49Z</time>
      </trkpt>
      <trkpt lat="49.19889" lon="1.83791">
        <ele>147.7</ele>
        <time>2013-05-26T09:50:01Z</time>
      </trkpt>
      <trkpt lat="49.19895" lon="1.83773">
        <ele>147.22</ele>
        <time>2013-05-26T09:50:10Z</time>
      </trkpt>
      <trkpt lat="49.19894" lon="1.8376">
        <ele>147.7</ele>
        <time>2013-05-26T09:50:18Z</time>
      </trkpt>
      <trkpt lat="49.19891" lon="1.83736">
        <ele>148.66</ele>
        <time>2013-05-26T09:50:27Z</time>
      </trkpt>
      <trkpt lat="49.19888" lon="1.83719">
        <ele>148.18</ele>
        <time>2013-05-26T09:50:37Z</time>
      </trkpt>
      <trkpt lat="49.19887" lon="1.83718">
        <ele>147.7</ele>
        <time>2013-05-26T09:50:38Z</time>
      </trkpt>
      <trkpt lat="49.19877" lon="1.83691">
        <ele>148.18</ele>
        <time>2013-05-26T09:50:53Z</time>
      </trkpt>
      <trkpt lat="49.19872" lon="1.83681">
        <ele>147.7</ele>
        <time>2013-05-26T09:50:59Z</time>
      </trkpt>
      <trkpt lat="49.19868" lon="1.83669">
        <ele>148.18</ele>
        <time>2013-05-26T09:51:02Z</time>
      </trkpt>
      <trkpt lat="49.19867" lon="1.83664">
        <ele>149.14</ele>
        <time>2013-05-26T09:51:04Z</time>
      </trkpt>
      <trkpt lat="49.19868" lon="1.83651">
        <ele>149.62</ele>
        <time>2013-05-26T09:51:09Z</time>
      </trkpt>
      <trkpt lat="49.19873" lon="1.83618">
        <ele>151.06</ele>
        <time>2013-05-26T09:51:22Z</time>
      </trkpt>
      <trkpt lat="49.19873" lon="1.83616">
        <ele>151.06</ele>
        <time>2013-05-26T09:51:24Z</time>
      </trkpt>
      <trkpt lat="49.19872" lon="1.8361">
        <ele>151.06</ele>
        <time>2013-05-26T09:51:27Z</time>
      </trkpt>
      <trkpt lat="49.1987" lon="1.83592">
        <ele>152.03</ele>
        <time>2013-05-26T09:51:35Z</time>
      </trkpt>
      <trkpt lat="49.19864" lon="1.83569">
        <ele>152.99</ele>
        <time>2013-05-26T09:51:48Z</time>
      </trkpt>
      <trkpt lat="49.19862" lon="1.83563">
        <ele>154.43</ele>
        <time>2013-05-26T09:52:06Z</time>
      </trkpt>
      <trkpt lat="49.19862" lon="1.83562">
        <ele>153.47</ele>
        <time>2013-05-26T09:52:07Z</time>
      </trkpt>
      <trkpt lat="49.19858" lon="1.83555">
        <ele>153.95</ele>
        <time>2013-05-26T09:52:11Z</time>
      </trkpt>
      <trkpt lat="49.1985" lon="1.83536">
        <ele>155.87</ele>
        <time>2013-05-26T09:52:23Z</time>
      </trkpt>
      <trkpt lat="49.1985" lon="1.83532">
        <ele>148.18</ele>
        <time>2013-05-26T09:52:39Z</time>
      </trkpt>
      <trkpt lat="49.1985" lon="1.83531">
        <ele>156.83</ele>
        <time>2013-05-26T09:52:40Z</time>
      </trkpt>
      <trkpt lat="49.19847" lon="1.83526">
        <ele>156.83</ele>
        <time>2013-05-26T09:52:54Z</time>
      </trkpt>
      <trkpt lat="49.1984" lon="1.83514">
        <ele>157.31</ele>
        <time>2013-05-26T09:53:04Z</time>
      </trkpt>
      <trkpt lat="49.19834" lon="1.83495">
        <ele>158.27</ele>
        <time>2013-05-26T09:53:19Z</time>
      </trkpt>
      <trkpt lat="49.19827" lon="1.83484">
        <ele>159.72</ele>
        <time>2013-05-26T09:53:31Z</time>
      </trkpt>
      <trkpt lat="49.19825" lon="1.83479">
        <ele>160.2</ele>
        <time>2013-05-26T09:53:42Z</time>
      </trkpt>
      <trkpt lat="49.19824" lon="1.83467">
        <ele>160.68</ele>
        <time>2013-05-26T09:53:53Z</time>
      </trkpt>
      <trkpt lat="49.19819" lon="1.83453">
        <ele>160.68</ele>
        <time>2013-05-26T09:54:07Z</time>
      </trkpt>
      <trkpt lat="49.19816" lon="1.83447">
        <ele>161.16</ele>
        <time>2013-05-26T09:54:21Z</time>
      </trkpt>
      <trkpt lat="49.19813" lon="1.83436">
        <ele>162.12</ele>
        <time>2013-05-26T09:54:30Z</time>
      </trkpt>
      <trkpt lat="49.1981" lon="1.8343">
        <ele>162.6</ele>
        <time>2013-05-26T09:54:44Z</time>
      </trkpt>
      <trkpt lat="49.198" lon="1.83413">
        <ele>163.56</ele>
        <time>2013-05-26T09:54:54Z</time>
      </trkpt>
      <trkpt lat="49.19792" lon="1.83387">
        <ele>163.56</ele>
        <time>2013-05-26T09:55:07Z</time>
      </trkpt>
      <trkpt lat="49.19789" lon="1.8337">
        <ele>164.52</ele>
        <time>2013-05-26T09:55:15Z</time>
      </trkpt>
      <trkpt lat="49.19786" lon="1.8336">
        <ele>165</ele>
        <time>2013-05-26T09:55:19Z</time>
      </trkpt>
      <trkpt lat="49.19789" lon="1.83332">
        <ele>165.48</ele>
        <time>2013-05-26T09:55:30Z</time>
      </trkpt>
      <trkpt lat="49.19802" lon="1.83309">
        <ele>166.45</ele>
        <time>2013-05-26T09:55:44Z</time>
      </trkpt>
      <trkpt lat="49.19811" lon="1.83294">
        <ele>167.41</ele>
        <time>2013-05-26T09:55:51Z</time>
      </trkpt>
      <trkpt lat="49.19815" lon="1.83287">
        <ele>168.37</ele>
        <time>2013-05-26T09:55:55Z</time>
      </trkpt>
      <trkpt lat="49.19827" lon="1.8328">
        <ele>169.81</ele>
        <time>2013-05-26T09:56:06Z</time>
      </trkpt>
      <trkpt lat="49.19839" lon="1.83265">
        <ele>172.21</ele>
        <time>2013-05-26T09:56:16Z</time>
      </trkpt>
      <trkpt lat="49.19847" lon="1.83251">
        <ele>173.66</ele>
        <time>2013-05-26T09:56:22Z</time>
      </trkpt>
      <trkpt lat="49.19848" lon="1.83243">
        <ele>174.62</ele>
        <time>2013-05-26T09:56:26Z</time>
      </trkpt>
      <trkpt lat="49.19858" lon="1.83234">
        <ele>175.1</ele>
        <time>2013-05-26T09:56:30Z</time>
      </trkpt>
      <trkpt lat="49.19859" lon="1.83229">
        <ele>176.06</ele>
        <time>2013-05-26T09:56:33Z</time>
      </trkpt>
      <trkpt lat="49.19858" lon="1.83225">
        <ele>177.02</ele>
        <time>2013-05-26T09:56:36Z</time>
      </trkpt>
      <trkpt lat="49.19859" lon="1.83224">
        <ele>177.98</ele>
        <time>2013-05-26T09:56:38Z</time>
      </trkpt>
      <trkpt lat="49.19849" lon="1.83212">
        <ele>180.38</ele>
        <time>2013-05-26T09:56:49Z</time>
      </trkpt>
      <trkpt lat="49.19839" lon="1.83198">
        <ele>182.31</ele>
        <time>2013-05-26T09:57:01Z</time>
      </trkpt>
      <trkpt lat="49.19825" lon="1.83186">
        <ele>184.23</ele>
        <time>2013-05-26T09:57:13Z</time>
      </trkpt>
      <trkpt lat="49.1981" lon="1.83172">
        <ele>186.15</ele>
        <time>2013-05-26T09:57:24Z</time>
      </trkpt>
      <trkpt lat="49.19797" lon="1.83156">
        <ele>187.59</ele>
        <time>2013-05-26T09:57:35Z</time>
      </trkpt>
      <trkpt lat="49.19784" lon="1.83141">
        <ele>189.52</ele>
        <time>2013-05-26T09:57:47Z</time>
      </trkpt>
      <trkpt lat="49.19766" lon="1.83126">
        <ele>190.96</ele>
        <time>2013-05-26T09:57:58Z</time>
      </trkpt>
      <trkpt lat="49.19756" lon="1.83121">
        <ele>192.4</ele>
        <time>2013-05-26T09:58:03Z</time>
      </trkpt>
      <trkpt lat="49.19733" lon="1.83111">
        <ele>193.84</ele>
        <time>2013-05-26T09:58:13Z</time>
      </trkpt>
      <trkpt lat="49.19732" lon="1.83111">
        <ele>193.84</ele>
        <time>2013-05-26T09:58:14Z</time>
      </trkpt>
      <trkpt lat="49.19707" lon="1.83105">
        <ele>196.25</ele>
        <time>2013-05-26T09:58:27Z</time>
      </trkpt>
      <trkpt lat="49.19681" lon="1.831">
        <ele>198.17</ele>
        <time>2013-05-26T09:58:39Z</time>
      </trkpt>
      <trkpt lat="49.19679" lon="1.83099">
        <ele>198.65</ele>
        <time>2013-05-26T09:58:41Z</time>
      </trkpt>
      <trkpt lat="49.19665" lon="1.8309">
        <ele>199.13</ele>
        <time>2013-05-26T09:58:54Z</time>
      </trkpt>
      <trkpt lat="49.19665" lon="1.83089">
        <ele>199.61</ele>
        <time>2013-05-26T09:59:07Z</time>
      </trkpt>
      <trkpt lat="49.19664" lon="1.83087">
        <ele>199.61</ele>
        <time>2013-05-26T09:59:39Z</time>
      </trkpt>
      <trkpt lat="49.19663" lon="1.83085">
        <ele>199.13</ele>
        <time>2013-05-26T10:00:17Z</time>
      </trkpt>
      <trkpt lat="49.19663" lon="1.83084">
        <ele>202.01</ele>
        <time>2013-05-26T10:00:26Z</time>
      </trkpt>
      <trkpt lat="49.19663" lon="1.83084">
        <ele>198.65</ele>
        <time>2013-05-26T10:00:32Z</time>
      </trkpt>
      <trkpt lat="49.19662" lon="1.83079">
        <ele>198.17</ele>
        <time>2013-05-26T10:00:59Z</time>
      </trkpt>
      <trkpt lat="49.19659" lon="1.83079">
        <ele>199.13</ele>
        <time>2013-05-26T10:01:27Z</time>
      </trkpt>
      <trkpt lat="49.19648" lon="1.83083">
        <ele>198.17</ele>
        <time>2013-05-26T10:01:34Z</time>
      </trkpt>
      <trkpt lat="49.19637" lon="1.8309">
        <ele>197.69</ele>
        <time>2013-05-26T10:01:41Z</time>
      </trkpt>
      <trkpt lat="49.19623" lon="1.83106">
        <ele>197.69</ele>
        <time>2013-05-26T10:01:50Z</time>
      </trkpt>
      <trkpt lat="49.19609" lon="1.83114">
        <ele>197.69</ele>
        <time>2013-05-26T10:01:57Z</time>
      </trkpt>
      <trkpt lat="49.19586" lon="1.83135">
        <ele>197.21</ele>
        <time>2013-05-26T10:02:07Z</time>
      </trkpt>
      <trkpt lat="49.19564" lon="1.83162">
        <ele>198.65</ele>
        <time>2013-05-26T10:02:17Z</time>
      </trkpt>
      <trkpt lat="49.19549" lon="1.83196">
        <ele>198.65</ele>
        <time>2013-05-26T10:02:26Z</time>
      </trkpt>
      <trkpt lat="49.19534" lon="1.83231">
        <ele>198.65</ele>
        <time>2013-05-26T10:02:36Z</time>
      </trkpt>
      <trkpt lat="49.19518" lon="1.83272">
        <ele>198.65</ele>
        <time>2013-05-26T10:02:46Z</time>
      </trkpt>
      <trkpt lat="49.19507" lon="1.83299">
        <ele>199.13</ele>
        <time>2013-05-26T10:02:55Z</time>
      </trkpt>
      <trkpt lat="49.19493" lon="1.83332">
        <ele>199.13</ele>
        <time>2013-05-26T10:03:03Z</time>
      </trkpt>
      <trkpt lat="49.19471" lon="1.83381">
        <ele>199.61</ele>
        <time>2013-05-26T10:03:14Z</time>
      </trkpt>
      <trkpt lat="49.19462" lon="1.83408">
        <ele>199.61</ele>
        <time>2013-05-26T10:03:22Z</time>
      </trkpt>
      <trkpt lat="49.19453" lon="1.83429">
        <ele>199.61</ele>
        <time>2013-05-26T10:03:29Z</time>
      </trkpt>
      <trkpt lat="49.19432" lon="1.8348">
        <ele>199.13</ele>
        <time>2013-05-26T10:03:40Z</time>
      </trkpt>
      <trkpt lat="49.19418" lon="1.83516">
        <ele>200.09</ele>
        <time>2013-05-26T10:03:48Z</time>
      </trkpt>
      <trkpt lat="49.194" lon="1.83557">
        <ele>199.61</ele>
        <time>2013-05-26T10:03:57Z</time>
      </trkpt>
      <trkpt lat="49.19386" lon="1.8359">
        <ele>200.57</ele>
        <time>2013-05-26T10:04:07Z</time>
      </trkpt>
      <trkpt lat="49.19373" lon="1.83626">
        <ele>201.05</ele>
        <time>2013-05-26T10:04:18Z</time>
      </trkpt>
      <trkpt lat="49.19369" lon="1.83644">
        <ele>200.57</ele>
        <time>2013-05-26T10:04:22Z</time>
      </trkpt>
      <trkpt lat="49.19358" lon="1.83684">
        <ele>199.61</ele>
        <time>2013-05-26T10:04:31Z</time>
      </trkpt>
      <trkpt lat="49.19349" lon="1.83702">
        <ele>200.09</ele>
        <time>2013-05-26T10:04:35Z</time>
      </trkpt>
      <trkpt lat="49.19347" lon="1.83707">
        <ele>198.65</ele>
        <time>2013-05-26T10:04:36Z</time>
      </trkpt>
      <trkpt lat="49.19329" lon="1.83738">
        <ele>199.13</ele>
        <time>2013-05-26T10:04:45Z</time>
      </trkpt>
      <trkpt lat="49.19304" lon="1.8377">
        <ele>198.65</ele>
        <time>2013-05-26T10:04:55Z</time>
      </trkpt>
      <trkpt lat="49.19294" lon="1.83783">
        <ele>199.13</ele>
        <time>2013-05-26T10:04:58Z</time>
      </trkpt>
      <trkpt lat="49.19292" lon="1.83788">
        <ele>198.17</ele>
        <time>2013-05-26T10:04:59Z</time>
      </trkpt>
      <trkpt lat="49.19289" lon="1.83793">
        <ele>199.13</ele>
        <time>2013-05-26T10:05:00Z</time>
      </trkpt>
      <trkpt lat="49.19286" lon="1.83798">
        <ele>199.13</ele>
        <time>2013-05-26T10:05:01Z</time>
      </trkpt>
      <trkpt lat="49.19284" lon="1.83803">
        <ele>198.65</ele>
        <time>2013-05-26T10:05:02Z</time>
      </trkpt>
      <trkpt lat="49.19281" lon="1.83807">
        <ele>198.17</ele>
        <time>2013-05-26T10:05:03Z</time>
      </trkpt>
      <trkpt lat="49.19278" lon="1.83811">
        <ele>198.17</ele>
        <time>2013-05-26T10:05:04Z</time>
      </trkpt>
      <trkpt lat="49.19274" lon="1.83814">
        <ele>198.17</ele>
        <time>2013-05-26T10:05:05Z</time>
      </trkpt>
      <trkpt lat="49.19271" lon="1.83818">
        <ele>197.69</ele>
        <time>2013-05-26T10:05:06Z</time>
      </trkpt>
      <trkpt lat="49.19255" lon="1.83839">
        <ele>198.65</ele>
        <time>2013-05-26T10:05:11Z</time>
      </trkpt>
      <trkpt lat="49.19239" lon="1.83864">
        <ele>196.73</ele>
        <time>2013-05-26T10:05:16Z</time>
      </trkpt>
      <trkpt lat="49.19235" lon="1.83869">
        <ele>197.21</ele>
        <time>2013-05-26T10:05:17Z</time>
      </trkpt>
      <trkpt lat="49.19232" lon="1.83875">
        <ele>196.73</ele>
        <time>2013-05-26T10:05:18Z</time>
      </trkpt>
      <trkpt lat="49.19228" lon="1.83889">
        <ele>196.25</ele>
        <time>2013-05-26T10:05:20Z</time>
      </trkpt>
      <trkpt lat="49.19227" lon="1.83897">
        <ele>196.25</ele>
        <time>2013-05-26T10:05:21Z</time>
      </trkpt>
      <trkpt lat="49.19225" lon="1.83913">
        <ele>195.77</ele>
        <time>2013-05-26T10:05:23Z</time>
      </trkpt>
      <trkpt lat="49.19225" lon="1.83921">
        <ele>195.77</ele>
        <time>2013-05-26T10:05:24Z</time>
      </trkpt>
      <trkpt lat="49.19225" lon="1.83944">
        <ele>195.28</ele>
        <time>2013-05-26T10:05:27Z</time>
      </trkpt>
      <trkpt lat="49.19226" lon="1.83959">
        <ele>194.8</ele>
        <time>2013-05-26T10:05:29Z</time>
      </trkpt>
      <trkpt lat="49.19227" lon="1.83993">
        <ele>193.36</ele>
        <time>2013-05-26T10:05:33Z</time>
      </trkpt>
      <trkpt lat="49.19228" lon="1.84063">
        <ele>190.48</ele>
        <time>2013-05-26T10:05:40Z</time>
      </trkpt>
      <trkpt lat="49.19229" lon="1.84086">
        <ele>189.04</ele>
        <time>2013-05-26T10:05:42Z</time>
      </trkpt>
      <trkpt lat="49.19231" lon="1.84097">
        <ele>189.04</ele>
        <time>2013-05-26T10:05:43Z</time>
      </trkpt>
      <trkpt lat="49.19242" lon="1.84192">
        <ele>187.11</ele>
        <time>2013-05-26T10:05:53Z</time>
      </trkpt>
      <trkpt lat="49.19242" lon="1.84204">
        <ele>187.11</ele>
        <time>2013-05-26T10:06:02Z</time>
      </trkpt>
      <trkpt lat="49.19242" lon="1.84207">
        <ele>187.11</ele>
        <time>2013-05-26T10:06:03Z</time>
      </trkpt>
      <trkpt lat="49.19242" lon="1.8421">
        <ele>186.63</ele>
        <time>2013-05-26T10:06:04Z</time>
      </trkpt>
      <trkpt lat="49.19242" lon="1.84215">
        <ele>187.11</ele>
        <time>2013-05-26T10:06:05Z</time>
      </trkpt>
      <trkpt lat="49.19242" lon="1.84221">
        <ele>185.67</ele>
        <time>2013-05-26T10:06:06Z</time>
      </trkpt>
      <trkpt lat="49.1924" lon="1.84229">
        <ele>186.15</ele>
        <time>2013-05-26T10:06:07Z</time>
      </trkpt>
      <trkpt lat="49.19238" lon="1.84237">
        <ele>185.67</ele>
        <time>2013-05-26T10:06:08Z</time>
      </trkpt>
      <trkpt lat="49.19236" lon="1.84243">
        <ele>185.19</ele>
        <time>2013-05-26T10:06:09Z</time>
      </trkpt>
      <trkpt lat="49.19233" lon="1.84249">
        <ele>185.19</ele>
        <time>2013-05-26T10:06:10Z</time>
      </trkpt>
      <trkpt lat="49.1923" lon="1.84255">
        <ele>184.71</ele>
        <time>2013-05-26T10:06:11Z</time>
      </trkpt>
      <trkpt lat="49.19202" lon="1.84313">
        <ele>183.27</ele>
        <time>2013-05-26T10:06:19Z</time>
      </trkpt>
      <trkpt lat="49.19195" lon="1.8434">
        <ele>182.79</ele>
        <time>2013-05-26T10:06:28Z</time>
      </trkpt>
      <trkpt lat="49.19196" lon="1.84342">
        <ele>182.31</ele>
        <time>2013-05-26T10:06:53Z</time>
      </trkpt>
      <trkpt lat="49.19195" lon="1.84343">
        <ele>182.79</ele>
        <time>2013-05-26T10:07:18Z</time>
      </trkpt>
      <trkpt lat="49.19195" lon="1.84343">
        <ele>182.31</ele>
        <time>2013-05-26T10:07:19Z</time>
      </trkpt>
      <trkpt lat="49.19194" lon="1.84344">
        <ele>182.31</ele>
        <time>2013-05-26T10:07:20Z</time>
      </trkpt>
      <trkpt lat="49.19192" lon="1.84345">
        <ele>182.31</ele>
        <time>2013-05-26T10:07:21Z</time>
      </trkpt>
      <trkpt lat="49.1919" lon="1.84347">
        <ele>181.83</ele>
        <time>2013-05-26T10:07:22Z</time>
      </trkpt>
      <trkpt lat="49.19189" lon="1.84349">
        <ele>182.31</ele>
        <time>2013-05-26T10:07:23Z</time>
      </trkpt>
      <trkpt lat="49.19187" lon="1.8435">
        <ele>181.35</ele>
        <time>2013-05-26T10:07:24Z</time>
      </trkpt>
      <trkpt lat="49.19184" lon="1.84351">
        <ele>182.31</ele>
        <time>2013-05-26T10:07:25Z</time>
      </trkpt>
      <trkpt lat="49.19182" lon="1.84351">
        <ele>180.87</ele>
        <time>2013-05-26T10:07:26Z</time>
      </trkpt>
      <trkpt lat="49.19179" lon="1.84352">
        <ele>180.87</ele>
        <time>2013-05-26T10:07:27Z</time>
      </trkpt>
      <trkpt lat="49.19177" lon="1.84353">
        <ele>179.9</ele>
        <time>2013-05-26T10:07:28Z</time>
      </trkpt>
      <trkpt lat="49.19175" lon="1.84356">
        <ele>179.9</ele>
        <time>2013-05-26T10:07:29Z</time>
      </trkpt>
      <trkpt lat="49.19173" lon="1.84361">
        <ele>179.42</ele>
        <time>2013-05-26T10:07:30Z</time>
      </trkpt>
      <trkpt lat="49.19171" lon="1.84368">
        <ele>178.94</ele>
        <time>2013-05-26T10:07:31Z</time>
      </trkpt>
      <trkpt lat="49.19169" lon="1.84375">
        <ele>178.46</ele>
        <time>2013-05-26T10:07:32Z</time>
      </trkpt>
      <trkpt lat="49.19167" lon="1.84382">
        <ele>178.46</ele>
        <time>2013-05-26T10:07:33Z</time>
      </trkpt>
      <trkpt lat="49.19142" lon="1.84442">
        <ele>177.5</ele>
        <time>2013-05-26T10:07:45Z</time>
      </trkpt>
      <trkpt lat="49.19141" lon="1.84444">
        <ele>177.02</ele>
        <time>2013-05-26T10:07:47Z</time>
      </trkpt>
      <trkpt lat="49.1914" lon="1.84448">
        <ele>177.98</ele>
        <time>2013-05-26T10:07:58Z</time>
      </trkpt>
      <trkpt lat="49.19141" lon="1.84448">
        <ele>176.54</ele>
        <time>2013-05-26T10:08:11Z</time>
      </trkpt>
      <trkpt lat="49.1914" lon="1.84448">
        <ele>177.5</ele>
        <time>2013-05-26T10:08:48Z</time>
      </trkpt>
      <trkpt lat="49.1914" lon="1.84449">
        <ele>177.02</ele>
        <time>2013-05-26T10:09:25Z</time>
      </trkpt>
      <trkpt lat="49.1914" lon="1.8445">
        <ele>177.5</ele>
        <time>2013-05-26T10:09:59Z</time>
      </trkpt>
      <trkpt lat="49.1914" lon="1.84451">
        <ele>177.02</ele>
        <time>2013-05-26T10:10:34Z</time>
      </trkpt>
      <trkpt lat="49.19139" lon="1.8445">
        <ele>177.98</ele>
        <time>2013-05-26T10:11:07Z</time>
      </trkpt>
      <trkpt lat="49.19139" lon="1.84449">
        <ele>177.98</ele>
        <time>2013-05-26T10:11:24Z</time>
      </trkpt>
      <trkpt lat="49.19139" lon="1.84446">
        <ele>178.46</ele>
        <time>2013-05-26T10:11:33Z</time>
      </trkpt>
      <trkpt lat="49.19139" lon="1.84445">
        <ele>177.98</ele>
        <time>2013-05-26T10:11:35Z</time>
      </trkpt>
      <trkpt lat="49.1914" lon="1.84443">
        <ele>177.98</ele>
        <time>2013-05-26T10:11:36Z</time>
      </trkpt>
      <trkpt lat="49.19141" lon="1.84441">
        <ele>177.98</ele>
        <time>2013-05-26T10:11:37Z</time>
      </trkpt>
      <trkpt lat="49.19142" lon="1.84439">
        <ele>178.46</ele>
        <time>2013-05-26T10:11:38Z</time>
      </trkpt>
      <trkpt lat="49.19144" lon="1.84437">
        <ele>177.98</ele>
        <time>2013-05-26T10:11:39Z</time>
      </trkpt>
      <trkpt lat="49.19145" lon="1.84434">
        <ele>177.98</ele>
        <time>2013-05-26T10:11:40Z</time>
      </trkpt>
      <trkpt lat="49.19148" lon="1.8443">
        <ele>177.5</ele>
        <time>2013-05-26T10:11:42Z</time>
      </trkpt>
      <trkpt lat="49.19148" lon="1.84426">
        <ele>177.98</ele>
        <time>2013-05-26T10:11:43Z</time>
      </trkpt>
      <trkpt lat="49.1915" lon="1.84423">
        <ele>177.5</ele>
        <time>2013-05-26T10:11:44Z</time>
      </trkpt>
      <trkpt lat="49.19153" lon="1.84416">
        <ele>177.5</ele>
        <time>2013-05-26T10:11:46Z</time>
      </trkpt>
      <trkpt lat="49.19156" lon="1.84409">
        <ele>177.98</ele>
        <time>2013-05-26T10:11:48Z</time>
      </trkpt>
      <trkpt lat="49.19158" lon="1.84405">
        <ele>177.98</ele>
        <time>2013-05-26T10:11:49Z</time>
      </trkpt>
      <trkpt lat="49.1916" lon="1.844">
        <ele>178.46</ele>
        <time>2013-05-26T10:11:50Z</time>
      </trkpt>
      <trkpt lat="49.19161" lon="1.84395">
        <ele>178.46</ele>
        <time>2013-05-26T10:11:51Z</time>
      </trkpt>
      <trkpt lat="49.19163" lon="1.8439">
        <ele>178.46</ele>
        <time>2013-05-26T10:11:52Z</time>
      </trkpt>
      <trkpt lat="49.19165" lon="1.84384">
        <ele>178.46</ele>
        <time>2013-05-26T10:11:53Z</time>
      </trkpt>
      <trkpt lat="49.19167" lon="1.84379">
        <ele>178.46</ele>
        <time>2013-05-26T10:11:54Z</time>
      </trkpt>
      <trkpt lat="49.19173" lon="1.84331">
        <ele>181.83</ele>
        <time>2013-05-26T10:12:04Z</time>
      </trkpt>
      <trkpt lat="49.19149" lon="1.84263">
        <ele>181.83</ele>
        <time>2013-05-26T10:12:18Z</time>
      </trkpt>
      <trkpt lat="49.19126" lon="1.84196">
        <ele>179.42</ele>
        <time>2013-05-26T10:12:30Z</time>
      </trkpt>
      <trkpt lat="49.19119" lon="1.84173">
        <ele>179.42</ele>
        <time>2013-05-26T10:12:39Z</time>
      </trkpt>
      <trkpt lat="49.19102" lon="1.84157">
        <ele>175.58</ele>
        <time>2013-05-26T10:12:43Z</time>
      </trkpt>
      <trkpt lat="49.19097" lon="1.84151">
        <ele>175.1</ele>
        <time>2013-05-26T10:12:44Z</time>
      </trkpt>
      <trkpt lat="49.19093" lon="1.84145">
        <ele>174.62</ele>
        <time>2013-05-26T10:12:45Z</time>
      </trkpt>
      <trkpt lat="49.1909" lon="1.8414">
        <ele>175.1</ele>
        <time>2013-05-26T10:12:46Z</time>
      </trkpt>
      <trkpt lat="49.19089" lon="1.84136">
        <ele>175.1</ele>
        <time>2013-05-26T10:12:47Z</time>
      </trkpt>
      <trkpt lat="49.19087" lon="1.84132">
        <ele>174.62</ele>
        <time>2013-05-26T10:12:48Z</time>
      </trkpt>
      <trkpt lat="49.19087" lon="1.84127">
        <ele>175.1</ele>
        <time>2013-05-26T10:12:49Z</time>
      </trkpt>
      <trkpt lat="49.19085" lon="1.84115">
        <ele>174.62</ele>
        <time>2013-05-26T10:12:51Z</time>
      </trkpt>
      <trkpt lat="49.19084" lon="1.8411">
        <ele>174.62</ele>
        <time>2013-05-26T10:12:52Z</time>
      </trkpt>
      <trkpt lat="49.19084" lon="1.84066">
        <ele>173.66</ele>
        <time>2013-05-26T10:13:00Z</time>
      </trkpt>
      <trkpt lat="49.19083" lon="1.84061">
        <ele>173.66</ele>
        <time>2013-05-26T10:13:01Z</time>
      </trkpt>
      <trkpt lat="49.19082" lon="1.84054">
        <ele>172.21</ele>
        <time>2013-05-26T10:13:02Z</time>
      </trkpt>
      <trkpt lat="49.19077" lon="1.84045">
        <ele>169.81</ele>
        <time>2013-05-26T10:13:05Z</time>
      </trkpt>
      <trkpt lat="49.19073" lon="1.84044">
        <ele>170.29</ele>
        <time>2013-05-26T10:13:06Z</time>
      </trkpt>
      <trkpt lat="49.19067" lon="1.8404">
        <ele>168.37</ele>
        <time>2013-05-26T10:13:08Z</time>
      </trkpt>
      <trkpt lat="49.19059" lon="1.84027">
        <ele>166.93</ele>
        <time>2013-05-26T10:13:11Z</time>
      </trkpt>
      <trkpt lat="49.19057" lon="1.84021">
        <ele>166.93</ele>
        <time>2013-05-26T10:13:12Z</time>
      </trkpt>
      <trkpt lat="49.19055" lon="1.84015">
        <ele>165.96</ele>
        <time>2013-05-26T10:13:13Z</time>
      </trkpt>
      <trkpt lat="49.19054" lon="1.8401">
        <ele>165.48</ele>
        <time>2013-05-26T10:13:14Z</time>
      </trkpt>
      <trkpt lat="49.19053" lon="1.84003">
        <ele>165</ele>
        <time>2013-05-26T10:13:15Z</time>
      </trkpt>
      <trkpt lat="49.19051" lon="1.83995">
        <ele>165</ele>
        <time>2013-05-26T10:13:16Z</time>
      </trkpt>
      <trkpt lat="49.19049" lon="1.83989">
        <ele>165</ele>
        <time>2013-05-26T10:13:17Z</time>
      </trkpt>
      <trkpt lat="49.19038" lon="1.83971">
        <ele>165</ele>
        <time>2013-05-26T10:13:21Z</time>
      </trkpt>
      <trkpt lat="49.19035" lon="1.83968">
        <ele>165</ele>
        <time>2013-05-26T10:13:22Z</time>
      </trkpt>
      <trkpt lat="49.19033" lon="1.83967">
        <ele>165.48</ele>
        <time>2013-05-26T10:13:23Z</time>
      </trkpt>
      <trkpt lat="49.19031" lon="1.83964">
        <ele>165</ele>
        <time>2013-05-26T10:13:24Z</time>
      </trkpt>
      <trkpt lat="49.19022" lon="1.83954">
        <ele>166.93</ele>
        <time>2013-05-26T10:13:29Z</time>
      </trkpt>
      <trkpt lat="49.19019" lon="1.83953">
        <ele>166.45</ele>
        <time>2013-05-26T10:13:30Z</time>
      </trkpt>
      <trkpt lat="49.19016" lon="1.8395">
        <ele>166.93</ele>
        <time>2013-05-26T10:13:31Z</time>
      </trkpt>
      <trkpt lat="49.19014" lon="1.83948">
        <ele>166.45</ele>
        <time>2013-05-26T10:13:32Z</time>
      </trkpt>
      <trkpt lat="49.19012" lon="1.83947">
        <ele>167.41</ele>
        <time>2013-05-26T10:13:33Z</time>
      </trkpt>
      <trkpt lat="49.19007" lon="1.83942">
        <ele>165.96</ele>
        <time>2013-05-26T10:13:36Z</time>
      </trkpt>
      <trkpt lat="49.19006" lon="1.83938">
        <ele>167.41</ele>
        <time>2013-05-26T10:13:37Z</time>
      </trkpt>
      <trkpt lat="49.19003" lon="1.8393">
        <ele>168.85</ele>
        <time>2013-05-26T10:13:40Z</time>
      </trkpt>
      <trkpt lat="49.18998" lon="1.83922">
        <ele>168.37</ele>
        <time>2013-05-26T10:13:42Z</time>
      </trkpt>
      <trkpt lat="49.18987" lon="1.83901">
        <ele>166.45</ele>
        <time>2013-05-26T10:13:49Z</time>
      </trkpt>
      <trkpt lat="49.18986" lon="1.8389">
        <ele>166.45</ele>
        <time>2013-05-26T10:13:53Z</time>
      </trkpt>
      <trkpt lat="49.18971" lon="1.83867">
        <ele>162.6</ele>
        <time>2013-05-26T10:14:00Z</time>
      </trkpt>
      <trkpt lat="49.1896" lon="1.83821">
        <ele>164.52</ele>
        <time>2013-05-26T10:14:10Z</time>
      </trkpt>
      <trkpt lat="49.18952" lon="1.83763">
        <ele>163.56</ele>
        <time>2013-05-26T10:14:22Z</time>
      </trkpt>
      <trkpt lat="49.1894" lon="1.83722">
        <ele>163.08</ele>
        <time>2013-05-26T10:14:30Z</time>
      </trkpt>
      <trkpt lat="49.18932" lon="1.83698">
        <ele>162.12</ele>
        <time>2013-05-26T10:14:34Z</time>
      </trkpt>
      <trkpt lat="49.18917" lon="1.83639">
        <ele>162.6</ele>
        <time>2013-05-26T10:14:46Z</time>
      </trkpt>
      <trkpt lat="49.1892" lon="1.83589">
        <ele>164.04</ele>
        <time>2013-05-26T10:14:56Z</time>
      </trkpt>
      <trkpt lat="49.18921" lon="1.83553">
        <ele>166.45</ele>
        <time>2013-05-26T10:15:07Z</time>
      </trkpt>
      <trkpt lat="49.18921" lon="1.83549">
        <ele>165.96</ele>
        <time>2013-05-26T10:15:08Z</time>
      </trkpt>
      <trkpt lat="49.18923" lon="1.83509">
        <ele>165</ele>
        <time>2013-05-26T10:15:19Z</time>
      </trkpt>
      <trkpt lat="49.18912" lon="1.83485">
        <ele>164.04</ele>
        <time>2013-05-26T10:15:23Z</time>
      </trkpt>
      <trkpt lat="49.18903" lon="1.83465">
        <ele>163.56</ele>
        <time>2013-05-26T10:15:27Z</time>
      </trkpt>
      <trkpt lat="49.18902" lon="1.83461">
        <ele>163.08</ele>
        <time>2013-05-26T10:15:28Z</time>
      </trkpt>
      <trkpt lat="49.189" lon="1.83446">
        <ele>161.64</ele>
        <time>2013-05-26T10:15:31Z</time>
      </trkpt>
      <trkpt lat="49.18898" lon="1.83444">
        <ele>162.12</ele>
        <time>2013-05-26T10:15:32Z</time>
      </trkpt>
      <trkpt lat="49.18887" lon="1.83419">
        <ele>160.2</ele>
        <time>2013-05-26T10:15:41Z</time>
      </trkpt>
      <trkpt lat="49.18884" lon="1.83409">
        <ele>159.72</ele>
        <time>2013-05-26T10:15:45Z</time>
      </trkpt>
      <trkpt lat="49.18882" lon="1.83405">
        <ele>159.24</ele>
        <time>2013-05-26T10:15:46Z</time>
      </trkpt>
      <trkpt lat="49.18879" lon="1.83395">
        <ele>157.79</ele>
        <time>2013-05-26T10:15:48Z</time>
      </trkpt>
      <trkpt lat="49.18876" lon="1.83381">
        <ele>156.83</ele>
        <time>2013-05-26T10:15:50Z</time>
      </trkpt>
      <trkpt lat="49.18869" lon="1.83337">
        <ele>155.87</ele>
        <time>2013-05-26T10:15:55Z</time>
      </trkpt>
      <trkpt lat="49.18868" lon="1.83329">
        <ele>155.39</ele>
        <time>2013-05-26T10:15:56Z</time>
      </trkpt>
      <trkpt lat="49.18868" lon="1.83323">
        <ele>154.91</ele>
        <time>2013-05-26T10:15:57Z</time>
      </trkpt>
      <trkpt lat="49.18866" lon="1.83318">
        <ele>155.87</ele>
        <time>2013-05-26T10:15:58Z</time>
      </trkpt>
      <trkpt lat="49.18863" lon="1.83313">
        <ele>153.95</ele>
        <time>2013-05-26T10:15:59Z</time>
      </trkpt>
      <trkpt lat="49.18854" lon="1.83301">
        <ele>153.47</ele>
        <time>2013-05-26T10:16:02Z</time>
      </trkpt>
      <trkpt lat="49.18841" lon="1.8329">
        <ele>152.03</ele>
        <time>2013-05-26T10:16:05Z</time>
      </trkpt>
      <trkpt lat="49.18837" lon="1.83286">
        <ele>151.06</ele>
        <time>2013-05-26T10:16:06Z</time>
      </trkpt>
      <trkpt lat="49.18834" lon="1.8328">
        <ele>149.62</ele>
        <time>2013-05-26T10:16:07Z</time>
      </trkpt>
      <trkpt lat="49.1883" lon="1.83275">
        <ele>149.62</ele>
        <time>2013-05-26T10:16:08Z</time>
      </trkpt>
      <trkpt lat="49.18826" lon="1.83269">
        <ele>147.7</ele>
        <time>2013-05-26T10:16:09Z</time>
      </trkpt>
      <trkpt lat="49.18821" lon="1.83264">
        <ele>147.7</ele>
        <time>2013-05-26T10:16:10Z</time>
      </trkpt>
      <trkpt lat="49.18816" lon="1.83259">
        <ele>145.78</ele>
        <time>2013-05-26T10:16:11Z</time>
      </trkpt>
      <trkpt lat="49.1881" lon="1.83252">
        <ele>146.26</ele>
        <time>2013-05-26T10:16:12Z</time>
      </trkpt>
      <trkpt lat="49.18783" lon="1.83216">
        <ele>143.37</ele>
        <time>2013-05-26T10:16:19Z</time>
      </trkpt>
      <trkpt lat="49.18777" lon="1.83208">
        <ele>142.41</ele>
        <time>2013-05-26T10:16:21Z</time>
      </trkpt>
      <trkpt lat="49.18774" lon="1.83204">
        <ele>141.45</ele>
        <time>2013-05-26T10:16:22Z</time>
      </trkpt>
      <trkpt lat="49.18754" lon="1.83182">
        <ele>138.57</ele>
        <time>2013-05-26T10:16:30Z</time>
      </trkpt>
      <trkpt lat="49.18752" lon="1.8318">
        <ele>138.57</ele>
        <time>2013-05-26T10:16:31Z</time>
      </trkpt>
      <trkpt lat="49.1875" lon="1.8318">
        <ele>137.61</ele>
        <time>2013-05-26T10:16:32Z</time>
      </trkpt>
      <trkpt lat="49.18747" lon="1.8318">
        <ele>139.05</ele>
        <time>2013-05-26T10:16:33Z</time>
      </trkpt>
      <trkpt lat="49.18746" lon="1.8318">
        <ele>137.61</ele>
        <time>2013-05-26T10:16:34Z</time>
      </trkpt>
      <trkpt lat="49.18744" lon="1.83181">
        <ele>138.57</ele>
        <time>2013-05-26T10:16:35Z</time>
      </trkpt>
      <trkpt lat="49.18743" lon="1.83183">
        <ele>139.05</ele>
        <time>2013-05-26T10:16:36Z</time>
      </trkpt>
      <trkpt lat="49.18741" lon="1.83185">
        <ele>138.57</ele>
        <time>2013-05-26T10:16:37Z</time>
      </trkpt>
      <trkpt lat="49.1874" lon="1.83187">
        <ele>139.53</ele>
        <time>2013-05-26T10:16:38Z</time>
      </trkpt>
      <trkpt lat="49.18739" lon="1.83188">
        <ele>139.05</ele>
        <time>2013-05-26T10:16:39Z</time>
      </trkpt>
      <trkpt lat="49.18738" lon="1.83189">
        <ele>139.53</ele>
        <time>2013-05-26T10:16:40Z</time>
      </trkpt>
      <trkpt lat="49.18737" lon="1.83191">
        <ele>139.53</ele>
        <time>2013-05-26T10:16:41Z</time>
      </trkpt>
      <trkpt lat="49.18736" lon="1.83193">
        <ele>139.53</ele>
        <time>2013-05-26T10:16:42Z</time>
      </trkpt>
      <trkpt lat="49.18736" lon="1.83195">
        <ele>140.97</ele>
        <time>2013-05-26T10:16:43Z</time>
      </trkpt>
      <trkpt lat="49.18735" lon="1.83197">
        <ele>140.01</ele>
        <time>2013-05-26T10:16:44Z</time>
      </trkpt>
      <trkpt lat="49.18735" lon="1.83199">
        <ele>140.01</ele>
        <time>2013-05-26T10:16:45Z</time>
      </trkpt>
      <trkpt lat="49.18734" lon="1.832">
        <ele>140.01</ele>
        <time>2013-05-26T10:16:46Z</time>
      </trkpt>
      <trkpt lat="49.18731" lon="1.83208">
        <ele>140.49</ele>
        <time>2013-05-26T10:16:58Z</time>
      </trkpt>
      <trkpt lat="49.18729" lon="1.83211">
        <ele>139.05</ele>
        <time>2013-05-26T10:17:28Z</time>
      </trkpt>
      <trkpt lat="49.18726" lon="1.83216">
        <ele>139.05</ele>
        <time>2013-05-26T10:17:50Z</time>
      </trkpt>
      <trkpt lat="49.18704" lon="1.83206">
        <ele>136.64</ele>
        <time>2013-05-26T10:17:58Z</time>
      </trkpt>
      <trkpt lat="49.18684" lon="1.83194">
        <ele>133.28</ele>
        <time>2013-05-26T10:18:01Z</time>
      </trkpt>
      <trkpt lat="49.18678" lon="1.83192">
        <ele>133.76</ele>
        <time>2013-05-26T10:18:02Z</time>
      </trkpt>
      <trkpt lat="49.18672" lon="1.83191">
        <ele>132.32</ele>
        <time>2013-05-26T10:18:03Z</time>
      </trkpt>
      <trkpt lat="49.18659" lon="1.8319">
        <ele>130.88</ele>
        <time>2013-05-26T10:18:05Z</time>
      </trkpt>
      <trkpt lat="49.18654" lon="1.8319">
        <ele>130.88</ele>
        <time>2013-05-26T10:18:06Z</time>
      </trkpt>
      <trkpt lat="49.18618" lon="1.83178">
        <ele>127.51</ele>
        <time>2013-05-26T10:18:16Z</time>
      </trkpt>
      <trkpt lat="49.18617" lon="1.83174">
        <ele>127.51</ele>
        <time>2013-05-26T10:18:17Z</time>
      </trkpt>
      <trkpt lat="49.18618" lon="1.83169">
        <ele>127.99</ele>
        <time>2013-05-26T10:18:18Z</time>
      </trkpt>
      <trkpt lat="49.1862" lon="1.83095">
        <ele>127.99</ele>
        <time>2013-05-26T10:18:31Z</time>
      </trkpt>
      <trkpt lat="49.18623" lon="1.83044">
        <ele>127.03</ele>
        <time>2013-05-26T10:18:39Z</time>
      </trkpt>
      <trkpt lat="49.18625" lon="1.83037">
        <ele>126.55</ele>
        <time>2013-05-26T10:18:40Z</time>
      </trkpt>
      <trkpt lat="49.18629" lon="1.83032">
        <ele>127.03</ele>
        <time>2013-05-26T10:18:41Z</time>
      </trkpt>
      <trkpt lat="49.18659" lon="1.82988">
        <ele>126.55</ele>
        <time>2013-05-26T10:18:50Z</time>
      </trkpt>
      <trkpt lat="49.18676" lon="1.82959">
        <ele>125.59</ele>
        <time>2013-05-26T10:18:55Z</time>
      </trkpt>
      <trkpt lat="49.18679" lon="1.82953">
        <ele>126.55</ele>
        <time>2013-05-26T10:18:56Z</time>
      </trkpt>
      <trkpt lat="49.1868" lon="1.82946">
        <ele>125.59</ele>
        <time>2013-05-26T10:18:57Z</time>
      </trkpt>
      <trkpt lat="49.18682" lon="1.82939">
        <ele>125.59</ele>
        <time>2013-05-26T10:18:58Z</time>
      </trkpt>
      <trkpt lat="49.18682" lon="1.82931">
        <ele>125.11</ele>
        <time>2013-05-26T10:18:59Z</time>
      </trkpt>
      <trkpt lat="49.18691" lon="1.82885">
        <ele>125.59</ele>
        <time>2013-05-26T10:19:06Z</time>
      </trkpt>
      <trkpt lat="49.18724" lon="1.82809">
        <ele>126.07</ele>
        <time>2013-05-26T10:19:21Z</time>
      </trkpt>
      <trkpt lat="49.18726" lon="1.82803">
        <ele>125.11</ele>
        <time>2013-05-26T10:19:22Z</time>
      </trkpt>
      <trkpt lat="49.18729" lon="1.82798">
        <ele>125.59</ele>
        <time>2013-05-26T10:19:23Z</time>
      </trkpt>
      <trkpt lat="49.18741" lon="1.82765">
        <ele>126.07</ele>
        <time>2013-05-26T10:19:29Z</time>
      </trkpt>
      <trkpt lat="49.18767" lon="1.8269">
        <ele>125.59</ele>
        <time>2013-05-26T10:19:44Z</time>
      </trkpt>
      <trkpt lat="49.18789" lon="1.82631">
        <ele>127.03</ele>
        <time>2013-05-26T10:19:58Z</time>
      </trkpt>
      <trkpt lat="49.18812" lon="1.82584">
        <ele>127.99</ele>
        <time>2013-05-26T10:20:10Z</time>
      </trkpt>
      <trkpt lat="49.18825" lon="1.82553">
        <ele>127.51</ele>
        <time>2013-05-26T10:20:20Z</time>
      </trkpt>
      <trkpt lat="49.1883" lon="1.82514">
        <ele>128.95</ele>
        <time>2013-05-26T10:20:33Z</time>
      </trkpt>
      <trkpt lat="49.18831" lon="1.82501">
        <ele>128.47</ele>
        <time>2013-05-26T10:20:38Z</time>
      </trkpt>
      <trkpt lat="49.18831" lon="1.82498">
        <ele>128.95</ele>
        <time>2013-05-26T10:20:39Z</time>
      </trkpt>
      <trkpt lat="49.18835" lon="1.82457">
        <ele>129.43</ele>
        <time>2013-05-26T10:20:51Z</time>
      </trkpt>
      <trkpt lat="49.18839" lon="1.82406">
        <ele>130.4</ele>
        <time>2013-05-26T10:21:07Z</time>
      </trkpt>
      <trkpt lat="49.1884" lon="1.82363">
        <ele>131.36</ele>
        <time>2013-05-26T10:21:20Z</time>
      </trkpt>
      <trkpt lat="49.18837" lon="1.82324">
        <ele>131.36</ele>
        <time>2013-05-26T10:21:32Z</time>
      </trkpt>
      <trkpt lat="49.18841" lon="1.82289">
        <ele>133.28</ele>
        <time>2013-05-26T10:21:46Z</time>
      </trkpt>
      <trkpt lat="49.18853" lon="1.8225">
        <ele>134.72</ele>
        <time>2013-05-26T10:21:59Z</time>
      </trkpt>
      <trkpt lat="49.18856" lon="1.82243">
        <ele>135.68</ele>
        <time>2013-05-26T10:22:02Z</time>
      </trkpt>
      <trkpt lat="49.18856" lon="1.82242">
        <ele>135.68</ele>
        <time>2013-05-26T10:22:03Z</time>
      </trkpt>
      <trkpt lat="49.18863" lon="1.82223">
        <ele>136.16</ele>
        <time>2013-05-26T10:22:14Z</time>
      </trkpt>
      <trkpt lat="49.18865" lon="1.82222">
        <ele>137.13</ele>
        <time>2013-05-26T10:22:15Z</time>
      </trkpt>
      <trkpt lat="49.18866" lon="1.8222">
        <ele>136.16</ele>
        <time>2013-05-26T10:22:16Z</time>
      </trkpt>
      <trkpt lat="49.18872" lon="1.82206">
        <ele>137.13</ele>
        <time>2013-05-26T10:22:24Z</time>
      </trkpt>
      <trkpt lat="49.18886" lon="1.82176">
        <ele>137.61</ele>
        <time>2013-05-26T10:22:39Z</time>
      </trkpt>
      <trkpt lat="49.189" lon="1.82145">
        <ele>138.57</ele>
        <time>2013-05-26T10:22:55Z</time>
      </trkpt>
      <trkpt lat="49.18902" lon="1.8214">
        <ele>139.53</ele>
        <time>2013-05-26T10:22:58Z</time>
      </trkpt>
      <trkpt lat="49.18905" lon="1.82131">
        <ele>140.01</ele>
        <time>2013-05-26T10:23:02Z</time>
      </trkpt>
      <trkpt lat="49.18906" lon="1.8213">
        <ele>139.53</ele>
        <time>2013-05-26T10:23:03Z</time>
      </trkpt>
      <trkpt lat="49.18906" lon="1.82128">
        <ele>140.01</ele>
        <time>2013-05-26T10:23:04Z</time>
      </trkpt>
      <trkpt lat="49.18907" lon="1.82125">
        <ele>139.53</ele>
        <time>2013-05-26T10:23:05Z</time>
      </trkpt>
      <trkpt lat="49.18908" lon="1.82123">
        <ele>140.49</ele>
        <time>2013-05-26T10:23:06Z</time>
      </trkpt>
      <trkpt lat="49.18923" lon="1.82095">
        <ele>140.97</ele>
        <time>2013-05-26T10:23:20Z</time>
      </trkpt>
      <trkpt lat="49.18939" lon="1.82064">
        <ele>140.97</ele>
        <time>2013-05-26T10:23:34Z</time>
      </trkpt>
      <trkpt lat="49.18954" lon="1.82037">
        <ele>141.93</ele>
        <time>2013-05-26T10:23:47Z</time>
      </trkpt>
      <trkpt lat="49.1896" lon="1.82022">
        <ele>141.93</ele>
        <time>2013-05-26T10:23:54Z</time>
      </trkpt>
      <trkpt lat="49.18962" lon="1.8202">
        <ele>142.41</ele>
        <time>2013-05-26T10:23:55Z</time>
      </trkpt>
      <trkpt lat="49.18981" lon="1.81991">
        <ele>143.37</ele>
        <time>2013-05-26T10:24:09Z</time>
      </trkpt>
      <trkpt lat="49.18995" lon="1.81961">
        <ele>143.85</ele>
        <time>2013-05-26T10:24:22Z</time>
      </trkpt>
      <trkpt lat="49.19009" lon="1.81929">
        <ele>146.26</ele>
        <time>2013-05-26T10:24:34Z</time>
      </trkpt>
      <trkpt lat="49.19013" lon="1.81918">
        <ele>145.3</ele>
        <time>2013-05-26T10:24:38Z</time>
      </trkpt>
      <trkpt lat="49.19014" lon="1.81915">
        <ele>146.74</ele>
        <time>2013-05-26T10:24:39Z</time>
      </trkpt>
      <trkpt lat="49.19015" lon="1.81913">
        <ele>146.26</ele>
        <time>2013-05-26T10:24:40Z</time>
      </trkpt>
      <trkpt lat="49.19015" lon="1.8191">
        <ele>145.78</ele>
        <time>2013-05-26T10:24:41Z</time>
      </trkpt>
      <trkpt lat="49.19016" lon="1.81908">
        <ele>145.78</ele>
        <time>2013-05-26T10:24:42Z</time>
      </trkpt>
      <trkpt lat="49.19017" lon="1.81905">
        <ele>145.78</ele>
        <time>2013-05-26T10:24:43Z</time>
      </trkpt>
      <trkpt lat="49.19017" lon="1.81903">
        <ele>145.3</ele>
        <time>2013-05-26T10:24:44Z</time>
      </trkpt>
      <trkpt lat="49.19018" lon="1.819">
        <ele>146.74</ele>
        <time>2013-05-26T10:24:45Z</time>
      </trkpt>
      <trkpt lat="49.19018" lon="1.81897">
        <ele>146.74</ele>
        <time>2013-05-26T10:24:46Z</time>
      </trkpt>
      <trkpt lat="49.1902" lon="1.81891">
        <ele>146.74</ele>
        <time>2013-05-26T10:24:48Z</time>
      </trkpt>
      <trkpt lat="49.19021" lon="1.81888">
        <ele>145.78</ele>
        <time>2013-05-26T10:24:49Z</time>
      </trkpt>
      <trkpt lat="49.19026" lon="1.81875">
        <ele>146.26</ele>
        <time>2013-05-26T10:24:54Z</time>
      </trkpt>
      <trkpt lat="49.19027" lon="1.81869">
        <ele>145.78</ele>
        <time>2013-05-26T10:24:56Z</time>
      </trkpt>
      <trkpt lat="49.19035" lon="1.81843">
        <ele>147.22</ele>
        <time>2013-05-26T10:25:06Z</time>
      </trkpt>
      <trkpt lat="49.19037" lon="1.81841">
        <ele>146.74</ele>
        <time>2013-05-26T10:25:07Z</time>
      </trkpt>
      <trkpt lat="49.19038" lon="1.81838">
        <ele>146.74</ele>
        <time>2013-05-26T10:25:08Z</time>
      </trkpt>
      <trkpt lat="49.19039" lon="1.81835">
        <ele>146.74</ele>
        <time>2013-05-26T10:25:09Z</time>
      </trkpt>
      <trkpt lat="49.1904" lon="1.81832">
        <ele>147.7</ele>
        <time>2013-05-26T10:25:10Z</time>
      </trkpt>
      <trkpt lat="49.19041" lon="1.81829">
        <ele>147.22</ele>
        <time>2013-05-26T10:25:11Z</time>
      </trkpt>
      <trkpt lat="49.19042" lon="1.81826">
        <ele>147.22</ele>
        <time>2013-05-26T10:25:12Z</time>
      </trkpt>
      <trkpt lat="49.19043" lon="1.81822">
        <ele>147.22</ele>
        <time>2013-05-26T10:25:13Z</time>
      </trkpt>
      <trkpt lat="49.19062" lon="1.8176">
        <ele>149.62</ele>
        <time>2013-05-26T10:25:31Z</time>
      </trkpt>
      <trkpt lat="49.19078" lon="1.81712">
        <ele>150.1</ele>
        <time>2013-05-26T10:25:46Z</time>
      </trkpt>
      <trkpt lat="49.19097" lon="1.81662">
        <ele>151.06</ele>
        <time>2013-05-26T10:26:02Z</time>
      </trkpt>
      <trkpt lat="49.19112" lon="1.81616">
        <ele>152.03</ele>
        <time>2013-05-26T10:26:17Z</time>
      </trkpt>
      <trkpt lat="49.19127" lon="1.81575">
        <ele>152.03</ele>
        <time>2013-05-26T10:26:30Z</time>
      </trkpt>
      <trkpt lat="49.19127" lon="1.81571">
        <ele>152.51</ele>
        <time>2013-05-26T10:26:31Z</time>
      </trkpt>
      <trkpt lat="49.19131" lon="1.81507">
        <ele>152.03</ele>
        <time>2013-05-26T10:26:47Z</time>
      </trkpt>
      <trkpt lat="49.19147" lon="1.81439">
        <ele>152.51</ele>
        <time>2013-05-26T10:27:02Z</time>
      </trkpt>
      <trkpt lat="49.19179" lon="1.81389">
        <ele>151.06</ele>
        <time>2013-05-26T10:27:17Z</time>
      </trkpt>
      <trkpt lat="49.19202" lon="1.81353">
        <ele>147.7</ele>
        <time>2013-05-26T10:27:26Z</time>
      </trkpt>
      <trkpt lat="49.19216" lon="1.8133">
        <ele>147.22</ele>
        <time>2013-05-26T10:27:37Z</time>
      </trkpt>
      <trkpt lat="49.19216" lon="1.81331">
        <ele>147.22</ele>
        <time>2013-05-26T10:27:54Z</time>
      </trkpt>
      <trkpt lat="49.19216" lon="1.81331">
        <ele>148.18</ele>
        <time>2013-05-26T10:28:15Z</time>
      </trkpt>
      <trkpt lat="49.19216" lon="1.8133">
        <ele>148.66</ele>
        <time>2013-05-26T10:28:41Z</time>
      </trkpt>
      <trkpt lat="49.19216" lon="1.8133">
        <ele>147.7</ele>
        <time>2013-05-26T10:29:11Z</time>
      </trkpt>
      <trkpt lat="49.19216" lon="1.81329">
        <ele>147.7</ele>
        <time>2013-05-26T10:29:21Z</time>
      </trkpt>
      <trkpt lat="49.19217" lon="1.81328">
        <ele>146.74</ele>
        <time>2013-05-26T10:29:22Z</time>
      </trkpt>
      <trkpt lat="49.19219" lon="1.81326">
        <ele>147.7</ele>
        <time>2013-05-26T10:29:23Z</time>
      </trkpt>
      <trkpt lat="49.19251" lon="1.81297">
        <ele>146.74</ele>
        <time>2013-05-26T10:29:35Z</time>
      </trkpt>
      <trkpt lat="49.19289" lon="1.81254">
        <ele>147.7</ele>
        <time>2013-05-26T10:29:50Z</time>
      </trkpt>
      <trkpt lat="49.19317" lon="1.81209">
        <ele>150.1</ele>
        <time>2013-05-26T10:30:05Z</time>
      </trkpt>
      <trkpt lat="49.19338" lon="1.81177">
        <ele>150.58</ele>
        <time>2013-05-26T10:30:16Z</time>
      </trkpt>
      <trkpt lat="49.19377" lon="1.81133">
        <ele>148.18</ele>
        <time>2013-05-26T10:30:32Z</time>
      </trkpt>
      <trkpt lat="49.1939" lon="1.81117">
        <ele>146.26</ele>
        <time>2013-05-26T10:30:36Z</time>
      </trkpt>
      <trkpt lat="49.19444" lon="1.81043">
        <ele>143.85</ele>
        <time>2013-05-26T10:30:50Z</time>
      </trkpt>
      <trkpt lat="49.19484" lon="1.80986">
        <ele>145.78</ele>
        <time>2013-05-26T10:31:04Z</time>
      </trkpt>
      <trkpt lat="49.19513" lon="1.80947">
        <ele>146.74</ele>
        <time>2013-05-26T10:31:16Z</time>
      </trkpt>
      <trkpt lat="49.19545" lon="1.80904">
        <ele>148.18</ele>
        <time>2013-05-26T10:31:30Z</time>
      </trkpt>
      <trkpt lat="49.19581" lon="1.8086">
        <ele>148.66</ele>
        <time>2013-05-26T10:31:45Z</time>
      </trkpt>
      <trkpt lat="49.19623" lon="1.80827">
        <ele>145.78</ele>
        <time>2013-05-26T10:31:59Z</time>
      </trkpt>
      <trkpt lat="49.19668" lon="1.80792">
        <ele>144.82</ele>
        <time>2013-05-26T10:32:12Z</time>
      </trkpt>
      <trkpt lat="49.19696" lon="1.80738">
        <ele>143.85</ele>
        <time>2013-05-26T10:32:25Z</time>
      </trkpt>
      <trkpt lat="49.19717" lon="1.80674">
        <ele>142.89</ele>
        <time>2013-05-26T10:32:38Z</time>
      </trkpt>
      <trkpt lat="49.19725" lon="1.80652">
        <ele>142.89</ele>
        <time>2013-05-26T10:32:42Z</time>
      </trkpt>
      <trkpt lat="49.19727" lon="1.80646">
        <ele>142.41</ele>
        <time>2013-05-26T10:32:43Z</time>
      </trkpt>
      <trkpt lat="49.1973" lon="1.80633">
        <ele>141.93</ele>
        <time>2013-05-26T10:32:45Z</time>
      </trkpt>
      <trkpt lat="49.19737" lon="1.80607">
        <ele>141.45</ele>
        <time>2013-05-26T10:32:49Z</time>
      </trkpt>
      <trkpt lat="49.19741" lon="1.80595">
        <ele>140.49</ele>
        <time>2013-05-26T10:32:51Z</time>
      </trkpt>
      <trkpt lat="49.19746" lon="1.80582">
        <ele>139.53</ele>
        <time>2013-05-26T10:32:53Z</time>
      </trkpt>
      <trkpt lat="49.1975" lon="1.80567">
        <ele>138.57</ele>
        <time>2013-05-26T10:32:55Z</time>
      </trkpt>
      <trkpt lat="49.19753" lon="1.80559">
        <ele>138.57</ele>
        <time>2013-05-26T10:32:56Z</time>
      </trkpt>
      <trkpt lat="49.19755" lon="1.80552">
        <ele>137.61</ele>
        <time>2013-05-26T10:32:57Z</time>
      </trkpt>
      <trkpt lat="49.19757" lon="1.80545">
        <ele>138.09</ele>
        <time>2013-05-26T10:32:58Z</time>
      </trkpt>
      <trkpt lat="49.19759" lon="1.80539">
        <ele>136.64</ele>
        <time>2013-05-26T10:32:59Z</time>
      </trkpt>
      <trkpt lat="49.19768" lon="1.80504">
        <ele>134.24</ele>
        <time>2013-05-26T10:33:05Z</time>
      </trkpt>
      <trkpt lat="49.19771" lon="1.80498">
        <ele>134.24</ele>
        <time>2013-05-26T10:33:06Z</time>
      </trkpt>
      <trkpt lat="49.19779" lon="1.80483">
        <ele>132.8</ele>
        <time>2013-05-26T10:33:08Z</time>
      </trkpt>
      <trkpt lat="49.1979" lon="1.80462">
        <ele>131.36</ele>
        <time>2013-05-26T10:33:15Z</time>
      </trkpt>
      <trkpt lat="49.1979" lon="1.80457">
        <ele>132.32</ele>
        <time>2013-05-26T10:33:38Z</time>
      </trkpt>
      <trkpt lat="49.19789" lon="1.80456">
        <ele>132.32</ele>
        <time>2013-05-26T10:34:08Z</time>
      </trkpt>
      <trkpt lat="49.1979" lon="1.80454">
        <ele>131.84</ele>
        <time>2013-05-26T10:34:09Z</time>
      </trkpt>
      <trkpt lat="49.1979" lon="1.80451">
        <ele>131.84</ele>
        <time>2013-05-26T10:34:10Z</time>
      </trkpt>
      <trkpt lat="49.1979" lon="1.80447">
        <ele>131.84</ele>
        <time>2013-05-26T10:34:11Z</time>
      </trkpt>
      <trkpt lat="49.1979" lon="1.80442">
        <ele>131.36</ele>
        <time>2013-05-26T10:34:12Z</time>
      </trkpt>
      <trkpt lat="49.19789" lon="1.80436">
        <ele>131.36</ele>
        <time>2013-05-26T10:34:13Z</time>
      </trkpt>
      <trkpt lat="49.19788" lon="1.8043">
        <ele>130.88</ele>
        <time>2013-05-26T10:34:14Z</time>
      </trkpt>
      <trkpt lat="49.19786" lon="1.80424">
        <ele>131.36</ele>
        <time>2013-05-26T10:34:15Z</time>
      </trkpt>
      <trkpt lat="49.19785" lon="1.80418">
        <ele>130.4</ele>
        <time>2013-05-26T10:34:16Z</time>
      </trkpt>
      <trkpt lat="49.19784" lon="1.80412">
        <ele>131.36</ele>
        <time>2013-05-26T10:34:17Z</time>
      </trkpt>
      <trkpt lat="49.19768" lon="1.80333">
        <ele>130.4</ele>
        <time>2013-05-26T10:34:29Z</time>
      </trkpt>
      <trkpt lat="49.19764" lon="1.8032">
        <ele>130.88</ele>
        <time>2013-05-26T10:34:31Z</time>
      </trkpt>
      <trkpt lat="49.19761" lon="1.80314">
        <ele>129.92</ele>
        <time>2013-05-26T10:34:32Z</time>
      </trkpt>
      <trkpt lat="49.19758" lon="1.80308">
        <ele>129.92</ele>
        <time>2013-05-26T10:34:33Z</time>
      </trkpt>
      <trkpt lat="49.1975" lon="1.80291">
        <ele>129.43</ele>
        <time>2013-05-26T10:34:36Z</time>
      </trkpt>
      <trkpt lat="49.19716" lon="1.80239">
        <ele>128.47</ele>
        <time>2013-05-26T10:34:46Z</time>
      </trkpt>
      <trkpt lat="49.19714" lon="1.80233">
        <ele>128.47</ele>
        <time>2013-05-26T10:34:47Z</time>
      </trkpt>
      <trkpt lat="49.19711" lon="1.80226">
        <ele>127.99</ele>
        <time>2013-05-26T10:34:48Z</time>
      </trkpt>
      <trkpt lat="49.19707" lon="1.80221">
        <ele>128.95</ele>
        <time>2013-05-26T10:34:49Z</time>
      </trkpt>
      <trkpt lat="49.19703" lon="1.80215">
        <ele>127.99</ele>
        <time>2013-05-26T10:34:50Z</time>
      </trkpt>
      <trkpt lat="49.19699" lon="1.80209">
        <ele>127.99</ele>
        <time>2013-05-26T10:34:51Z</time>
      </trkpt>
      <trkpt lat="49.19695" lon="1.80203">
        <ele>127.03</ele>
        <time>2013-05-26T10:34:52Z</time>
      </trkpt>
      <trkpt lat="49.19667" lon="1.80162">
        <ele>125.11</ele>
        <time>2013-05-26T10:34:58Z</time>
      </trkpt>
      <trkpt lat="49.19661" lon="1.80155">
        <ele>125.59</ele>
        <time>2013-05-26T10:34:59Z</time>
      </trkpt>
      <trkpt lat="49.19638" lon="1.80127">
        <ele>124.15</ele>
        <time>2013-05-26T10:35:03Z</time>
      </trkpt>
      <trkpt lat="49.19611" lon="1.80101">
        <ele>123.19</ele>
        <time>2013-05-26T10:35:08Z</time>
      </trkpt>
      <trkpt lat="49.1959" lon="1.8007">
        <ele>122.71</ele>
        <time>2013-05-26T10:35:13Z</time>
      </trkpt>
      <trkpt lat="49.19581" lon="1.80047">
        <ele>122.22</ele>
        <time>2013-05-26T10:35:16Z</time>
      </trkpt>
      <trkpt lat="49.19578" lon="1.80039">
        <ele>121.74</ele>
        <time>2013-05-26T10:35:17Z</time>
      </trkpt>
      <trkpt lat="49.19565" lon="1.80012">
        <ele>120.78</ele>
        <time>2013-05-26T10:35:25Z</time>
      </trkpt>
      <trkpt lat="49.19564" lon="1.80011">
        <ele>121.74</ele>
        <time>2013-05-26T10:35:26Z</time>
      </trkpt>
      <trkpt lat="49.19559" lon="1.79999">
        <ele>121.74</ele>
        <time>2013-05-26T10:35:37Z</time>
      </trkpt>
      <trkpt lat="49.19536" lon="1.79968">
        <ele>120.78</ele>
        <time>2013-05-26T10:35:47Z</time>
      </trkpt>
      <trkpt lat="49.19498" lon="1.79924">
        <ele>120.3</ele>
        <time>2013-05-26T10:36:01Z</time>
      </trkpt>
      <trkpt lat="49.19458" lon="1.79866">
        <ele>122.71</ele>
        <time>2013-05-26T10:36:15Z</time>
      </trkpt>
      <trkpt lat="49.19436" lon="1.7984">
        <ele>123.67</ele>
        <time>2013-05-26T10:36:27Z</time>
      </trkpt>
      <trkpt lat="49.19436" lon="1.79838">
        <ele>123.19</ele>
        <time>2013-05-26T10:36:34Z</time>
      </trkpt>
      <trkpt lat="49.19436" lon="1.79836">
        <ele>123.19</ele>
        <time>2013-05-26T10:36:35Z</time>
      </trkpt>
      <trkpt lat="49.19436" lon="1.79834">
        <ele>123.67</ele>
        <time>2013-05-26T10:36:36Z</time>
      </trkpt>
      <trkpt lat="49.19436" lon="1.79831">
        <ele>123.19</ele>
        <time>2013-05-26T10:36:37Z</time>
      </trkpt>
      <trkpt lat="49.19436" lon="1.79829">
        <ele>123.19</ele>
        <time>2013-05-26T10:36:38Z</time>
      </trkpt>
      <trkpt lat="49.19436" lon="1.79827">
        <ele>123.67</ele>
        <time>2013-05-26T10:36:39Z</time>
      </trkpt>
      <trkpt lat="49.19437" lon="1.79824">
        <ele>123.67</ele>
        <time>2013-05-26T10:36:40Z</time>
      </trkpt>
      <trkpt lat="49.19437" lon="1.79822">
        <ele>123.19</ele>
        <time>2013-05-26T10:36:41Z</time>
      </trkpt>
      <trkpt lat="49.19437" lon="1.79819">
        <ele>123.67</ele>
        <time>2013-05-26T10:36:42Z</time>
      </trkpt>
      <trkpt lat="49.19437" lon="1.79815">
        <ele>123.67</ele>
        <time>2013-05-26T10:36:43Z</time>
      </trkpt>
      <trkpt lat="49.19437" lon="1.79812">
        <ele>124.15</ele>
        <time>2013-05-26T10:36:44Z</time>
      </trkpt>
      <trkpt lat="49.19437" lon="1.79808">
        <ele>123.19</ele>
        <time>2013-05-26T10:36:45Z</time>
      </trkpt>
      <trkpt lat="49.19437" lon="1.79805">
        <ele>123.67</ele>
        <time>2013-05-26T10:36:46Z</time>
      </trkpt>
      <trkpt lat="49.19435" lon="1.7974">
        <ele>125.59</ele>
        <time>2013-05-26T10:37:02Z</time>
      </trkpt>
      <trkpt lat="49.19436" lon="1.79737">
        <ele>125.11</ele>
        <time>2013-05-26T10:37:03Z</time>
      </trkpt>
      <trkpt lat="49.19435" lon="1.79733">
        <ele>125.11</ele>
        <time>2013-05-26T10:37:04Z</time>
      </trkpt>
      <trkpt lat="49.19435" lon="1.79729">
        <ele>126.07</ele>
        <time>2013-05-26T10:37:05Z</time>
      </trkpt>
      <trkpt lat="49.19435" lon="1.79725">
        <ele>126.07</ele>
        <time>2013-05-26T10:37:06Z</time>
      </trkpt>
      <trkpt lat="49.19424" lon="1.79648">
        <ele>127.51</ele>
        <time>2013-05-26T10:37:25Z</time>
      </trkpt>
      <trkpt lat="49.19397" lon="1.79581">
        <ele>128.95</ele>
        <time>2013-05-26T10:37:43Z</time>
      </trkpt>
      <trkpt lat="49.19386" lon="1.79519">
        <ele>127.99</ele>
        <time>2013-05-26T10:37:55Z</time>
      </trkpt>
      <trkpt lat="49.1938" lon="1.79418">
        <ele>126.55</ele>
        <time>2013-05-26T10:38:10Z</time>
      </trkpt>
      <trkpt lat="49.19376" lon="1.79306">
        <ele>124.15</ele>
        <time>2013-05-26T10:38:26Z</time>
      </trkpt>
      <trkpt lat="49.19375" lon="1.79292">
        <ele>124.15</ele>
        <time>2013-05-26T10:38:28Z</time>
      </trkpt>
      <trkpt lat="49.19374" lon="1.79285">
        <ele>123.67</ele>
        <time>2013-05-26T10:38:29Z</time>
      </trkpt>
      <trkpt lat="49.19372" lon="1.7925">
        <ele>123.67</ele>
        <time>2013-05-26T10:38:34Z</time>
      </trkpt>
      <trkpt lat="49.19361" lon="1.79199">
        <ele>120.3</ele>
        <time>2013-05-26T10:38:43Z</time>
      </trkpt>
      <trkpt lat="49.19351" lon="1.79145">
        <ele>119.82</ele>
        <time>2013-05-26T10:38:54Z</time>
      </trkpt>
      <trkpt lat="49.19342" lon="1.79091">
        <ele>118.38</ele>
        <time>2013-05-26T10:39:04Z</time>
      </trkpt>
      <trkpt lat="49.19341" lon="1.79084">
        <ele>118.86</ele>
        <time>2013-05-26T10:39:05Z</time>
      </trkpt>
      <trkpt lat="49.19328" lon="1.78992">
        <ele>115.98</ele>
        <time>2013-05-26T10:39:18Z</time>
      </trkpt>
      <trkpt lat="49.19323" lon="1.78942">
        <ele>114.53</ele>
        <time>2013-05-26T10:39:25Z</time>
      </trkpt>
      <trkpt lat="49.19311" lon="1.78861">
        <ele>111.65</ele>
        <time>2013-05-26T10:39:36Z</time>
      </trkpt>
      <trkpt lat="49.19308" lon="1.78832">
        <ele>109.73</ele>
        <time>2013-05-26T10:39:40Z</time>
      </trkpt>
      <trkpt lat="49.19308" lon="1.78825">
        <ele>109.73</ele>
        <time>2013-05-26T10:39:41Z</time>
      </trkpt>
      <trkpt lat="49.19308" lon="1.78808">
        <ele>108.77</ele>
        <time>2013-05-26T10:39:43Z</time>
      </trkpt>
      <trkpt lat="49.19307" lon="1.78799">
        <ele>107.81</ele>
        <time>2013-05-26T10:39:44Z</time>
      </trkpt>
      <trkpt lat="49.19303" lon="1.78781">
        <ele>106.84</ele>
        <time>2013-05-26T10:39:46Z</time>
      </trkpt>
      <trkpt lat="49.19302" lon="1.78772">
        <ele>106.84</ele>
        <time>2013-05-26T10:39:47Z</time>
      </trkpt>
      <trkpt lat="49.19302" lon="1.78764">
        <ele>106.84</ele>
        <time>2013-05-26T10:39:48Z</time>
      </trkpt>
      <trkpt lat="49.19302" lon="1.78756">
        <ele>106.84</ele>
        <time>2013-05-26T10:39:49Z</time>
      </trkpt>
      <trkpt lat="49.19302" lon="1.78748">
        <ele>106.36</ele>
        <time>2013-05-26T10:39:50Z</time>
      </trkpt>
      <trkpt lat="49.19303" lon="1.7874">
        <ele>106.84</ele>
        <time>2013-05-26T10:39:51Z</time>
      </trkpt>
      <trkpt lat="49.19305" lon="1.78734">
        <ele>106.36</ele>
        <time>2013-05-26T10:39:52Z</time>
      </trkpt>
      <trkpt lat="49.19306" lon="1.78728">
        <ele>107.32</ele>
        <time>2013-05-26T10:39:53Z</time>
      </trkpt>
      <trkpt lat="49.19308" lon="1.78723">
        <ele>106.36</ele>
        <time>2013-05-26T10:39:54Z</time>
      </trkpt>
      <trkpt lat="49.19309" lon="1.78719">
        <ele>106.84</ele>
        <time>2013-05-26T10:39:55Z</time>
      </trkpt>
      <trkpt lat="49.1931" lon="1.78716">
        <ele>106.36</ele>
        <time>2013-05-26T10:39:56Z</time>
      </trkpt>
      <trkpt lat="49.19316" lon="1.78671">
        <ele>106.84</ele>
        <time>2013-05-26T10:40:06Z</time>
      </trkpt>
      <trkpt lat="49.19313" lon="1.78621">
        <ele>107.32</ele>
        <time>2013-05-26T10:40:15Z</time>
      </trkpt>
      <trkpt lat="49.19311" lon="1.78566">
        <ele>110.21</ele>
        <time>2013-05-26T10:40:28Z</time>
      </trkpt>
      <trkpt lat="49.19314" lon="1.78519">
        <ele>111.65</ele>
        <time>2013-05-26T10:40:42Z</time>
      </trkpt>
      <trkpt lat="49.19317" lon="1.78461">
        <ele>113.09</ele>
        <time>2013-05-26T10:40:59Z</time>
      </trkpt>
      <trkpt lat="49.193" lon="1.784">
        <ele>113.09</ele>
        <time>2013-05-26T10:41:15Z</time>
      </trkpt>
      <trkpt lat="49.1928" lon="1.78329">
        <ele>114.53</ele>
        <time>2013-05-26T10:41:31Z</time>
      </trkpt>
      <trkpt lat="49.19258" lon="1.78251">
        <ele>116.46</ele>
        <time>2013-05-26T10:41:49Z</time>
      </trkpt>
      <trkpt lat="49.19237" lon="1.78173">
        <ele>118.38</ele>
        <time>2013-05-26T10:42:08Z</time>
      </trkpt>
      <trkpt lat="49.19218" lon="1.78104">
        <ele>119.82</ele>
        <time>2013-05-26T10:42:26Z</time>
      </trkpt>
      <trkpt lat="49.19199" lon="1.7804">
        <ele>121.74</ele>
        <time>2013-05-26T10:42:43Z</time>
      </trkpt>
      <trkpt lat="49.192" lon="1.78037">
        <ele>121.74</ele>
        <time>2013-05-26T10:42:44Z</time>
      </trkpt>
      <trkpt lat="49.19201" lon="1.78034">
        <ele>122.22</ele>
        <time>2013-05-26T10:42:45Z</time>
      </trkpt>
      <trkpt lat="49.19203" lon="1.78033">
        <ele>122.22</ele>
        <time>2013-05-26T10:42:46Z</time>
      </trkpt>
      <trkpt lat="49.19206" lon="1.78034">
        <ele>121.74</ele>
        <time>2013-05-26T10:42:47Z</time>
      </trkpt>
      <trkpt lat="49.19208" lon="1.78035">
        <ele>122.22</ele>
        <time>2013-05-26T10:42:48Z</time>
      </trkpt>
      <trkpt lat="49.19212" lon="1.78036">
        <ele>122.22</ele>
        <time>2013-05-26T10:42:49Z</time>
      </trkpt>
      <trkpt lat="49.19272" lon="1.78032">
        <ele>119.82</ele>
        <time>2013-05-26T10:43:03Z</time>
      </trkpt>
      <trkpt lat="49.1931" lon="1.78022">
        <ele>116.46</ele>
        <time>2013-05-26T10:43:11Z</time>
      </trkpt>
      <trkpt lat="49.19315" lon="1.78021">
        <ele>117.9</ele>
        <time>2013-05-26T10:43:12Z</time>
      </trkpt>
      <trkpt lat="49.1932" lon="1.78019">
        <ele>116.94</ele>
        <time>2013-05-26T10:43:13Z</time>
      </trkpt>
      <trkpt lat="49.1937" lon="1.77996">
        <ele>115.5</ele>
        <time>2013-05-26T10:43:27Z</time>
      </trkpt>
      <trkpt lat="49.19431" lon="1.77974">
        <ele>112.61</ele>
        <time>2013-05-26T10:43:40Z</time>
      </trkpt>
      <trkpt lat="49.19459" lon="1.77964">
        <ele>110.69</ele>
        <time>2013-05-26T10:43:45Z</time>
      </trkpt>
      <trkpt lat="49.19508" lon="1.77961">
        <ele>107.32</ele>
        <time>2013-05-26T10:43:53Z</time>
      </trkpt>
      <trkpt lat="49.19514" lon="1.77966">
        <ele>107.32</ele>
        <time>2013-05-26T10:43:54Z</time>
      </trkpt>
      <trkpt lat="49.19519" lon="1.77973">
        <ele>106.84</ele>
        <time>2013-05-26T10:43:55Z</time>
      </trkpt>
      <trkpt lat="49.19523" lon="1.77982">
        <ele>106.36</ele>
        <time>2013-05-26T10:43:56Z</time>
      </trkpt>
      <trkpt lat="49.19526" lon="1.77991">
        <ele>106.36</ele>
        <time>2013-05-26T10:43:57Z</time>
      </trkpt>
      <trkpt lat="49.19528" lon="1.78001">
        <ele>104.44</ele>
        <time>2013-05-26T10:43:58Z</time>
      </trkpt>
      <trkpt lat="49.1953" lon="1.78009">
        <ele>104.92</ele>
        <time>2013-05-26T10:43:59Z</time>
      </trkpt>
      <trkpt lat="49.19534" lon="1.78012">
        <ele>103.96</ele>
        <time>2013-05-26T10:44:00Z</time>
      </trkpt>
      <trkpt lat="49.19539" lon="1.7801">
        <ele>104.44</ele>
        <time>2013-05-26T10:44:01Z</time>
      </trkpt>
      <trkpt lat="49.19544" lon="1.78005">
        <ele>103.48</ele>
        <time>2013-05-26T10:44:02Z</time>
      </trkpt>
      <trkpt lat="49.19548" lon="1.77998">
        <ele>104.44</ele>
        <time>2013-05-26T10:44:03Z</time>
      </trkpt>
      <trkpt lat="49.19551" lon="1.7799">
        <ele>103.48</ele>
        <time>2013-05-26T10:44:04Z</time>
      </trkpt>
      <trkpt lat="49.19557" lon="1.77974">
        <ele>102.52</ele>
        <time>2013-05-26T10:44:06Z</time>
      </trkpt>
      <trkpt lat="49.19561" lon="1.77956">
        <ele>101.56</ele>
        <time>2013-05-26T10:44:08Z</time>
      </trkpt>
      <trkpt lat="49.19563" lon="1.77937">
        <ele>101.08</ele>
        <time>2013-05-26T10:44:10Z</time>
      </trkpt>
      <trkpt lat="49.19566" lon="1.77918">
        <ele>99.63</ele>
        <time>2013-05-26T10:44:12Z</time>
      </trkpt>
      <trkpt lat="49.19574" lon="1.77866">
        <ele>97.23</ele>
        <time>2013-05-26T10:44:17Z</time>
      </trkpt>
      <trkpt lat="49.19575" lon="1.77818">
        <ele>94.35</ele>
        <time>2013-05-26T10:44:21Z</time>
      </trkpt>
      <trkpt lat="49.19576" lon="1.77777">
        <ele>92.42</ele>
        <time>2013-05-26T10:44:24Z</time>
      </trkpt>
      <trkpt lat="49.19575" lon="1.77766">
        <ele>92.9</ele>
        <time>2013-05-26T10:44:25Z</time>
      </trkpt>
      <trkpt lat="49.19573" lon="1.77758">
        <ele>92.42</ele>
        <time>2013-05-26T10:44:26Z</time>
      </trkpt>
      <trkpt lat="49.19572" lon="1.77752">
        <ele>92.42</ele>
        <time>2013-05-26T10:44:27Z</time>
      </trkpt>
      <trkpt lat="49.19571" lon="1.77749">
        <ele>92.42</ele>
        <time>2013-05-26T10:44:28Z</time>
      </trkpt>
      <trkpt lat="49.19571" lon="1.77745">
        <ele>91.94</ele>
        <time>2013-05-26T10:44:29Z</time>
      </trkpt>
      <trkpt lat="49.19571" lon="1.77741">
        <ele>91.46</ele>
        <time>2013-05-26T10:44:30Z</time>
      </trkpt>
      <trkpt lat="49.19571" lon="1.77738">
        <ele>91.94</ele>
        <time>2013-05-26T10:44:31Z</time>
      </trkpt>
      <trkpt lat="49.1957" lon="1.77726">
        <ele>90.98</ele>
        <time>2013-05-26T10:44:41Z</time>
      </trkpt>
      <trkpt lat="49.19566" lon="1.77723">
        <ele>92.42</ele>
        <time>2013-05-26T10:45:10Z</time>
      </trkpt>
      <trkpt lat="49.19567" lon="1.77722">
        <ele>91.94</ele>
        <time>2013-05-26T10:45:31Z</time>
      </trkpt>
      <trkpt lat="49.19567" lon="1.77723">
        <ele>91.46</ele>
        <time>2013-05-26T10:45:39Z</time>
      </trkpt>
      <trkpt lat="49.19568" lon="1.77724">
        <ele>91.94</ele>
        <time>2013-05-26T10:45:40Z</time>
      </trkpt>
      <trkpt lat="49.19569" lon="1.77727">
        <ele>91.46</ele>
        <time>2013-05-26T10:45:41Z</time>
      </trkpt>
      <trkpt lat="49.1957" lon="1.7773">
        <ele>91.94</ele>
        <time>2013-05-26T10:45:42Z</time>
      </trkpt>
      <trkpt lat="49.1957" lon="1.77734">
        <ele>90.98</ele>
        <time>2013-05-26T10:45:43Z</time>
      </trkpt>
      <trkpt lat="49.1957" lon="1.77737">
        <ele>90.5</ele>
        <time>2013-05-26T10:45:44Z</time>
      </trkpt>
      <trkpt lat="49.1957" lon="1.7774">
        <ele>90.98</ele>
        <time>2013-05-26T10:45:45Z</time>
      </trkpt>
      <trkpt lat="49.1957" lon="1.77744">
        <ele>90.98</ele>
        <time>2013-05-26T10:45:46Z</time>
      </trkpt>
      <trkpt lat="49.19576" lon="1.77796">
        <ele>89.06</ele>
        <time>2013-05-26T10:45:57Z</time>
      </trkpt>
      <trkpt lat="49.1958" lon="1.77802">
        <ele>88.58</ele>
        <time>2013-05-26T10:45:58Z</time>
      </trkpt>
      <trkpt lat="49.19585" lon="1.77808">
        <ele>88.1</ele>
        <time>2013-05-26T10:45:59Z</time>
      </trkpt>
      <trkpt lat="49.19592" lon="1.77811">
        <ele>87.14</ele>
        <time>2013-05-26T10:46:00Z</time>
      </trkpt>
      <trkpt lat="49.19599" lon="1.77813">
        <ele>87.62</ele>
        <time>2013-05-26T10:46:01Z</time>
      </trkpt>
      <trkpt lat="49.19605" lon="1.77813">
        <ele>86.66</ele>
        <time>2013-05-26T10:46:02Z</time>
      </trkpt>
      <trkpt lat="49.19611" lon="1.77813">
        <ele>87.62</ele>
        <time>2013-05-26T10:46:03Z</time>
      </trkpt>
      <trkpt lat="49.19649" lon="1.77815">
        <ele>85.69</ele>
        <time>2013-05-26T10:46:12Z</time>
      </trkpt>
      <trkpt lat="49.19695" lon="1.77818">
        <ele>86.18</ele>
        <time>2013-05-26T10:46:23Z</time>
      </trkpt>
      <trkpt lat="49.19758" lon="1.77824">
        <ele>85.69</ele>
        <time>2013-05-26T10:46:37Z</time>
      </trkpt>
      <trkpt lat="49.19801" lon="1.77816">
        <ele>87.14</ele>
        <time>2013-05-26T10:46:49Z</time>
      </trkpt>
      <trkpt lat="49.19852" lon="1.77852">
        <ele>87.62</ele>
        <time>2013-05-26T10:47:05Z</time>
      </trkpt>
      <trkpt lat="49.19886" lon="1.77894">
        <ele>90.98</ele>
        <time>2013-05-26T10:47:18Z</time>
      </trkpt>
      <trkpt lat="49.19913" lon="1.77933">
        <ele>91.94</ele>
        <time>2013-05-26T10:47:29Z</time>
      </trkpt>
      <trkpt lat="49.19933" lon="1.77964">
        <ele>92.42</ele>
        <time>2013-05-26T10:47:37Z</time>
      </trkpt>
      <trkpt lat="49.19936" lon="1.77968">
        <ele>92.9</ele>
        <time>2013-05-26T10:47:38Z</time>
      </trkpt>
      <trkpt lat="49.19939" lon="1.77971">
        <ele>93.39</ele>
        <time>2013-05-26T10:47:39Z</time>
      </trkpt>
      <trkpt lat="49.19941" lon="1.77975">
        <ele>92.9</ele>
        <time>2013-05-26T10:47:40Z</time>
      </trkpt>
      <trkpt lat="49.19943" lon="1.77979">
        <ele>93.39</ele>
        <time>2013-05-26T10:47:41Z</time>
      </trkpt>
      <trkpt lat="49.19946" lon="1.77982">
        <ele>92.9</ele>
        <time>2013-05-26T10:47:42Z</time>
      </trkpt>
      <trkpt lat="49.19948" lon="1.77985">
        <ele>94.35</ele>
        <time>2013-05-26T10:47:43Z</time>
      </trkpt>
      <trkpt lat="49.19976" lon="1.78016">
        <ele>95.79</ele>
        <time>2013-05-26T10:47:54Z</time>
      </trkpt>
      <trkpt lat="49.2001" lon="1.78046">
        <ele>98.67</ele>
        <time>2013-05-26T10:48:08Z</time>
      </trkpt>
      <trkpt lat="49.2004" lon="1.78061">
        <ele>101.08</ele>
        <time>2013-05-26T10:48:20Z</time>
      </trkpt>
      <trkpt lat="49.20063" lon="1.7808">
        <ele>103.48</ele>
        <time>2013-05-26T10:48:32Z</time>
      </trkpt>
      <trkpt lat="49.20088" lon="1.78094">
        <ele>104.44</ele>
        <time>2013-05-26T10:48:43Z</time>
      </trkpt>
      <trkpt lat="49.20114" lon="1.78109">
        <ele>106.84</ele>
        <time>2013-05-26T10:48:55Z</time>
      </trkpt>
      <trkpt lat="49.2014" lon="1.78126">
        <ele>108.77</ele>
        <time>2013-05-26T10:49:09Z</time>
      </trkpt>
      <trkpt lat="49.20167" lon="1.78128">
        <ele>110.21</ele>
        <time>2013-05-26T10:49:21Z</time>
      </trkpt>
      <trkpt lat="49.20168" lon="1.78087">
        <ele>111.17</ele>
        <time>2013-05-26T10:49:32Z</time>
      </trkpt>
      <trkpt lat="49.20161" lon="1.78029">
        <ele>112.13</ele>
        <time>2013-05-26T10:49:46Z</time>
      </trkpt>
      <trkpt lat="49.2015" lon="1.77958">
        <ele>113.09</ele>
        <time>2013-05-26T10:50:02Z</time>
      </trkpt>
      <trkpt lat="49.20143" lon="1.77887">
        <ele>113.57</ele>
        <time>2013-05-26T10:50:17Z</time>
      </trkpt>
      <trkpt lat="49.20141" lon="1.77838">
        <ele>114.53</ele>
        <time>2013-05-26T10:50:28Z</time>
      </trkpt>
      <trkpt lat="49.2014" lon="1.77772">
        <ele>115.98</ele>
        <time>2013-05-26T10:50:45Z</time>
      </trkpt>
      <trkpt lat="49.20138" lon="1.777">
        <ele>116.46</ele>
        <time>2013-05-26T10:51:02Z</time>
      </trkpt>
      <trkpt lat="49.20141" lon="1.77636">
        <ele>116.94</ele>
        <time>2013-05-26T10:51:18Z</time>
      </trkpt>
      <trkpt lat="49.20147" lon="1.77567">
        <ele>118.86</ele>
        <time>2013-05-26T10:51:34Z</time>
      </trkpt>
      <trkpt lat="49.20154" lon="1.77498">
        <ele>119.34</ele>
        <time>2013-05-26T10:51:51Z</time>
      </trkpt>
      <trkpt lat="49.20164" lon="1.77446">
        <ele>118.86</ele>
        <time>2013-05-26T10:52:03Z</time>
      </trkpt>
      <trkpt lat="49.20172" lon="1.77399">
        <ele>119.82</ele>
        <time>2013-05-26T10:52:14Z</time>
      </trkpt>
      <trkpt lat="49.20177" lon="1.77338">
        <ele>120.78</ele>
        <time>2013-05-26T10:52:27Z</time>
      </trkpt>
      <trkpt lat="49.20184" lon="1.77259">
        <ele>121.26</ele>
        <time>2013-05-26T10:52:43Z</time>
      </trkpt>
      <trkpt lat="49.20188" lon="1.7718">
        <ele>121.26</ele>
        <time>2013-05-26T10:53:01Z</time>
      </trkpt>
      <trkpt lat="49.202" lon="1.77117">
        <ele>121.26</ele>
        <time>2013-05-26T10:53:15Z</time>
      </trkpt>
      <trkpt lat="49.20209" lon="1.77068">
        <ele>121.74</ele>
        <time>2013-05-26T10:53:27Z</time>
      </trkpt>
      <trkpt lat="49.20216" lon="1.77023">
        <ele>122.22</ele>
        <time>2013-05-26T10:53:37Z</time>
      </trkpt>
      <trkpt lat="49.20217" lon="1.77015">
        <ele>122.71</ele>
        <time>2013-05-26T10:53:39Z</time>
      </trkpt>
      <trkpt lat="49.20217" lon="1.77009">
        <ele>121.74</ele>
        <time>2013-05-26T10:53:41Z</time>
      </trkpt>
      <trkpt lat="49.20217" lon="1.77006">
        <ele>122.71</ele>
        <time>2013-05-26T10:53:42Z</time>
      </trkpt>
      <trkpt lat="49.20218" lon="1.77002">
        <ele>121.74</ele>
        <time>2013-05-26T10:53:43Z</time>
      </trkpt>
      <trkpt lat="49.2022" lon="1.76949">
        <ele>121.26</ele>
        <time>2013-05-26T10:53:53Z</time>
      </trkpt>
      <trkpt lat="49.20229" lon="1.76871">
        <ele>121.74</ele>
        <time>2013-05-26T10:54:10Z</time>
      </trkpt>
      <trkpt lat="49.20231" lon="1.76865">
        <ele>122.71</ele>
        <time>2013-05-26T10:54:13Z</time>
      </trkpt>
      <trkpt lat="49.2023" lon="1.76861">
        <ele>122.22</ele>
        <time>2013-05-26T10:54:15Z</time>
      </trkpt>
      <trkpt lat="49.20228" lon="1.76859">
        <ele>122.22</ele>
        <time>2013-05-26T10:54:16Z</time>
      </trkpt>
      <trkpt lat="49.20226" lon="1.76848">
        <ele>122.22</ele>
        <time>2013-05-26T10:54:26Z</time>
      </trkpt>
      <trkpt lat="49.20227" lon="1.76845">
        <ele>121.74</ele>
        <time>2013-05-26T10:54:50Z</time>
      </trkpt>
      <trkpt lat="49.20227" lon="1.76844">
        <ele>121.74</ele>
        <time>2013-05-26T10:55:18Z</time>
      </trkpt>
      <trkpt lat="49.20227" lon="1.76844">
        <ele>122.22</ele>
        <time>2013-05-26T10:55:45Z</time>
      </trkpt>
      <trkpt lat="49.20228" lon="1.76844">
        <ele>122.71</ele>
        <time>2013-05-26T10:56:09Z</time>
      </trkpt>
      <trkpt lat="49.20227" lon="1.76845">
        <ele>122.22</ele>
        <time>2013-05-26T10:56:43Z</time>
      </trkpt>
      <trkpt lat="49.20229" lon="1.76839">
        <ele>121.74</ele>
        <time>2013-05-26T10:57:06Z</time>
      </trkpt>
      <trkpt lat="49.2023" lon="1.76837">
        <ele>121.74</ele>
        <time>2013-05-26T10:57:07Z</time>
      </trkpt>
      <trkpt lat="49.20231" lon="1.76835">
        <ele>122.22</ele>
        <time>2013-05-26T10:57:08Z</time>
      </trkpt>
      <trkpt lat="49.20233" lon="1.76832">
        <ele>122.22</ele>
        <time>2013-05-26T10:57:09Z</time>
      </trkpt>
      <trkpt lat="49.20235" lon="1.76828">
        <ele>121.26</ele>
        <time>2013-05-26T10:57:11Z</time>
      </trkpt>
      <trkpt lat="49.20237" lon="1.76825">
        <ele>121.74</ele>
        <time>2013-05-26T10:57:12Z</time>
      </trkpt>
      <trkpt lat="49.20238" lon="1.76822">
        <ele>121.74</ele>
        <time>2013-05-26T10:57:13Z</time>
      </trkpt>
      <trkpt lat="49.2024" lon="1.7682">
        <ele>121.74</ele>
        <time>2013-05-26T10:57:14Z</time>
      </trkpt>
      <trkpt lat="49.20242" lon="1.76816">
        <ele>121.74</ele>
        <time>2013-05-26T10:57:15Z</time>
      </trkpt>
      <trkpt lat="49.20243" lon="1.76813">
        <ele>121.74</ele>
        <time>2013-05-26T10:57:16Z</time>
      </trkpt>
      <trkpt lat="49.20245" lon="1.76811">
        <ele>120.78</ele>
        <time>2013-05-26T10:57:17Z</time>
      </trkpt>
      <trkpt lat="49.20249" lon="1.76784">
        <ele>121.26</ele>
        <time>2013-05-26T10:57:22Z</time>
      </trkpt>
      <trkpt lat="49.2025" lon="1.76778">
        <ele>121.74</ele>
        <time>2013-05-26T10:57:23Z</time>
      </trkpt>
      <trkpt lat="49.20251" lon="1.76772">
        <ele>121.74</ele>
        <time>2013-05-26T10:57:24Z</time>
      </trkpt>
      <trkpt lat="49.20252" lon="1.76766">
        <ele>121.26</ele>
        <time>2013-05-26T10:57:25Z</time>
      </trkpt>
      <trkpt lat="49.20253" lon="1.7676">
        <ele>121.26</ele>
        <time>2013-05-26T10:57:26Z</time>
      </trkpt>
      <trkpt lat="49.20254" lon="1.76754">
        <ele>121.26</ele>
        <time>2013-05-26T10:57:27Z</time>
      </trkpt>
      <trkpt lat="49.20255" lon="1.76749">
        <ele>120.78</ele>
        <time>2013-05-26T10:57:28Z</time>
      </trkpt>
      <trkpt lat="49.20256" lon="1.76744">
        <ele>121.26</ele>
        <time>2013-05-26T10:57:29Z</time>
      </trkpt>
      <trkpt lat="49.20256" lon="1.7674">
        <ele>121.26</ele>
        <time>2013-05-26T10:57:30Z</time>
      </trkpt>
      <trkpt lat="49.20257" lon="1.76736">
        <ele>121.74</ele>
        <time>2013-05-26T10:57:31Z</time>
      </trkpt>
      <trkpt lat="49.20271" lon="1.76671">
        <ele>120.78</ele>
        <time>2013-05-26T10:57:42Z</time>
      </trkpt>
      <trkpt lat="49.2028" lon="1.76603">
        <ele>120.3</ele>
        <time>2013-05-26T10:57:52Z</time>
      </trkpt>
      <trkpt lat="49.20292" lon="1.76542">
        <ele>120.3</ele>
        <time>2013-05-26T10:58:02Z</time>
      </trkpt>
      <trkpt lat="49.20306" lon="1.76475">
        <ele>117.9</ele>
        <time>2013-05-26T10:58:12Z</time>
      </trkpt>
      <trkpt lat="49.20308" lon="1.76469">
        <ele>117.42</ele>
        <time>2013-05-26T10:58:13Z</time>
      </trkpt>
      <trkpt lat="49.20309" lon="1.76464">
        <ele>117.9</ele>
        <time>2013-05-26T10:58:14Z</time>
      </trkpt>
      <trkpt lat="49.2031" lon="1.76459">
        <ele>117.42</ele>
        <time>2013-05-26T10:58:15Z</time>
      </trkpt>
      <trkpt lat="49.2031" lon="1.76455">
        <ele>117.9</ele>
        <time>2013-05-26T10:58:16Z</time>
      </trkpt>
      <trkpt lat="49.2031" lon="1.76452">
        <ele>117.42</ele>
        <time>2013-05-26T10:58:17Z</time>
      </trkpt>
      <trkpt lat="49.20308" lon="1.76448">
        <ele>117.42</ele>
        <time>2013-05-26T10:58:18Z</time>
      </trkpt>
      <trkpt lat="49.20286" lon="1.76417">
        <ele>114.05</ele>
        <time>2013-05-26T10:58:26Z</time>
      </trkpt>
      <trkpt lat="49.20281" lon="1.76413">
        <ele>114.05</ele>
        <time>2013-05-26T10:58:27Z</time>
      </trkpt>
      <trkpt lat="49.20251" lon="1.76382">
        <ele>110.69</ele>
        <time>2013-05-26T10:58:33Z</time>
      </trkpt>
      <trkpt lat="49.20234" lon="1.76367">
        <ele>108.77</ele>
        <time>2013-05-26T10:58:36Z</time>
      </trkpt>
      <trkpt lat="49.20229" lon="1.76362">
        <ele>108.29</ele>
        <time>2013-05-26T10:58:37Z</time>
      </trkpt>
      <trkpt lat="49.20224" lon="1.76358">
        <ele>107.81</ele>
        <time>2013-05-26T10:58:38Z</time>
      </trkpt>
      <trkpt lat="49.20219" lon="1.76354">
        <ele>106.84</ele>
        <time>2013-05-26T10:58:39Z</time>
      </trkpt>
      <trkpt lat="49.20214" lon="1.76349">
        <ele>107.32</ele>
        <time>2013-05-26T10:58:40Z</time>
      </trkpt>
      <trkpt lat="49.20194" lon="1.7633">
        <ele>105.88</ele>
        <time>2013-05-26T10:58:44Z</time>
      </trkpt>
      <trkpt lat="49.20184" lon="1.76322">
        <ele>104.92</ele>
        <time>2013-05-26T10:58:46Z</time>
      </trkpt>
      <trkpt lat="49.2018" lon="1.76319">
        <ele>104.44</ele>
        <time>2013-05-26T10:58:47Z</time>
      </trkpt>
      <trkpt lat="49.20176" lon="1.76317">
        <ele>104.92</ele>
        <time>2013-05-26T10:58:48Z</time>
      </trkpt>
      <trkpt lat="49.20172" lon="1.76314">
        <ele>103.96</ele>
        <time>2013-05-26T10:58:49Z</time>
      </trkpt>
      <trkpt lat="49.20168" lon="1.7631">
        <ele>104.92</ele>
        <time>2013-05-26T10:58:50Z</time>
      </trkpt>
      <trkpt lat="49.20164" lon="1.76306">
        <ele>103.96</ele>
        <time>2013-05-26T10:58:51Z</time>
      </trkpt>
      <trkpt lat="49.20159" lon="1.76299">
        <ele>104.44</ele>
        <time>2013-05-26T10:58:52Z</time>
      </trkpt>
      <trkpt lat="49.20154" lon="1.7629">
        <ele>103.48</ele>
        <time>2013-05-26T10:58:53Z</time>
      </trkpt>
      <trkpt lat="49.20148" lon="1.7628">
        <ele>104.92</ele>
        <time>2013-05-26T10:58:54Z</time>
      </trkpt>
      <trkpt lat="49.20108" lon="1.76218">
        <ele>101.56</ele>
        <time>2013-05-26T10:59:01Z</time>
      </trkpt>
      <trkpt lat="49.20089" lon="1.76181">
        <ele>101.56</ele>
        <time>2013-05-26T10:59:06Z</time>
      </trkpt>
      <trkpt lat="49.20078" lon="1.76149">
        <ele>100.11</ele>
        <time>2013-05-26T10:59:10Z</time>
      </trkpt>
      <trkpt lat="49.20077" lon="1.7614">
        <ele>99.63</ele>
        <time>2013-05-26T10:59:11Z</time>
      </trkpt>
      <trkpt lat="49.20074" lon="1.76122">
        <ele>98.67</ele>
        <time>2013-05-26T10:59:13Z</time>
      </trkpt>
      <trkpt lat="49.20074" lon="1.76112">
        <ele>99.63</ele>
        <time>2013-05-26T10:59:14Z</time>
      </trkpt>
      <trkpt lat="49.20075" lon="1.76103">
        <ele>98.19</ele>
        <time>2013-05-26T10:59:15Z</time>
      </trkpt>
      <trkpt lat="49.20078" lon="1.76094">
        <ele>97.23</ele>
        <time>2013-05-26T10:59:16Z</time>
      </trkpt>
      <trkpt lat="49.2008" lon="1.76085">
        <ele>97.23</ele>
        <time>2013-05-26T10:59:17Z</time>
      </trkpt>
      <trkpt lat="49.20084" lon="1.76075">
        <ele>97.71</ele>
        <time>2013-05-26T10:59:18Z</time>
      </trkpt>
      <trkpt lat="49.20097" lon="1.76035">
        <ele>94.83</ele>
        <time>2013-05-26T10:59:22Z</time>
      </trkpt>
      <trkpt lat="49.20099" lon="1.76025">
        <ele>93.87</ele>
        <time>2013-05-26T10:59:23Z</time>
      </trkpt>
      <trkpt lat="49.20102" lon="1.76016">
        <ele>94.35</ele>
        <time>2013-05-26T10:59:24Z</time>
      </trkpt>
      <trkpt lat="49.20106" lon="1.75997">
        <ele>90.98</ele>
        <time>2013-05-26T10:59:26Z</time>
      </trkpt>
      <trkpt lat="49.20108" lon="1.7599">
        <ele>90.02</ele>
        <time>2013-05-26T10:59:27Z</time>
      </trkpt>
      <trkpt lat="49.20112" lon="1.75984">
        <ele>88.58</ele>
        <time>2013-05-26T10:59:28Z</time>
      </trkpt>
      <trkpt lat="49.20116" lon="1.75979">
        <ele>89.06</ele>
        <time>2013-05-26T10:59:29Z</time>
      </trkpt>
      <trkpt lat="49.20121" lon="1.75976">
        <ele>88.1</ele>
        <time>2013-05-26T10:59:30Z</time>
      </trkpt>
      <trkpt lat="49.20126" lon="1.75974">
        <ele>87.62</ele>
        <time>2013-05-26T10:59:31Z</time>
      </trkpt>
      <trkpt lat="49.20131" lon="1.75974">
        <ele>87.62</ele>
        <time>2013-05-26T10:59:32Z</time>
      </trkpt>
      <trkpt lat="49.20137" lon="1.75975">
        <ele>87.14</ele>
        <time>2013-05-26T10:59:33Z</time>
      </trkpt>
      <trkpt lat="49.20143" lon="1.75978">
        <ele>86.66</ele>
        <time>2013-05-26T10:59:34Z</time>
      </trkpt>
      <trkpt lat="49.20149" lon="1.75981">
        <ele>85.69</ele>
        <time>2013-05-26T10:59:35Z</time>
      </trkpt>
      <trkpt lat="49.20178" lon="1.76003">
        <ele>84.25</ele>
        <time>2013-05-26T10:59:40Z</time>
      </trkpt>
      <trkpt lat="49.20194" lon="1.76016">
        <ele>83.29</ele>
        <time>2013-05-26T10:59:44Z</time>
      </trkpt>
      <trkpt lat="49.20198" lon="1.76014">
        <ele>81.85</ele>
        <time>2013-05-26T10:59:45Z</time>
      </trkpt>
      <trkpt lat="49.20201" lon="1.76011">
        <ele>82.33</ele>
        <time>2013-05-26T10:59:46Z</time>
      </trkpt>
      <trkpt lat="49.20203" lon="1.76006">
        <ele>81.37</ele>
        <time>2013-05-26T10:59:47Z</time>
      </trkpt>
      <trkpt lat="49.20204" lon="1.75999">
        <ele>82.33</ele>
        <time>2013-05-26T10:59:48Z</time>
      </trkpt>
      <trkpt lat="49.20204" lon="1.75993">
        <ele>80.41</ele>
        <time>2013-05-26T10:59:49Z</time>
      </trkpt>
      <trkpt lat="49.20204" lon="1.75987">
        <ele>81.85</ele>
        <time>2013-05-26T10:59:50Z</time>
      </trkpt>
      <trkpt lat="49.20204" lon="1.75972">
        <ele>81.37</ele>
        <time>2013-05-26T10:59:52Z</time>
      </trkpt>
      <trkpt lat="49.20204" lon="1.75959">
        <ele>78</ele>
        <time>2013-05-26T10:59:54Z</time>
      </trkpt>
      <trkpt lat="49.20204" lon="1.75954">
        <ele>80.89</ele>
        <time>2013-05-26T10:59:55Z</time>
      </trkpt>
      <trkpt lat="49.20205" lon="1.7595">
        <ele>80.89</ele>
        <time>2013-05-26T10:59:56Z</time>
      </trkpt>
      <trkpt lat="49.20204" lon="1.75946">
        <ele>79.93</ele>
        <time>2013-05-26T10:59:57Z</time>
      </trkpt>
      <trkpt lat="49.20204" lon="1.75943">
        <ele>79.93</ele>
        <time>2013-05-26T10:59:58Z</time>
      </trkpt>
      <trkpt lat="49.20204" lon="1.7594">
        <ele>79.93</ele>
        <time>2013-05-26T10:59:59Z</time>
      </trkpt>
      <trkpt lat="49.20203" lon="1.75936">
        <ele>79.93</ele>
        <time>2013-05-26T11:00:00Z</time>
      </trkpt>
      <trkpt lat="49.20202" lon="1.75933">
        <ele>79.93</ele>
        <time>2013-05-26T11:00:01Z</time>
      </trkpt>
      <trkpt lat="49.20202" lon="1.75929">
        <ele>79.45</ele>
        <time>2013-05-26T11:00:02Z</time>
      </trkpt>
      <trkpt lat="49.20202" lon="1.75925">
        <ele>79.93</ele>
        <time>2013-05-26T11:00:03Z</time>
      </trkpt>
      <trkpt lat="49.20208" lon="1.7585">
        <ele>78.97</ele>
        <time>2013-05-26T11:00:14Z</time>
      </trkpt>
      <trkpt lat="49.20212" lon="1.75741">
        <ele>79.93</ele>
        <time>2013-05-26T11:00:32Z</time>
      </trkpt>
      <trkpt lat="49.20216" lon="1.75652">
        <ele>81.85</ele>
        <time>2013-05-26T11:00:47Z</time>
      </trkpt>
      <trkpt lat="49.20216" lon="1.75628">
        <ele>81.37</ele>
        <time>2013-05-26T11:00:51Z</time>
      </trkpt>
      <trkpt lat="49.20216" lon="1.75622">
        <ele>81.37</ele>
        <time>2013-05-26T11:00:52Z</time>
      </trkpt>
      <trkpt lat="49.20216" lon="1.75602">
        <ele>81.85</ele>
        <time>2013-05-26T11:00:55Z</time>
      </trkpt>
      <trkpt lat="49.20216" lon="1.75595">
        <ele>81.37</ele>
        <time>2013-05-26T11:00:56Z</time>
      </trkpt>
      <trkpt lat="49.20215" lon="1.75589">
        <ele>81.85</ele>
        <time>2013-05-26T11:00:57Z</time>
      </trkpt>
      <trkpt lat="49.20215" lon="1.75582">
        <ele>82.33</ele>
        <time>2013-05-26T11:00:58Z</time>
      </trkpt>
      <trkpt lat="49.20213" lon="1.75576">
        <ele>81.85</ele>
        <time>2013-05-26T11:00:59Z</time>
      </trkpt>
      <trkpt lat="49.20211" lon="1.75571">
        <ele>81.85</ele>
        <time>2013-05-26T11:01:00Z</time>
      </trkpt>
      <trkpt lat="49.20181" lon="1.75542">
        <ele>83.29</ele>
        <time>2013-05-26T11:01:10Z</time>
      </trkpt>
      <trkpt lat="49.20147" lon="1.7551">
        <ele>83.29</ele>
        <time>2013-05-26T11:01:23Z</time>
      </trkpt>
      <trkpt lat="49.20147" lon="1.75504">
        <ele>83.29</ele>
        <time>2013-05-26T11:01:24Z</time>
      </trkpt>
      <trkpt lat="49.20147" lon="1.75497">
        <ele>83.77</ele>
        <time>2013-05-26T11:01:25Z</time>
      </trkpt>
      <trkpt lat="49.20147" lon="1.7549">
        <ele>82.33</ele>
        <time>2013-05-26T11:01:26Z</time>
      </trkpt>
      <trkpt lat="49.20148" lon="1.75483">
        <ele>83.29</ele>
        <time>2013-05-26T11:01:27Z</time>
      </trkpt>
      <trkpt lat="49.20159" lon="1.75383">
        <ele>82.81</ele>
        <time>2013-05-26T11:01:42Z</time>
      </trkpt>
      <trkpt lat="49.20171" lon="1.75296">
        <ele>83.29</ele>
        <time>2013-05-26T11:01:54Z</time>
      </trkpt>
      <trkpt lat="49.20172" lon="1.75289">
        <ele>81.85</ele>
        <time>2013-05-26T11:01:55Z</time>
      </trkpt>
      <trkpt lat="49.20183" lon="1.75188">
        <ele>82.81</ele>
        <time>2013-05-26T11:02:10Z</time>
      </trkpt>
      <trkpt lat="49.20185" lon="1.75049">
        <ele>81.37</ele>
        <time>2013-05-26T11:02:29Z</time>
      </trkpt>
      <trkpt lat="49.20174" lon="1.74942">
        <ele>81.85</ele>
        <time>2013-05-26T11:02:43Z</time>
      </trkpt>
      <trkpt lat="49.20176" lon="1.74919">
        <ele>81.37</ele>
        <time>2013-05-26T11:02:46Z</time>
      </trkpt>
      <trkpt lat="49.20181" lon="1.74898">
        <ele>81.37</ele>
        <time>2013-05-26T11:02:49Z</time>
      </trkpt>
      <trkpt lat="49.20207" lon="1.74805">
        <ele>82.33</ele>
        <time>2013-05-26T11:03:03Z</time>
      </trkpt>
      <trkpt lat="49.20234" lon="1.74702">
        <ele>82.33</ele>
        <time>2013-05-26T11:03:19Z</time>
      </trkpt>
      <trkpt lat="49.20272" lon="1.74553">
        <ele>80.41</ele>
        <time>2013-05-26T11:03:39Z</time>
      </trkpt>
      <trkpt lat="49.20305" lon="1.74427">
        <ele>77.04</ele>
        <time>2013-05-26T11:03:54Z</time>
      </trkpt>
      <trkpt lat="49.20351" lon="1.74298">
        <ele>75.12</ele>
        <time>2013-05-26T11:04:10Z</time>
      </trkpt>
      <trkpt lat="49.20413" lon="1.74202">
        <ele>74.64</ele>
        <time>2013-05-26T11:04:26Z</time>
      </trkpt>
      <trkpt lat="49.20481" lon="1.74116">
        <ele>72.72</ele>
        <time>2013-05-26T11:04:43Z</time>
      </trkpt>
      <trkpt lat="49.20488" lon="1.74106">
        <ele>72.72</ele>
        <time>2013-05-26T11:04:45Z</time>
      </trkpt>
      <trkpt lat="49.2049" lon="1.741">
        <ele>73.68</ele>
        <time>2013-05-26T11:04:46Z</time>
      </trkpt>
      <trkpt lat="49.20491" lon="1.74095">
        <ele>73.2</ele>
        <time>2013-05-26T11:04:47Z</time>
      </trkpt>
      <trkpt lat="49.20491" lon="1.74089">
        <ele>72.24</ele>
        <time>2013-05-26T11:04:48Z</time>
      </trkpt>
      <trkpt lat="49.20491" lon="1.74084">
        <ele>72.72</ele>
        <time>2013-05-26T11:04:49Z</time>
      </trkpt>
      <trkpt lat="49.20472" lon="1.74032">
        <ele>73.68</ele>
        <time>2013-05-26T11:05:00Z</time>
      </trkpt>
      <trkpt lat="49.20444" lon="1.73962">
        <ele>72.24</ele>
        <time>2013-05-26T11:05:14Z</time>
      </trkpt>
      <trkpt lat="49.20437" lon="1.73936">
        <ele>73.2</ele>
        <time>2013-05-26T11:05:25Z</time>
      </trkpt>
      <trkpt lat="49.20436" lon="1.73935">
        <ele>72.72</ele>
        <time>2013-05-26T11:05:53Z</time>
      </trkpt>
      <trkpt lat="49.20437" lon="1.73934">
        <ele>72.72</ele>
        <time>2013-05-26T11:06:25Z</time>
      </trkpt>
      <trkpt lat="49.20439" lon="1.73934">
        <ele>73.2</ele>
        <time>2013-05-26T11:06:26Z</time>
      </trkpt>
      <trkpt lat="49.20441" lon="1.73935">
        <ele>72.72</ele>
        <time>2013-05-26T11:06:27Z</time>
      </trkpt>
      <trkpt lat="49.20443" lon="1.73937">
        <ele>72.72</ele>
        <time>2013-05-26T11:06:28Z</time>
      </trkpt>
      <trkpt lat="49.20445" lon="1.73939">
        <ele>72.72</ele>
        <time>2013-05-26T11:06:29Z</time>
      </trkpt>
      <trkpt lat="49.20477" lon="1.73986">
        <ele>72.72</ele>
        <time>2013-05-26T11:06:42Z</time>
      </trkpt>
      <trkpt lat="49.20522" lon="1.74048">
        <ele>73.68</ele>
        <time>2013-05-26T11:06:58Z</time>
      </trkpt>
      <trkpt lat="49.20564" lon="1.7411">
        <ele>76.08</ele>
        <time>2013-05-26T11:07:15Z</time>
      </trkpt>
      <trkpt lat="49.20568" lon="1.74117">
        <ele>77.04</ele>
        <time>2013-05-26T11:07:17Z</time>
      </trkpt>
      <trkpt lat="49.20597" lon="1.74157">
        <ele>78.48</ele>
        <time>2013-05-26T11:07:32Z</time>
      </trkpt>
      <trkpt lat="49.20614" lon="1.74185">
        <ele>81.85</ele>
        <time>2013-05-26T11:07:41Z</time>
      </trkpt>
      <trkpt lat="49.20618" lon="1.7419">
        <ele>81.85</ele>
        <time>2013-05-26T11:07:43Z</time>
      </trkpt>
      <trkpt lat="49.20645" lon="1.74231">
        <ele>84.25</ele>
        <time>2013-05-26T11:07:58Z</time>
      </trkpt>
      <trkpt lat="49.20672" lon="1.7427">
        <ele>86.66</ele>
        <time>2013-05-26T11:08:14Z</time>
      </trkpt>
      <trkpt lat="49.20699" lon="1.74307">
        <ele>89.06</ele>
        <time>2013-05-26T11:08:30Z</time>
      </trkpt>
      <trkpt lat="49.20722" lon="1.74342">
        <ele>91.46</ele>
        <time>2013-05-26T11:08:44Z</time>
      </trkpt>
      <trkpt lat="49.20736" lon="1.74355">
        <ele>92.9</ele>
        <time>2013-05-26T11:08:52Z</time>
      </trkpt>
      <trkpt lat="49.20738" lon="1.74353">
        <ele>93.39</ele>
        <time>2013-05-26T11:08:53Z</time>
      </trkpt>
      <trkpt lat="49.2074" lon="1.7435">
        <ele>93.87</ele>
        <time>2013-05-26T11:08:54Z</time>
      </trkpt>
      <trkpt lat="49.20741" lon="1.74347">
        <ele>93.87</ele>
        <time>2013-05-26T11:08:55Z</time>
      </trkpt>
      <trkpt lat="49.20741" lon="1.74343">
        <ele>93.87</ele>
        <time>2013-05-26T11:08:56Z</time>
      </trkpt>
      <trkpt lat="49.20741" lon="1.7434">
        <ele>93.87</ele>
        <time>2013-05-26T11:08:57Z</time>
      </trkpt>
      <trkpt lat="49.2074" lon="1.74275">
        <ele>95.31</ele>
        <time>2013-05-26T11:09:11Z</time>
      </trkpt>
      <trkpt lat="49.20736" lon="1.74206">
        <ele>96.27</ele>
        <time>2013-05-26T11:09:26Z</time>
      </trkpt>
      <trkpt lat="49.20728" lon="1.74136">
        <ele>94.83</ele>
        <time>2013-05-26T11:09:39Z</time>
      </trkpt>
      <trkpt lat="49.20729" lon="1.74131">
        <ele>94.83</ele>
        <time>2013-05-26T11:09:40Z</time>
      </trkpt>
      <trkpt lat="49.20731" lon="1.74127">
        <ele>95.31</ele>
        <time>2013-05-26T11:09:41Z</time>
      </trkpt>
      <trkpt lat="49.20733" lon="1.74124">
        <ele>96.27</ele>
        <time>2013-05-26T11:09:42Z</time>
      </trkpt>
      <trkpt lat="49.20735" lon="1.74122">
        <ele>96.27</ele>
        <time>2013-05-26T11:09:43Z</time>
      </trkpt>
      <trkpt lat="49.20749" lon="1.74096">
        <ele>99.63</ele>
        <time>2013-05-26T11:09:56Z</time>
      </trkpt>
      <trkpt lat="49.20756" lon="1.74069">
        <ele>102.52</ele>
        <time>2013-05-26T11:10:09Z</time>
      </trkpt>
      <trkpt lat="49.20758" lon="1.74066">
        <ele>101.56</ele>
        <time>2013-05-26T11:10:11Z</time>
      </trkpt>
      <trkpt lat="49.20767" lon="1.74054">
        <ele>104.92</ele>
        <time>2013-05-26T11:10:21Z</time>
      </trkpt>
      <trkpt lat="49.20776" lon="1.74046">
        <ele>107.32</ele>
        <time>2013-05-26T11:10:29Z</time>
      </trkpt>
      <trkpt lat="49.20777" lon="1.74045">
        <ele>107.32</ele>
        <time>2013-05-26T11:10:30Z</time>
      </trkpt>
      <trkpt lat="49.20778" lon="1.74045">
        <ele>107.32</ele>
        <time>2013-05-26T11:10:31Z</time>
      </trkpt>
      <trkpt lat="49.20779" lon="1.74043">
        <ele>108.29</ele>
        <time>2013-05-26T11:10:32Z</time>
      </trkpt>
      <trkpt lat="49.2078" lon="1.74042">
        <ele>107.32</ele>
        <time>2013-05-26T11:10:33Z</time>
      </trkpt>
      <trkpt lat="49.20781" lon="1.7404">
        <ele>107.32</ele>
        <time>2013-05-26T11:10:34Z</time>
      </trkpt>
      <trkpt lat="49.20782" lon="1.74039">
        <ele>108.29</ele>
        <time>2013-05-26T11:10:35Z</time>
      </trkpt>
      <trkpt lat="49.20783" lon="1.74037">
        <ele>108.29</ele>
        <time>2013-05-26T11:10:36Z</time>
      </trkpt>
      <trkpt lat="49.20784" lon="1.74036">
        <ele>108.29</ele>
        <time>2013-05-26T11:10:37Z</time>
      </trkpt>
      <trkpt lat="49.20784" lon="1.74033">
        <ele>107.81</ele>
        <time>2013-05-26T11:10:38Z</time>
      </trkpt>
      <trkpt lat="49.20785" lon="1.74032">
        <ele>108.77</ele>
        <time>2013-05-26T11:10:39Z</time>
      </trkpt>
      <trkpt lat="49.20785" lon="1.74029">
        <ele>108.77</ele>
        <time>2013-05-26T11:10:40Z</time>
      </trkpt>
      <trkpt lat="49.20786" lon="1.74005">
        <ele>112.13</ele>
        <time>2013-05-26T11:10:52Z</time>
      </trkpt>
      <trkpt lat="49.20788" lon="1.73966">
        <ele>114.05</ele>
        <time>2013-05-26T11:11:10Z</time>
      </trkpt>
      <trkpt lat="49.20788" lon="1.73955">
        <ele>114.53</ele>
        <time>2013-05-26T11:11:15Z</time>
      </trkpt>
      <trkpt lat="49.20788" lon="1.73953">
        <ele>115.5</ele>
        <time>2013-05-26T11:11:16Z</time>
      </trkpt>
      <trkpt lat="49.20787" lon="1.7395">
        <ele>114.53</ele>
        <time>2013-05-26T11:11:17Z</time>
      </trkpt>
      <trkpt lat="49.20784" lon="1.73908">
        <ele>115.5</ele>
        <time>2013-05-26T11:11:33Z</time>
      </trkpt>
      <trkpt lat="49.20782" lon="1.73857">
        <ele>116.94</ele>
        <time>2013-05-26T11:11:49Z</time>
      </trkpt>
      <trkpt lat="49.20781" lon="1.738">
        <ele>117.42</ele>
        <time>2013-05-26T11:12:06Z</time>
      </trkpt>
      <trkpt lat="49.2078" lon="1.73747">
        <ele>117.42</ele>
        <time>2013-05-26T11:12:23Z</time>
      </trkpt>
      <trkpt lat="49.2078" lon="1.73699">
        <ele>119.34</ele>
        <time>2013-05-26T11:12:39Z</time>
      </trkpt>
      <trkpt lat="49.20774" lon="1.73644">
        <ele>119.82</ele>
        <time>2013-05-26T11:12:57Z</time>
      </trkpt>
      <trkpt lat="49.20769" lon="1.73586">
        <ele>121.26</ele>
        <time>2013-05-26T11:13:15Z</time>
      </trkpt>
      <trkpt lat="49.20764" lon="1.73532">
        <ele>122.22</ele>
        <time>2013-05-26T11:13:30Z</time>
      </trkpt>
      <trkpt lat="49.20745" lon="1.73454">
        <ele>122.22</ele>
        <time>2013-05-26T11:13:46Z</time>
      </trkpt>
      <trkpt lat="49.20736" lon="1.73381">
        <ele>123.67</ele>
        <time>2013-05-26T11:14:01Z</time>
      </trkpt>
      <trkpt lat="49.20733" lon="1.73339">
        <ele>124.63</ele>
        <time>2013-05-26T11:14:16Z</time>
      </trkpt>
      <trkpt lat="49.20732" lon="1.7334">
        <ele>125.59</ele>
        <time>2013-05-26T11:14:33Z</time>
      </trkpt>
      <trkpt lat="49.20732" lon="1.73339">
        <ele>125.11</ele>
        <time>2013-05-26T11:15:04Z</time>
      </trkpt>
      <trkpt lat="49.20733" lon="1.73337">
        <ele>124.63</ele>
        <time>2013-05-26T11:15:05Z</time>
      </trkpt>
      <trkpt lat="49.20734" lon="1.73332">
        <ele>124.63</ele>
        <time>2013-05-26T11:15:07Z</time>
      </trkpt>
      <trkpt lat="49.20734" lon="1.73326">
        <ele>125.11</ele>
        <time>2013-05-26T11:15:09Z</time>
      </trkpt>
      <trkpt lat="49.20734" lon="1.73322">
        <ele>125.11</ele>
        <time>2013-05-26T11:15:10Z</time>
      </trkpt>
      <trkpt lat="49.20735" lon="1.73319">
        <ele>125.11</ele>
        <time>2013-05-26T11:15:11Z</time>
      </trkpt>
      <trkpt lat="49.20736" lon="1.73315">
        <ele>125.11</ele>
        <time>2013-05-26T11:15:12Z</time>
      </trkpt>
      <trkpt lat="49.20736" lon="1.73312">
        <ele>125.11</ele>
        <time>2013-05-26T11:15:13Z</time>
      </trkpt>
      <trkpt lat="49.20753" lon="1.7326">
        <ele>127.03</ele>
        <time>2013-05-26T11:15:29Z</time>
      </trkpt>
      <trkpt lat="49.20775" lon="1.73206">
        <ele>129.43</ele>
        <time>2013-05-26T11:15:47Z</time>
      </trkpt>
      <trkpt lat="49.20794" lon="1.73153">
        <ele>130.88</ele>
        <time>2013-05-26T11:16:03Z</time>
      </trkpt>
      <trkpt lat="49.20817" lon="1.73126">
        <ele>133.28</ele>
        <time>2013-05-26T11:16:17Z</time>
      </trkpt>
      <trkpt lat="49.20843" lon="1.73113">
        <ele>133.76</ele>
        <time>2013-05-26T11:16:32Z</time>
      </trkpt>
      <trkpt lat="49.20862" lon="1.73097">
        <ele>135.2</ele>
        <time>2013-05-26T11:16:47Z</time>
      </trkpt>
      <trkpt lat="49.20862" lon="1.73094">
        <ele>134.72</ele>
        <time>2013-05-26T11:17:02Z</time>
      </trkpt>
      <trkpt lat="49.20861" lon="1.73094">
        <ele>135.2</ele>
        <time>2013-05-26T11:17:21Z</time>
      </trkpt>
      <trkpt lat="49.20861" lon="1.73094">
        <ele>134.24</ele>
        <time>2013-05-26T11:17:41Z</time>
      </trkpt>
      <trkpt lat="49.20862" lon="1.73095">
        <ele>133.76</ele>
        <time>2013-05-26T11:18:04Z</time>
      </trkpt>
      <trkpt lat="49.20863" lon="1.73096">
        <ele>134.24</ele>
        <time>2013-05-26T11:18:35Z</time>
      </trkpt>
      <trkpt lat="49.20863" lon="1.73097">
        <ele>134.72</ele>
        <time>2013-05-26T11:19:14Z</time>
      </trkpt>
      <trkpt lat="49.20862" lon="1.73096">
        <ele>135.2</ele>
        <time>2013-05-26T11:19:48Z</time>
      </trkpt>
      <trkpt lat="49.20862" lon="1.73095">
        <ele>135.2</ele>
        <time>2013-05-26T11:20:05Z</time>
      </trkpt>
      <trkpt lat="49.20862" lon="1.73095">
        <ele>134.72</ele>
        <time>2013-05-26T11:20:30Z</time>
      </trkpt>
      <trkpt lat="49.20862" lon="1.73094">
        <ele>134.72</ele>
        <time>2013-05-26T11:20:52Z</time>
      </trkpt>
      <trkpt lat="49.20862" lon="1.73094">
        <ele>135.2</ele>
        <time>2013-05-26T11:21:26Z</time>
      </trkpt>
      <trkpt lat="49.20861" lon="1.73094">
        <ele>135.2</ele>
        <time>2013-05-26T11:21:50Z</time>
      </trkpt>
      <trkpt lat="49.2086" lon="1.73093">
        <ele>135.2</ele>
        <time>2013-05-26T11:21:55Z</time>
      </trkpt>
      <trkpt lat="49.20859" lon="1.73091">
        <ele>135.68</ele>
        <time>2013-05-26T11:21:56Z</time>
      </trkpt>
      <trkpt lat="49.20857" lon="1.73089">
        <ele>134.72</ele>
        <time>2013-05-26T11:21:57Z</time>
      </trkpt>
      <trkpt lat="49.20856" lon="1.73087">
        <ele>135.2</ele>
        <time>2013-05-26T11:21:58Z</time>
      </trkpt>
      <trkpt lat="49.20855" lon="1.73085">
        <ele>134.72</ele>
        <time>2013-05-26T11:21:59Z</time>
      </trkpt>
      <trkpt lat="49.20853" lon="1.73082">
        <ele>134.72</ele>
        <time>2013-05-26T11:22:00Z</time>
      </trkpt>
      <trkpt lat="49.20842" lon="1.73061">
        <ele>134.24</ele>
        <time>2013-05-26T11:22:08Z</time>
      </trkpt>
      <trkpt lat="49.20841" lon="1.73058">
        <ele>134.24</ele>
        <time>2013-05-26T11:22:09Z</time>
      </trkpt>
      <trkpt lat="49.20842" lon="1.73055">
        <ele>133.76</ele>
        <time>2013-05-26T11:22:10Z</time>
      </trkpt>
      <trkpt lat="49.20842" lon="1.73053">
        <ele>133.76</ele>
        <time>2013-05-26T11:22:11Z</time>
      </trkpt>
      <trkpt lat="49.20843" lon="1.7305">
        <ele>133.76</ele>
        <time>2013-05-26T11:22:12Z</time>
      </trkpt>
      <trkpt lat="49.20845" lon="1.73047">
        <ele>134.24</ele>
        <time>2013-05-26T11:22:13Z</time>
      </trkpt>
      <trkpt lat="49.20846" lon="1.73044">
        <ele>133.76</ele>
        <time>2013-05-26T11:22:14Z</time>
      </trkpt>
      <trkpt lat="49.20855" lon="1.73007">
        <ele>134.24</ele>
        <time>2013-05-26T11:22:25Z</time>
      </trkpt>
      <trkpt lat="49.20862" lon="1.72979">
        <ele>134.24</ele>
        <time>2013-05-26T11:22:32Z</time>
      </trkpt>
      <trkpt lat="49.20864" lon="1.72975">
        <ele>134.24</ele>
        <time>2013-05-26T11:22:33Z</time>
      </trkpt>
      <trkpt lat="49.20865" lon="1.7297">
        <ele>134.24</ele>
        <time>2013-05-26T11:22:34Z</time>
      </trkpt>
      <trkpt lat="49.20873" lon="1.72933">
        <ele>134.72</ele>
        <time>2013-05-26T11:22:43Z</time>
      </trkpt>
      <trkpt lat="49.20875" lon="1.72929">
        <ele>134.72</ele>
        <time>2013-05-26T11:22:44Z</time>
      </trkpt>
      <trkpt lat="49.20877" lon="1.72925">
        <ele>134.24</ele>
        <time>2013-05-26T11:22:45Z</time>
      </trkpt>
      <trkpt lat="49.20881" lon="1.7291">
        <ele>135.2</ele>
        <time>2013-05-26T11:22:49Z</time>
      </trkpt>
      <trkpt lat="49.20884" lon="1.72906">
        <ele>134.72</ele>
        <time>2013-05-26T11:22:50Z</time>
      </trkpt>
      <trkpt lat="49.20886" lon="1.72904">
        <ele>135.68</ele>
        <time>2013-05-26T11:22:51Z</time>
      </trkpt>
      <trkpt lat="49.20888" lon="1.72901">
        <ele>135.2</ele>
        <time>2013-05-26T11:22:52Z</time>
      </trkpt>
      <trkpt lat="49.2089" lon="1.72899">
        <ele>136.16</ele>
        <time>2013-05-26T11:22:53Z</time>
      </trkpt>
      <trkpt lat="49.2089" lon="1.72894">
        <ele>135.68</ele>
        <time>2013-05-26T11:22:54Z</time>
      </trkpt>
      <trkpt lat="49.2089" lon="1.72889">
        <ele>135.68</ele>
        <time>2013-05-26T11:22:55Z</time>
      </trkpt>
      <trkpt lat="49.2089" lon="1.72883">
        <ele>135.68</ele>
        <time>2013-05-26T11:22:56Z</time>
      </trkpt>
      <trkpt lat="49.2089" lon="1.72878">
        <ele>136.16</ele>
        <time>2013-05-26T11:22:57Z</time>
      </trkpt>
      <trkpt lat="49.20891" lon="1.72873">
        <ele>136.16</ele>
        <time>2013-05-26T11:22:58Z</time>
      </trkpt>
      <trkpt lat="49.20891" lon="1.72868">
        <ele>136.16</ele>
        <time>2013-05-26T11:22:59Z</time>
      </trkpt>
      <trkpt lat="49.20891" lon="1.72862">
        <ele>136.64</ele>
        <time>2013-05-26T11:23:00Z</time>
      </trkpt>
      <trkpt lat="49.20891" lon="1.72857">
        <ele>136.16</ele>
        <time>2013-05-26T11:23:01Z</time>
      </trkpt>
      <trkpt lat="49.20892" lon="1.72852">
        <ele>136.64</ele>
        <time>2013-05-26T11:23:02Z</time>
      </trkpt>
      <trkpt lat="49.20892" lon="1.72847">
        <ele>136.16</ele>
        <time>2013-05-26T11:23:03Z</time>
      </trkpt>
      <trkpt lat="49.20892" lon="1.72844">
        <ele>136.16</ele>
        <time>2013-05-26T11:23:04Z</time>
      </trkpt>
      <trkpt lat="49.20897" lon="1.72817">
        <ele>136.64</ele>
        <time>2013-05-26T11:23:13Z</time>
      </trkpt>
      <trkpt lat="49.20897" lon="1.72814">
        <ele>136.64</ele>
        <time>2013-05-26T11:23:14Z</time>
      </trkpt>
      <trkpt lat="49.20897" lon="1.72811">
        <ele>137.13</ele>
        <time>2013-05-26T11:23:15Z</time>
      </trkpt>
      <trkpt lat="49.20898" lon="1.72809">
        <ele>137.13</ele>
        <time>2013-05-26T11:23:16Z</time>
      </trkpt>
      <trkpt lat="49.20899" lon="1.72806">
        <ele>136.64</ele>
        <time>2013-05-26T11:23:17Z</time>
      </trkpt>
      <trkpt lat="49.209" lon="1.72803">
        <ele>137.61</ele>
        <time>2013-05-26T11:23:18Z</time>
      </trkpt>
      <trkpt lat="49.20902" lon="1.72798">
        <ele>137.13</ele>
        <time>2013-05-26T11:23:20Z</time>
      </trkpt>
      <trkpt lat="49.20904" lon="1.72796">
        <ele>136.64</ele>
        <time>2013-05-26T11:23:21Z</time>
      </trkpt>
      <trkpt lat="49.20905" lon="1.72795">
        <ele>138.57</ele>
        <time>2013-05-26T11:23:22Z</time>
      </trkpt>
      <trkpt lat="49.20906" lon="1.72793">
        <ele>137.13</ele>
        <time>2013-05-26T11:23:23Z</time>
      </trkpt>
      <trkpt lat="49.20913" lon="1.72781">
        <ele>137.61</ele>
        <time>2013-05-26T11:23:30Z</time>
      </trkpt>
      <trkpt lat="49.20913" lon="1.72777">
        <ele>136.64</ele>
        <time>2013-05-26T11:23:31Z</time>
      </trkpt>
      <trkpt lat="49.20914" lon="1.72772">
        <ele>137.61</ele>
        <time>2013-05-26T11:23:32Z</time>
      </trkpt>
      <trkpt lat="49.20915" lon="1.72766">
        <ele>137.13</ele>
        <time>2013-05-26T11:23:33Z</time>
      </trkpt>
      <trkpt lat="49.20915" lon="1.72761">
        <ele>138.09</ele>
        <time>2013-05-26T11:23:34Z</time>
      </trkpt>
      <trkpt lat="49.20915" lon="1.72757">
        <ele>137.61</ele>
        <time>2013-05-26T11:23:35Z</time>
      </trkpt>
      <trkpt lat="49.20915" lon="1.72751">
        <ele>137.61</ele>
        <time>2013-05-26T11:23:36Z</time>
      </trkpt>
      <trkpt lat="49.20914" lon="1.72747">
        <ele>137.61</ele>
        <time>2013-05-26T11:23:37Z</time>
      </trkpt>
      <trkpt lat="49.20915" lon="1.72743">
        <ele>137.61</ele>
        <time>2013-05-26T11:23:38Z</time>
      </trkpt>
      <trkpt lat="49.20914" lon="1.72739">
        <ele>137.61</ele>
        <time>2013-05-26T11:23:39Z</time>
      </trkpt>
      <trkpt lat="49.20913" lon="1.72723">
        <ele>137.61</ele>
        <time>2013-05-26T11:23:43Z</time>
      </trkpt>
      <trkpt lat="49.20914" lon="1.72718">
        <ele>137.61</ele>
        <time>2013-05-26T11:23:44Z</time>
      </trkpt>
      <trkpt lat="49.20915" lon="1.72714">
        <ele>138.09</ele>
        <time>2013-05-26T11:23:45Z</time>
      </trkpt>
      <trkpt lat="49.20916" lon="1.72711">
        <ele>137.61</ele>
        <time>2013-05-26T11:23:46Z</time>
      </trkpt>
      <trkpt lat="49.20918" lon="1.72708">
        <ele>137.61</ele>
        <time>2013-05-26T11:23:47Z</time>
      </trkpt>
      <trkpt lat="49.2092" lon="1.72705">
        <ele>138.09</ele>
        <time>2013-05-26T11:23:48Z</time>
      </trkpt>
      <trkpt lat="49.20923" lon="1.72659">
        <ele>138.57</ele>
        <time>2013-05-26T11:23:59Z</time>
      </trkpt>
      <trkpt lat="49.20923" lon="1.72652">
        <ele>138.57</ele>
        <time>2013-05-26T11:24:01Z</time>
      </trkpt>
      <trkpt lat="49.20923" lon="1.72648">
        <ele>138.57</ele>
        <time>2013-05-26T11:24:02Z</time>
      </trkpt>
      <trkpt lat="49.20923" lon="1.72639">
        <ele>138.09</ele>
        <time>2013-05-26T11:24:04Z</time>
      </trkpt>
      <trkpt lat="49.20922" lon="1.72633">
        <ele>138.57</ele>
        <time>2013-05-26T11:24:05Z</time>
      </trkpt>
      <trkpt lat="49.20923" lon="1.7263">
        <ele>138.09</ele>
        <time>2013-05-26T11:24:06Z</time>
      </trkpt>
      <trkpt lat="49.20923" lon="1.72625">
        <ele>139.05</ele>
        <time>2013-05-26T11:24:07Z</time>
      </trkpt>
      <trkpt lat="49.20924" lon="1.72621">
        <ele>138.57</ele>
        <time>2013-05-26T11:24:08Z</time>
      </trkpt>
      <trkpt lat="49.20926" lon="1.72617">
        <ele>138.57</ele>
        <time>2013-05-26T11:24:09Z</time>
      </trkpt>
      <trkpt lat="49.20927" lon="1.72612">
        <ele>138.57</ele>
        <time>2013-05-26T11:24:10Z</time>
      </trkpt>
      <trkpt lat="49.20928" lon="1.72606">
        <ele>138.09</ele>
        <time>2013-05-26T11:24:11Z</time>
      </trkpt>
      <trkpt lat="49.20928" lon="1.72601">
        <ele>138.57</ele>
        <time>2013-05-26T11:24:12Z</time>
      </trkpt>
      <trkpt lat="49.20928" lon="1.72591">
        <ele>138.57</ele>
        <time>2013-05-26T11:24:14Z</time>
      </trkpt>
      <trkpt lat="49.20929" lon="1.72587">
        <ele>137.61</ele>
        <time>2013-05-26T11:24:15Z</time>
      </trkpt>
      <trkpt lat="49.20931" lon="1.72584">
        <ele>138.57</ele>
        <time>2013-05-26T11:24:16Z</time>
      </trkpt>
      <trkpt lat="49.20931" lon="1.72579">
        <ele>137.61</ele>
        <time>2013-05-26T11:24:17Z</time>
      </trkpt>
      <trkpt lat="49.2093" lon="1.72576">
        <ele>138.57</ele>
        <time>2013-05-26T11:24:18Z</time>
      </trkpt>
      <trkpt lat="49.20932" lon="1.72572">
        <ele>138.09</ele>
        <time>2013-05-26T11:24:19Z</time>
      </trkpt>
      <trkpt lat="49.20932" lon="1.72568">
        <ele>138.09</ele>
        <time>2013-05-26T11:24:20Z</time>
      </trkpt>
      <trkpt lat="49.20932" lon="1.72564">
        <ele>139.05</ele>
        <time>2013-05-26T11:24:21Z</time>
      </trkpt>
      <trkpt lat="49.20932" lon="1.72558">
        <ele>137.61</ele>
        <time>2013-05-26T11:24:22Z</time>
      </trkpt>
      <trkpt lat="49.2093" lon="1.72552">
        <ele>138.57</ele>
        <time>2013-05-26T11:24:23Z</time>
      </trkpt>
      <trkpt lat="49.20931" lon="1.72547">
        <ele>137.61</ele>
        <time>2013-05-26T11:24:24Z</time>
      </trkpt>
      <trkpt lat="49.20931" lon="1.72542">
        <ele>138.57</ele>
        <time>2013-05-26T11:24:25Z</time>
      </trkpt>
      <trkpt lat="49.20934" lon="1.7253">
        <ele>137.13</ele>
        <time>2013-05-26T11:24:28Z</time>
      </trkpt>
      <trkpt lat="49.20934" lon="1.72526">
        <ele>139.05</ele>
        <time>2013-05-26T11:24:29Z</time>
      </trkpt>
      <trkpt lat="49.20934" lon="1.72522">
        <ele>137.13</ele>
        <time>2013-05-26T11:24:30Z</time>
      </trkpt>
      <trkpt lat="49.20934" lon="1.72517">
        <ele>138.57</ele>
        <time>2013-05-26T11:24:31Z</time>
      </trkpt>
      <trkpt lat="49.20932" lon="1.72514">
        <ele>137.61</ele>
        <time>2013-05-26T11:24:32Z</time>
      </trkpt>
      <trkpt lat="49.2093" lon="1.72509">
        <ele>137.61</ele>
        <time>2013-05-26T11:24:33Z</time>
      </trkpt>
      <trkpt lat="49.20927" lon="1.72504">
        <ele>137.61</ele>
        <time>2013-05-26T11:24:34Z</time>
      </trkpt>
      <trkpt lat="49.20908" lon="1.72476">
        <ele>136.64</ele>
        <time>2013-05-26T11:24:44Z</time>
      </trkpt>
      <trkpt lat="49.20905" lon="1.72472">
        <ele>135.2</ele>
        <time>2013-05-26T11:24:59Z</time>
      </trkpt>
      <trkpt lat="49.20916" lon="1.72437">
        <ele>136.64</ele>
        <time>2013-05-26T11:25:10Z</time>
      </trkpt>
      <trkpt lat="49.20925" lon="1.7241">
        <ele>134.72</ele>
        <time>2013-05-26T11:25:16Z</time>
      </trkpt>
      <trkpt lat="49.20949" lon="1.7234">
        <ele>135.2</ele>
        <time>2013-05-26T11:25:30Z</time>
      </trkpt>
      <trkpt lat="49.2097" lon="1.7226">
        <ele>133.76</ele>
        <time>2013-05-26T11:25:43Z</time>
      </trkpt>
      <trkpt lat="49.20975" lon="1.72239">
        <ele>133.76</ele>
        <time>2013-05-26T11:25:46Z</time>
      </trkpt>
      <trkpt lat="49.20977" lon="1.72232">
        <ele>133.76</ele>
        <time>2013-05-26T11:25:47Z</time>
      </trkpt>
      <trkpt lat="49.21" lon="1.72177">
        <ele>133.28</ele>
        <time>2013-05-26T11:25:55Z</time>
      </trkpt>
      <trkpt lat="49.21001" lon="1.72171">
        <ele>133.76</ele>
        <time>2013-05-26T11:25:56Z</time>
      </trkpt>
      <trkpt lat="49.21013" lon="1.721">
        <ele>132.32</ele>
        <time>2013-05-26T11:26:09Z</time>
      </trkpt>
      <trkpt lat="49.21021" lon="1.72066">
        <ele>132.8</ele>
        <time>2013-05-26T11:26:15Z</time>
      </trkpt>
      <trkpt lat="49.21024" lon="1.72045">
        <ele>131.84</ele>
        <time>2013-05-26T11:26:18Z</time>
      </trkpt>
      <trkpt lat="49.21024" lon="1.72038">
        <ele>131.84</ele>
        <time>2013-05-26T11:26:19Z</time>
      </trkpt>
      <trkpt lat="49.21024" lon="1.72031">
        <ele>131.84</ele>
        <time>2013-05-26T11:26:20Z</time>
      </trkpt>
      <trkpt lat="49.21025" lon="1.71964">
        <ele>130.4</ele>
        <time>2013-05-26T11:26:29Z</time>
      </trkpt>
      <trkpt lat="49.21027" lon="1.71846">
        <ele>128.95</ele>
        <time>2013-05-26T11:26:45Z</time>
      </trkpt>
      <trkpt lat="49.21024" lon="1.71792">
        <ele>128.95</ele>
        <time>2013-05-26T11:26:52Z</time>
      </trkpt>
      <trkpt lat="49.21018" lon="1.71693">
        <ele>127.99</ele>
        <time>2013-05-26T11:27:07Z</time>
      </trkpt>
      <trkpt lat="49.21018" lon="1.71653">
        <ele>127.99</ele>
        <time>2013-05-26T11:27:15Z</time>
      </trkpt>
      <trkpt lat="49.21016" lon="1.71651">
        <ele>127.99</ele>
        <time>2013-05-26T11:27:16Z</time>
      </trkpt>
      <trkpt lat="49.21013" lon="1.71649">
        <ele>128.47</ele>
        <time>2013-05-26T11:27:17Z</time>
      </trkpt>
      <trkpt lat="49.21009" lon="1.71648">
        <ele>127.03</ele>
        <time>2013-05-26T11:27:18Z</time>
      </trkpt>
      <trkpt lat="49.21005" lon="1.71647">
        <ele>127.03</ele>
        <time>2013-05-26T11:27:19Z</time>
      </trkpt>
      <trkpt lat="49.20981" lon="1.71643">
        <ele>124.63</ele>
        <time>2013-05-26T11:27:24Z</time>
      </trkpt>
      <trkpt lat="49.20961" lon="1.71639">
        <ele>121.26</ele>
        <time>2013-05-26T11:27:27Z</time>
      </trkpt>
      <trkpt lat="49.20947" lon="1.71636">
        <ele>119.82</ele>
        <time>2013-05-26T11:27:29Z</time>
      </trkpt>
      <trkpt lat="49.20933" lon="1.71633">
        <ele>117.42</ele>
        <time>2013-05-26T11:27:31Z</time>
      </trkpt>
      <trkpt lat="49.20916" lon="1.71629">
        <ele>115.5</ele>
        <time>2013-05-26T11:27:34Z</time>
      </trkpt>
      <trkpt lat="49.20895" lon="1.71621">
        <ele>111.65</ele>
        <time>2013-05-26T11:27:39Z</time>
      </trkpt>
      <trkpt lat="49.20869" lon="1.71579">
        <ele>110.21</ele>
        <time>2013-05-26T11:27:50Z</time>
      </trkpt>
      <trkpt lat="49.20865" lon="1.71557">
        <ele>108.77</ele>
        <time>2013-05-26T11:28:00Z</time>
      </trkpt>
      <trkpt lat="49.20861" lon="1.71548">
        <ele>108.29</ele>
        <time>2013-05-26T11:28:05Z</time>
      </trkpt>
      <trkpt lat="49.20859" lon="1.71547">
        <ele>108.29</ele>
        <time>2013-05-26T11:28:06Z</time>
      </trkpt>
      <trkpt lat="49.20858" lon="1.71547">
        <ele>108.29</ele>
        <time>2013-05-26T11:28:07Z</time>
      </trkpt>
      <trkpt lat="49.20832" lon="1.71548">
        <ele>105.88</ele>
        <time>2013-05-26T11:28:19Z</time>
      </trkpt>
      <trkpt lat="49.2081" lon="1.71552">
        <ele>104.44</ele>
        <time>2013-05-26T11:28:30Z</time>
      </trkpt>
      <trkpt lat="49.20783" lon="1.71546">
        <ele>103</ele>
        <time>2013-05-26T11:28:42Z</time>
      </trkpt>
      <trkpt lat="49.20746" lon="1.71538">
        <ele>103</ele>
        <time>2013-05-26T11:28:55Z</time>
      </trkpt>
      <trkpt lat="49.20745" lon="1.71536">
        <ele>102.04</ele>
        <time>2013-05-26T11:28:56Z</time>
      </trkpt>
      <trkpt lat="49.20742" lon="1.71529">
        <ele>102.04</ele>
        <time>2013-05-26T11:28:59Z</time>
      </trkpt>
      <trkpt lat="49.20743" lon="1.71483">
        <ele>103</ele>
        <time>2013-05-26T11:29:12Z</time>
      </trkpt>
      <trkpt lat="49.20747" lon="1.71457">
        <ele>103</ele>
        <time>2013-05-26T11:29:20Z</time>
      </trkpt>
      <trkpt lat="49.20753" lon="1.7141">
        <ele>102.04</ele>
        <time>2013-05-26T11:29:34Z</time>
      </trkpt>
      <trkpt lat="49.20757" lon="1.71343">
        <ele>103.48</ele>
        <time>2013-05-26T11:29:49Z</time>
      </trkpt>
      <trkpt lat="49.20762" lon="1.71258">
        <ele>103.48</ele>
        <time>2013-05-26T11:30:07Z</time>
      </trkpt>
      <trkpt lat="49.20765" lon="1.71233">
        <ele>103.48</ele>
        <time>2013-05-26T11:30:11Z</time>
      </trkpt>
      <trkpt lat="49.20766" lon="1.71227">
        <ele>103.48</ele>
        <time>2013-05-26T11:30:12Z</time>
      </trkpt>
      <trkpt lat="49.20766" lon="1.7122">
        <ele>103.48</ele>
        <time>2013-05-26T11:30:13Z</time>
      </trkpt>
      <trkpt lat="49.20767" lon="1.71214">
        <ele>103.48</ele>
        <time>2013-05-26T11:30:14Z</time>
      </trkpt>
      <trkpt lat="49.20767" lon="1.71207">
        <ele>103.48</ele>
        <time>2013-05-26T11:30:15Z</time>
      </trkpt>
      <trkpt lat="49.20768" lon="1.71194">
        <ele>103.48</ele>
        <time>2013-05-26T11:30:17Z</time>
      </trkpt>
      <trkpt lat="49.20772" lon="1.71105">
        <ele>104.92</ele>
        <time>2013-05-26T11:30:32Z</time>
      </trkpt>
      <trkpt lat="49.20783" lon="1.71038">
        <ele>105.88</ele>
        <time>2013-05-26T11:30:45Z</time>
      </trkpt>
      <trkpt lat="49.20798" lon="1.7095">
        <ele>106.84</ele>
        <time>2013-05-26T11:31:01Z</time>
      </trkpt>
      <trkpt lat="49.20803" lon="1.70919">
        <ele>105.88</ele>
        <time>2013-05-26T11:31:06Z</time>
      </trkpt>
      <trkpt lat="49.20818" lon="1.70814">
        <ele>106.84</ele>
        <time>2013-05-26T11:31:24Z</time>
      </trkpt>
      <trkpt lat="49.20822" lon="1.70796">
        <ele>106.84</ele>
        <time>2013-05-26T11:31:27Z</time>
      </trkpt>
      <trkpt lat="49.20829" lon="1.7076">
        <ele>106.84</ele>
        <time>2013-05-26T11:31:33Z</time>
      </trkpt>
      <trkpt lat="49.20829" lon="1.70754">
        <ele>108.29</ele>
        <time>2013-05-26T11:31:34Z</time>
      </trkpt>
      <trkpt lat="49.2083" lon="1.70748">
        <ele>107.32</ele>
        <time>2013-05-26T11:31:35Z</time>
      </trkpt>
      <trkpt lat="49.20837" lon="1.70707">
        <ele>108.29</ele>
        <time>2013-05-26T11:31:47Z</time>
      </trkpt>
      <trkpt lat="49.20838" lon="1.70702">
        <ele>107.81</ele>
        <time>2013-05-26T11:31:57Z</time>
      </trkpt>
      <trkpt lat="49.20838" lon="1.70702">
        <ele>107.32</ele>
        <time>2013-05-26T11:32:14Z</time>
      </trkpt>
      <trkpt lat="49.20838" lon="1.70702">
        <ele>106.84</ele>
        <time>2013-05-26T11:32:56Z</time>
      </trkpt>
      <trkpt lat="49.20838" lon="1.70702">
        <ele>107.81</ele>
        <time>2013-05-26T11:33:42Z</time>
      </trkpt>
      <trkpt lat="49.20838" lon="1.70702">
        <ele>107.32</ele>
        <time>2013-05-26T11:34:24Z</time>
      </trkpt>
      <trkpt lat="49.20838" lon="1.70701">
        <ele>108.77</ele>
        <time>2013-05-26T11:35:01Z</time>
      </trkpt>
      <trkpt lat="49.20838" lon="1.70701">
        <ele>108.77</ele>
        <time>2013-05-26T11:35:23Z</time>
      </trkpt>
      <trkpt lat="49.20838" lon="1.707">
        <ele>107.81</ele>
        <time>2013-05-26T11:35:31Z</time>
      </trkpt>
      <trkpt lat="49.20838" lon="1.70698">
        <ele>107.32</ele>
        <time>2013-05-26T11:35:32Z</time>
      </trkpt>
      <trkpt lat="49.20839" lon="1.70695">
        <ele>107.81</ele>
        <time>2013-05-26T11:35:33Z</time>
      </trkpt>
      <trkpt lat="49.20845" lon="1.70637">
        <ele>108.29</ele>
        <time>2013-05-26T11:35:45Z</time>
      </trkpt>
      <trkpt lat="49.20847" lon="1.70547">
        <ele>108.29</ele>
        <time>2013-05-26T11:36:01Z</time>
      </trkpt>
      <trkpt lat="49.20849" lon="1.70467">
        <ele>108.29</ele>
        <time>2013-05-26T11:36:14Z</time>
      </trkpt>
      <trkpt lat="49.20875" lon="1.70356">
        <ele>107.81</ele>
        <time>2013-05-26T11:36:32Z</time>
      </trkpt>
      <trkpt lat="49.20918" lon="1.70269">
        <ele>105.88</ele>
        <time>2013-05-26T11:36:47Z</time>
      </trkpt>
      <trkpt lat="49.20995" lon="1.70184">
        <ele>105.4</ele>
        <time>2013-05-26T11:37:07Z</time>
      </trkpt>
      <trkpt lat="49.21005" lon="1.70171">
        <ele>105.88</ele>
        <time>2013-05-26T11:37:10Z</time>
      </trkpt>
      <trkpt lat="49.21038" lon="1.7016">
        <ele>106.36</ele>
        <time>2013-05-26T11:37:21Z</time>
      </trkpt>
      <trkpt lat="49.21042" lon="1.7017">
        <ele>105.88</ele>
        <time>2013-05-26T11:37:23Z</time>
      </trkpt>
      <trkpt lat="49.2107" lon="1.70241">
        <ele>107.81</ele>
        <time>2013-05-26T11:37:38Z</time>
      </trkpt>
      <trkpt lat="49.21109" lon="1.70232">
        <ele>107.32</ele>
        <time>2013-05-26T11:37:50Z</time>
      </trkpt>
      <trkpt lat="49.21173" lon="1.70207">
        <ele>108.29</ele>
        <time>2013-05-26T11:38:07Z</time>
      </trkpt>
      <trkpt lat="49.21222" lon="1.7017">
        <ele>108.29</ele>
        <time>2013-05-26T11:38:21Z</time>
      </trkpt>
      <trkpt lat="49.21281" lon="1.70088">
        <ele>109.25</ele>
        <time>2013-05-26T11:38:40Z</time>
      </trkpt>
      <trkpt lat="49.21343" lon="1.7">
        <ele>109.73</ele>
        <time>2013-05-26T11:39:00Z</time>
      </trkpt>
      <trkpt lat="49.21403" lon="1.69919">
        <ele>109.73</ele>
        <time>2013-05-26T11:39:20Z</time>
      </trkpt>
      <trkpt lat="49.21418" lon="1.69893">
        <ele>110.69</ele>
        <time>2013-05-26T11:39:32Z</time>
      </trkpt>
      <trkpt lat="49.21419" lon="1.69887">
        <ele>110.69</ele>
        <time>2013-05-26T11:39:43Z</time>
      </trkpt>
      <trkpt lat="49.21419" lon="1.69886">
        <ele>111.17</ele>
        <time>2013-05-26T11:39:56Z</time>
      </trkpt>
      <trkpt lat="49.21419" lon="1.69886">
        <ele>109.73</ele>
        <time>2013-05-26T11:40:15Z</time>
      </trkpt>
      <trkpt lat="49.21419" lon="1.69886">
        <ele>110.21</ele>
        <time>2013-05-26T11:40:53Z</time>
      </trkpt>
      <trkpt lat="49.21418" lon="1.69885">
        <ele>109.25</ele>
        <time>2013-05-26T11:41:34Z</time>
      </trkpt>
      <trkpt lat="49.21418" lon="1.69885">
        <ele>109.73</ele>
        <time>2013-05-26T11:42:13Z</time>
      </trkpt>
      <trkpt lat="49.21417" lon="1.69886">
        <ele>109.73</ele>
        <time>2013-05-26T11:42:35Z</time>
      </trkpt>
    </trkseg>
  </trk>
</gpx>